<?xml version='1.0' encoding='UTF-8'?><gpx version="1.1" creator="JPX - https://github.com/jenetics/jpx" xmlns="http://www.topografix.com/GPX/1/1"><trk><trkseg><trkpt lat="45.53537326730118" lon="11.291845511474827"><ele>170.0</ele><time>2026-05-02T10:46:54.999Z</time></trkpt><trkpt lat="45.535302934010666" lon="11.291941432993292"><ele>170.0</ele><time>2026-05-02T10:46:56.999Z</time></trkpt><trkpt lat="45.53521077748834" lon="11.292064892621024"><ele>170.0</ele><time>2026-05-02T10:46:58.999Z</time></trkpt><trkpt lat="45.535162710223325" lon="11.292135409360197"><ele>170.0</ele><time>2026-05-02T10:46:59.999Z</time></trkpt><trkpt lat="45.535111373610505" lon="11.292202550309899"><ele>170.0</ele><time>2026-05-02T10:47:00.999Z</time></trkpt><trkpt lat="45.535058796470445" lon="11.292269870880201"><ele>170.0</ele><time>2026-05-02T10:47:01.999Z</time></trkpt><trkpt lat="45.534977429020714" lon="11.2923798834665"><ele>167.83333333333331</ele><time>2026-05-02T10:47:03.999Z</time></trkpt><trkpt lat="45.53488585294485" lon="11.292499289665102"><ele>165.66666666666666</ele><time>2026-05-02T10:47:05.999Z</time></trkpt><trkpt lat="45.534834380938264" lon="11.292571996069231"><ele>163.5</ele><time>2026-05-02T10:47:06.999Z</time></trkpt><trkpt lat="45.534781027239426" lon="11.29264991906993"><ele>161.33333333333334</ele><time>2026-05-02T10:47:07.999Z</time></trkpt><trkpt lat="45.534725420016386" lon="11.292729596451242"><ele>159.16666666666669</ele><time>2026-05-02T10:47:08.999Z</time></trkpt><trkpt lat="45.53466780616691" lon="11.292805530009964"><ele>157.0</ele><time>2026-05-02T10:47:09.999Z</time></trkpt><trkpt lat="45.53461360384536" lon="11.292887086101176"><ele>157.0</ele><time>2026-05-02T10:47:10.999Z</time></trkpt><trkpt lat="45.53455855291119" lon="11.292949691575886"><ele>157.0</ele><time>2026-05-02T10:47:11.999Z</time></trkpt><trkpt lat="45.534653438481" lon="11.293181650120792"><ele>157.0</ele><time>2026-05-02T10:47:13.999Z</time></trkpt><trkpt lat="45.53471957069536" lon="11.293257749270962"><ele>157.0</ele><time>2026-05-02T10:47:14.999Z</time></trkpt><trkpt lat="45.53479375095287" lon="11.293319606873304"><ele>157.0</ele><time>2026-05-02T10:47:15.999Z</time></trkpt><trkpt lat="45.534873879188645" lon="11.293384473645185"><ele>156.6</ele><time>2026-05-02T10:47:16.999Z</time></trkpt><trkpt lat="45.53495879814317" lon="11.29345718016075"><ele>156.2</ele><time>2026-05-02T10:47:17.999Z</time></trkpt><trkpt lat="45.53505095354291" lon="11.29352915567906"><ele>155.8</ele><time>2026-05-02T10:47:18.998Z</time></trkpt><trkpt lat="45.535147784076216" lon="11.293605832042017"><ele>155.4</ele><time>2026-05-02T10:47:19.998Z</time></trkpt><trkpt lat="45.535247000620366" lon="11.293685028209703"><ele>155.0</ele><time>2026-05-02T10:47:20.998Z</time></trkpt><trkpt lat="45.535346719699405" lon="11.293766439705289"><ele>155.0</ele><time>2026-05-02T10:47:21.998Z</time></trkpt><trkpt lat="45.53544321643274" lon="11.293852648380248"><ele>155.0</ele><time>2026-05-02T10:47:22.998Z</time></trkpt><trkpt lat="45.53554212710906" lon="11.29393099802409"><ele>155.0</ele><time>2026-05-02T10:47:23.998Z</time></trkpt><trkpt lat="45.53563700002845" lon="11.294000243185442"><ele>155.0</ele><time>2026-05-02T10:47:24.998Z</time></trkpt><trkpt lat="45.535718042651816" lon="11.294069493414108"><ele>155.0</ele><time>2026-05-02T10:47:25.998Z</time></trkpt><trkpt lat="45.535790175409815" lon="11.294127599202332"><ele>155.0</ele><time>2026-05-02T10:47:26.998Z</time></trkpt><trkpt lat="45.53585346235659" lon="11.294175530722422"><ele>155.0</ele><time>2026-05-02T10:47:27.998Z</time></trkpt><trkpt lat="45.5359338332598" lon="11.294233917078706"><ele>155.0</ele><time>2026-05-02T10:47:29.998Z</time></trkpt><trkpt lat="45.53600478359348" lon="11.294289088226243"><ele>155.0</ele><time>2026-05-02T10:47:33.998Z</time></trkpt><trkpt lat="45.53607685861397" lon="11.294142684361605"><ele>155.0</ele><time>2026-05-02T10:47:34.998Z</time></trkpt><trkpt lat="45.53612065419559" lon="11.294037059674498"><ele>155.0</ele><time>2026-05-02T10:47:35.998Z</time></trkpt><trkpt lat="45.53617059560785" lon="11.29392650623573"><ele>155.0</ele><time>2026-05-02T10:47:36.998Z</time></trkpt><trkpt lat="45.536225350934906" lon="11.293808921454504"><ele>155.0</ele><time>2026-05-02T10:47:37.998Z</time></trkpt><trkpt lat="45.53627683334659" lon="11.2936653082891"><ele>155.0</ele><time>2026-05-02T10:47:38.998Z</time></trkpt><trkpt lat="45.53633572614004" lon="11.293519984924668"><ele>155.0</ele><time>2026-05-02T10:47:39.998Z</time></trkpt><trkpt lat="45.53639683444162" lon="11.293365123622399"><ele>155.0</ele><time>2026-05-02T10:47:40.998Z</time></trkpt><trkpt lat="45.53645755102713" lon="11.293218934279183"><ele>155.0</ele><time>2026-05-02T10:47:41.998Z</time></trkpt><trkpt lat="45.53651756869467" lon="11.293087085999138"><ele>155.0</ele><time>2026-05-02T10:47:42.998Z</time></trkpt><trkpt lat="45.53657320630703" lon="11.292954495257328"><ele>155.0</ele><time>2026-05-02T10:47:43.998Z</time></trkpt><trkpt lat="45.5366252892417" lon="11.292829289521293"><ele>155.0</ele><time>2026-05-02T10:47:44.998Z</time></trkpt><trkpt lat="45.536670030932996" lon="11.29272159240772"><ele>154.83333333333331</ele><time>2026-05-02T10:47:45.998Z</time></trkpt><trkpt lat="45.53671126020115" lon="11.292629740768653"><ele>154.66666666666666</ele><time>2026-05-02T10:47:46.998Z</time></trkpt><trkpt lat="45.53675091802108" lon="11.292547396792653"><ele>154.5</ele><time>2026-05-02T10:47:47.998Z</time></trkpt><trkpt lat="45.53680020138364" lon="11.292478494050762"><ele>154.33333333333334</ele><time>2026-05-02T10:47:48.998Z</time></trkpt><trkpt lat="45.53687224058793" lon="11.292433238260042"><ele>154.16666666666669</ele><time>2026-05-02T10:47:49.998Z</time></trkpt><trkpt lat="45.53695196469254" lon="11.292419259080162"><ele>154.0</ele><time>2026-05-02T10:47:50.998Z</time></trkpt><trkpt lat="45.53703456319377" lon="11.292407034252497"><ele>154.4</ele><time>2026-05-02T10:47:51.998Z</time></trkpt><trkpt lat="45.53712032603916" lon="11.292382026692072"><ele>154.8</ele><time>2026-05-02T10:47:52.998Z</time></trkpt><trkpt lat="45.537214372428544" lon="11.292356221835155"><ele>155.2</ele><time>2026-05-02T10:47:53.998Z</time></trkpt><trkpt lat="45.537313621677846" lon="11.2923698162593"><ele>155.6</ele><time>2026-05-02T10:47:54.998Z</time></trkpt><trkpt lat="45.53740488095608" lon="11.292417732823687"><ele>156.0</ele><time>2026-05-02T10:47:55.998Z</time></trkpt><trkpt lat="45.537488271948824" lon="11.292494975955329"><ele>156.0</ele><time>2026-05-02T10:47:56.998Z</time></trkpt><trkpt lat="45.537563796138436" lon="11.292579923031912"><ele>156.0</ele><time>2026-05-02T10:47:57.998Z</time></trkpt><trkpt lat="45.537621268676624" lon="11.292653895527762"><ele>156.0</ele><time>2026-05-02T10:47:58.998Z</time></trkpt><trkpt lat="45.53767232033876" lon="11.292706965524065"><ele>156.0</ele><time>2026-05-02T10:47:59.998Z</time></trkpt><trkpt lat="45.53777098704181" lon="11.292812782282192"><ele>156.0</ele><time>2026-05-02T10:48:01.997Z</time></trkpt><trkpt lat="45.53784434265238" lon="11.29291812855805"><ele>156.16666666666666</ele><time>2026-05-02T10:48:03.997Z</time></trkpt><trkpt lat="45.53791626480197" lon="11.292980198657075"><ele>156.33333333333334</ele><time>2026-05-02T10:48:06.997Z</time></trkpt><trkpt lat="45.537991106482224" lon="11.293060837089149"><ele>156.5</ele><time>2026-05-02T10:48:09.999Z</time></trkpt><trkpt lat="45.538060716140805" lon="11.293110114106014"><ele>156.66666666666669</ele><time>2026-05-02T10:48:13.999Z</time></trkpt><trkpt lat="45.53801987473685" lon="11.29325184205486"><ele>156.83333333333334</ele><time>2026-05-02T10:48:14.999Z</time></trkpt><trkpt lat="45.53797739611047" lon="11.293345676763636"><ele>157.0</ele><time>2026-05-02T10:48:15.999Z</time></trkpt><trkpt lat="45.537934431196696" lon="11.293446619529682"><ele>156.79999999999998</ele><time>2026-05-02T10:48:16.999Z</time></trkpt><trkpt lat="45.53789564146034" lon="11.293566219312524"><ele>156.6</ele><time>2026-05-02T10:48:17.999Z</time></trkpt><trkpt lat="45.537855476435745" lon="11.293691601313688"><ele>156.39999999999998</ele><time>2026-05-02T10:48:18.999Z</time></trkpt><trkpt lat="45.537820108058014" lon="11.293816816164181"><ele>156.2</ele><time>2026-05-02T10:48:19.999Z</time></trkpt><trkpt lat="45.53779257110326" lon="11.293940036460262"><ele>156.0</ele><time>2026-05-02T10:48:20.999Z</time></trkpt><trkpt lat="45.537762817317194" lon="11.294050114818763"><ele>156.0</ele><time>2026-05-02T10:48:21.999Z</time></trkpt><trkpt lat="45.5377307995565" lon="11.294142888081678"><ele>156.0</ele><time>2026-05-02T10:48:22.999Z</time></trkpt><trkpt lat="45.5376887188699" lon="11.29421749427646"><ele>156.0</ele><time>2026-05-02T10:48:23.999Z</time></trkpt><trkpt lat="45.53775343131851" lon="11.294385250678939"><ele>156.0</ele><time>2026-05-02T10:48:25.999Z</time></trkpt><trkpt lat="45.537812128431526" lon="11.294435525275558"><ele>156.0</ele><time>2026-05-02T10:48:26.999Z</time></trkpt><trkpt lat="45.5378788820669" lon="11.294477871397032"><ele>156.0</ele><time>2026-05-02T10:48:27.999Z</time></trkpt><trkpt lat="45.537948338398635" lon="11.294534519302703"><ele>156.0</ele><time>2026-05-02T10:48:28.999Z</time></trkpt><trkpt lat="45.53802497857129" lon="11.294598251521291"><ele>156.0</ele><time>2026-05-02T10:48:29.999Z</time></trkpt><trkpt lat="45.53810849134385" lon="11.29466014477531"><ele>156.0</ele><time>2026-05-02T10:48:30.999Z</time></trkpt><trkpt lat="45.53819504374313" lon="11.294724438827474"><ele>156.0</ele><time>2026-05-02T10:48:31.999Z</time></trkpt><trkpt lat="45.53827845519531" lon="11.294795738452825"><ele>156.0</ele><time>2026-05-02T10:48:32.999Z</time></trkpt><trkpt lat="45.538366338645325" lon="11.294872104448276"><ele>156.0</ele><time>2026-05-02T10:48:33.999Z</time></trkpt><trkpt lat="45.53844784896018" lon="11.294979546103303"><ele>156.0</ele><time>2026-05-02T10:48:34.999Z</time></trkpt><trkpt lat="45.53854044845079" lon="11.295064251950752"><ele>156.0</ele><time>2026-05-02T10:48:35.999Z</time></trkpt><trkpt lat="45.538619376519456" lon="11.29517779191645"><ele>156.0</ele><time>2026-05-02T10:48:36.999Z</time></trkpt><trkpt lat="45.538700468540604" lon="11.29529058471512"><ele>156.0</ele><time>2026-05-02T10:48:37.999Z</time></trkpt><trkpt lat="45.5387831102735" lon="11.295405906422072"><ele>157.2</ele><time>2026-05-02T10:48:38.999Z</time></trkpt><trkpt lat="45.5388642570428" lon="11.295516803542798"><ele>158.39999999999998</ele><time>2026-05-02T10:48:39.999Z</time></trkpt><trkpt lat="45.53892403594982" lon="11.295653168160182"><ele>159.6</ele><time>2026-05-02T10:48:40.999Z</time></trkpt><trkpt lat="45.53900485398873" lon="11.295766225758044"><ele>160.79999999999998</ele><time>2026-05-02T10:48:41.999Z</time></trkpt><trkpt lat="45.53906682748665" lon="11.295888404342458"><ele>162.0</ele><time>2026-05-02T10:48:42.999Z</time></trkpt><trkpt lat="45.53913115939278" lon="11.296009915729048"><ele>162.0</ele><time>2026-05-02T10:48:43.999Z</time></trkpt><trkpt lat="45.53919021652205" lon="11.29613303464268"><ele>162.0</ele><time>2026-05-02T10:48:44.999Z</time></trkpt><trkpt lat="45.539233281170794" lon="11.296272042445402"><ele>162.0</ele><time>2026-05-02T10:48:45.999Z</time></trkpt><trkpt lat="45.53928527605382" lon="11.296389693352836"><ele>162.0</ele><time>2026-05-02T10:48:46.999Z</time></trkpt><trkpt lat="45.539339252231905" lon="11.296479308366013"><ele>162.0</ele><time>2026-05-02T10:48:47.999Z</time></trkpt><trkpt lat="45.53937609531987" lon="11.296569377644941"><ele>162.0</ele><time>2026-05-02T10:48:48.999Z</time></trkpt><trkpt lat="45.53941426805659" lon="11.296666567164326"><ele>162.0</ele><time>2026-05-02T10:48:49.999Z</time></trkpt><trkpt lat="45.53946788424144" lon="11.296768991000624"><ele>162.0</ele><time>2026-05-02T10:48:50.999Z</time></trkpt><trkpt lat="45.53953929432076" lon="11.296865827396221"><ele>162.0</ele><time>2026-05-02T10:48:51.999Z</time></trkpt><trkpt lat="45.53962135075332" lon="11.296962363503887"><ele>162.0</ele><time>2026-05-02T10:48:52.999Z</time></trkpt><trkpt lat="45.53970866645096" lon="11.297064145636543"><ele>164.25</ele><time>2026-05-02T10:48:53.999Z</time></trkpt><trkpt lat="45.539797166069334" lon="11.297174138462832"><ele>166.5</ele><time>2026-05-02T10:48:54.999Z</time></trkpt><trkpt lat="45.53988489029288" lon="11.297294677114191"><ele>168.75</ele><time>2026-05-02T10:48:55.999Z</time></trkpt><trkpt lat="45.53997622480629" lon="11.297419215384249"><ele>171.0</ele><time>2026-05-02T10:48:56.999Z</time></trkpt><trkpt lat="45.54007315137912" lon="11.297549467516852"><ele>171.0</ele><time>2026-05-02T10:48:57.999Z</time></trkpt><trkpt lat="45.54016892752286" lon="11.297680216924562"><ele>171.0</ele><time>2026-05-02T10:48:58.999Z</time></trkpt><trkpt lat="45.540257241022815" lon="11.297805162045375"><ele>171.0</ele><time>2026-05-02T10:48:59.999Z</time></trkpt><trkpt lat="45.54031471229214" lon="11.297931445695717"><ele>171.0</ele><time>2026-05-02T10:49:00.999Z</time></trkpt><trkpt lat="45.54036183958505" lon="11.298023770929106"><ele>171.0</ele><time>2026-05-02T10:49:01.999Z</time></trkpt><trkpt lat="45.54033413869698" lon="11.298148014333739"><ele>172.0</ele><time>2026-05-02T10:49:02.999Z</time></trkpt><trkpt lat="45.540360742324225" lon="11.298279791392739"><ele>173.0</ele><time>2026-05-02T10:49:03.999Z</time></trkpt><trkpt lat="45.54035605875785" lon="11.298425624121613"><ele>174.0</ele><time>2026-05-02T10:49:04.999Z</time></trkpt><trkpt lat="45.54035587980001" lon="11.298583552330788"><ele>175.0</ele><time>2026-05-02T10:49:05.999Z</time></trkpt><trkpt lat="45.540355349010404" lon="11.298751372225189"><ele>176.0</ele><time>2026-05-02T10:49:06.999Z</time></trkpt><trkpt lat="45.54035315586894" lon="11.298927304054477"><ele>177.0</ele><time>2026-05-02T10:49:07.999Z</time></trkpt><trkpt lat="45.540354239399456" lon="11.299109128663037"><ele>178.0</ele><time>2026-05-02T10:49:08.999Z</time></trkpt><trkpt lat="45.54037419097795" lon="11.2992871529478"><ele>179.0</ele><time>2026-05-02T10:49:09.999Z</time></trkpt><trkpt lat="45.54040552209112" lon="11.299470983039456"><ele>180.0</ele><time>2026-05-02T10:49:10.999Z</time></trkpt><trkpt lat="45.540436180734254" lon="11.299635466541122"><ele>182.75</ele><time>2026-05-02T10:49:11.999Z</time></trkpt><trkpt lat="45.54046708198915" lon="11.299808455390089"><ele>185.5</ele><time>2026-05-02T10:49:12.999Z</time></trkpt><trkpt lat="45.540503410390954" lon="11.299994773339069"><ele>188.25</ele><time>2026-05-02T10:49:13.999Z</time></trkpt><trkpt lat="45.54053686703825" lon="11.300191021403062"><ele>191.0</ele><time>2026-05-02T10:49:14.999Z</time></trkpt><trkpt lat="45.540567668433546" lon="11.300391692327974"><ele>192.0</ele><time>2026-05-02T10:49:15.999Z</time></trkpt><trkpt lat="45.540605638868456" lon="11.300590030478254"><ele>193.0</ele><time>2026-05-02T10:49:16.999Z</time></trkpt><trkpt lat="45.54066004782914" lon="11.30077462593072"><ele>194.0</ele><time>2026-05-02T10:49:17.999Z</time></trkpt><trkpt lat="45.540741875787546" lon="11.30093699130059"><ele>195.0</ele><time>2026-05-02T10:49:18.999Z</time></trkpt><trkpt lat="45.540831704524784" lon="11.30107765570419"><ele>195.0</ele><time>2026-05-02T10:49:19.999Z</time></trkpt><trkpt lat="45.540892687626844" lon="11.301244140306377"><ele>195.0</ele><time>2026-05-02T10:49:20.999Z</time></trkpt><trkpt lat="45.54094483732734" lon="11.301415948843445"><ele>195.0</ele><time>2026-05-02T10:49:21.998Z</time></trkpt><trkpt lat="45.54097042799641" lon="11.301592707777646"><ele>195.0</ele><time>2026-05-02T10:49:22.998Z</time></trkpt><trkpt lat="45.54096008702017" lon="11.301774115664061"><ele>197.0</ele><time>2026-05-02T10:49:23.998Z</time></trkpt><trkpt lat="45.54095468593969" lon="11.301958415439408"><ele>199.0</ele><time>2026-05-02T10:49:24.998Z</time></trkpt><trkpt lat="45.54094748648272" lon="11.302152542501148"><ele>201.0</ele><time>2026-05-02T10:49:25.998Z</time></trkpt><trkpt lat="45.54094913650984" lon="11.302343385340047"><ele>203.0</ele><time>2026-05-02T10:49:26.998Z</time></trkpt><trkpt lat="45.54093734931115" lon="11.302534439986216"><ele>204.25</ele><time>2026-05-02T10:49:27.998Z</time></trkpt><trkpt lat="45.540914800867455" lon="11.302722414892326"><ele>205.5</ele><time>2026-05-02T10:49:28.998Z</time></trkpt><trkpt lat="45.540884578642284" lon="11.302902941021047"><ele>206.75</ele><time>2026-05-02T10:49:29.998Z</time></trkpt><trkpt lat="45.54085738676644" lon="11.303073959256233"><ele>208.0</ele><time>2026-05-02T10:49:30.998Z</time></trkpt><trkpt lat="45.5408092628861" lon="11.303216418594683"><ele>211.0</ele><time>2026-05-02T10:49:31.998Z</time></trkpt><trkpt lat="45.54076476263944" lon="11.30334809545694"><ele>214.0</ele><time>2026-05-02T10:49:32.998Z</time></trkpt><trkpt lat="45.54073733978168" lon="11.30347701631404"><ele>217.0</ele><time>2026-05-02T10:49:33.998Z</time></trkpt><trkpt lat="45.5406983712607" lon="11.303564863468464"><ele>220.0</ele><time>2026-05-02T10:49:34.998Z</time></trkpt><trkpt lat="45.54066585692729" lon="11.303660792870893"><ele>223.0</ele><time>2026-05-02T10:49:36.998Z</time></trkpt><trkpt lat="45.5407710017507" lon="11.303756773349745"><ele>223.0</ele><time>2026-05-02T10:49:38.998Z</time></trkpt><trkpt lat="45.54083963969713" lon="11.303799161766959"><ele>223.0</ele><time>2026-05-02T10:49:39.998Z</time></trkpt><trkpt lat="45.540921005179165" lon="11.303875890319912"><ele>223.0</ele><time>2026-05-02T10:49:40.998Z</time></trkpt><trkpt lat="45.54099553459264" lon="11.303968452368233"><ele>223.0</ele><time>2026-05-02T10:49:41.998Z</time></trkpt><trkpt lat="45.54106651855444" lon="11.304085778993597"><ele>223.0</ele><time>2026-05-02T10:49:42.998Z</time></trkpt><trkpt lat="45.54113893213115" lon="11.304209710561906"><ele>226.4</ele><time>2026-05-02T10:49:43.998Z</time></trkpt><trkpt lat="45.54121865644244" lon="11.304322353096133"><ele>229.8</ele><time>2026-05-02T10:49:44.998Z</time></trkpt><trkpt lat="45.541319038535356" lon="11.304413811825139"><ele>233.2</ele><time>2026-05-02T10:49:45.998Z</time></trkpt><trkpt lat="45.541386870003286" lon="11.304503065043175"><ele>236.6</ele><time>2026-05-02T10:49:46.998Z</time></trkpt><trkpt lat="45.54145058057043" lon="11.304572439333027"><ele>240.0</ele><time>2026-05-02T10:49:47.998Z</time></trkpt><trkpt lat="45.54147148829338" lon="11.304677347791356"><ele>241.0</ele><time>2026-05-02T10:49:48.998Z</time></trkpt><trkpt lat="45.54146104848292" lon="11.30478895042905"><ele>242.0</ele><time>2026-05-02T10:49:49.998Z</time></trkpt><trkpt lat="45.54139638892809" lon="11.304880462140224"><ele>243.0</ele><time>2026-05-02T10:49:50.998Z</time></trkpt><trkpt lat="45.5413628090094" lon="11.304996057034602"><ele>244.0</ele><time>2026-05-02T10:49:51.998Z</time></trkpt><trkpt lat="45.54134464467674" lon="11.305110174180635"><ele>245.0</ele><time>2026-05-02T10:49:52.998Z</time></trkpt><trkpt lat="45.54136562266071" lon="11.305203211372385"><ele>246.0</ele><time>2026-05-02T10:49:53.998Z</time></trkpt><trkpt lat="45.54143157597158" lon="11.30526261705898"><ele>246.0</ele><time>2026-05-02T10:49:54.998Z</time></trkpt><trkpt lat="45.54151125462479" lon="11.30525719775691"><ele>246.00000000000003</ele><time>2026-05-02T10:49:55.998Z</time></trkpt><trkpt lat="45.5415978277327" lon="11.305242064533063"><ele>246.00000000000003</ele><time>2026-05-02T10:49:56.998Z</time></trkpt><trkpt lat="45.5416886949776" lon="11.305235979641857"><ele>246.0</ele><time>2026-05-02T10:49:57.998Z</time></trkpt><trkpt lat="45.54178560760036" lon="11.305246301547236"><ele>246.0</ele><time>2026-05-02T10:49:58.998Z</time></trkpt><trkpt lat="45.5418872219399" lon="11.305272963662883"><ele>246.0</ele><time>2026-05-02T10:49:59.998Z</time></trkpt><trkpt lat="45.541984802868896" lon="11.30529371985409"><ele>246.00000000000003</ele><time>2026-05-02T10:50:00.998Z</time></trkpt><trkpt lat="45.54207778954378" lon="11.30533124847761"><ele>246.00000000000003</ele><time>2026-05-02T10:50:01.998Z</time></trkpt><trkpt lat="45.54215690056279" lon="11.305386237891167"><ele>246.0</ele><time>2026-05-02T10:50:02.998Z</time></trkpt><trkpt lat="45.54222774391527" lon="11.305459180725476"><ele>246.0</ele><time>2026-05-02T10:50:03.998Z</time></trkpt><trkpt lat="45.54227567366953" lon="11.305564878895737"><ele>252.0</ele><time>2026-05-02T10:50:04.998Z</time></trkpt><trkpt lat="45.542299822912476" lon="11.305700697663472"><ele>258.0</ele><time>2026-05-02T10:50:05.998Z</time></trkpt><trkpt lat="45.54229618258156" lon="11.305839244690608"><ele>264.0</ele><time>2026-05-02T10:50:06.998Z</time></trkpt><trkpt lat="45.54227803810102" lon="11.30597993379231"><ele>270.0</ele><time>2026-05-02T10:50:07.998Z</time></trkpt><trkpt lat="45.54227217316347" lon="11.306119101276908"><ele>276.0</ele><time>2026-05-02T10:50:08.998Z</time></trkpt><trkpt lat="45.542282051649764" lon="11.306256828091291"><ele>276.0</ele><time>2026-05-02T10:50:09.998Z</time></trkpt><trkpt lat="45.54231509850586" lon="11.30638439396326"><ele>276.0</ele><time>2026-05-02T10:50:10.998Z</time></trkpt><trkpt lat="45.54236501794376" lon="11.306488331484596"><ele>276.0</ele><time>2026-05-02T10:50:11.998Z</time></trkpt><trkpt lat="45.5424282393012" lon="11.30657476084735"><ele>276.0</ele><time>2026-05-02T10:50:12.998Z</time></trkpt><trkpt lat="45.542496668111525" lon="11.306638364314276"><ele>276.0</ele><time>2026-05-02T10:50:13.998Z</time></trkpt><trkpt lat="45.5425615099688" lon="11.306705474530052"><ele>276.0</ele><time>2026-05-02T10:50:14.999Z</time></trkpt><trkpt lat="45.542623602846035" lon="11.306784070942326"><ele>276.8</ele><time>2026-05-02T10:50:15.999Z</time></trkpt><trkpt lat="45.54268928070001" lon="11.30687807390529"><ele>277.6</ele><time>2026-05-02T10:50:16.999Z</time></trkpt><trkpt lat="45.542744107935604" lon="11.306993125009098"><ele>278.4</ele><time>2026-05-02T10:50:17.999Z</time></trkpt><trkpt lat="45.54279088132234" lon="11.307110439051671"><ele>279.2</ele><time>2026-05-02T10:50:18.999Z</time></trkpt><trkpt lat="45.54284338893886" lon="11.307207212953212"><ele>280.0</ele><time>2026-05-02T10:50:19.999Z</time></trkpt><trkpt lat="45.542919638758754" lon="11.307300486793636"><ele>285.8</ele><time>2026-05-02T10:50:20.999Z</time></trkpt><trkpt lat="45.54300374425921" lon="11.307385461458441"><ele>291.6</ele><time>2026-05-02T10:50:21.999Z</time></trkpt><trkpt lat="45.543060951681916" lon="11.307484367699663"><ele>297.4</ele><time>2026-05-02T10:50:22.999Z</time></trkpt><trkpt lat="45.54311178702574" lon="11.307571910553582"><ele>303.2</ele><time>2026-05-02T10:50:23.999Z</time></trkpt><trkpt lat="45.54316244720718" lon="11.307720104332791"><ele>309.0</ele><time>2026-05-02T10:50:25.999Z</time></trkpt><trkpt lat="45.54315600076781" lon="11.307819777412728"><ele>309.0</ele><time>2026-05-02T10:50:26.999Z</time></trkpt><trkpt lat="45.54309743280555" lon="11.307896085829757"><ele>309.0</ele><time>2026-05-02T10:50:27.999Z</time></trkpt><trkpt lat="45.54303769688207" lon="11.30795099283514"><ele>309.0</ele><time>2026-05-02T10:50:28.999Z</time></trkpt><trkpt lat="45.54297219443819" lon="11.307992883543731"><ele>309.0</ele><time>2026-05-02T10:50:29.999Z</time></trkpt><trkpt lat="45.54289373042578" lon="11.308007826706223"><ele>309.0</ele><time>2026-05-02T10:50:30.999Z</time></trkpt><trkpt lat="45.54280565420645" lon="11.30799817164067"><ele>309.0</ele><time>2026-05-02T10:50:31.999Z</time></trkpt><trkpt lat="45.54270944717948" lon="11.307973859397856"><ele>306.0</ele><time>2026-05-02T10:50:32.999Z</time></trkpt><trkpt lat="45.542617028509575" lon="11.307929954769833"><ele>303.0</ele><time>2026-05-02T10:50:33.999Z</time></trkpt><trkpt lat="45.542536897245434" lon="11.307882884260993"><ele>300.0</ele><time>2026-05-02T10:50:34.999Z</time></trkpt><trkpt lat="45.542455432457864" lon="11.30784173214297"><ele>297.0</ele><time>2026-05-02T10:50:35.999Z</time></trkpt><trkpt lat="45.542382491033315" lon="11.307842757914203"><ele>294.0</ele><time>2026-05-02T10:50:36.999Z</time></trkpt><trkpt lat="45.54231561925692" lon="11.30785824750869"><ele>291.0</ele><time>2026-05-02T10:50:37.999Z</time></trkpt><trkpt lat="45.542253265920834" lon="11.307917405313834"><ele>291.0</ele><time>2026-05-02T10:50:38.999Z</time></trkpt><trkpt lat="45.54219418517261" lon="11.308004362331893"><ele>291.0</ele><time>2026-05-02T10:50:39.999Z</time></trkpt><trkpt lat="45.54214371885203" lon="11.308115366843808"><ele>291.0</ele><time>2026-05-02T10:50:40.999Z</time></trkpt><trkpt lat="45.54209629948194" lon="11.308230630805813"><ele>291.0</ele><time>2026-05-02T10:50:41.999Z</time></trkpt><trkpt lat="45.5420426024613" lon="11.308348881460356"><ele>291.0</ele><time>2026-05-02T10:50:42.999Z</time></trkpt><trkpt lat="45.54199265953412" lon="11.308471181037387"><ele>290.1666666666667</ele><time>2026-05-02T10:50:43.999Z</time></trkpt><trkpt lat="45.54194098549554" lon="11.30859339395893"><ele>289.3333333333333</ele><time>2026-05-02T10:50:44.999Z</time></trkpt><trkpt lat="45.54189995629362" lon="11.308701879047211"><ele>288.5</ele><time>2026-05-02T10:50:45.999Z</time></trkpt><trkpt lat="45.541875631787114" lon="11.308817240194477"><ele>287.66666666666663</ele><time>2026-05-02T10:50:46.999Z</time></trkpt><trkpt lat="45.54187310572159" lon="11.308928690608187"><ele>286.8333333333333</ele><time>2026-05-02T10:50:47.999Z</time></trkpt><trkpt lat="45.54185446688469" lon="11.309049222309964"><ele>286.0</ele><time>2026-05-02T10:50:48.999Z</time></trkpt><trkpt lat="45.54188286897995" lon="11.309170969347617"><ele>288.5</ele><time>2026-05-02T10:50:49.999Z</time></trkpt><trkpt lat="45.5419156704353" lon="11.309288003887993"><ele>291.0</ele><time>2026-05-02T10:50:50.999Z</time></trkpt><trkpt lat="45.54198260676382" lon="11.309379634790876"><ele>293.5</ele><time>2026-05-02T10:50:51.999Z</time></trkpt><trkpt lat="45.542049857675906" lon="11.309450419452288"><ele>296.0</ele><time>2026-05-02T10:50:52.999Z</time></trkpt><trkpt lat="45.54212078315903" lon="11.309502711072795"><ele>298.5</ele><time>2026-05-02T10:50:53.999Z</time></trkpt><trkpt lat="45.54219037869193" lon="11.309535828098149"><ele>301.0</ele><time>2026-05-02T10:50:54.999Z</time></trkpt><trkpt lat="45.542269033333866" lon="11.30955671593563"><ele>303.8333333333333</ele><time>2026-05-02T10:50:55.999Z</time></trkpt><trkpt lat="45.54235743222499" lon="11.309559437901928"><ele>306.66666666666663</ele><time>2026-05-02T10:50:56.999Z</time></trkpt><trkpt lat="45.54243899646442" lon="11.309534382018658"><ele>309.5</ele><time>2026-05-02T10:50:57.999Z</time></trkpt><trkpt lat="45.54251490784178" lon="11.309500080179742"><ele>312.3333333333333</ele><time>2026-05-02T10:50:58.999Z</time></trkpt><trkpt lat="45.542570059024044" lon="11.30945371182835"><ele>315.1666666666667</ele><time>2026-05-02T10:50:59.999Z</time></trkpt><trkpt lat="45.54262726186096" lon="11.309371820919745"><ele>318.0</ele><time>2026-05-02T10:51:01.999Z</time></trkpt><trkpt lat="45.542700440421704" lon="11.309318010634765"><ele>318.0</ele><time>2026-05-02T10:51:03.999Z</time></trkpt><trkpt lat="45.54275617255646" lon="11.309374069212755"><ele>318.0</ele><time>2026-05-02T10:51:04.999Z</time></trkpt><trkpt lat="45.542822846684814" lon="11.309402250873873"><ele>318.0</ele><time>2026-05-02T10:51:05.999Z</time></trkpt><trkpt lat="45.54288979458657" lon="11.309453677342326"><ele>318.0</ele><time>2026-05-02T10:51:06.999Z</time></trkpt><trkpt lat="45.54296049402882" lon="11.309512449559453"><ele>318.0</ele><time>2026-05-02T10:51:07.999Z</time></trkpt><trkpt lat="45.54303913494391" lon="11.30956139566952"><ele>318.0</ele><time>2026-05-02T10:51:08.999Z</time></trkpt><trkpt lat="45.5431168216507" lon="11.309615742523224"><ele>319.3333333333333</ele><time>2026-05-02T10:51:09.999Z</time></trkpt><trkpt lat="45.5431906361125" lon="11.30967713513806"><ele>320.6666666666667</ele><time>2026-05-02T10:51:10.999Z</time></trkpt><trkpt lat="45.543261887495866" lon="11.309742360330816"><ele>322.0</ele><time>2026-05-02T10:51:11.999Z</time></trkpt><trkpt lat="45.54334079198742" lon="11.309799131562201"><ele>323.33333333333337</ele><time>2026-05-02T10:51:12.999Z</time></trkpt><trkpt lat="45.54341357669874" lon="11.309837554997916"><ele>324.6666666666667</ele><time>2026-05-02T10:51:13.999Z</time></trkpt><trkpt lat="45.54348653129772" lon="11.309846020047834"><ele>326.0</ele><time>2026-05-02T10:51:14.999Z</time></trkpt><trkpt lat="45.54354888926904" lon="11.309807057242606"><ele>326.0</ele><time>2026-05-02T10:51:15.999Z</time></trkpt><trkpt lat="45.543599832075714" lon="11.309732443360286"><ele>326.0</ele><time>2026-05-02T10:51:16.999Z</time></trkpt><trkpt lat="45.54363695661075" lon="11.309631979725545"><ele>326.0</ele><time>2026-05-02T10:51:17.999Z</time></trkpt><trkpt lat="45.54367223896466" lon="11.309518568583888"><ele>326.0</ele><time>2026-05-02T10:51:18.999Z</time></trkpt><trkpt lat="45.54370663480209" lon="11.309403050372287"><ele>326.0</ele><time>2026-05-02T10:51:19.999Z</time></trkpt><trkpt lat="45.54374806020339" lon="11.309287679538075"><ele>326.0</ele><time>2026-05-02T10:51:20.999Z</time></trkpt><trkpt lat="45.5437956404318" lon="11.309171890146475"><ele>327.5</ele><time>2026-05-02T10:51:21.999Z</time></trkpt><trkpt lat="45.54383522748593" lon="11.309065164678273"><ele>329.0</ele><time>2026-05-02T10:51:22.999Z</time></trkpt><trkpt lat="45.54386204271563" lon="11.30897683261199"><ele>330.5</ele><time>2026-05-02T10:51:23.999Z</time></trkpt><trkpt lat="45.54394107804912" lon="11.308898499944712"><ele>332.0</ele><time>2026-05-02T10:51:25.999Z</time></trkpt><trkpt lat="45.544065055908476" lon="11.308938392593864"><ele>333.5</ele><time>2026-05-02T10:51:27.999Z</time></trkpt><trkpt lat="45.54413182619053" lon="11.308978668205226"><ele>335.0</ele><time>2026-05-02T10:51:28.999Z</time></trkpt><trkpt lat="45.54420705781502" lon="11.309014190061252"><ele>337.33333333333337</ele><time>2026-05-02T10:51:29.999Z</time></trkpt><trkpt lat="45.54428373914986" lon="11.309046458185279"><ele>339.6666666666667</ele><time>2026-05-02T10:51:30.999Z</time></trkpt><trkpt lat="45.54436648074845" lon="11.309069868218172"><ele>342.0</ele><time>2026-05-02T10:51:31.999Z</time></trkpt><trkpt lat="45.54445420796465" lon="11.309075895103016"><ele>344.3333333333333</ele><time>2026-05-02T10:51:32.999Z</time></trkpt><trkpt lat="45.54454701550709" lon="11.309065141734576"><ele>346.66666666666663</ele><time>2026-05-02T10:51:33.999Z</time></trkpt><trkpt lat="45.544629817871034" lon="11.30904803761328"><ele>349.0</ele><time>2026-05-02T10:51:34.999Z</time></trkpt><trkpt lat="45.54471006153269" lon="11.309021448737175"><ele>352.3333333333333</ele><time>2026-05-02T10:51:35.999Z</time></trkpt><trkpt lat="45.54478561910132" lon="11.308988555227094"><ele>355.66666666666663</ele><time>2026-05-02T10:51:36.999Z</time></trkpt><trkpt lat="45.54484747757869" lon="11.308947386749507"><ele>359.0</ele><time>2026-05-02T10:51:37.999Z</time></trkpt><trkpt lat="45.54490751578511" lon="11.308898306708713"><ele>362.3333333333333</ele><time>2026-05-02T10:51:38.999Z</time></trkpt><trkpt lat="45.54496818881034" lon="11.308838829643097"><ele>365.6666666666667</ele><time>2026-05-02T10:51:39.999Z</time></trkpt><trkpt lat="45.54501546223747" lon="11.308750407872614"><ele>369.0</ele><time>2026-05-02T10:51:40.999Z</time></trkpt><trkpt lat="45.545038297034964" lon="11.308636128723304"><ele>369.0</ele><time>2026-05-02T10:51:41.999Z</time></trkpt><trkpt lat="45.54504576673415" lon="11.30849952393453"><ele>369.0</ele><time>2026-05-02T10:51:42.999Z</time></trkpt><trkpt lat="45.54504582881931" lon="11.308353237042185"><ele>369.0</ele><time>2026-05-02T10:51:43.999Z</time></trkpt><trkpt lat="45.545042703537085" lon="11.308194956019985"><ele>369.0</ele><time>2026-05-02T10:51:44.999Z</time></trkpt><trkpt lat="45.54504684146005" lon="11.308029538695125"><ele>369.0</ele><time>2026-05-02T10:51:45.999Z</time></trkpt><trkpt lat="45.54505557926614" lon="11.307861776570373"><ele>368.25</ele><time>2026-05-02T10:51:46.999Z</time></trkpt><trkpt lat="45.545056397503885" lon="11.307689667776911"><ele>367.5</ele><time>2026-05-02T10:51:47.999Z</time></trkpt><trkpt lat="45.54503425548931" lon="11.307517060599645"><ele>366.75</ele><time>2026-05-02T10:51:48.999Z</time></trkpt><trkpt lat="45.545012334437025" lon="11.307354771177472"><ele>366.0</ele><time>2026-05-02T10:51:49.999Z</time></trkpt><trkpt lat="45.545015124166326" lon="11.307208718436245"><ele>368.0</ele><time>2026-05-02T10:51:50.999Z</time></trkpt><trkpt lat="45.54507007852388" lon="11.307074666857"><ele>370.0</ele><time>2026-05-02T10:51:51.999Z</time></trkpt><trkpt lat="45.54510783699639" lon="11.306924596819668"><ele>372.0</ele><time>2026-05-02T10:51:52.999Z</time></trkpt><trkpt lat="45.5451604884447" lon="11.30677694088332"><ele>374.0</ele><time>2026-05-02T10:51:53.999Z</time></trkpt><trkpt lat="45.54520978059668" lon="11.306630641783679"><ele>374.0</ele><time>2026-05-02T10:51:54.998Z</time></trkpt><trkpt lat="45.54525650780151" lon="11.30647862897254"><ele>374.0</ele><time>2026-05-02T10:51:55.998Z</time></trkpt><trkpt lat="45.54530509772602" lon="11.306333983253102"><ele>374.0</ele><time>2026-05-02T10:51:56.998Z</time></trkpt><trkpt lat="45.54535352288128" lon="11.306201361822739"><ele>374.0</ele><time>2026-05-02T10:51:57.998Z</time></trkpt><trkpt lat="45.54540867541374" lon="11.306082020590566"><ele>374.0</ele><time>2026-05-02T10:51:58.998Z</time></trkpt><trkpt lat="45.545480888946" lon="11.305996046794371"><ele>377.0</ele><time>2026-05-02T10:51:59.998Z</time></trkpt><trkpt lat="45.54557297140915" lon="11.305968787633766"><ele>380.0</ele><time>2026-05-02T10:52:00.998Z</time></trkpt><trkpt lat="45.545655694778844" lon="11.3059220817406"><ele>383.0</ele><time>2026-05-02T10:52:01.998Z</time></trkpt><trkpt lat="45.5457359746173" lon="11.305898251832387"><ele>386.0</ele><time>2026-05-02T10:52:02.998Z</time></trkpt><trkpt lat="45.54579776240273" lon="11.305852208647527"><ele>388.99999999999994</ele><time>2026-05-02T10:52:03.998Z</time></trkpt><trkpt lat="45.54584309463523" lon="11.305765228756783"><ele>392.0</ele><time>2026-05-02T10:52:04.998Z</time></trkpt><trkpt lat="45.545866428569795" lon="11.305651546111603"><ele>391.49999999999994</ele><time>2026-05-02T10:52:05.998Z</time></trkpt><trkpt lat="45.54586091004031" lon="11.30551916770009"><ele>391.0</ele><time>2026-05-02T10:52:06.998Z</time></trkpt><trkpt lat="45.54585240401955" lon="11.305394905001833"><ele>390.5</ele><time>2026-05-02T10:52:07.998Z</time></trkpt><trkpt lat="45.545846594322896" lon="11.305276249089268"><ele>390.0</ele><time>2026-05-02T10:52:08.998Z</time></trkpt><trkpt lat="45.54584720021502" lon="11.305167647791599"><ele>389.49999999999994</ele><time>2026-05-02T10:52:09.998Z</time></trkpt><trkpt lat="45.545856426173664" lon="11.305064790554695"><ele>389.0</ele><time>2026-05-02T10:52:10.998Z</time></trkpt><trkpt lat="45.54591205133637" lon="11.304988167448307"><ele>388.99999999999994</ele><time>2026-05-02T10:52:11.998Z</time></trkpt><trkpt lat="45.54595862478023" lon="11.304923528284993"><ele>389.0</ele><time>2026-05-02T10:52:12.998Z</time></trkpt><trkpt lat="45.546041230359826" lon="11.304927760598092"><ele>389.0</ele><time>2026-05-02T10:52:13.998Z</time></trkpt><trkpt lat="45.54611696000115" lon="11.304905263352891"><ele>389.0</ele><time>2026-05-02T10:52:14.998Z</time></trkpt><trkpt lat="45.54619588300132" lon="11.304892242301978"><ele>388.99999999999994</ele><time>2026-05-02T10:52:15.998Z</time></trkpt><trkpt lat="45.54627391762041" lon="11.304905261761508"><ele>389.0</ele><time>2026-05-02T10:52:16.998Z</time></trkpt><trkpt lat="45.54634503073279" lon="11.304937984107683"><ele>393.8333333333333</ele><time>2026-05-02T10:52:17.998Z</time></trkpt><trkpt lat="45.54638467739112" lon="11.305047349441873"><ele>398.66666666666663</ele><time>2026-05-02T10:52:18.998Z</time></trkpt><trkpt lat="45.54642710683813" lon="11.305147580371987"><ele>403.5</ele><time>2026-05-02T10:52:19.998Z</time></trkpt><trkpt lat="45.54643811415261" lon="11.305275046308175"><ele>408.33333333333337</ele><time>2026-05-02T10:52:21Z</time></trkpt><trkpt lat="45.546448137459876" lon="11.3053945687506"><ele>413.1666666666667</ele><time>2026-05-02T10:52:22Z</time></trkpt><trkpt lat="45.546469320052694" lon="11.30549235722883"><ele>418.0</ele><time>2026-05-02T10:52:23Z</time></trkpt><trkpt lat="45.546548776101524" lon="11.305560508308533"><ele>418.0</ele><time>2026-05-02T10:52:25Z</time></trkpt><trkpt lat="45.54664710369781" lon="11.305460657715772"><ele>418.0</ele><time>2026-05-02T10:52:27Z</time></trkpt><trkpt lat="45.546647990427715" lon="11.30532977846289"><ele>418.0</ele><time>2026-05-02T10:52:28Z</time></trkpt><trkpt lat="45.54666015064431" lon="11.305220279285628"><ele>418.0</ele><time>2026-05-02T10:52:29Z</time></trkpt><trkpt lat="45.546688670449726" lon="11.305104258997545"><ele>418.0</ele><time>2026-05-02T10:52:30Z</time></trkpt><trkpt lat="45.54674889964295" lon="11.30501071570999"><ele>418.00000000000006</ele><time>2026-05-02T10:52:31Z</time></trkpt><trkpt lat="45.546793019237825" lon="11.304906116948164"><ele>418.0</ele><time>2026-05-02T10:52:32Z</time></trkpt><trkpt lat="45.54685377554088" lon="11.304811904644767"><ele>418.0</ele><time>2026-05-02T10:52:33Z</time></trkpt><trkpt lat="45.546913833050105" lon="11.304709834628946"><ele>418.0</ele><time>2026-05-02T10:52:34Z</time></trkpt><trkpt lat="45.54697963158661" lon="11.30461674175908"><ele>418.00000000000006</ele><time>2026-05-02T10:52:35Z</time></trkpt><trkpt lat="45.54703229332266" lon="11.304536286419408"><ele>418.0</ele><time>2026-05-02T10:52:36Z</time></trkpt><trkpt lat="45.547080740149" lon="11.30446484065652"><ele>421.59999999999997</ele><time>2026-05-02T10:52:37Z</time></trkpt><trkpt lat="45.547139575122635" lon="11.304372658730074"><ele>425.2</ele><time>2026-05-02T10:52:38Z</time></trkpt><trkpt lat="45.54720653865897" lon="11.304268634197086"><ele>428.8</ele><time>2026-05-02T10:52:39Z</time></trkpt><trkpt lat="45.54728871329873" lon="11.304181733995042"><ele>432.4</ele><time>2026-05-02T10:52:40Z</time></trkpt><trkpt lat="45.54738705172359" lon="11.304141196669374"><ele>436.0</ele><time>2026-05-02T10:52:41Z</time></trkpt><trkpt lat="45.547493593172774" lon="11.304180087390716"><ele>436.0</ele><time>2026-05-02T10:52:42Z</time></trkpt><trkpt lat="45.54759477430199" lon="11.304197691714586"><ele>436.0</ele><time>2026-05-02T10:52:43Z</time></trkpt><trkpt lat="45.54769302817635" lon="11.304233871832581"><ele>436.0</ele><time>2026-05-02T10:52:44Z</time></trkpt><trkpt lat="45.54778162562089" lon="11.30429979135299"><ele>436.0</ele><time>2026-05-02T10:52:45Z</time></trkpt><trkpt lat="45.547862522842486" lon="11.304380544391197"><ele>436.0</ele><time>2026-05-02T10:52:46Z</time></trkpt><trkpt lat="45.547939491613356" lon="11.3044784038379"><ele>438.4</ele><time>2026-05-02T10:52:47Z</time></trkpt><trkpt lat="45.548028161024654" lon="11.304560091085571"><ele>440.8</ele><time>2026-05-02T10:52:48Z</time></trkpt><trkpt lat="45.5481096467598" lon="11.304637752226581"><ele>443.19999999999993</ele><time>2026-05-02T10:52:49Z</time></trkpt><trkpt lat="45.548199580230616" lon="11.304688940285772"><ele>445.59999999999997</ele><time>2026-05-02T10:52:50Z</time></trkpt><trkpt lat="45.54829441460397" lon="11.304696780693822"><ele>448.0</ele><time>2026-05-02T10:52:51Z</time></trkpt><trkpt lat="45.548388171433274" lon="11.3046717360646"><ele>448.00000000000006</ele><time>2026-05-02T10:52:52Z</time></trkpt><trkpt lat="45.54847403410253" lon="11.304661427463857"><ele>448.0</ele><time>2026-05-02T10:52:53Z</time></trkpt><trkpt lat="45.54856429099908" lon="11.304646837752983"><ele>448.0</ele><time>2026-05-02T10:52:54Z</time></trkpt><trkpt lat="45.54865613914357" lon="11.304650619720473"><ele>448.0</ele><time>2026-05-02T10:52:55Z</time></trkpt><trkpt lat="45.54874776960001" lon="11.30467261245535"><ele>448.00000000000006</ele><time>2026-05-02T10:52:56Z</time></trkpt><trkpt lat="45.548811620181624" lon="11.30472689357788"><ele>448.0</ele><time>2026-05-02T10:52:57Z</time></trkpt><trkpt lat="45.548839420717144" lon="11.304832545559732"><ele>451.79999999999995</ele><time>2026-05-02T10:52:58Z</time></trkpt><trkpt lat="45.548892346229195" lon="11.304929958931828"><ele>455.59999999999997</ele><time>2026-05-02T10:52:59Z</time></trkpt><trkpt lat="45.548932780230025" lon="11.30504832812228"><ele>459.40000000000003</ele><time>2026-05-02T10:53:00Z</time></trkpt><trkpt lat="45.5489823335302" lon="11.305172007437049"><ele>463.20000000000005</ele><time>2026-05-02T10:53:01Z</time></trkpt><trkpt lat="45.54903013924823" lon="11.305286123672104"><ele>467.0</ele><time>2026-05-02T10:53:01.999Z</time></trkpt><trkpt lat="45.54907493928652" lon="11.30538459245122"><ele>467.0</ele><time>2026-05-02T10:53:02.999Z</time></trkpt><trkpt lat="45.5491152424302" lon="11.305470857579841"><ele>467.00000000000006</ele><time>2026-05-02T10:53:03.999Z</time></trkpt><trkpt lat="45.54916542923536" lon="11.305593188848498"><ele>467.00000000000006</ele><time>2026-05-02T10:53:05.999Z</time></trkpt><trkpt lat="45.549197512813734" lon="11.305682612020103"><ele>467.0</ele><time>2026-05-02T10:53:07.999Z</time></trkpt><trkpt lat="45.54932078048662" lon="11.305582222373587"><ele>467.0</ele><time>2026-05-02T10:53:08.999Z</time></trkpt><trkpt lat="45.54939209409224" lon="11.305494618498072"><ele>467.0</ele><time>2026-05-02T10:53:09.999Z</time></trkpt><trkpt lat="45.54946381069878" lon="11.305407994374061"><ele>467.0</ele><time>2026-05-02T10:53:10.999Z</time></trkpt><trkpt lat="45.549552241347754" lon="11.305309803288008"><ele>467.0</ele><time>2026-05-02T10:53:11.999Z</time></trkpt><trkpt lat="45.549663183858144" lon="11.305210064846067"><ele>467.0</ele><time>2026-05-02T10:53:12.999Z</time></trkpt><trkpt lat="45.549771321113" lon="11.305131641147888"><ele>469.0</ele><time>2026-05-02T10:53:13.999Z</time></trkpt><trkpt lat="45.54987574469151" lon="11.305052097079079"><ele>471.0</ele><time>2026-05-02T10:53:14.999Z</time></trkpt><trkpt lat="45.54998571740542" lon="11.304977842820355"><ele>473.0</ele><time>2026-05-02T10:53:15.999Z</time></trkpt><trkpt lat="45.5501068733993" lon="11.304969520093344"><ele>475.0</ele><time>2026-05-02T10:53:16.999Z</time></trkpt><trkpt lat="45.550238908804815" lon="11.304938868683866"><ele>476.75</ele><time>2026-05-02T10:53:17.999Z</time></trkpt><trkpt lat="45.55038259733303" lon="11.304904586043273"><ele>478.5</ele><time>2026-05-02T10:53:18.999Z</time></trkpt><trkpt lat="45.550526757721684" lon="11.304849930072193"><ele>480.25</ele><time>2026-05-02T10:53:19.999Z</time></trkpt><trkpt lat="45.55067652499098" lon="11.304806437739378"><ele>482.0</ele><time>2026-05-02T10:53:20.999Z</time></trkpt><trkpt lat="45.55083270515318" lon="11.304760584352179"><ele>483.3333333333333</ele><time>2026-05-02T10:53:21.999Z</time></trkpt><trkpt lat="45.55099332450664" lon="11.304699433506881"><ele>484.66666666666663</ele><time>2026-05-02T10:53:22.999Z</time></trkpt><trkpt lat="45.55114999986076" lon="11.30461566938475"><ele>486.0</ele><time>2026-05-02T10:53:23.999Z</time></trkpt><trkpt lat="45.55128937633897" lon="11.304511997658999"><ele>486.0</ele><time>2026-05-02T10:53:24.999Z</time></trkpt><trkpt lat="45.55142579737554" lon="11.304427223428231"><ele>486.0</ele><time>2026-05-02T10:53:25.999Z</time></trkpt><trkpt lat="45.55156572893975" lon="11.304441213854377"><ele>486.0</ele><time>2026-05-02T10:53:26.999Z</time></trkpt><trkpt lat="45.55169112389538" lon="11.304487789883417"><ele>486.0</ele><time>2026-05-02T10:53:27.999Z</time></trkpt><trkpt lat="45.55182511332904" lon="11.304504901843643"><ele>486.0</ele><time>2026-05-02T10:53:28.999Z</time></trkpt><trkpt lat="45.55195688203887" lon="11.304537129692743"><ele>486.0</ele><time>2026-05-02T10:53:29.999Z</time></trkpt><trkpt lat="45.552101908558654" lon="11.304487650837345"><ele>486.0</ele><time>2026-05-02T10:53:30.999Z</time></trkpt><trkpt lat="45.552246784617715" lon="11.304395479487235"><ele>486.0</ele><time>2026-05-02T10:53:31.999Z</time></trkpt><trkpt lat="45.55239192495522" lon="11.304306993819612"><ele>489.0</ele><time>2026-05-02T10:53:32.999Z</time></trkpt><trkpt lat="45.55250857867906" lon="11.304173921811097"><ele>492.0</ele><time>2026-05-02T10:53:33.999Z</time></trkpt><trkpt lat="45.55262153307587" lon="11.304045633728785"><ele>495.0</ele><time>2026-05-02T10:53:34.999Z</time></trkpt><trkpt lat="45.5527074410653" lon="11.303902858308904"><ele>498.0</ele><time>2026-05-02T10:53:35.999Z</time></trkpt><trkpt lat="45.552799666388445" lon="11.303783768563104"><ele>501.25</ele><time>2026-05-02T10:53:36.999Z</time></trkpt><trkpt lat="45.552944168004174" lon="11.303792796507576"><ele>504.5</ele><time>2026-05-02T10:53:37.999Z</time></trkpt><trkpt lat="45.55307816419796" lon="11.303797173618799"><ele>507.75</ele><time>2026-05-02T10:53:38.999Z</time></trkpt><trkpt lat="45.55319777896272" lon="11.303778227354881"><ele>511.0</ele><time>2026-05-02T10:53:39.999Z</time></trkpt><trkpt lat="45.55331049247187" lon="11.303732137836084"><ele>511.0</ele><time>2026-05-02T10:53:40.999Z</time></trkpt><trkpt lat="45.553406292112335" lon="11.303647808650949"><ele>511.0</ele><time>2026-05-02T10:53:41.999Z</time></trkpt><trkpt lat="45.55347589508539" lon="11.303516852819529"><ele>511.0</ele><time>2026-05-02T10:53:42.999Z</time></trkpt><trkpt lat="45.55352488686246" lon="11.303338168909361"><ele>511.0</ele><time>2026-05-02T10:53:43.999Z</time></trkpt><trkpt lat="45.55359127273252" lon="11.303142628972275"><ele>510.33333333333337</ele><time>2026-05-02T10:53:44.999Z</time></trkpt><trkpt lat="45.55367347693015" lon="11.302923920195875"><ele>509.66666666666663</ele><time>2026-05-02T10:53:45.999Z</time></trkpt><trkpt lat="45.55377146268528" lon="11.302670695064977"><ele>509.0</ele><time>2026-05-02T10:53:46.999Z</time></trkpt><trkpt lat="45.553880482394355" lon="11.30241366597067"><ele>509.0</ele><time>2026-05-02T10:53:47.999Z</time></trkpt><trkpt lat="45.5540184943292" lon="11.302172330934813"><ele>509.0</ele><time>2026-05-02T10:53:48.999Z</time></trkpt><trkpt lat="45.55419170323357" lon="11.301989138398481"><ele>509.0</ele><time>2026-05-02T10:53:49.999Z</time></trkpt><trkpt lat="45.55438658091728" lon="11.301830871185162"><ele>512.0</ele><time>2026-05-02T10:53:50.999Z</time></trkpt><trkpt lat="45.55457507348229" lon="11.301647700305315"><ele>515.0</ele><time>2026-05-02T10:53:51.999Z</time></trkpt><trkpt lat="45.55476683251631" lon="11.301492567412648"><ele>518.0</ele><time>2026-05-02T10:53:52.999Z</time></trkpt><trkpt lat="45.554935975284224" lon="11.30133631925425"><ele>518.0</ele><time>2026-05-02T10:53:53.999Z</time></trkpt><trkpt lat="45.55509985568835" lon="11.301224079403507"><ele>518.0</ele><time>2026-05-02T10:53:54.999Z</time></trkpt><trkpt lat="45.55525297246665" lon="11.30112514509072"><ele>518.0</ele><time>2026-05-02T10:53:55.999Z</time></trkpt><trkpt lat="45.55539399634074" lon="11.301027057394801"><ele>519.25</ele><time>2026-05-02T10:53:56.999Z</time></trkpt><trkpt lat="45.5555065816674" lon="11.300942838031148"><ele>520.5</ele><time>2026-05-02T10:53:57.999Z</time></trkpt><trkpt lat="45.555568233172124" lon="11.300817691356738"><ele>521.75</ele><time>2026-05-02T10:53:58.999Z</time></trkpt><trkpt lat="45.555582556046915" lon="11.30066516351536"><ele>523.0</ele><time>2026-05-02T10:53:59.999Z</time></trkpt><trkpt lat="45.55557522806117" lon="11.30049138583541"><ele>526.5</ele><time>2026-05-02T10:54:00.999Z</time></trkpt><trkpt lat="45.55553634179731" lon="11.30031269266655"><ele>530.0</ele><time>2026-05-02T10:54:01.999Z</time></trkpt><trkpt lat="45.555466848648464" lon="11.300142574145415"><ele>533.5</ele><time>2026-05-02T10:54:02.999Z</time></trkpt><trkpt lat="45.5553974138523" lon="11.299972561915224"><ele>537.0</ele><time>2026-05-02T10:54:03.999Z</time></trkpt><trkpt lat="45.55538000091838" lon="11.29979386219327"><ele>540.25</ele><time>2026-05-02T10:54:04.999Z</time></trkpt><trkpt lat="45.555442547262174" lon="11.299613961972806"><ele>543.5</ele><time>2026-05-02T10:54:05.999Z</time></trkpt><trkpt lat="45.55547657560964" lon="11.299418366605021"><ele>546.75</ele><time>2026-05-02T10:54:06.999Z</time></trkpt><trkpt lat="45.55553500372702" lon="11.299208731484226"><ele>550.0</ele><time>2026-05-02T10:54:07.999Z</time></trkpt><trkpt lat="45.55558647067658" lon="11.298983198324256"><ele>549.0</ele><time>2026-05-02T10:54:08.999Z</time></trkpt><trkpt lat="45.55565034481963" lon="11.298759239624552"><ele>548.0</ele><time>2026-05-02T10:54:09.999Z</time></trkpt><trkpt lat="45.55573299483487" lon="11.29854983616548"><ele>547.0</ele><time>2026-05-02T10:54:10.999Z</time></trkpt><trkpt lat="45.55584914980392" lon="11.298373257131445"><ele>547.0</ele><time>2026-05-02T10:54:11.999Z</time></trkpt><trkpt lat="45.55595310322263" lon="11.298195999533664"><ele>547.0</ele><time>2026-05-02T10:54:12.999Z</time></trkpt><trkpt lat="45.556082004255664" lon="11.298038170937698"><ele>547.0</ele><time>2026-05-02T10:54:13.999Z</time></trkpt><trkpt lat="45.55621473130518" lon="11.297875029314582"><ele>547.6666666666667</ele><time>2026-05-02T10:54:14.999Z</time></trkpt><trkpt lat="45.55634856297235" lon="11.297703793044514"><ele>548.3333333333334</ele><time>2026-05-02T10:54:15.999Z</time></trkpt><trkpt lat="45.55647622912766" lon="11.297541412959921"><ele>549.0</ele><time>2026-05-02T10:54:16.999Z</time></trkpt><trkpt lat="45.55659041781306" lon="11.297402117374862"><ele>549.0</ele><time>2026-05-02T10:54:17.999Z</time></trkpt><trkpt lat="45.55667615686492" lon="11.297266376607089"><ele>549.0</ele><time>2026-05-02T10:54:18.999Z</time></trkpt><trkpt lat="45.55672439854414" lon="11.297098632757448"><ele>549.0</ele><time>2026-05-02T10:54:19.999Z</time></trkpt><trkpt lat="45.55676528928913" lon="11.296904675910547"><ele>549.0</ele><time>2026-05-02T10:54:20.999Z</time></trkpt><trkpt lat="45.55684712546404" lon="11.296727328657072"><ele>551.0</ele><time>2026-05-02T10:54:21.999Z</time></trkpt><trkpt lat="45.55696076065773" lon="11.296579405589782"><ele>553.0</ele><time>2026-05-02T10:54:22.999Z</time></trkpt><trkpt lat="45.557078824977815" lon="11.296422232877042"><ele>555.0</ele><time>2026-05-02T10:54:23.999Z</time></trkpt><trkpt lat="45.55719234975785" lon="11.296258189187544"><ele>555.0</ele><time>2026-05-02T10:54:24.999Z</time></trkpt><trkpt lat="45.55730168880367" lon="11.296119387619624"><ele>555.0</ele><time>2026-05-02T10:54:25.998Z</time></trkpt><trkpt lat="45.557412689467455" lon="11.29598929632503"><ele>555.0</ele><time>2026-05-02T10:54:27Z</time></trkpt><trkpt lat="45.55751634091576" lon="11.295859110907072"><ele>555.0</ele><time>2026-05-02T10:54:28Z</time></trkpt><trkpt lat="45.557608759011295" lon="11.295714047885918"><ele>554.5</ele><time>2026-05-02T10:54:29Z</time></trkpt><trkpt lat="45.55768414990423" lon="11.29554807539737"><ele>554.0</ele><time>2026-05-02T10:54:30Z</time></trkpt><trkpt lat="45.557750361412495" lon="11.295379630461541"><ele>553.5</ele><time>2026-05-02T10:54:31Z</time></trkpt><trkpt lat="45.55781512727011" lon="11.295226765406703"><ele>553.0</ele><time>2026-05-02T10:54:32Z</time></trkpt><trkpt lat="45.55785619573192" lon="11.295080093482742"><ele>553.0</ele><time>2026-05-02T10:54:33Z</time></trkpt><trkpt lat="45.557854362574425" lon="11.294931661792136"><ele>553.0</ele><time>2026-05-02T10:54:34Z</time></trkpt><trkpt lat="45.55780184107041" lon="11.294799435478073"><ele>553.0</ele><time>2026-05-02T10:54:35Z</time></trkpt><trkpt lat="45.55771266994156" lon="11.294675379964282"><ele>553.0</ele><time>2026-05-02T10:54:36Z</time></trkpt><trkpt lat="45.557617894618176" lon="11.294533390771374"><ele>550.0</ele><time>2026-05-02T10:54:37Z</time></trkpt><trkpt lat="45.55752847843249" lon="11.294365286945926"><ele>547.0</ele><time>2026-05-02T10:54:38Z</time></trkpt><trkpt lat="45.55744746405772" lon="11.294171873181137"><ele>544.0</ele><time>2026-05-02T10:54:39Z</time></trkpt><trkpt lat="45.55738809702752" lon="11.293967577056561"><ele>543.5</ele><time>2026-05-02T10:54:40Z</time></trkpt><trkpt lat="45.55732920689638" lon="11.293768829235193"><ele>543.0</ele><time>2026-05-02T10:54:41Z</time></trkpt><trkpt lat="45.5572715801098" lon="11.293595113797522"><ele>542.5</ele><time>2026-05-02T10:54:42Z</time></trkpt><trkpt lat="45.55721276934245" lon="11.293435292474364"><ele>542.0</ele><time>2026-05-02T10:54:43Z</time></trkpt><trkpt lat="45.55718420786393" lon="11.293276800925153"><ele>542.0</ele><time>2026-05-02T10:54:44Z</time></trkpt><trkpt lat="45.55721363376249" lon="11.293131022194096"><ele>542.0</ele><time>2026-05-02T10:54:45Z</time></trkpt><trkpt lat="45.557282115576335" lon="11.293010163386295"><ele>542.0</ele><time>2026-05-02T10:54:46Z</time></trkpt><trkpt lat="45.55736769585763" lon="11.2928932837133"><ele>542.0</ele><time>2026-05-02T10:54:47Z</time></trkpt><trkpt lat="45.557444419770704" lon="11.292739984959802"><ele>542.6666666666666</ele><time>2026-05-02T10:54:48Z</time></trkpt><trkpt lat="45.557516354749175" lon="11.292554596614938"><ele>543.3333333333334</ele><time>2026-05-02T10:54:49Z</time></trkpt><trkpt lat="45.557595515232876" lon="11.292350882293272"><ele>544.0</ele><time>2026-05-02T10:54:50Z</time></trkpt><trkpt lat="45.55768783928467" lon="11.292146993117536"><ele>545.6666666666667</ele><time>2026-05-02T10:54:51Z</time></trkpt><trkpt lat="45.557791780136306" lon="11.291951044332368"><ele>547.3333333333334</ele><time>2026-05-02T10:54:52Z</time></trkpt><trkpt lat="45.55789825985673" lon="11.291771375427777"><ele>549.0</ele><time>2026-05-02T10:54:53Z</time></trkpt><trkpt lat="45.55800535343589" lon="11.291611151577591"><ele>545.0</ele><time>2026-05-02T10:54:54Z</time></trkpt><trkpt lat="45.558114224932616" lon="11.291450853255812"><ele>541.0</ele><time>2026-05-02T10:54:55Z</time></trkpt><trkpt lat="45.558225656957816" lon="11.291289195031917"><ele>537.0</ele><time>2026-05-02T10:54:56Z</time></trkpt><trkpt lat="45.55834129489999" lon="11.291129678696677"><ele>537.0</ele><time>2026-05-02T10:54:57Z</time></trkpt><trkpt lat="45.5584613666513" lon="11.29098552934597"><ele>537.0</ele><time>2026-05-02T10:54:58Z</time></trkpt><trkpt lat="45.55856794505158" lon="11.290833557620598"><ele>537.0</ele><time>2026-05-02T10:54:59Z</time></trkpt><trkpt lat="45.55865313000547" lon="11.290652530288225"><ele>532.75</ele><time>2026-05-02T10:55:00Z</time></trkpt><trkpt lat="45.55871249675003" lon="11.290454800957537"><ele>528.5</ele><time>2026-05-02T10:55:01Z</time></trkpt><trkpt lat="45.55875686736563" lon="11.290258705164177"><ele>524.25</ele><time>2026-05-02T10:55:02Z</time></trkpt><trkpt lat="45.558793702149195" lon="11.290082883079707"><ele>520.0</ele><time>2026-05-02T10:55:03Z</time></trkpt><trkpt lat="45.55882648947514" lon="11.289934491100443"><ele>520.0</ele><time>2026-05-02T10:55:04Z</time></trkpt><trkpt lat="45.55885461391768" lon="11.289814652829973"><ele>520.0</ele><time>2026-05-02T10:55:05Z</time></trkpt><trkpt lat="45.558879246967315" lon="11.289713763966692"><ele>520.0</ele><time>2026-05-02T10:55:06Z</time></trkpt><trkpt lat="45.558905430529165" lon="11.289616147910921"><ele>520.0</ele><time>2026-05-02T10:55:07Z</time></trkpt><trkpt lat="45.558934003649355" lon="11.289502211589257"><ele>520.0</ele><time>2026-05-02T10:55:08Z</time></trkpt><trkpt lat="45.558973151432724" lon="11.289371318072332"><ele>520.0</ele><time>2026-05-02T10:55:09Z</time></trkpt><trkpt lat="45.55901959319009" lon="11.289234618179732"><ele>520.3333333333334</ele><time>2026-05-02T10:55:10Z</time></trkpt><trkpt lat="45.559055661991536" lon="11.289106612832532"><ele>520.6666666666667</ele><time>2026-05-02T10:55:11Z</time></trkpt><trkpt lat="45.55909016578406" lon="11.288990088692849"><ele>521.0</ele><time>2026-05-02T10:55:12Z</time></trkpt><trkpt lat="45.55912307080221" lon="11.288885736395335"><ele>521.3333333333334</ele><time>2026-05-02T10:55:13Z</time></trkpt><trkpt lat="45.55915542494074" lon="11.288797032610603"><ele>521.6666666666666</ele><time>2026-05-02T10:55:14Z</time></trkpt><trkpt lat="45.55917484773796" lon="11.288710998184735"><ele>522.0</ele><time>2026-05-02T10:55:15Z</time></trkpt><trkpt lat="45.55923790837343" lon="11.288671893163892"><ele>522.0</ele><time>2026-05-02T10:55:16Z</time></trkpt><trkpt lat="45.559313573173156" lon="11.288618294893721"><ele>522.0</ele><time>2026-05-02T10:55:18Z</time></trkpt><trkpt lat="45.559451907719506" lon="11.288872240477561"><ele>522.0</ele><time>2026-05-02T10:55:18.999Z</time></trkpt><trkpt lat="45.55953214129249" lon="11.288979851513801"><ele>522.0</ele><time>2026-05-02T10:55:19.999Z</time></trkpt><trkpt lat="45.559589856566774" lon="11.289117902685172"><ele>522.6</ele><time>2026-05-02T10:55:20.999Z</time></trkpt><trkpt lat="45.559649594663554" lon="11.289256327539588"><ele>523.2</ele><time>2026-05-02T10:55:21.999Z</time></trkpt><trkpt lat="45.559710133090476" lon="11.289401313932112"><ele>523.8</ele><time>2026-05-02T10:55:22.999Z</time></trkpt><trkpt lat="45.5597764484913" lon="11.289530248811134"><ele>524.4</ele><time>2026-05-02T10:55:23.999Z</time></trkpt><trkpt lat="45.559833264702" lon="11.289642798934231"><ele>525.0</ele><time>2026-05-02T10:55:24.999Z</time></trkpt><trkpt lat="45.55987378420189" lon="11.289748860858362"><ele>524.6666666666666</ele><time>2026-05-02T10:55:25.999Z</time></trkpt><trkpt lat="45.55992266551032" lon="11.289814022248981"><ele>524.3333333333334</ele><time>2026-05-02T10:55:26.999Z</time></trkpt><trkpt lat="45.56000741131202" lon="11.289923296663504"><ele>524.0</ele><time>2026-05-02T10:55:28.999Z</time></trkpt><trkpt lat="45.5600580910443" lon="11.289978978496276"><ele>523.6666666666667</ele><time>2026-05-02T10:55:29.999Z</time></trkpt><trkpt lat="45.56012917399064" lon="11.290021447371354"><ele>523.3333333333334</ele><time>2026-05-02T10:55:30.999Z</time></trkpt><trkpt lat="45.56020588330221" lon="11.290093499735459"><ele>523.0</ele><time>2026-05-02T10:55:31.999Z</time></trkpt><trkpt lat="45.56030212873139" lon="11.29016552731463"><ele>524.25</ele><time>2026-05-02T10:55:32.999Z</time></trkpt><trkpt lat="45.560408742674504" lon="11.290227663981199"><ele>525.5</ele><time>2026-05-02T10:55:33.999Z</time></trkpt><trkpt lat="45.56052197614454" lon="11.290305696883555"><ele>526.75</ele><time>2026-05-02T10:55:34.999Z</time></trkpt><trkpt lat="45.56064350096915" lon="11.290371901004168"><ele>528.0</ele><time>2026-05-02T10:55:35.999Z</time></trkpt><trkpt lat="45.5607693614847" lon="11.29042583499554"><ele>528.0</ele><time>2026-05-02T10:55:36.999Z</time></trkpt><trkpt lat="45.56089830725859" lon="11.290466953466488"><ele>528.0</ele><time>2026-05-02T10:55:37.999Z</time></trkpt><trkpt lat="45.56100290864167" lon="11.29054704906817"><ele>528.0</ele><time>2026-05-02T10:55:38.999Z</time></trkpt><trkpt lat="45.56107770693038" lon="11.290653918883653"><ele>528.0</ele><time>2026-05-02T10:55:39.999Z</time></trkpt><trkpt lat="45.56112086731816" lon="11.290804724566947"><ele>527.5</ele><time>2026-05-02T10:55:40.999Z</time></trkpt><trkpt lat="45.561153904443294" lon="11.290963696062624"><ele>527.0</ele><time>2026-05-02T10:55:41.999Z</time></trkpt><trkpt lat="45.56119259998263" lon="11.291143416677087"><ele>526.5</ele><time>2026-05-02T10:55:42.999Z</time></trkpt><trkpt lat="45.56122293021503" lon="11.291332558886337"><ele>526.0</ele><time>2026-05-02T10:55:43.999Z</time></trkpt><trkpt lat="45.56126456070485" lon="11.29152735464916"><ele>527.5</ele><time>2026-05-02T10:55:44.999Z</time></trkpt><trkpt lat="45.56130515020817" lon="11.291722665050436"><ele>529.0</ele><time>2026-05-02T10:55:45.999Z</time></trkpt><trkpt lat="45.561346039744166" lon="11.291910512067503"><ele>530.5</ele><time>2026-05-02T10:55:46.999Z</time></trkpt><trkpt lat="45.561385802120235" lon="11.29207702919235"><ele>532.0</ele><time>2026-05-02T10:55:47.999Z</time></trkpt><trkpt lat="45.5614460461552" lon="11.292217019064374"><ele>530.5</ele><time>2026-05-02T10:55:48.999Z</time></trkpt><trkpt lat="45.56153856653369" lon="11.292321663651618"><ele>529.0</ele><time>2026-05-02T10:55:49.999Z</time></trkpt><trkpt lat="45.56166038779256" lon="11.292384948771494"><ele>527.5</ele><time>2026-05-02T10:55:50.999Z</time></trkpt><trkpt lat="45.56179389224711" lon="11.292430199905688"><ele>526.0</ele><time>2026-05-02T10:55:51.999Z</time></trkpt><trkpt lat="45.561925851958826" lon="11.292475269626163"><ele>529.25</ele><time>2026-05-02T10:55:52.999Z</time></trkpt><trkpt lat="45.562049735040226" lon="11.292539493091152"><ele>532.5</ele><time>2026-05-02T10:55:53.999Z</time></trkpt><trkpt lat="45.56213937579409" lon="11.292665914624548"><ele>535.75</ele><time>2026-05-02T10:55:54.999Z</time></trkpt><trkpt lat="45.56220308893561" lon="11.292804942079457"><ele>539.0</ele><time>2026-05-02T10:55:55.999Z</time></trkpt><trkpt lat="45.56225993119104" lon="11.292957590838908"><ele>537.5</ele><time>2026-05-02T10:55:56.999Z</time></trkpt><trkpt lat="45.56232758240067" lon="11.293114642697217"><ele>536.0</ele><time>2026-05-02T10:55:57.999Z</time></trkpt><trkpt lat="45.562371783224414" lon="11.293281999408237"><ele>534.5</ele><time>2026-05-02T10:55:58.999Z</time></trkpt><trkpt lat="45.562406252919786" lon="11.293435663865141"><ele>533.0</ele><time>2026-05-02T10:55:59.999Z</time></trkpt><trkpt lat="45.56246104236973" lon="11.293550307355984"><ele>533.0</ele><time>2026-05-02T10:56:00.999Z</time></trkpt><trkpt lat="45.5625459392435" lon="11.293614144058672"><ele>533.0</ele><time>2026-05-02T10:56:01.999Z</time></trkpt><trkpt lat="45.56265357135993" lon="11.293620896769028"><ele>533.0</ele><time>2026-05-02T10:56:02.999Z</time></trkpt><trkpt lat="45.56276726588592" lon="11.293584289338204"><ele>533.0</ele><time>2026-05-02T10:56:03.999Z</time></trkpt><trkpt lat="45.56287617366391" lon="11.293482753539102"><ele>533.75</ele><time>2026-05-02T10:56:04.999Z</time></trkpt><trkpt lat="45.562973150122964" lon="11.293375029068248"><ele>534.5</ele><time>2026-05-02T10:56:05.999Z</time></trkpt><trkpt lat="45.56307744319851" lon="11.293305922754072"><ele>535.25</ele><time>2026-05-02T10:56:06.999Z</time></trkpt><trkpt lat="45.56319663290436" lon="11.293273361521786"><ele>536.0</ele><time>2026-05-02T10:56:07.999Z</time></trkpt><trkpt lat="45.563313492534085" lon="11.293332023175772"><ele>536.0</ele><time>2026-05-02T10:56:08.999Z</time></trkpt><trkpt lat="45.56344548667848" lon="11.2933605090976"><ele>536.0</ele><time>2026-05-02T10:56:09.999Z</time></trkpt><trkpt lat="45.563576508616755" lon="11.29341341145049"><ele>536.0</ele><time>2026-05-02T10:56:10.999Z</time></trkpt><trkpt lat="45.56370571585476" lon="11.29346679278307"><ele>536.0</ele><time>2026-05-02T10:56:11.999Z</time></trkpt><trkpt lat="45.563826611623234" lon="11.293590264801493"><ele>535.0</ele><time>2026-05-02T10:56:12.999Z</time></trkpt><trkpt lat="45.563958146419374" lon="11.29370448784375"><ele>534.0</ele><time>2026-05-02T10:56:13.999Z</time></trkpt><trkpt lat="45.56407777312704" lon="11.293839705444155"><ele>533.0</ele><time>2026-05-02T10:56:14.999Z</time></trkpt><trkpt lat="45.56419125503488" lon="11.293976187351989"><ele>533.0</ele><time>2026-05-02T10:56:15.999Z</time></trkpt><trkpt lat="45.564265191916405" lon="11.294152212880066"><ele>533.0</ele><time>2026-05-02T10:56:16.999Z</time></trkpt><trkpt lat="45.56433630631747" lon="11.29432937060876"><ele>533.0</ele><time>2026-05-02T10:56:17.999Z</time></trkpt><trkpt lat="45.56442445312774" lon="11.294488744145323"><ele>533.0</ele><time>2026-05-02T10:56:18.999Z</time></trkpt><trkpt lat="45.564496769353624" lon="11.294671117739764"><ele>534.75</ele><time>2026-05-02T10:56:19.999Z</time></trkpt><trkpt lat="45.56457104526185" lon="11.294850167500968"><ele>536.5</ele><time>2026-05-02T10:56:20.999Z</time></trkpt><trkpt lat="45.56464098600172" lon="11.295023797315146"><ele>538.25</ele><time>2026-05-02T10:56:21.999Z</time></trkpt><trkpt lat="45.56468502525838" lon="11.295211216597737"><ele>540.0</ele><time>2026-05-02T10:56:22.999Z</time></trkpt><trkpt lat="45.5647558009253" lon="11.295374958650028"><ele>540.0</ele><time>2026-05-02T10:56:23.999Z</time></trkpt><trkpt lat="45.564837470508444" lon="11.295526343114046"><ele>540.0</ele><time>2026-05-02T10:56:24.999Z</time></trkpt><trkpt lat="45.56493913422908" lon="11.295654419327793"><ele>540.0</ele><time>2026-05-02T10:56:25.999Z</time></trkpt><trkpt lat="45.565064564752575" lon="11.295751529285345"><ele>540.0</ele><time>2026-05-02T10:56:26.999Z</time></trkpt><trkpt lat="45.565203381995865" lon="11.295829088098243"><ele>540.3333333333334</ele><time>2026-05-02T10:56:27.999Z</time></trkpt><trkpt lat="45.5653267971338" lon="11.295931578532652"><ele>540.6666666666667</ele><time>2026-05-02T10:56:28.999Z</time></trkpt><trkpt lat="45.56547130275681" lon="11.296003960753625"><ele>541.0</ele><time>2026-05-02T10:56:29.999Z</time></trkpt><trkpt lat="45.56559098170461" lon="11.296152250992742"><ele>541.0</ele><time>2026-05-02T10:56:30.999Z</time></trkpt><trkpt lat="45.56572206086962" lon="11.296309038540532"><ele>541.0</ele><time>2026-05-02T10:56:31.999Z</time></trkpt><trkpt lat="45.56587082671263" lon="11.29645573880943"><ele>541.0</ele><time>2026-05-02T10:56:33Z</time></trkpt><trkpt lat="45.5659951704211" lon="11.296631776437165"><ele>542.3333333333334</ele><time>2026-05-02T10:56:34Z</time></trkpt><trkpt lat="45.5661194274342" lon="11.296788889287285"><ele>543.6666666666666</ele><time>2026-05-02T10:56:35Z</time></trkpt><trkpt lat="45.56623461807841" lon="11.296953055398918"><ele>545.0</ele><time>2026-05-02T10:56:36Z</time></trkpt><trkpt lat="45.566315710101044" lon="11.297150241604857"><ele>541.0</ele><time>2026-05-02T10:56:37Z</time></trkpt><trkpt lat="45.566392342259036" lon="11.297359113521305"><ele>537.0</ele><time>2026-05-02T10:56:38Z</time></trkpt><trkpt lat="45.5664643208515" lon="11.297570908588092"><ele>533.0</ele><time>2026-05-02T10:56:39Z</time></trkpt><trkpt lat="45.56654982711789" lon="11.297797810967529"><ele>533.0</ele><time>2026-05-02T10:56:40Z</time></trkpt><trkpt lat="45.56664344952021" lon="11.298030080444452"><ele>533.0</ele><time>2026-05-02T10:56:41Z</time></trkpt><trkpt lat="45.56673229310647" lon="11.298242159689305"><ele>533.0</ele><time>2026-05-02T10:56:42Z</time></trkpt><trkpt lat="45.5667910685504" lon="11.29840855460507"><ele>530.75</ele><time>2026-05-02T10:56:43Z</time></trkpt><trkpt lat="45.566898001046795" lon="11.29859689824472"><ele>528.5</ele><time>2026-05-02T10:56:44Z</time></trkpt><trkpt lat="45.56697878259385" lon="11.29872892019292"><ele>526.25</ele><time>2026-05-02T10:56:45Z</time></trkpt><trkpt lat="45.567079987246984" lon="11.298822099284205"><ele>524.0</ele><time>2026-05-02T10:56:46Z</time></trkpt><trkpt lat="45.56720650843069" lon="11.298869833232816"><ele>527.5</ele><time>2026-05-02T10:56:47Z</time></trkpt><trkpt lat="45.56733928127818" lon="11.298875914768933"><ele>531.0</ele><time>2026-05-02T10:56:48Z</time></trkpt><trkpt lat="45.56746711254641" lon="11.298900188537342"><ele>534.5</ele><time>2026-05-02T10:56:49Z</time></trkpt><trkpt lat="45.56756518043304" lon="11.298940353464586"><ele>538.0</ele><time>2026-05-02T10:56:50Z</time></trkpt><trkpt lat="45.56763076612525" lon="11.29906925241421"><ele>538.0</ele><time>2026-05-02T10:56:51Z</time></trkpt><trkpt lat="45.567725410043124" lon="11.29916502030804"><ele>538.0</ele><time>2026-05-02T10:56:52Z</time></trkpt><trkpt lat="45.5678341530435" lon="11.299241688452996"><ele>538.0</ele><time>2026-05-02T10:56:53Z</time></trkpt><trkpt lat="45.56796432481318" lon="11.299313418820914"><ele>538.0</ele><time>2026-05-02T10:56:54Z</time></trkpt><trkpt lat="45.568092070403644" lon="11.2994270944207"><ele>539.0</ele><time>2026-05-02T10:56:55Z</time></trkpt><trkpt lat="45.56822911529077" lon="11.299550883467134"><ele>540.0</ele><time>2026-05-02T10:56:56Z</time></trkpt><trkpt lat="45.568390858505694" lon="11.299647647595453"><ele>541.0</ele><time>2026-05-02T10:56:57Z</time></trkpt><trkpt lat="45.5685362780362" lon="11.299751452528744"><ele>541.0</ele><time>2026-05-02T10:56:58Z</time></trkpt><trkpt lat="45.5686870030767" lon="11.299843540578593"><ele>541.0</ele><time>2026-05-02T10:56:59Z</time></trkpt><trkpt lat="45.56881416482193" lon="11.299919392915818"><ele>541.0</ele><time>2026-05-02T10:57:00Z</time></trkpt><trkpt lat="45.56893232857468" lon="11.299984944695078"><ele>541.0</ele><time>2026-05-02T10:57:01Z</time></trkpt><trkpt lat="45.56903256805642" lon="11.300028556789629"><ele>543.8</ele><time>2026-05-02T10:57:02Z</time></trkpt><trkpt lat="45.569113184918116" lon="11.300055798270824"><ele>546.6</ele><time>2026-05-02T10:57:03Z</time></trkpt><trkpt lat="45.56916468956885" lon="11.300115445621488"><ele>549.4</ele><time>2026-05-02T10:57:04Z</time></trkpt><trkpt lat="45.56917120656815" lon="11.300207510561266"><ele>552.2</ele><time>2026-05-02T10:57:05Z</time></trkpt><trkpt lat="45.56903264473201" lon="11.30032360206486"><ele>555.0</ele><time>2026-05-02T10:57:07Z</time></trkpt><trkpt lat="45.568956660312665" lon="11.300402681587094"><ele>555.0</ele><time>2026-05-02T10:57:08Z</time></trkpt><trkpt lat="45.568864918501895" lon="11.300492868532174"><ele>555.0</ele><time>2026-05-02T10:57:09Z</time></trkpt><trkpt lat="45.56880618694115" lon="11.300637082083636"><ele>555.0</ele><time>2026-05-02T10:57:10Z</time></trkpt><trkpt lat="45.568779627726485" lon="11.30081310203684"><ele>555.0</ele><time>2026-05-02T10:57:11Z</time></trkpt><trkpt lat="45.56877298165627" lon="11.300988597294975"><ele>555.25</ele><time>2026-05-02T10:57:12Z</time></trkpt><trkpt lat="45.568784907842435" lon="11.301162408652667"><ele>555.5</ele><time>2026-05-02T10:57:13Z</time></trkpt><trkpt lat="45.56883507272863" lon="11.301298184203366"><ele>555.75</ele><time>2026-05-02T10:57:14Z</time></trkpt><trkpt lat="45.5689167671596" lon="11.301393870858723"><ele>556.0</ele><time>2026-05-02T10:57:15Z</time></trkpt><trkpt lat="45.56902396869921" lon="11.301456102725789"><ele>555.25</ele><time>2026-05-02T10:57:16Z</time></trkpt><trkpt lat="45.56914144115041" lon="11.301497278810151"><ele>554.5</ele><time>2026-05-02T10:57:17Z</time></trkpt><trkpt lat="45.56926262290128" lon="11.301549578100206"><ele>553.75</ele><time>2026-05-02T10:57:18Z</time></trkpt><trkpt lat="45.569398323633806" lon="11.301621010081615"><ele>553.0</ele><time>2026-05-02T10:57:19Z</time></trkpt><trkpt lat="45.56954540224476" lon="11.301687493805666"><ele>555.3333333333334</ele><time>2026-05-02T10:57:20Z</time></trkpt><trkpt lat="45.569711757208246" lon="11.301795433406818"><ele>557.6666666666666</ele><time>2026-05-02T10:57:21Z</time></trkpt><trkpt lat="45.569887996858455" lon="11.301957779309323"><ele>560.0</ele><time>2026-05-02T10:57:22Z</time></trkpt><trkpt lat="45.570113738155904" lon="11.30203580009389"><ele>560.0</ele><time>2026-05-02T10:57:23Z</time></trkpt><trkpt lat="45.57034601793719" lon="11.302086706729094"><ele>560.0</ele><time>2026-05-02T10:57:24Z</time></trkpt><trkpt lat="45.570247288841884" lon="11.302093683490105"><ele>560.0</ele><time>2026-05-02T10:57:25Z</time></trkpt><trkpt lat="45.570404416033796" lon="11.302101121184187"><ele>560.0</ele><time>2026-05-02T10:57:26Z</time></trkpt><trkpt lat="45.57056661168077" lon="11.302131746385838"><ele>560.0</ele><time>2026-05-02T10:57:27Z</time></trkpt><trkpt lat="45.57070740526092" lon="11.302220271346549"><ele>560.0</ele><time>2026-05-02T10:57:28Z</time></trkpt><trkpt lat="45.57084677410736" lon="11.302279724288208"><ele>560.0</ele><time>2026-05-02T10:57:29Z</time></trkpt><trkpt lat="45.57095241743294" lon="11.302359684143342"><ele>560.0</ele><time>2026-05-02T10:57:30Z</time></trkpt><trkpt lat="45.5710447341586" lon="11.3023677283752"><ele>560.0</ele><time>2026-05-02T10:57:31Z</time></trkpt><trkpt lat="45.57111753237907" lon="11.302293041169193"><ele>560.0</ele><time>2026-05-02T10:57:32Z</time></trkpt><trkpt lat="45.571142129007846" lon="11.302143535353592"><ele>560.0</ele><time>2026-05-02T10:57:33Z</time></trkpt><trkpt lat="45.57115650287835" lon="11.302019477554849"><ele>562.8333333333333</ele><time>2026-05-02T10:57:34Z</time></trkpt><trkpt lat="45.57117506565252" lon="11.301897357075248"><ele>565.6666666666666</ele><time>2026-05-02T10:57:35Z</time></trkpt><trkpt lat="45.57120650167569" lon="11.301802204734196"><ele>568.5</ele><time>2026-05-02T10:57:35.999Z</time></trkpt><trkpt lat="45.57127689401498" lon="11.301763081229057"><ele>571.3333333333334</ele><time>2026-05-02T10:57:36.999Z</time></trkpt><trkpt lat="45.57134905850759" lon="11.301853423520235"><ele>574.1666666666667</ele><time>2026-05-02T10:57:37.999Z</time></trkpt><trkpt lat="45.571403705722666" lon="11.301932054735504"><ele>577.0</ele><time>2026-05-02T10:57:38.999Z</time></trkpt><trkpt lat="45.57140377062727" lon="11.30207742672733"><ele>576.25</ele><time>2026-05-02T10:57:39.999Z</time></trkpt><trkpt lat="45.57143991626879" lon="11.302239193347397"><ele>575.5</ele><time>2026-05-02T10:57:40.999Z</time></trkpt><trkpt lat="45.57148282001076" lon="11.302415714448806"><ele>574.75</ele><time>2026-05-02T10:57:41.999Z</time></trkpt><trkpt lat="45.57154066736143" lon="11.302607609760342"><ele>574.0</ele><time>2026-05-02T10:57:42.999Z</time></trkpt><trkpt lat="45.57159843895282" lon="11.302824757305146"><ele>574.0</ele><time>2026-05-02T10:57:43.999Z</time></trkpt><trkpt lat="45.57165411344158" lon="11.303044542551142"><ele>574.0</ele><time>2026-05-02T10:57:44.999Z</time></trkpt><trkpt lat="45.57171577662851" lon="11.303256695343054"><ele>574.0</ele><time>2026-05-02T10:57:45.999Z</time></trkpt><trkpt lat="45.571801092454194" lon="11.303429109856731"><ele>575.5</ele><time>2026-05-02T10:57:46.999Z</time></trkpt><trkpt lat="45.57187876479564" lon="11.30358043121713"><ele>577.0</ele><time>2026-05-02T10:57:47.999Z</time></trkpt><trkpt lat="45.571948687474105" lon="11.303704513299627"><ele>578.5</ele><time>2026-05-02T10:57:48.999Z</time></trkpt><trkpt lat="45.572030960388986" lon="11.30379073860473"><ele>580.0</ele><time>2026-05-02T10:57:49.999Z</time></trkpt><trkpt lat="45.57213645520343" lon="11.303821510550023"><ele>580.0</ele><time>2026-05-02T10:57:50.999Z</time></trkpt><trkpt lat="45.57226314611899" lon="11.303826110166073"><ele>580.0</ele><time>2026-05-02T10:57:51.999Z</time></trkpt><trkpt lat="45.57238664639802" lon="11.303843010988112"><ele>580.0</ele><time>2026-05-02T10:57:52.999Z</time></trkpt><trkpt lat="45.57249656161256" lon="11.303951640750233"><ele>580.0</ele><time>2026-05-02T10:57:53.999Z</time></trkpt><trkpt lat="45.57260348060276" lon="11.304091918784517"><ele>580.25</ele><time>2026-05-02T10:57:54.999Z</time></trkpt><trkpt lat="45.572733655514824" lon="11.304213359876018"><ele>580.5</ele><time>2026-05-02T10:57:55.999Z</time></trkpt><trkpt lat="45.57283579242728" lon="11.30433251465983"><ele>580.75</ele><time>2026-05-02T10:57:56.999Z</time></trkpt><trkpt lat="45.57290866508424" lon="11.304460125197608"><ele>581.0</ele><time>2026-05-02T10:57:57.999Z</time></trkpt><trkpt lat="45.572958721440266" lon="11.30459441728305"><ele>577.5</ele><time>2026-05-02T10:57:58.999Z</time></trkpt><trkpt lat="45.572966207590696" lon="11.304747525218797"><ele>574.0</ele><time>2026-05-02T10:57:59.999Z</time></trkpt><trkpt lat="45.57300687392148" lon="11.304915920931792"><ele>570.5</ele><time>2026-05-02T10:58:00.999Z</time></trkpt><trkpt lat="45.57304649154735" lon="11.305084380092593"><ele>567.0</ele><time>2026-05-02T10:58:01.999Z</time></trkpt><trkpt lat="45.573140733693506" lon="11.30523774897984"><ele>567.0</ele><time>2026-05-02T10:58:02.999Z</time></trkpt><trkpt lat="45.57324412013277" lon="11.30538986288251"><ele>567.0</ele><time>2026-05-02T10:58:03.999Z</time></trkpt><trkpt lat="45.5733417245387" lon="11.305558160672607"><ele>567.0</ele><time>2026-05-02T10:58:04.999Z</time></trkpt><trkpt lat="45.57342922049143" lon="11.305711548447823"><ele>567.0</ele><time>2026-05-02T10:58:05.999Z</time></trkpt><trkpt lat="45.57352952690685" lon="11.305828770360502"><ele>565.0</ele><time>2026-05-02T10:58:06.999Z</time></trkpt><trkpt lat="45.57364942519019" lon="11.305920515623571"><ele>563.0</ele><time>2026-05-02T10:58:07.999Z</time></trkpt><trkpt lat="45.57377625836687" lon="11.30596739421896"><ele>561.0</ele><time>2026-05-02T10:58:08.999Z</time></trkpt><trkpt lat="45.57390614755833" lon="11.305973284577812"><ele>559.0</ele><time>2026-05-02T10:58:09.999Z</time></trkpt><trkpt lat="45.57404334540082" lon="11.305924851158364"><ele>557.6666666666667</ele><time>2026-05-02T10:58:10.999Z</time></trkpt><trkpt lat="45.574179636764214" lon="11.305859247313641"><ele>556.3333333333334</ele><time>2026-05-02T10:58:11.999Z</time></trkpt><trkpt lat="45.574318965163" lon="11.30576551660749"><ele>555.0</ele><time>2026-05-02T10:58:12.999Z</time></trkpt><trkpt lat="45.57445826028037" lon="11.305678104347407"><ele>555.75</ele><time>2026-05-02T10:58:13.999Z</time></trkpt><trkpt lat="45.57460248870729" lon="11.305605035368394"><ele>556.5</ele><time>2026-05-02T10:58:14.999Z</time></trkpt><trkpt lat="45.57473910740792" lon="11.30551846551756"><ele>557.25</ele><time>2026-05-02T10:58:15.999Z</time></trkpt><trkpt lat="45.57486057880497" lon="11.3054011944826"><ele>558.0</ele><time>2026-05-02T10:58:16.999Z</time></trkpt><trkpt lat="45.574978783208486" lon="11.305269644928153"><ele>558.0</ele><time>2026-05-02T10:58:17.999Z</time></trkpt><trkpt lat="45.5751052186729" lon="11.305145123248423"><ele>558.0</ele><time>2026-05-02T10:58:18.999Z</time></trkpt><trkpt lat="45.57523548540311" lon="11.30504757136125"><ele>558.0</ele><time>2026-05-02T10:58:19.999Z</time></trkpt><trkpt lat="45.57536933112169" lon="11.304969199699238"><ele>558.0</ele><time>2026-05-02T10:58:20.999Z</time></trkpt><trkpt lat="45.57549302946437" lon="11.304876311097566"><ele>559.25</ele><time>2026-05-02T10:58:21.999Z</time></trkpt><trkpt lat="45.5756038577883" lon="11.304737083461736"><ele>560.5</ele><time>2026-05-02T10:58:22.999Z</time></trkpt><trkpt lat="45.57570650180469" lon="11.30458972415982"><ele>561.75</ele><time>2026-05-02T10:58:23.999Z</time></trkpt><trkpt lat="45.57581267067191" lon="11.304456049376727"><ele>563.0</ele><time>2026-05-02T10:58:24.999Z</time></trkpt><trkpt lat="45.575925261159746" lon="11.304364820950843"><ele>563.0</ele><time>2026-05-02T10:58:25.999Z</time></trkpt><trkpt lat="45.576040296771254" lon="11.30431416346305"><ele>563.0</ele><time>2026-05-02T10:58:26.999Z</time></trkpt><trkpt lat="45.57614850129254" lon="11.304271292408961"><ele>563.0</ele><time>2026-05-02T10:58:27.999Z</time></trkpt><trkpt lat="45.57623195636631" lon="11.304197085925345"><ele>563.0</ele><time>2026-05-02T10:58:28.999Z</time></trkpt><trkpt lat="45.5763020579232" lon="11.304058277421635"><ele>562.6</ele><time>2026-05-02T10:58:29.999Z</time></trkpt><trkpt lat="45.576360628504474" lon="11.30390313063794"><ele>562.1999999999999</ele><time>2026-05-02T10:58:30.999Z</time></trkpt><trkpt lat="45.5764239485583" lon="11.303780507874281"><ele>561.8</ele><time>2026-05-02T10:58:31.999Z</time></trkpt><trkpt lat="45.576501230701226" lon="11.30370289451838"><ele>561.4</ele><time>2026-05-02T10:58:32.999Z</time></trkpt><trkpt lat="45.576585774654276" lon="11.303697334664001"><ele>561.0</ele><time>2026-05-02T10:58:33.999Z</time></trkpt><trkpt lat="45.576674153348456" lon="11.303734884918367"><ele>561.0</ele><time>2026-05-02T10:58:34.999Z</time></trkpt><trkpt lat="45.57673027800149" lon="11.30382178911426"><ele>561.0</ele><time>2026-05-02T10:58:35.999Z</time></trkpt><trkpt lat="45.57674545292727" lon="11.303927932455686"><ele>561.0</ele><time>2026-05-02T10:58:36.999Z</time></trkpt><trkpt lat="45.57668188596675" lon="11.304026030697388"><ele>561.0</ele><time>2026-05-02T10:58:37.999Z</time></trkpt><trkpt lat="45.57663505121262" lon="11.304134077520889"><ele>561.0</ele><time>2026-05-02T10:58:39Z</time></trkpt><trkpt lat="45.57657759752574" lon="11.304244287177236"><ele>561.0</ele><time>2026-05-02T10:58:40Z</time></trkpt><trkpt lat="45.57654727982806" lon="11.304396878732062"><ele>558.0</ele><time>2026-05-02T10:58:41Z</time></trkpt><trkpt lat="45.57654125196409" lon="11.304564818037859"><ele>555.0</ele><time>2026-05-02T10:58:42Z</time></trkpt><trkpt lat="45.576580214487635" lon="11.304734725237221"><ele>552.0</ele><time>2026-05-02T10:58:43Z</time></trkpt><trkpt lat="45.57663941544717" lon="11.30487729090667"><ele>549.0</ele><time>2026-05-02T10:58:44Z</time></trkpt><trkpt lat="45.57672371809645" lon="11.304983270948231"><ele>546.75</ele><time>2026-05-02T10:58:45Z</time></trkpt><trkpt lat="45.57684030456935" lon="11.305048597343658"><ele>544.5</ele><time>2026-05-02T10:58:46Z</time></trkpt><trkpt lat="45.57696177405046" lon="11.305072132127766"><ele>542.25</ele><time>2026-05-02T10:58:47Z</time></trkpt><trkpt lat="45.577079908074175" lon="11.305112705785147"><ele>540.0</ele><time>2026-05-02T10:58:48Z</time></trkpt><trkpt lat="45.57717596314347" lon="11.305190143937663"><ele>544.5</ele><time>2026-05-02T10:58:49Z</time></trkpt><trkpt lat="45.577239989034275" lon="11.305344339657822"><ele>549.0</ele><time>2026-05-02T10:58:50Z</time></trkpt><trkpt lat="45.577308547031926" lon="11.305498191381577"><ele>553.5</ele><time>2026-05-02T10:58:51Z</time></trkpt><trkpt lat="45.57738764149226" lon="11.30565598117357"><ele>558.0</ele><time>2026-05-02T10:58:52Z</time></trkpt><trkpt lat="45.57745926495927" lon="11.305836547045848"><ele>558.0</ele><time>2026-05-02T10:58:53Z</time></trkpt><trkpt lat="45.57753399248711" lon="11.305998418994795"><ele>558.0</ele><time>2026-05-02T10:58:54Z</time></trkpt><trkpt lat="45.57761158189967" lon="11.306126468145576"><ele>558.0</ele><time>2026-05-02T10:58:55Z</time></trkpt><trkpt lat="45.57771394042977" lon="11.306198813213728"><ele>558.0</ele><time>2026-05-02T10:58:56Z</time></trkpt><trkpt lat="45.5778467789554" lon="11.306216702402528"><ele>561.3333333333334</ele><time>2026-05-02T10:58:57Z</time></trkpt><trkpt lat="45.577998421497426" lon="11.306215580514591"><ele>564.6666666666667</ele><time>2026-05-02T10:58:58Z</time></trkpt><trkpt lat="45.57815318092232" lon="11.30621680913469"><ele>568.0</ele><time>2026-05-02T10:58:59Z</time></trkpt><trkpt lat="45.57829975431001" lon="11.306278230374039"><ele>568.0</ele><time>2026-05-02T10:59:00Z</time></trkpt><trkpt lat="45.57843869084878" lon="11.306334944757197"><ele>568.0</ele><time>2026-05-02T10:59:01Z</time></trkpt><trkpt lat="45.57855285304324" lon="11.306403775730685"><ele>568.0</ele><time>2026-05-02T10:59:02Z</time></trkpt><trkpt lat="45.57864234954394" lon="11.306491266170532"><ele>568.0</ele><time>2026-05-02T10:59:03Z</time></trkpt><trkpt lat="45.57866181601609" lon="11.306650779911958"><ele>566.8</ele><time>2026-05-02T10:59:04Z</time></trkpt><trkpt lat="45.57871028172437" lon="11.306786077127303"><ele>565.5999999999999</ele><time>2026-05-02T10:59:05Z</time></trkpt><trkpt lat="45.578766045969736" lon="11.306903483027392"><ele>564.4000000000001</ele><time>2026-05-02T10:59:06Z</time></trkpt><trkpt lat="45.57885755273045" lon="11.306940756999227"><ele>563.2</ele><time>2026-05-02T10:59:07Z</time></trkpt><trkpt lat="45.57895612357576" lon="11.306914383501008"><ele>562.0</ele><time>2026-05-02T10:59:08Z</time></trkpt><trkpt lat="45.57905352371955" lon="11.306919624130694"><ele>562.0</ele><time>2026-05-02T10:59:09Z</time></trkpt><trkpt lat="45.5791468013258" lon="11.306927926052477"><ele>562.0</ele><time>2026-05-02T10:59:10Z</time></trkpt><trkpt lat="45.579212655845495" lon="11.307036457098276"><ele>562.0</ele><time>2026-05-02T10:59:11Z</time></trkpt><trkpt lat="45.5792495045195" lon="11.307191834990599"><ele>562.0</ele><time>2026-05-02T10:59:12Z</time></trkpt><trkpt lat="45.57927956756929" lon="11.307365802425128"><ele>562.0</ele><time>2026-05-02T10:59:13Z</time></trkpt><trkpt lat="45.579329263688756" lon="11.307545049330013"><ele>560.0</ele><time>2026-05-02T10:59:14Z</time></trkpt><trkpt lat="45.57939512468571" lon="11.307741127401838"><ele>558.0</ele><time>2026-05-02T10:59:15Z</time></trkpt><trkpt lat="45.5794731723888" lon="11.307937156003693"><ele>556.0</ele><time>2026-05-02T10:59:16Z</time></trkpt><trkpt lat="45.57956370407303" lon="11.308114090725956"><ele>556.0</ele><time>2026-05-02T10:59:17Z</time></trkpt><trkpt lat="45.579649102877326" lon="11.308271601575063"><ele>556.0</ele><time>2026-05-02T10:59:18Z</time></trkpt><trkpt lat="45.57975092825754" lon="11.308410642877238"><ele>556.0</ele><time>2026-05-02T10:59:19Z</time></trkpt><trkpt lat="45.5798674242512" lon="11.308517601613104"><ele>556.0</ele><time>2026-05-02T10:59:20Z</time></trkpt><trkpt lat="45.57997307985066" lon="11.308620154470892"><ele>556.0</ele><time>2026-05-02T10:59:21Z</time></trkpt><trkpt lat="45.58003780694308" lon="11.308770899994514"><ele>556.0</ele><time>2026-05-02T10:59:22Z</time></trkpt><trkpt lat="45.58009194556945" lon="11.308924781512209"><ele>556.0</ele><time>2026-05-02T10:59:23Z</time></trkpt><trkpt lat="45.580125843822096" lon="11.309092173107132"><ele>556.0</ele><time>2026-05-02T10:59:24Z</time></trkpt><trkpt lat="45.58014773366962" lon="11.309264722487285"><ele>554.6666666666667</ele><time>2026-05-02T10:59:25Z</time></trkpt><trkpt lat="45.58017997855749" lon="11.309425358451453"><ele>553.3333333333334</ele><time>2026-05-02T10:59:26Z</time></trkpt><trkpt lat="45.58019159636616" lon="11.309566867135235"><ele>552.0</ele><time>2026-05-02T10:59:27Z</time></trkpt><trkpt lat="45.58022478233233" lon="11.309674143947714"><ele>550.6666666666666</ele><time>2026-05-02T10:59:28Z</time></trkpt><trkpt lat="45.58027955352739" lon="11.309728013299775"><ele>549.3333333333333</ele><time>2026-05-02T10:59:29Z</time></trkpt><trkpt lat="45.58035075340645" lon="11.309736414258808"><ele>548.0</ele><time>2026-05-02T10:59:30Z</time></trkpt><trkpt lat="45.58043284904539" lon="11.309697204886172"><ele>548.0</ele><time>2026-05-02T10:59:31Z</time></trkpt><trkpt lat="45.580513715338164" lon="11.309625951074647"><ele>548.0</ele><time>2026-05-02T10:59:32Z</time></trkpt><trkpt lat="45.58060319858566" lon="11.309544073102984"><ele>548.0</ele><time>2026-05-02T10:59:33Z</time></trkpt><trkpt lat="45.58070829374395" lon="11.309443263813376"><ele>548.0</ele><time>2026-05-02T10:59:34Z</time></trkpt><trkpt lat="45.58082413056718" lon="11.30934007239873"><ele>548.0</ele><time>2026-05-02T10:59:35Z</time></trkpt><trkpt lat="45.58093919764958" lon="11.309230111760025"><ele>548.0</ele><time>2026-05-02T10:59:36Z</time></trkpt><trkpt lat="45.58105569462928" lon="11.309163130094417"><ele>548.0</ele><time>2026-05-02T10:59:37Z</time></trkpt><trkpt lat="45.581170717254835" lon="11.309110039700919"><ele>548.0</ele><time>2026-05-02T10:59:38Z</time></trkpt><trkpt lat="45.581289559415765" lon="11.309104364632793"><ele>546.0</ele><time>2026-05-02T10:59:39Z</time></trkpt><trkpt lat="45.581416531415485" lon="11.30912857323698"><ele>544.0</ele><time>2026-05-02T10:59:40Z</time></trkpt><trkpt lat="45.58156504204337" lon="11.309156495606258"><ele>542.0</ele><time>2026-05-02T10:59:41Z</time></trkpt><trkpt lat="45.58172503038893" lon="11.30915364552057"><ele>540.0</ele><time>2026-05-02T10:59:42Z</time></trkpt><trkpt lat="45.58188044149003" lon="11.309183213006452"><ele>539.5</ele><time>2026-05-02T10:59:43Z</time></trkpt><trkpt lat="45.582034104227894" lon="11.309190869654666"><ele>539.0</ele><time>2026-05-02T10:59:44Z</time></trkpt><trkpt lat="45.582176111680695" lon="11.309205123646626"><ele>538.5</ele><time>2026-05-02T10:59:45Z</time></trkpt><trkpt lat="45.5823201327456" lon="11.309231518219852"><ele>538.0</ele><time>2026-05-02T10:59:45.999Z</time></trkpt><trkpt lat="45.582453258953976" lon="11.309301137690875"><ele>538.0</ele><time>2026-05-02T10:59:46.999Z</time></trkpt><trkpt lat="45.58258779478916" lon="11.309393644651818"><ele>538.0</ele><time>2026-05-02T10:59:47.999Z</time></trkpt><trkpt lat="45.582724051837715" lon="11.30949246596411"><ele>538.0</ele><time>2026-05-02T10:59:48.999Z</time></trkpt><trkpt lat="45.58286182214438" lon="11.309557356797123"><ele>538.0</ele><time>2026-05-02T10:59:49.999Z</time></trkpt><trkpt lat="45.58299110671023" lon="11.309609956037956"><ele>538.25</ele><time>2026-05-02T10:59:50.999Z</time></trkpt><trkpt lat="45.583119010777395" lon="11.309612100286365"><ele>538.5</ele><time>2026-05-02T10:59:51.999Z</time></trkpt><trkpt lat="45.583247780539175" lon="11.309616680413118"><ele>538.75</ele><time>2026-05-02T10:59:52.999Z</time></trkpt><trkpt lat="45.583375855510354" lon="11.309628889757668"><ele>539.0</ele><time>2026-05-02T10:59:53.999Z</time></trkpt><trkpt lat="45.58351459557649" lon="11.309644868394125"><ele>539.0</ele><time>2026-05-02T10:59:54.999Z</time></trkpt><trkpt lat="45.58366847610007" lon="11.309639095058362"><ele>539.0</ele><time>2026-05-02T10:59:55.999Z</time></trkpt><trkpt lat="45.583820124427454" lon="11.30974503216787"><ele>539.0</ele><time>2026-05-02T10:59:56.999Z</time></trkpt><trkpt lat="45.583972302714386" lon="11.309879563397427"><ele>536.3333333333333</ele><time>2026-05-02T10:59:57.999Z</time></trkpt><trkpt lat="45.58412392360891" lon="11.31001145833273"><ele>533.6666666666666</ele><time>2026-05-02T10:59:58.999Z</time></trkpt><trkpt lat="45.584273604245" lon="11.310160347511681"><ele>531.0</ele><time>2026-05-02T10:59:59.999Z</time></trkpt><trkpt lat="45.584431511360656" lon="11.31032748838115"><ele>531.3333333333334</ele><time>2026-05-02T11:00:00.999Z</time></trkpt><trkpt lat="45.58459132778275" lon="11.310487336406624"><ele>531.6666666666667</ele><time>2026-05-02T11:00:01.999Z</time></trkpt><trkpt lat="45.584742336648254" lon="11.310633615529152"><ele>532.0</ele><time>2026-05-02T11:00:02.999Z</time></trkpt><trkpt lat="45.5848796955608" lon="11.310770333321624"><ele>531.0</ele><time>2026-05-02T11:00:03.999Z</time></trkpt><trkpt lat="45.58498863050171" lon="11.310888497739564"><ele>530.0</ele><time>2026-05-02T11:00:04.999Z</time></trkpt><trkpt lat="45.58509782753624" lon="11.31098458742446"><ele>529.0</ele><time>2026-05-02T11:00:05.999Z</time></trkpt><trkpt lat="45.585205454677464" lon="11.311040817928758"><ele>528.0</ele><time>2026-05-02T11:00:06.999Z</time></trkpt><trkpt lat="45.58533794110109" lon="11.311057816031939"><ele>526.6666666666666</ele><time>2026-05-02T11:00:07.999Z</time></trkpt><trkpt lat="45.58551142050819" lon="11.311081821744253"><ele>525.3333333333333</ele><time>2026-05-02T11:00:08.999Z</time></trkpt><trkpt lat="45.585673196151404" lon="11.311055072736455"><ele>524.0</ele><time>2026-05-02T11:00:09.999Z</time></trkpt><trkpt lat="45.58582997368472" lon="11.311045505360463"><ele>524.0</ele><time>2026-05-02T11:00:10.999Z</time></trkpt><trkpt lat="45.585976115765476" lon="11.31103800032675"><ele>524.0</ele><time>2026-05-02T11:00:11.999Z</time></trkpt><trkpt lat="45.58611474649244" lon="11.311071946078721"><ele>524.0</ele><time>2026-05-02T11:00:12.999Z</time></trkpt><trkpt lat="45.58623029810123" lon="11.311187308741518"><ele>524.0</ele><time>2026-05-02T11:00:13.999Z</time></trkpt><trkpt lat="45.58634210478603" lon="11.311287577928033"><ele>523.25</ele><time>2026-05-02T11:00:14.999Z</time></trkpt><trkpt lat="45.58645219286935" lon="11.311381559226936"><ele>522.5</ele><time>2026-05-02T11:00:15.999Z</time></trkpt><trkpt lat="45.58656537351166" lon="11.311439387050086"><ele>521.75</ele><time>2026-05-02T11:00:16.999Z</time></trkpt><trkpt lat="45.58666966420893" lon="11.311498400722783"><ele>521.0</ele><time>2026-05-02T11:00:17.999Z</time></trkpt><trkpt lat="45.58678011856741" lon="11.31152968813826"><ele>520.0</ele><time>2026-05-02T11:00:18.999Z</time></trkpt><trkpt lat="45.58689118694645" lon="11.311515853882204"><ele>519.0</ele><time>2026-05-02T11:00:19.999Z</time></trkpt><trkpt lat="45.58701002918797" lon="11.311441891118415"><ele>518.0</ele><time>2026-05-02T11:00:20.999Z</time></trkpt><trkpt lat="45.58713564307871" lon="11.311346220594334"><ele>517.0</ele><time>2026-05-02T11:00:21.999Z</time></trkpt><trkpt lat="45.58728021121452" lon="11.31129906240853"><ele>517.0</ele><time>2026-05-02T11:00:22.999Z</time></trkpt><trkpt lat="45.58740554390163" lon="11.311266734501539"><ele>517.0</ele><time>2026-05-02T11:00:23.999Z</time></trkpt><trkpt lat="45.58754136065747" lon="11.31122364471213"><ele>517.0</ele><time>2026-05-02T11:00:24.999Z</time></trkpt><trkpt lat="45.58768603272818" lon="11.311132437435644"><ele>517.0</ele><time>2026-05-02T11:00:25.999Z</time></trkpt><trkpt lat="45.58782813290831" lon="11.311025590336445"><ele>517.0</ele><time>2026-05-02T11:00:26.999Z</time></trkpt><trkpt lat="45.587929366274246" lon="11.310920490132931"><ele>517.0</ele><time>2026-05-02T11:00:27.999Z</time></trkpt><trkpt lat="45.588010490794765" lon="11.310795275295277"><ele>517.0</ele><time>2026-05-02T11:00:28.999Z</time></trkpt><trkpt lat="45.58806159446247" lon="11.310633294367626"><ele>517.0</ele><time>2026-05-02T11:00:29.999Z</time></trkpt><trkpt lat="45.588084514077856" lon="11.31047291645121"><ele>517.0</ele><time>2026-05-02T11:00:30.999Z</time></trkpt><trkpt lat="45.588081037987926" lon="11.310330967548852"><ele>517.0</ele><time>2026-05-02T11:00:31.999Z</time></trkpt><trkpt lat="45.58807333904701" lon="11.310233616994724"><ele>517.0</ele><time>2026-05-02T11:00:32.999Z</time></trkpt><trkpt lat="45.58810210537263" lon="11.310143655885728"><ele>517.0</ele><time>2026-05-02T11:00:33.999Z</time></trkpt><trkpt lat="45.58817089972006" lon="11.310100612151148"><ele>517.0</ele><time>2026-05-02T11:00:34.999Z</time></trkpt><trkpt lat="45.58825504466373" lon="11.31010150460305"><ele>517.0</ele><time>2026-05-02T11:00:35.999Z</time></trkpt><trkpt lat="45.588340281979065" lon="11.310161565410539"><ele>517.0</ele><time>2026-05-02T11:00:36.999Z</time></trkpt><trkpt lat="45.58845324240478" lon="11.31020207822381"><ele>517.0</ele><time>2026-05-02T11:00:37.999Z</time></trkpt><trkpt lat="45.58856789091862" lon="11.310262588837771"><ele>517.0</ele><time>2026-05-02T11:00:38.999Z</time></trkpt><trkpt lat="45.5886510268381" lon="11.310380421186144"><ele>517.0</ele><time>2026-05-02T11:00:39.999Z</time></trkpt><trkpt lat="45.588691236854324" lon="11.310535978965206"><ele>517.5</ele><time>2026-05-02T11:00:40.999Z</time></trkpt><trkpt lat="45.58873479101724" lon="11.310739190781797"><ele>518.0</ele><time>2026-05-02T11:00:41.999Z</time></trkpt><trkpt lat="45.58873229183982" lon="11.310938218656203"><ele>518.5</ele><time>2026-05-02T11:00:42.999Z</time></trkpt><trkpt lat="45.58867641765809" lon="11.311103047542371"><ele>519.0</ele><time>2026-05-02T11:00:43.999Z</time></trkpt><trkpt lat="45.58864155611754" lon="11.311262500007212"><ele>518.5</ele><time>2026-05-02T11:00:45.001Z</time></trkpt><trkpt lat="45.58860655266399" lon="11.311423438819466"><ele>518.0</ele><time>2026-05-02T11:00:46.001Z</time></trkpt><trkpt lat="45.588620870864624" lon="11.311605530888738"><ele>517.5</ele><time>2026-05-02T11:00:47.001Z</time></trkpt><trkpt lat="45.588671753721556" lon="11.311778628104578"><ele>517.0</ele><time>2026-05-02T11:00:48.001Z</time></trkpt><trkpt lat="45.58874901715741" lon="11.311949655463994"><ele>517.0</ele><time>2026-05-02T11:00:49.001Z</time></trkpt><trkpt lat="45.58882280833371" lon="11.312102901823952"><ele>517.0</ele><time>2026-05-02T11:00:50.001Z</time></trkpt><trkpt lat="45.58888930832004" lon="11.312242447751306"><ele>517.0</ele><time>2026-05-02T11:00:51.001Z</time></trkpt><trkpt lat="45.58895625623961" lon="11.31237211834095"><ele>517.0</ele><time>2026-05-02T11:00:52.001Z</time></trkpt><trkpt lat="45.58907920310707" lon="11.3124552453612"><ele>514.3333333333334</ele><time>2026-05-02T11:00:53.001Z</time></trkpt><trkpt lat="45.589211947728245" lon="11.312543512965473"><ele>511.66666666666663</ele><time>2026-05-02T11:00:54.001Z</time></trkpt><trkpt lat="45.589346458661765" lon="11.312651400691427"><ele>509.0</ele><time>2026-05-02T11:00:55.001Z</time></trkpt><trkpt lat="45.58948725007085" lon="11.312769073036161"><ele>510.5</ele><time>2026-05-02T11:00:56Z</time></trkpt><trkpt lat="45.589630456353646" lon="11.312852327365356"><ele>512.0</ele><time>2026-05-02T11:00:57Z</time></trkpt><trkpt lat="45.5897672765631" lon="11.31290390802015"><ele>513.5</ele><time>2026-05-02T11:00:58Z</time></trkpt><trkpt lat="45.58989423031242" lon="11.312976381218165"><ele>515.0</ele><time>2026-05-02T11:00:59Z</time></trkpt><trkpt lat="45.590014572882104" lon="11.3130056807316"><ele>515.0</ele><time>2026-05-02T11:01:00Z</time></trkpt><trkpt lat="45.59010630689814" lon="11.313069821635498"><ele>515.0</ele><time>2026-05-02T11:01:01Z</time></trkpt><trkpt lat="45.590191760969034" lon="11.313123894000599"><ele>515.0</ele><time>2026-05-02T11:01:02Z</time></trkpt><trkpt lat="45.59026154772394" lon="11.313180369877982"><ele>515.0</ele><time>2026-05-02T11:01:03Z</time></trkpt><trkpt lat="45.590286820222" lon="11.31330306956011"><ele>515.0</ele><time>2026-05-02T11:01:04Z</time></trkpt><trkpt lat="45.59028451366254" lon="11.313448643556011"><ele>512.0</ele><time>2026-05-02T11:01:05Z</time></trkpt><trkpt lat="45.59026459368175" lon="11.313590146309027"><ele>509.0</ele><time>2026-05-02T11:01:06Z</time></trkpt><trkpt lat="45.5901917677377" lon="11.31370819947484"><ele>506.0</ele><time>2026-05-02T11:01:07Z</time></trkpt><trkpt lat="45.59011294076408" lon="11.313827399176052"><ele>503.0</ele><time>2026-05-02T11:01:08Z</time></trkpt><trkpt lat="45.59002504271248" lon="11.313947714824472"><ele>500.0</ele><time>2026-05-02T11:01:09Z</time></trkpt><trkpt lat="45.58995706932198" lon="11.314107984663313"><ele>499.66666666666663</ele><time>2026-05-02T11:01:10Z</time></trkpt><trkpt lat="45.589915033750536" lon="11.314322607639207"><ele>499.33333333333337</ele><time>2026-05-02T11:01:11Z</time></trkpt><trkpt lat="45.58987754572548" lon="11.314541559718808"><ele>499.0</ele><time>2026-05-02T11:01:12Z</time></trkpt><trkpt lat="45.58984217990033" lon="11.314782247446631"><ele>499.6666666666667</ele><time>2026-05-02T11:01:13Z</time></trkpt><trkpt lat="45.589808442018864" lon="11.31502960604926"><ele>500.33333333333337</ele><time>2026-05-02T11:01:14Z</time></trkpt><trkpt lat="45.58977579266025" lon="11.31526167845328"><ele>501.0</ele><time>2026-05-02T11:01:15Z</time></trkpt><trkpt lat="45.58973431438498" lon="11.315471530350628"><ele>501.66666666666663</ele><time>2026-05-02T11:01:16Z</time></trkpt><trkpt lat="45.58966034031312" lon="11.31567083268818"><ele>502.3333333333333</ele><time>2026-05-02T11:01:17Z</time></trkpt><trkpt lat="45.58958932663613" lon="11.31586447339604"><ele>503.0</ele><time>2026-05-02T11:01:18Z</time></trkpt><trkpt lat="45.58951768209355" lon="11.316047923078143"><ele>500.25</ele><time>2026-05-02T11:01:19Z</time></trkpt><trkpt lat="45.58945985949832" lon="11.316220252923982"><ele>497.5</ele><time>2026-05-02T11:01:20Z</time></trkpt><trkpt lat="45.589356987661546" lon="11.316344428485799"><ele>494.75</ele><time>2026-05-02T11:01:21Z</time></trkpt><trkpt lat="45.58925624863335" lon="11.316482903866623"><ele>492.0</ele><time>2026-05-02T11:01:22Z</time></trkpt><trkpt lat="45.58911373137252" lon="11.31655655208751"><ele>492.0</ele><time>2026-05-02T11:01:23Z</time></trkpt><trkpt lat="45.58900616138625" lon="11.316663161601667"><ele>492.0</ele><time>2026-05-02T11:01:24Z</time></trkpt><trkpt lat="45.58890533481835" lon="11.316770613658457"><ele>492.0</ele><time>2026-05-02T11:01:25Z</time></trkpt><trkpt lat="45.58882967097769" lon="11.316908900370718"><ele>492.0</ele><time>2026-05-02T11:01:26Z</time></trkpt><trkpt lat="45.58878526895272" lon="11.317103358193334"><ele>494.0</ele><time>2026-05-02T11:01:27Z</time></trkpt><trkpt lat="45.588750682184134" lon="11.31730728139795"><ele>496.0</ele><time>2026-05-02T11:01:28Z</time></trkpt><trkpt lat="45.58871776774414" lon="11.317513289714366"><ele>498.0</ele><time>2026-05-02T11:01:29Z</time></trkpt><trkpt lat="45.58868024689265" lon="11.317729495060435"><ele>495.5</ele><time>2026-05-02T11:01:30Z</time></trkpt><trkpt lat="45.58864014227687" lon="11.317942254711232"><ele>493.0</ele><time>2026-05-02T11:01:31Z</time></trkpt><trkpt lat="45.58862811878013" lon="11.318149866115697"><ele>490.5</ele><time>2026-05-02T11:01:32Z</time></trkpt><trkpt lat="45.588602296666515" lon="11.318340390190128"><ele>488.0</ele><time>2026-05-02T11:01:33Z</time></trkpt><trkpt lat="45.58858521193643" lon="11.318519615071699"><ele>488.0</ele><time>2026-05-02T11:01:34Z</time></trkpt><trkpt lat="45.58859090240221" lon="11.318703867867727"><ele>488.0</ele><time>2026-05-02T11:01:35Z</time></trkpt><trkpt lat="45.58861723093884" lon="11.318886631233951"><ele>488.0</ele><time>2026-05-02T11:01:36Z</time></trkpt><trkpt lat="45.58864031600868" lon="11.319061278208276"><ele>488.0</ele><time>2026-05-02T11:01:37Z</time></trkpt><trkpt lat="45.58865856193647" lon="11.319217599572887"><ele>489.25</ele><time>2026-05-02T11:01:38Z</time></trkpt><trkpt lat="45.588691093476434" lon="11.319369450207923"><ele>490.5</ele><time>2026-05-02T11:01:39Z</time></trkpt><trkpt lat="45.58873293149304" lon="11.31951248800174"><ele>491.75</ele><time>2026-05-02T11:01:40Z</time></trkpt><trkpt lat="45.58881246914621" lon="11.319646754970817"><ele>493.0</ele><time>2026-05-02T11:01:41Z</time></trkpt><trkpt lat="45.58889724667843" lon="11.319798961369814"><ele>493.0</ele><time>2026-05-02T11:01:42Z</time></trkpt><trkpt lat="45.58898391346107" lon="11.31995510491415"><ele>493.0</ele><time>2026-05-02T11:01:43Z</time></trkpt><trkpt lat="45.5890430971818" lon="11.320131697178029"><ele>493.0</ele><time>2026-05-02T11:01:44Z</time></trkpt><trkpt lat="45.58912236560022" lon="11.320292145068032"><ele>493.0</ele><time>2026-05-02T11:01:45Z</time></trkpt><trkpt lat="45.58916401728919" lon="11.320473549180903"><ele>491.0</ele><time>2026-05-02T11:01:46Z</time></trkpt><trkpt lat="45.589200554484115" lon="11.320673782488246"><ele>489.0</ele><time>2026-05-02T11:01:47Z</time></trkpt><trkpt lat="45.58923863819707" lon="11.320895292838335"><ele>487.0</ele><time>2026-05-02T11:01:48Z</time></trkpt><trkpt lat="45.58928413186677" lon="11.321121526227495"><ele>487.0</ele><time>2026-05-02T11:01:48.999Z</time></trkpt><trkpt lat="45.58933157593775" lon="11.32132327719636"><ele>487.0</ele><time>2026-05-02T11:01:49.999Z</time></trkpt><trkpt lat="45.58937181796033" lon="11.321516962105916"><ele>487.0</ele><time>2026-05-02T11:01:50.999Z</time></trkpt><trkpt lat="45.58938701050172" lon="11.321719675583957"><ele>487.0</ele><time>2026-05-02T11:01:51.999Z</time></trkpt><trkpt lat="45.58938039829234" lon="11.321908698091004"><ele>486.0</ele><time>2026-05-02T11:01:52.999Z</time></trkpt><trkpt lat="45.58934940547653" lon="11.322110877099494"><ele>485.0</ele><time>2026-05-02T11:01:53.999Z</time></trkpt><trkpt lat="45.589329920010854" lon="11.322331094457914"><ele>484.0</ele><time>2026-05-02T11:01:54.999Z</time></trkpt><trkpt lat="45.58929220153429" lon="11.322547951026284"><ele>483.33333333333337</ele><time>2026-05-02T11:01:55.999Z</time></trkpt><trkpt lat="45.589256709094954" lon="11.322773430414173"><ele>482.66666666666663</ele><time>2026-05-02T11:01:56.999Z</time></trkpt><trkpt lat="45.589213579231696" lon="11.322990925029679"><ele>482.0</ele><time>2026-05-02T11:01:57.999Z</time></trkpt><trkpt lat="45.58916751665204" lon="11.323196055375883"><ele>480.75</ele><time>2026-05-02T11:01:58.999Z</time></trkpt><trkpt lat="45.58914496659269" lon="11.323400231687929"><ele>479.5</ele><time>2026-05-02T11:01:59.999Z</time></trkpt><trkpt lat="45.58909869744125" lon="11.323582630584824"><ele>478.25</ele><time>2026-05-02T11:02:00.999Z</time></trkpt><trkpt lat="45.589026560158516" lon="11.323746063519586"><ele>477.0</ele><time>2026-05-02T11:02:01.999Z</time></trkpt><trkpt lat="45.58895435565598" lon="11.323911686337082"><ele>476.75</ele><time>2026-05-02T11:02:02.999Z</time></trkpt><trkpt lat="45.588875094100274" lon="11.3240685082501"><ele>476.5</ele><time>2026-05-02T11:02:03.999Z</time></trkpt><trkpt lat="45.58880602367262" lon="11.324223927317558"><ele>476.25</ele><time>2026-05-02T11:02:04.999Z</time></trkpt><trkpt lat="45.58873413742614" lon="11.324351810249965"><ele>476.0</ele><time>2026-05-02T11:02:05.999Z</time></trkpt><trkpt lat="45.58866708843975" lon="11.324466960280379"><ele>476.0</ele><time>2026-05-02T11:02:06.999Z</time></trkpt><trkpt lat="45.58862905025133" lon="11.324596865411273"><ele>476.0</ele><time>2026-05-02T11:02:07.999Z</time></trkpt><trkpt lat="45.58863346749651" lon="11.324717174956323"><ele>476.0</ele><time>2026-05-02T11:02:08.999Z</time></trkpt><trkpt lat="45.58865263263459" lon="11.324852815485686"><ele>476.0</ele><time>2026-05-02T11:02:09.999Z</time></trkpt><trkpt lat="45.588671094203384" lon="11.32500473691789"><ele>476.0</ele><time>2026-05-02T11:02:10.999Z</time></trkpt><trkpt lat="45.58865179507311" lon="11.325171883626508"><ele>476.0</ele><time>2026-05-02T11:02:11.999Z</time></trkpt><trkpt lat="45.588632151654814" lon="11.325347614970843"><ele>476.0</ele><time>2026-05-02T11:02:12.999Z</time></trkpt><trkpt lat="45.58861259845126" lon="11.3255299462026"><ele>476.0</ele><time>2026-05-02T11:02:13.999Z</time></trkpt><trkpt lat="45.58857705159026" lon="11.325705297156325"><ele>476.0</ele><time>2026-05-02T11:02:14.999Z</time></trkpt><trkpt lat="45.58855018063407" lon="11.325884011663417"><ele>476.0</ele><time>2026-05-02T11:02:15.999Z</time></trkpt><trkpt lat="45.58850952659587" lon="11.326048230505316"><ele>476.0</ele><time>2026-05-02T11:02:16.999Z</time></trkpt><trkpt lat="45.58847154592009" lon="11.326203760259311"><ele>476.0</ele><time>2026-05-02T11:02:17.999Z</time></trkpt><trkpt lat="45.58845956522059" lon="11.326363808396662"><ele>476.0</ele><time>2026-05-02T11:02:18.999Z</time></trkpt><trkpt lat="45.58848485500319" lon="11.326543557578988"><ele>474.8</ele><time>2026-05-02T11:02:19.999Z</time></trkpt><trkpt lat="45.588510880158" lon="11.326725795683956"><ele>473.6</ele><time>2026-05-02T11:02:20.999Z</time></trkpt><trkpt lat="45.588536199540314" lon="11.326882750086996"><ele>472.4</ele><time>2026-05-02T11:02:21.999Z</time></trkpt><trkpt lat="45.588538192861904" lon="11.327030054103334"><ele>471.2</ele><time>2026-05-02T11:02:22.999Z</time></trkpt><trkpt lat="45.58853218694515" lon="11.327155432873877"><ele>470.0</ele><time>2026-05-02T11:02:23.999Z</time></trkpt><trkpt lat="45.588502154768655" lon="11.327276755771143"><ele>469.75</ele><time>2026-05-02T11:02:24.999Z</time></trkpt><trkpt lat="45.588449083949904" lon="11.32740496326041"><ele>469.5</ele><time>2026-05-02T11:02:25.999Z</time></trkpt><trkpt lat="45.588380898693394" lon="11.327534007828001"><ele>469.25</ele><time>2026-05-02T11:02:26.999Z</time></trkpt><trkpt lat="45.58829911144072" lon="11.327662191025944"><ele>469.0</ele><time>2026-05-02T11:02:27.999Z</time></trkpt><trkpt lat="45.58820765004298" lon="11.327778436311332"><ele>469.0</ele><time>2026-05-02T11:02:28.999Z</time></trkpt><trkpt lat="45.588107582453105" lon="11.327884477985622"><ele>469.0</ele><time>2026-05-02T11:02:29.999Z</time></trkpt><trkpt lat="45.5880021835603" lon="11.327984158438793"><ele>469.0</ele><time>2026-05-02T11:02:30.999Z</time></trkpt><trkpt lat="45.58790667904943" lon="11.328077947548538"><ele>469.0</ele><time>2026-05-02T11:02:31.999Z</time></trkpt><trkpt lat="45.58782911414988" lon="11.328190190071263"><ele>467.0</ele><time>2026-05-02T11:02:32.999Z</time></trkpt><trkpt lat="45.5877567373799" lon="11.328303044082036"><ele>465.0</ele><time>2026-05-02T11:02:33.999Z</time></trkpt><trkpt lat="45.58772080897873" lon="11.328422383705483"><ele>463.0</ele><time>2026-05-02T11:02:34.999Z</time></trkpt><trkpt lat="45.587710698515345" lon="11.3285574509826"><ele>461.0</ele><time>2026-05-02T11:02:35.999Z</time></trkpt><trkpt lat="45.58772967828387" lon="11.32870513988736"><ele>459.0</ele><time>2026-05-02T11:02:36.999Z</time></trkpt><trkpt lat="45.587768618427155" lon="11.328845047561261"><ele>460.0</ele><time>2026-05-02T11:02:37.999Z</time></trkpt><trkpt lat="45.58782806289142" lon="11.32897035651149"><ele>461.0</ele><time>2026-05-02T11:02:38.999Z</time></trkpt><trkpt lat="45.587919025600314" lon="11.32908004286704"><ele>462.0</ele><time>2026-05-02T11:02:39.999Z</time></trkpt><trkpt lat="45.58802123280448" lon="11.329196340306536"><ele>463.0</ele><time>2026-05-02T11:02:40.999Z</time></trkpt><trkpt lat="45.588116849699034" lon="11.32934519324114"><ele>463.0</ele><time>2026-05-02T11:02:41.999Z</time></trkpt><trkpt lat="45.58822388870892" lon="11.329444948259619"><ele>463.0</ele><time>2026-05-02T11:02:42.999Z</time></trkpt><trkpt lat="45.58833063140437" lon="11.32953714416532"><ele>463.0</ele><time>2026-05-02T11:02:43.999Z</time></trkpt><trkpt lat="45.58844616607559" lon="11.329576053749543"><ele>463.0</ele><time>2026-05-02T11:02:44.999Z</time></trkpt><trkpt lat="45.58855410968274" lon="11.329612484335154"><ele>463.00000000000006</ele><time>2026-05-02T11:02:45.999Z</time></trkpt><trkpt lat="45.58863044775643" lon="11.329702208898146"><ele>463.0</ele><time>2026-05-02T11:02:46.999Z</time></trkpt><trkpt lat="45.5886857735079" lon="11.32979941448652"><ele>463.0</ele><time>2026-05-02T11:02:47.999Z</time></trkpt><trkpt lat="45.58873185146057" lon="11.329895986619649"><ele>463.0</ele><time>2026-05-02T11:02:48.999Z</time></trkpt><trkpt lat="45.58871557670064" lon="11.330017677329735"><ele>463.00000000000006</ele><time>2026-05-02T11:02:49.999Z</time></trkpt><trkpt lat="45.58871699409746" lon="11.330118550888898"><ele>463.0</ele><time>2026-05-02T11:02:51.001Z</time></trkpt><trkpt lat="45.58865411458087" lon="11.330202452138941"><ele>459.5</ele><time>2026-05-02T11:02:52.001Z</time></trkpt><trkpt lat="45.588533417593325" lon="11.330246198580666"><ele>456.0</ele><time>2026-05-02T11:02:53.001Z</time></trkpt><trkpt lat="45.588437435452015" lon="11.33030363866848"><ele>452.5</ele><time>2026-05-02T11:02:54.001Z</time></trkpt><trkpt lat="45.58834490051038" lon="11.33039691445362"><ele>449.0</ele><time>2026-05-02T11:02:55.001Z</time></trkpt><trkpt lat="45.58827522682853" lon="11.33053423038153"><ele>446.75</ele><time>2026-05-02T11:02:56.001Z</time></trkpt><trkpt lat="45.58823475756659" lon="11.330697697561014"><ele>444.5</ele><time>2026-05-02T11:02:57.001Z</time></trkpt><trkpt lat="45.58820889659425" lon="11.33087703978421"><ele>442.25</ele><time>2026-05-02T11:02:58.001Z</time></trkpt><trkpt lat="45.588189647932246" lon="11.33107262169209"><ele>440.0</ele><time>2026-05-02T11:02:59.001Z</time></trkpt><trkpt lat="45.588152888521385" lon="11.331278513125351"><ele>438.0</ele><time>2026-05-02T11:03:00.001Z</time></trkpt><trkpt lat="45.58814303004659" lon="11.331503774920922"><ele>436.0</ele><time>2026-05-02T11:03:01.001Z</time></trkpt><trkpt lat="45.5881130979182" lon="11.331727285517275"><ele>434.0</ele><time>2026-05-02T11:03:02.001Z</time></trkpt><trkpt lat="45.58807993983543" lon="11.331954571470954"><ele>434.0</ele><time>2026-05-02T11:03:03.001Z</time></trkpt><trkpt lat="45.58803848292052" lon="11.332171645125834"><ele>434.0</ele><time>2026-05-02T11:03:04Z</time></trkpt><trkpt lat="45.58798412514969" lon="11.33239323643878"><ele>434.0</ele><time>2026-05-02T11:03:05Z</time></trkpt><trkpt lat="45.58793027891825" lon="11.33260439017083"><ele>432.3333333333333</ele><time>2026-05-02T11:03:06Z</time></trkpt><trkpt lat="45.58787468675097" lon="11.332817524269464"><ele>430.66666666666663</ele><time>2026-05-02T11:03:07Z</time></trkpt><trkpt lat="45.58782132041572" lon="11.333028253808326"><ele>429.0</ele><time>2026-05-02T11:03:08Z</time></trkpt><trkpt lat="45.58776559884677" lon="11.333236302370254"><ele>428.0</ele><time>2026-05-02T11:03:09Z</time></trkpt><trkpt lat="45.58770904686212" lon="11.333452183913149"><ele>427.0</ele><time>2026-05-02T11:03:10Z</time></trkpt><trkpt lat="45.587656674385705" lon="11.333657958865432"><ele>426.0</ele><time>2026-05-02T11:03:11Z</time></trkpt><trkpt lat="45.58760709541463" lon="11.333875762137213"><ele>425.33333333333337</ele><time>2026-05-02T11:03:12Z</time></trkpt><trkpt lat="45.58757305973339" lon="11.33410501694333"><ele>424.6666666666667</ele><time>2026-05-02T11:03:13Z</time></trkpt><trkpt lat="45.587555217621414" lon="11.334345671854033"><ele>424.0</ele><time>2026-05-02T11:03:14Z</time></trkpt><trkpt lat="45.58753459379215" lon="11.334595341502077"><ele>422.75</ele><time>2026-05-02T11:03:15Z</time></trkpt><trkpt lat="45.587547530656025" lon="11.334809120393436"><ele>421.5</ele><time>2026-05-02T11:03:17Z</time></trkpt><trkpt lat="45.58755373780665" lon="11.33498621726787"><ele>420.25</ele><time>2026-05-02T11:03:18Z</time></trkpt><trkpt lat="45.587570206709465" lon="11.335153285825585"><ele>419.0</ele><time>2026-05-02T11:03:19Z</time></trkpt><trkpt lat="45.58759709897523" lon="11.335313071949747"><ele>419.0</ele><time>2026-05-02T11:03:20Z</time></trkpt><trkpt lat="45.58762857804895" lon="11.335460477256387"><ele>419.0</ele><time>2026-05-02T11:03:21Z</time></trkpt><trkpt lat="45.58765165922118" lon="11.335608510755948"><ele>419.0</ele><time>2026-05-02T11:03:22Z</time></trkpt><trkpt lat="45.587690871315736" lon="11.335761090002022"><ele>419.0</ele><time>2026-05-02T11:03:23Z</time></trkpt><trkpt lat="45.58770785003359" lon="11.335932085674362"><ele>419.0</ele><time>2026-05-02T11:03:24Z</time></trkpt><trkpt lat="45.58771469075483" lon="11.336099545191074"><ele>418.3333333333333</ele><time>2026-05-02T11:03:25Z</time></trkpt><trkpt lat="45.5875477266211" lon="11.336267517653932"><ele>417.66666666666663</ele><time>2026-05-02T11:03:26Z</time></trkpt><trkpt lat="45.587488430079816" lon="11.336454247501994"><ele>417.0</ele><time>2026-05-02T11:03:27Z</time></trkpt><trkpt lat="45.587423157749825" lon="11.336653081367905"><ele>414.66666666666663</ele><time>2026-05-02T11:03:28Z</time></trkpt><trkpt lat="45.58736325412322" lon="11.336869825923015"><ele>412.3333333333333</ele><time>2026-05-02T11:03:29Z</time></trkpt><trkpt lat="45.58727309279297" lon="11.33707047207907"><ele>410.0</ele><time>2026-05-02T11:03:30Z</time></trkpt><trkpt lat="45.58724522519668" lon="11.337292826709207"><ele>409.25</ele><time>2026-05-02T11:03:31Z</time></trkpt><trkpt lat="45.58722289737315" lon="11.337497838337267"><ele>408.5</ele><time>2026-05-02T11:03:32Z</time></trkpt><trkpt lat="45.58721245344963" lon="11.337697319601501"><ele>407.75</ele><time>2026-05-02T11:03:33Z</time></trkpt><trkpt lat="45.5872036445606" lon="11.33788351310273"><ele>407.0</ele><time>2026-05-02T11:03:34Z</time></trkpt><trkpt lat="45.58717754195697" lon="11.338060246479065"><ele>406.5</ele><time>2026-05-02T11:03:35Z</time></trkpt><trkpt lat="45.587131157898796" lon="11.338223220112639"><ele>406.0</ele><time>2026-05-02T11:03:36Z</time></trkpt><trkpt lat="45.587072743221086" lon="11.33838431150484"><ele>405.5</ele><time>2026-05-02T11:03:37Z</time></trkpt><trkpt lat="45.587017268872835" lon="11.338560795832295"><ele>405.0</ele><time>2026-05-02T11:03:38Z</time></trkpt><trkpt lat="45.586960916521264" lon="11.338748800569423"><ele>406.25</ele><time>2026-05-02T11:03:39Z</time></trkpt><trkpt lat="45.58690839844697" lon="11.338929093812338"><ele>407.5</ele><time>2026-05-02T11:03:40Z</time></trkpt><trkpt lat="45.586860377602726" lon="11.339102402360993"><ele>408.75</ele><time>2026-05-02T11:03:41Z</time></trkpt><trkpt lat="45.586818683301146" lon="11.339275289557834"><ele>410.0</ele><time>2026-05-02T11:03:42Z</time></trkpt><trkpt lat="45.586779393166765" lon="11.339455256950869"><ele>410.0</ele><time>2026-05-02T11:03:43Z</time></trkpt><trkpt lat="45.586747248680865" lon="11.339640326486746"><ele>410.0</ele><time>2026-05-02T11:03:44Z</time></trkpt><trkpt lat="45.586716769610554" lon="11.33981591683703"><ele>410.0</ele><time>2026-05-02T11:03:45Z</time></trkpt><trkpt lat="45.58669047636662" lon="11.339992317677554"><ele>410.0</ele><time>2026-05-02T11:03:46Z</time></trkpt><trkpt lat="45.58666257492092" lon="11.340167984392696"><ele>409.75</ele><time>2026-05-02T11:03:47Z</time></trkpt><trkpt lat="45.58663565587141" lon="11.340332990533977"><ele>409.5</ele><time>2026-05-02T11:03:48Z</time></trkpt><trkpt lat="45.58662428135696" lon="11.340493498967152"><ele>409.25</ele><time>2026-05-02T11:03:49Z</time></trkpt><trkpt lat="45.58662951404726" lon="11.34064969361424"><ele>409.0</ele><time>2026-05-02T11:03:50Z</time></trkpt><trkpt lat="45.586653035431205" lon="11.34080958129634"><ele>408.25</ele><time>2026-05-02T11:03:50.999Z</time></trkpt><trkpt lat="45.58670230919307" lon="11.340970983975511"><ele>407.5</ele><time>2026-05-02T11:03:51.999Z</time></trkpt><trkpt lat="45.586767240819604" lon="11.341128184933732"><ele>406.75</ele><time>2026-05-02T11:03:52.999Z</time></trkpt><trkpt lat="45.586837215770075" lon="11.341290630250013"><ele>406.0</ele><time>2026-05-02T11:03:53.999Z</time></trkpt><trkpt lat="45.58690195119972" lon="11.341465312075915"><ele>405.5</ele><time>2026-05-02T11:03:54.999Z</time></trkpt><trkpt lat="45.586970271800986" lon="11.341651706980452"><ele>405.0</ele><time>2026-05-02T11:03:55.999Z</time></trkpt><trkpt lat="45.58704570718938" lon="11.341834369592515"><ele>404.5</ele><time>2026-05-02T11:03:56.999Z</time></trkpt><trkpt lat="45.58711579886088" lon="11.342012543888679"><ele>404.0</ele><time>2026-05-02T11:03:57.999Z</time></trkpt><trkpt lat="45.58718000798858" lon="11.342180101065669"><ele>403.5</ele><time>2026-05-02T11:03:58.999Z</time></trkpt><trkpt lat="45.58722319631799" lon="11.342340980147897"><ele>403.0</ele><time>2026-05-02T11:03:59.999Z</time></trkpt><trkpt lat="45.587240563208" lon="11.342501531793674"><ele>402.5</ele><time>2026-05-02T11:04:00.999Z</time></trkpt><trkpt lat="45.58719081950187" lon="11.34264899055778"><ele>402.0</ele><time>2026-05-02T11:04:01.999Z</time></trkpt><trkpt lat="45.58715294594993" lon="11.34279257031767"><ele>402.0</ele><time>2026-05-02T11:04:02.999Z</time></trkpt><trkpt lat="45.587126899854454" lon="11.342929837530326"><ele>402.0</ele><time>2026-05-02T11:04:03.999Z</time></trkpt><trkpt lat="45.58711066633738" lon="11.343077072395474"><ele>402.0</ele><time>2026-05-02T11:04:04.999Z</time></trkpt><trkpt lat="45.587122956123274" lon="11.343243369902362"><ele>402.0</ele><time>2026-05-02T11:04:05.999Z</time></trkpt><trkpt lat="45.587151084805036" lon="11.34341585113603"><ele>402.0</ele><time>2026-05-02T11:04:06.999Z</time></trkpt><trkpt lat="45.587190165235725" lon="11.343587628605738"><ele>401.75</ele><time>2026-05-02T11:04:07.999Z</time></trkpt><trkpt lat="45.58722834076483" lon="11.343752975345888"><ele>401.5</ele><time>2026-05-02T11:04:08.999Z</time></trkpt><trkpt lat="45.58724162740409" lon="11.343919924046478"><ele>401.25</ele><time>2026-05-02T11:04:09.999Z</time></trkpt><trkpt lat="45.58725998817881" lon="11.344083190870565"><ele>401.0</ele><time>2026-05-02T11:04:10.999Z</time></trkpt><trkpt lat="45.587262097524196" lon="11.34425174548051"><ele>400.0</ele><time>2026-05-02T11:04:11.999Z</time></trkpt><trkpt lat="45.58724297063003" lon="11.344418769186017"><ele>399.0</ele><time>2026-05-02T11:04:12.999Z</time></trkpt><trkpt lat="45.58721295892565" lon="11.344592250131681"><ele>398.0</ele><time>2026-05-02T11:04:13.999Z</time></trkpt><trkpt lat="45.58719126093415" lon="11.344774011910278"><ele>397.0</ele><time>2026-05-02T11:04:14.999Z</time></trkpt><trkpt lat="45.58716217650541" lon="11.344940329933529"><ele>397.0</ele><time>2026-05-02T11:04:15.999Z</time></trkpt><trkpt lat="45.58715256114005" lon="11.345103581872701"><ele>397.0</ele><time>2026-05-02T11:04:16.999Z</time></trkpt><trkpt lat="45.587154464838406" lon="11.345263665418384"><ele>397.0</ele><time>2026-05-02T11:04:17.999Z</time></trkpt><trkpt lat="45.5871646808584" lon="11.34541247701257"><ele>397.0</ele><time>2026-05-02T11:04:18.999Z</time></trkpt><trkpt lat="45.58716369533561" lon="11.345551109735199"><ele>397.0</ele><time>2026-05-02T11:04:19.999Z</time></trkpt><trkpt lat="45.58715555021901" lon="11.345680795770509"><ele>395.20000000000005</ele><time>2026-05-02T11:04:20.999Z</time></trkpt><trkpt lat="45.58711403828982" lon="11.345801238347793"><ele>393.4</ele><time>2026-05-02T11:04:21.999Z</time></trkpt><trkpt lat="45.58703289037749" lon="11.345881987895583"><ele>391.6</ele><time>2026-05-02T11:04:22.999Z</time></trkpt><trkpt lat="45.58693816922426" lon="11.345975171331382"><ele>389.79999999999995</ele><time>2026-05-02T11:04:23.999Z</time></trkpt><trkpt lat="45.586827372211005" lon="11.346044464289255"><ele>388.0</ele><time>2026-05-02T11:04:24.999Z</time></trkpt><trkpt lat="45.586720956985324" lon="11.346120617640732"><ele>386.0</ele><time>2026-05-02T11:04:25.999Z</time></trkpt><trkpt lat="45.58662029316493" lon="11.346203987299322"><ele>384.0</ele><time>2026-05-02T11:04:26.999Z</time></trkpt><trkpt lat="45.58650842101358" lon="11.346288219846825"><ele>382.0</ele><time>2026-05-02T11:04:27.999Z</time></trkpt><trkpt lat="45.586386693969224" lon="11.346367965563749"><ele>380.0</ele><time>2026-05-02T11:04:28.999Z</time></trkpt><trkpt lat="45.58626477245422" lon="11.346458840071303"><ele>377.5</ele><time>2026-05-02T11:04:29.999Z</time></trkpt><trkpt lat="45.58615163065836" lon="11.34654765238498"><ele>375.0</ele><time>2026-05-02T11:04:30.999Z</time></trkpt><trkpt lat="45.58604121222626" lon="11.346630623296441"><ele>372.5</ele><time>2026-05-02T11:04:31.999Z</time></trkpt><trkpt lat="45.585927815603426" lon="11.346713492481799"><ele>370.0</ele><time>2026-05-02T11:04:32.999Z</time></trkpt><trkpt lat="45.58581671084782" lon="11.346788346608943"><ele>370.0</ele><time>2026-05-02T11:04:33.999Z</time></trkpt><trkpt lat="45.58570912548983" lon="11.346858663563255"><ele>370.0</ele><time>2026-05-02T11:04:34.999Z</time></trkpt><trkpt lat="45.58561323392806" lon="11.34693856526924"><ele>370.0</ele><time>2026-05-02T11:04:35.999Z</time></trkpt><trkpt lat="45.5855420591044" lon="11.347039915813545"><ele>370.0</ele><time>2026-05-02T11:04:36.999Z</time></trkpt><trkpt lat="45.585486842268445" lon="11.347161328996249"><ele>370.0</ele><time>2026-05-02T11:04:37.999Z</time></trkpt><trkpt lat="45.58546006827877" lon="11.347300163884858"><ele>369.5</ele><time>2026-05-02T11:04:38.999Z</time></trkpt><trkpt lat="45.58544917581923" lon="11.34744267534394"><ele>369.0</ele><time>2026-05-02T11:04:39.999Z</time></trkpt><trkpt lat="45.585455627757106" lon="11.347608220204611"><ele>368.5</ele><time>2026-05-02T11:04:40.999Z</time></trkpt><trkpt lat="45.58543596562452" lon="11.347781438758226"><ele>368.0</ele><time>2026-05-02T11:04:41.999Z</time></trkpt><trkpt lat="45.58543197403194" lon="11.34796750595855"><ele>366.25</ele><time>2026-05-02T11:04:42.999Z</time></trkpt><trkpt lat="45.585427887231994" lon="11.348158011170957"><ele>364.5</ele><time>2026-05-02T11:04:43.999Z</time></trkpt><trkpt lat="45.58543227727152" lon="11.348356763109974"><ele>362.75</ele><time>2026-05-02T11:04:44.999Z</time></trkpt><trkpt lat="45.585427198347375" lon="11.348556731305399"><ele>361.0</ele><time>2026-05-02T11:04:45.999Z</time></trkpt><trkpt lat="45.5854273502875" lon="11.348756394966435"><ele>360.0</ele><time>2026-05-02T11:04:46.999Z</time></trkpt><trkpt lat="45.58542898066468" lon="11.348951148942838"><ele>359.0</ele><time>2026-05-02T11:04:47.999Z</time></trkpt><trkpt lat="45.58542603701824" lon="11.349135017660457"><ele>358.0</ele><time>2026-05-02T11:04:48.999Z</time></trkpt><trkpt lat="45.585426420286225" lon="11.349301601916912"><ele>357.0</ele><time>2026-05-02T11:04:49.999Z</time></trkpt><trkpt lat="45.585416661274444" lon="11.34945539378375"><ele>357.0</ele><time>2026-05-02T11:04:50.998Z</time></trkpt><trkpt lat="45.58539328272989" lon="11.349579525857276"><ele>357.0</ele><time>2026-05-02T11:04:51.998Z</time></trkpt><trkpt lat="45.58535886817432" lon="11.349681355753349"><ele>357.0</ele><time>2026-05-02T11:04:52.998Z</time></trkpt><trkpt lat="45.58531650258567" lon="11.3498079044856"><ele>357.0</ele><time>2026-05-02T11:04:53.998Z</time></trkpt><trkpt lat="45.58526692881959" lon="11.349938022403286"><ele>357.0</ele><time>2026-05-02T11:04:54.998Z</time></trkpt><trkpt lat="45.5852020131988" lon="11.35008587451747"><ele>356.25</ele><time>2026-05-02T11:04:55.998Z</time></trkpt><trkpt lat="45.58513485594622" lon="11.350247837548551"><ele>355.5</ele><time>2026-05-02T11:04:57Z</time></trkpt><trkpt lat="45.58506983041911" lon="11.350411038143113"><ele>354.75</ele><time>2026-05-02T11:04:58Z</time></trkpt><trkpt lat="45.585009981786904" lon="11.350578228200613"><ele>354.0</ele><time>2026-05-02T11:04:59Z</time></trkpt><trkpt lat="45.5849408984725" lon="11.350754676905979"><ele>350.3333333333333</ele><time>2026-05-02T11:05:00Z</time></trkpt><trkpt lat="45.58487831375717" lon="11.35095066909292"><ele>346.66666666666663</ele><time>2026-05-02T11:05:01Z</time></trkpt><trkpt lat="45.58482723742102" lon="11.351157212973943"><ele>343.0</ele><time>2026-05-02T11:05:02Z</time></trkpt><trkpt lat="45.5847721368093" lon="11.351358122308365"><ele>340.5</ele><time>2026-05-02T11:05:03Z</time></trkpt><trkpt lat="45.58471964393151" lon="11.351557073725433"><ele>338.0</ele><time>2026-05-02T11:05:04Z</time></trkpt><trkpt lat="45.584666140472144" lon="11.351749322372186"><ele>335.5</ele><time>2026-05-02T11:05:05Z</time></trkpt><trkpt lat="45.584617870541756" lon="11.351940575815487"><ele>333.0</ele><time>2026-05-02T11:05:06Z</time></trkpt><trkpt lat="45.58456171456943" lon="11.352123461538937"><ele>332.25</ele><time>2026-05-02T11:05:07Z</time></trkpt><trkpt lat="45.58449323871813" lon="11.352299455498196"><ele>331.5</ele><time>2026-05-02T11:05:08Z</time></trkpt><trkpt lat="45.584408725327336" lon="11.352453088060686"><ele>330.75</ele><time>2026-05-02T11:05:09Z</time></trkpt><trkpt lat="45.58431232836142" lon="11.352589782432565"><ele>330.0</ele><time>2026-05-02T11:05:10Z</time></trkpt><trkpt lat="45.58419431136777" lon="11.352710461870643"><ele>330.0</ele><time>2026-05-02T11:05:11Z</time></trkpt><trkpt lat="45.58405977611651" lon="11.35282262873208"><ele>330.0</ele><time>2026-05-02T11:05:12Z</time></trkpt><trkpt lat="45.583919603515014" lon="11.352927115344174"><ele>330.0</ele><time>2026-05-02T11:05:13Z</time></trkpt><trkpt lat="45.58377246316566" lon="11.35303157102625"><ele>327.0</ele><time>2026-05-02T11:05:14Z</time></trkpt><trkpt lat="45.5836282057389" lon="11.353141712676218"><ele>324.0</ele><time>2026-05-02T11:05:15Z</time></trkpt><trkpt lat="45.583474039538515" lon="11.353257555188009"><ele>321.0</ele><time>2026-05-02T11:05:16Z</time></trkpt><trkpt lat="45.58332970080524" lon="11.35336866265696"><ele>321.0</ele><time>2026-05-02T11:05:17Z</time></trkpt><trkpt lat="45.583192786269265" lon="11.353473740853783"><ele>321.0</ele><time>2026-05-02T11:05:18Z</time></trkpt><trkpt lat="45.58306270073459" lon="11.353599836414592"><ele>321.0</ele><time>2026-05-02T11:05:19Z</time></trkpt><trkpt lat="45.58295962518072" lon="11.353759112889701"><ele>320.6666666666667</ele><time>2026-05-02T11:05:20Z</time></trkpt><trkpt lat="45.58287924131801" lon="11.353952327427212"><ele>320.33333333333337</ele><time>2026-05-02T11:05:21Z</time></trkpt><trkpt lat="45.5828194051965" lon="11.35416244330531"><ele>320.0</ele><time>2026-05-02T11:05:22Z</time></trkpt><trkpt lat="45.58276464565693" lon="11.354364026536125"><ele>320.0</ele><time>2026-05-02T11:05:23Z</time></trkpt><trkpt lat="45.5827119714461" lon="11.354561283258093"><ele>320.0</ele><time>2026-05-02T11:05:24Z</time></trkpt><trkpt lat="45.58265921369302" lon="11.354756049566259"><ele>320.0</ele><time>2026-05-02T11:05:25Z</time></trkpt><trkpt lat="45.58260443486379" lon="11.35495411642254"><ele>320.0</ele><time>2026-05-02T11:05:26Z</time></trkpt><trkpt lat="45.58254959097863" lon="11.355144478406698"><ele>319.8</ele><time>2026-05-02T11:05:27Z</time></trkpt><trkpt lat="45.58249889159693" lon="11.355300645412116"><ele>319.6</ele><time>2026-05-02T11:05:28Z</time></trkpt><trkpt lat="45.582458649442955" lon="11.355432517755194"><ele>319.4</ele><time>2026-05-02T11:05:29Z</time></trkpt><trkpt lat="45.58243104462703" lon="11.35554687253978"><ele>319.2</ele><time>2026-05-02T11:05:30Z</time></trkpt><trkpt lat="45.58242774260238" lon="11.355655443525409"><ele>319.0</ele><time>2026-05-02T11:05:31Z</time></trkpt><trkpt lat="45.58246064470112" lon="11.35575904237697"><ele>316.8</ele><time>2026-05-02T11:05:32Z</time></trkpt><trkpt lat="45.58253150150077" lon="11.35584479118081"><ele>314.59999999999997</ele><time>2026-05-02T11:05:33Z</time></trkpt><trkpt lat="45.58261643345398" lon="11.355883334821003"><ele>312.4</ele><time>2026-05-02T11:05:34Z</time></trkpt><trkpt lat="45.582716710539835" lon="11.355860207683895"><ele>310.2</ele><time>2026-05-02T11:05:35Z</time></trkpt><trkpt lat="45.58281024238625" lon="11.355808940527465"><ele>308.0</ele><time>2026-05-02T11:05:36Z</time></trkpt><trkpt lat="45.58291089092995" lon="11.355748445377504"><ele>306.2</ele><time>2026-05-02T11:05:37Z</time></trkpt><trkpt lat="45.58300883414603" lon="11.355701375806682"><ele>304.4</ele><time>2026-05-02T11:05:38Z</time></trkpt><trkpt lat="45.583107673381065" lon="11.355655843691801"><ele>302.59999999999997</ele><time>2026-05-02T11:05:39Z</time></trkpt><trkpt lat="45.583205000930846" lon="11.355634776234382"><ele>300.8</ele><time>2026-05-02T11:05:40Z</time></trkpt><trkpt lat="45.58330976316311" lon="11.355658131392412"><ele>299.0</ele><time>2026-05-02T11:05:41Z</time></trkpt><trkpt lat="45.583407487319725" lon="11.355758589218967"><ele>299.0</ele><time>2026-05-02T11:05:42Z</time></trkpt><trkpt lat="45.58348152623935" lon="11.35591218908033"><ele>299.0</ele><time>2026-05-02T11:05:43Z</time></trkpt><trkpt lat="45.583578029260515" lon="11.356055692355861"><ele>299.0</ele><time>2026-05-02T11:05:44Z</time></trkpt><trkpt lat="45.5836683463747" lon="11.35620988000956"><ele>299.0</ele><time>2026-05-02T11:05:45Z</time></trkpt><trkpt lat="45.583767967655966" lon="11.35635716621607"><ele>293.6666666666667</ele><time>2026-05-02T11:05:46Z</time></trkpt><trkpt lat="45.58387005513863" lon="11.356514501418136"><ele>288.3333333333333</ele><time>2026-05-02T11:05:47Z</time></trkpt><trkpt lat="45.58397114524203" lon="11.356708365920046"><ele>283.0</ele><time>2026-05-02T11:05:48Z</time></trkpt><trkpt lat="45.58406593201832" lon="11.356920755668737"><ele>283.0</ele><time>2026-05-02T11:05:48.999Z</time></trkpt><trkpt lat="45.58416297501646" lon="11.35713134734514"><ele>283.0</ele><time>2026-05-02T11:05:49.999Z</time></trkpt><trkpt lat="45.584244304208354" lon="11.357313138202208"><ele>283.0</ele><time>2026-05-02T11:05:50.999Z</time></trkpt><trkpt lat="45.584328366330354" lon="11.357519272654498"><ele>282.66666666666663</ele><time>2026-05-02T11:05:51.999Z</time></trkpt><trkpt lat="45.58441069899991" lon="11.357726044181389"><ele>282.3333333333333</ele><time>2026-05-02T11:05:52.999Z</time></trkpt><trkpt lat="45.584497142243684" lon="11.357924198567956"><ele>282.0</ele><time>2026-05-02T11:05:53.999Z</time></trkpt><trkpt lat="45.58458721475494" lon="11.358126757407458"><ele>276.0</ele><time>2026-05-02T11:05:54.999Z</time></trkpt><trkpt lat="45.584666847121596" lon="11.358331592461354"><ele>270.0</ele><time>2026-05-02T11:05:55.999Z</time></trkpt><trkpt lat="45.58474160575086" lon="11.358522200030194"><ele>264.0</ele><time>2026-05-02T11:05:56.999Z</time></trkpt><trkpt lat="45.584822105896755" lon="11.35870951052098"><ele>263.25</ele><time>2026-05-02T11:05:57.999Z</time></trkpt><trkpt lat="45.58489931279137" lon="11.358889131111004"><ele>262.5</ele><time>2026-05-02T11:05:58.999Z</time></trkpt><trkpt lat="45.58497028287582" lon="11.359066812467463"><ele>261.75</ele><time>2026-05-02T11:05:59.999Z</time></trkpt><trkpt lat="45.58503908647881" lon="11.35924231357579"><ele>261.0</ele><time>2026-05-02T11:06:00.999Z</time></trkpt><trkpt lat="45.58510760995945" lon="11.359419452770698"><ele>261.0</ele><time>2026-05-02T11:06:01.999Z</time></trkpt><trkpt lat="45.585146067237645" lon="11.359614655429185"><ele>261.0</ele><time>2026-05-02T11:06:02.999Z</time></trkpt><trkpt lat="45.5851850024432" lon="11.359804238548222"><ele>261.0</ele><time>2026-05-02T11:06:03.999Z</time></trkpt><trkpt lat="45.585220068542206" lon="11.360004302435346"><ele>261.0</ele><time>2026-05-02T11:06:04.999Z</time></trkpt><trkpt lat="45.585244434495564" lon="11.360201635173498"><ele>260.0</ele><time>2026-05-02T11:06:05.999Z</time></trkpt><trkpt lat="45.585264324748444" lon="11.36040745338865"><ele>259.0</ele><time>2026-05-02T11:06:06.999Z</time></trkpt><trkpt lat="45.58528014672369" lon="11.360608344404778"><ele>258.0</ele><time>2026-05-02T11:06:07.999Z</time></trkpt><trkpt lat="45.58530841483187" lon="11.36079228266194"><ele>257.0</ele><time>2026-05-02T11:06:08.999Z</time></trkpt><trkpt lat="45.58529307370842" lon="11.360962690689348"><ele>255.2</ele><time>2026-05-02T11:06:09.999Z</time></trkpt><trkpt lat="45.585283085961485" lon="11.361110975688113"><ele>253.39999999999998</ele><time>2026-05-02T11:06:10.999Z</time></trkpt><trkpt lat="45.585231969481825" lon="11.36122307050306"><ele>251.60000000000002</ele><time>2026-05-02T11:06:11.999Z</time></trkpt><trkpt lat="45.585170257998804" lon="11.361329998050183"><ele>249.8</ele><time>2026-05-02T11:06:12.999Z</time></trkpt><trkpt lat="45.585063925139046" lon="11.361371620469274"><ele>248.0</ele><time>2026-05-02T11:06:13.999Z</time></trkpt><trkpt lat="45.58497236242881" lon="11.361429649029096"><ele>246.60000000000002</ele><time>2026-05-02T11:06:14.999Z</time></trkpt><trkpt lat="45.584874547803736" lon="11.361451938483777"><ele>245.20000000000002</ele><time>2026-05-02T11:06:15.999Z</time></trkpt><trkpt lat="45.584798188691835" lon="11.361508810133357"><ele>243.8</ele><time>2026-05-02T11:06:16.999Z</time></trkpt><trkpt lat="45.584760192975686" lon="11.361621100132604"><ele>242.4</ele><time>2026-05-02T11:06:17.999Z</time></trkpt><trkpt lat="45.5847710308632" lon="11.361764562114063"><ele>241.0</ele><time>2026-05-02T11:06:18.999Z</time></trkpt><trkpt lat="45.58480990888262" lon="11.361916622622765"><ele>241.0</ele><time>2026-05-02T11:06:19.999Z</time></trkpt><trkpt lat="45.58487339984819" lon="11.362074125640541"><ele>241.0</ele><time>2026-05-02T11:06:20.999Z</time></trkpt><trkpt lat="45.58491665097252" lon="11.362243958055485"><ele>241.0</ele><time>2026-05-02T11:06:21.999Z</time></trkpt><trkpt lat="45.5849612130933" lon="11.362421546011396"><ele>241.0</ele><time>2026-05-02T11:06:22.999Z</time></trkpt><trkpt lat="45.585008089037586" lon="11.362602243905588"><ele>239.5</ele><time>2026-05-02T11:06:23.999Z</time></trkpt><trkpt lat="45.58505193281905" lon="11.362777448633638"><ele>238.0</ele><time>2026-05-02T11:06:24.999Z</time></trkpt><trkpt lat="45.585101527730195" lon="11.362943756319911"><ele>236.5</ele><time>2026-05-02T11:06:25.999Z</time></trkpt><trkpt lat="45.58517115961735" lon="11.363082495890756"><ele>235.0</ele><time>2026-05-02T11:06:26.999Z</time></trkpt><trkpt lat="45.58525243313922" lon="11.363184091403513"><ele>233.49999999999997</ele><time>2026-05-02T11:06:27.999Z</time></trkpt><trkpt lat="45.58534338353858" lon="11.363243706404896"><ele>232.0</ele><time>2026-05-02T11:06:28.999Z</time></trkpt><trkpt lat="45.58543679536579" lon="11.363272523150664"><ele>230.5</ele><time>2026-05-02T11:06:29.999Z</time></trkpt><trkpt lat="45.585515378590166" lon="11.363311212099239"><ele>229.0</ele><time>2026-05-02T11:06:30.999Z</time></trkpt><trkpt lat="45.58556250666683" lon="11.36339204206446"><ele>227.49999999999997</ele><time>2026-05-02T11:06:31.999Z</time></trkpt><trkpt lat="45.58557569825659" lon="11.363496165815798"><ele>226.0</ele><time>2026-05-02T11:06:32.999Z</time></trkpt><trkpt lat="45.58553089181645" lon="11.36359904504104"><ele>226.0</ele><time>2026-05-02T11:06:33.999Z</time></trkpt><trkpt lat="45.585447212523725" lon="11.363660653930255"><ele>226.00000000000003</ele><time>2026-05-02T11:06:34.999Z</time></trkpt><trkpt lat="45.585343053691176" lon="11.363672606283915"><ele>226.00000000000003</ele><time>2026-05-02T11:06:35.999Z</time></trkpt><trkpt lat="45.585238350602395" lon="11.36373464146169"><ele>226.0</ele><time>2026-05-02T11:06:36.999Z</time></trkpt><trkpt lat="45.58512371098675" lon="11.363777403683942"><ele>226.0</ele><time>2026-05-02T11:06:37.999Z</time></trkpt><trkpt lat="45.585019633729736" lon="11.36381898425921"><ele>226.0</ele><time>2026-05-02T11:06:38.999Z</time></trkpt><trkpt lat="45.58493769415918" lon="11.363861795458453"><ele>226.00000000000003</ele><time>2026-05-02T11:06:39.999Z</time></trkpt><trkpt lat="45.584871842170905" lon="11.3639041942772"><ele>226.00000000000003</ele><time>2026-05-02T11:06:40.999Z</time></trkpt><trkpt lat="45.584815421854145" lon="11.364030600546709"><ele>226.0</ele><time>2026-05-02T11:06:42.999Z</time></trkpt><trkpt lat="45.58484336766836" lon="11.364182975984667"><ele>226.0</ele><time>2026-05-02T11:06:44.998Z</time></trkpt><trkpt lat="45.5849657555166" lon="11.36427643834084"><ele>223.4</ele><time>2026-05-02T11:06:46.998Z</time></trkpt><trkpt lat="45.585056023936936" lon="11.3642850038634"><ele>220.8</ele><time>2026-05-02T11:06:47.998Z</time></trkpt><trkpt lat="45.585157423944366" lon="11.36430251196945"><ele>218.20000000000002</ele><time>2026-05-02T11:06:48.998Z</time></trkpt><trkpt lat="45.5852609571" lon="11.364352856771422"><ele>215.60000000000002</ele><time>2026-05-02T11:06:49.998Z</time></trkpt><trkpt lat="45.58535123356971" lon="11.364472136095591"><ele>213.0</ele><time>2026-05-02T11:06:50.998Z</time></trkpt><trkpt lat="45.58544605944007" lon="11.36454205379954"><ele>211.8</ele><time>2026-05-02T11:06:51.998Z</time></trkpt><trkpt lat="45.58553790914522" lon="11.364632235447168"><ele>210.60000000000002</ele><time>2026-05-02T11:06:52.998Z</time></trkpt><trkpt lat="45.58561831334326" lon="11.364705826821243"><ele>209.39999999999998</ele><time>2026-05-02T11:06:53.998Z</time></trkpt><trkpt lat="45.58570459305633" lon="11.36474433067226"><ele>208.2</ele><time>2026-05-02T11:06:54.998Z</time></trkpt><trkpt lat="45.58580767424671" lon="11.364716846895705"><ele>207.0</ele><time>2026-05-02T11:06:55.998Z</time></trkpt><trkpt lat="45.585911443540475" lon="11.36464985524174"><ele>207.0</ele><time>2026-05-02T11:06:56.998Z</time></trkpt><trkpt lat="45.58601930887405" lon="11.364569289849799"><ele>207.0</ele><time>2026-05-02T11:06:57.998Z</time></trkpt><trkpt lat="45.58613870416299" lon="11.364502952729651"><ele>207.0</ele><time>2026-05-02T11:06:58.998Z</time></trkpt><trkpt lat="45.586262968633356" lon="11.36443077006015"><ele>207.0</ele><time>2026-05-02T11:06:59.998Z</time></trkpt><trkpt lat="45.586392804166294" lon="11.364386203556597"><ele>203.0</ele><time>2026-05-02T11:07:00.998Z</time></trkpt><trkpt lat="45.58651282783443" lon="11.364298207745398"><ele>199.0</ele><time>2026-05-02T11:07:01.998Z</time></trkpt><trkpt lat="45.58663746534488" lon="11.364249015737473"><ele>195.0</ele><time>2026-05-02T11:07:03Z</time></trkpt><trkpt lat="45.58674682531856" lon="11.364186446994847"><ele>191.0</ele><time>2026-05-02T11:07:04Z</time></trkpt><trkpt lat="45.58684123919082" lon="11.364132324452369"><ele>191.0</ele><time>2026-05-02T11:07:05Z</time></trkpt><trkpt lat="45.58693436481371" lon="11.364090664468652"><ele>191.0</ele><time>2026-05-02T11:07:06Z</time></trkpt><trkpt lat="45.58703179275758" lon="11.36408332833903"><ele>191.0</ele><time>2026-05-02T11:07:07Z</time></trkpt><trkpt lat="45.58712997304953" lon="11.364136047504573"><ele>191.0</ele><time>2026-05-02T11:07:08Z</time></trkpt><trkpt lat="45.58723218235925" lon="11.364192853917823"><ele>191.0</ele><time>2026-05-02T11:07:09Z</time></trkpt><trkpt lat="45.587312512074405" lon="11.364288876954705"><ele>189.0</ele><time>2026-05-02T11:07:10Z</time></trkpt><trkpt lat="45.58741742962253" lon="11.364376628427344"><ele>187.0</ele><time>2026-05-02T11:07:11Z</time></trkpt><trkpt lat="45.58751978880903" lon="11.36447023178959"><ele>185.0</ele><time>2026-05-02T11:07:12Z</time></trkpt><trkpt lat="45.58763764212847" lon="11.364534893834072"><ele>183.0</ele><time>2026-05-02T11:07:13Z</time></trkpt><trkpt lat="45.587757882784516" lon="11.364584086479477"><ele>181.75</ele><time>2026-05-02T11:07:14Z</time></trkpt><trkpt lat="45.58786886999338" lon="11.364647026521045"><ele>180.5</ele><time>2026-05-02T11:07:15Z</time></trkpt><trkpt lat="45.58796790400298" lon="11.364724115738143"><ele>179.25</ele><time>2026-05-02T11:07:16Z</time></trkpt><trkpt lat="45.58806163120107" lon="11.36481099426707"><ele>178.0</ele><time>2026-05-02T11:07:17Z</time></trkpt><trkpt lat="45.58815058034274" lon="11.364904940105989"><ele>177.60000000000002</ele><time>2026-05-02T11:07:18Z</time></trkpt><trkpt lat="45.58823981426682" lon="11.364983511906734"><ele>177.20000000000002</ele><time>2026-05-02T11:07:19Z</time></trkpt><trkpt lat="45.58833381955873" lon="11.365035225424817"><ele>176.8</ele><time>2026-05-02T11:07:20Z</time></trkpt><trkpt lat="45.58843479466075" lon="11.365054627642488"><ele>176.4</ele><time>2026-05-02T11:07:21Z</time></trkpt><trkpt lat="45.58853507980082" lon="11.365066238473108"><ele>176.0</ele><time>2026-05-02T11:07:22Z</time></trkpt><trkpt lat="45.588623173321686" lon="11.365091891087673"><ele>175.66666666666666</ele><time>2026-05-02T11:07:23Z</time></trkpt><trkpt lat="45.588679768399615" lon="11.365180165771905"><ele>175.33333333333331</ele><time>2026-05-02T11:07:24Z</time></trkpt><trkpt lat="45.58875346963638" lon="11.36523382318215"><ele>175.0</ele><time>2026-05-02T11:07:25Z</time></trkpt><trkpt lat="45.58880421581631" lon="11.365327925303225"><ele>174.66666666666666</ele><time>2026-05-02T11:07:26Z</time></trkpt><trkpt lat="45.58886452077927" lon="11.365421666073246"><ele>174.33333333333334</ele><time>2026-05-02T11:07:27Z</time></trkpt><trkpt lat="45.58891338754345" lon="11.365532376587598"><ele>174.0</ele><time>2026-05-02T11:07:28Z</time></trkpt><trkpt lat="45.5889636472825" lon="11.365668833810812"><ele>173.79999999999998</ele><time>2026-05-02T11:07:29Z</time></trkpt><trkpt lat="45.58899100249388" lon="11.365811165206457"><ele>173.6</ele><time>2026-05-02T11:07:30Z</time></trkpt><trkpt lat="45.58899641437616" lon="11.365963887511711"><ele>173.4</ele><time>2026-05-02T11:07:31Z</time></trkpt><trkpt lat="45.58900242268218" lon="11.366109609606147"><ele>173.2</ele><time>2026-05-02T11:07:32Z</time></trkpt><trkpt lat="45.58899864047802" lon="11.366260828001293"><ele>173.0</ele><time>2026-05-02T11:07:33Z</time></trkpt><trkpt lat="45.58899300036503" lon="11.366410423587336"><ele>172.0</ele><time>2026-05-02T11:07:34Z</time></trkpt><trkpt lat="45.58899695910209" lon="11.366574990685063"><ele>171.0</ele><time>2026-05-02T11:07:35Z</time></trkpt><trkpt lat="45.589014867546766" lon="11.36674718392264"><ele>170.0</ele><time>2026-05-02T11:07:36Z</time></trkpt><trkpt lat="45.589044491132235" lon="11.366921113088322"><ele>169.0</ele><time>2026-05-02T11:07:37Z</time></trkpt><trkpt lat="45.58906587766998" lon="11.367082514756692"><ele>167.79999999999998</ele><time>2026-05-02T11:07:38Z</time></trkpt><trkpt lat="45.58908991778404" lon="11.367243290522735"><ele>166.6</ele><time>2026-05-02T11:07:39Z</time></trkpt><trkpt lat="45.589119944411415" lon="11.36738870736936"><ele>165.4</ele><time>2026-05-02T11:07:40Z</time></trkpt><trkpt lat="45.58916144288076" lon="11.367531743470666"><ele>164.2</ele><time>2026-05-02T11:07:41Z</time></trkpt><trkpt lat="45.589209233621084" lon="11.367670103002899"><ele>163.0</ele><time>2026-05-02T11:07:42Z</time></trkpt><trkpt lat="45.58926255072446" lon="11.36778744334912"><ele>163.0</ele><time>2026-05-02T11:07:43Z</time></trkpt><trkpt lat="45.58930812640553" lon="11.367878013047164"><ele>163.0</ele><time>2026-05-02T11:07:44Z</time></trkpt><trkpt lat="45.58936089909695" lon="11.36796438494486"><ele>163.0</ele><time>2026-05-02T11:07:46Z</time></trkpt><trkpt lat="45.58940912991046" lon="11.368045118177111"><ele>163.0</ele><time>2026-05-02T11:07:51.999Z</time></trkpt><trkpt lat="45.58947681963435" lon="11.368176410078686"><ele>163.0</ele><time>2026-05-02T11:07:53.999Z</time></trkpt><trkpt lat="45.589525315449166" lon="11.36824953004434"><ele>163.0</ele><time>2026-05-02T11:07:54.999Z</time></trkpt><trkpt lat="45.58958107848214" lon="11.368322878259846"><ele>162.4</ele><time>2026-05-02T11:07:55.999Z</time></trkpt><trkpt lat="45.589638974127965" lon="11.368381469365914"><ele>161.8</ele><time>2026-05-02T11:07:56.999Z</time></trkpt><trkpt lat="45.589644907281766" lon="11.368533492345836"><ele>161.2</ele><time>2026-05-02T11:07:57.999Z</time></trkpt><trkpt lat="45.58967009434812" lon="11.368648960905848"><ele>160.6</ele><time>2026-05-02T11:07:58.999Z</time></trkpt><trkpt lat="45.58967938834706" lon="11.368786373033256"><ele>160.0</ele><time>2026-05-02T11:07:59.999Z</time></trkpt><trkpt lat="45.58974601622415" lon="11.368897822169782"><ele>159.33333333333334</ele><time>2026-05-02T11:08:00.999Z</time></trkpt><trkpt lat="45.58979796191776" lon="11.369003741693408"><ele>158.66666666666669</ele><time>2026-05-02T11:08:01.999Z</time></trkpt><trkpt lat="45.589847479791196" lon="11.369095904667894"><ele>158.0</ele><time>2026-05-02T11:08:02.999Z</time></trkpt><trkpt lat="45.58988948811055" lon="11.369176730538747"><ele>157.33333333333334</ele><time>2026-05-02T11:08:03.999Z</time></trkpt><trkpt lat="45.589930652634614" lon="11.369264025355458"><ele>156.66666666666666</ele><time>2026-05-02T11:08:04.999Z</time></trkpt><trkpt lat="45.589972152022" lon="11.369356208853398"><ele>156.0</ele><time>2026-05-02T11:08:05.999Z</time></trkpt><trkpt lat="45.590019303140096" lon="11.36945514211763"><ele>156.0</ele><time>2026-05-02T11:08:06.999Z</time></trkpt><trkpt lat="45.59006911275025" lon="11.369565277904796"><ele>156.0</ele><time>2026-05-02T11:08:07.999Z</time></trkpt><trkpt lat="45.590120975559394" lon="11.369681541339158"><ele>156.0</ele><time>2026-05-02T11:08:08.999Z</time></trkpt><trkpt lat="45.59017058510493" lon="11.369792556766928"><ele>156.0</ele><time>2026-05-02T11:08:09.999Z</time></trkpt><trkpt lat="45.59021687818655" lon="11.369896136748292"><ele>156.0</ele><time>2026-05-02T11:08:10.999Z</time></trkpt><trkpt lat="45.59026412138911" lon="11.369996318626779"><ele>155.8</ele><time>2026-05-02T11:08:11.999Z</time></trkpt><trkpt lat="45.59031420266" lon="11.370107797590446"><ele>155.6</ele><time>2026-05-02T11:08:12.999Z</time></trkpt><trkpt lat="45.5903640244635" lon="11.370230535189076"><ele>155.4</ele><time>2026-05-02T11:08:13.999Z</time></trkpt><trkpt lat="45.590417389674045" lon="11.370367313403328"><ele>155.2</ele><time>2026-05-02T11:08:14.999Z</time></trkpt><trkpt lat="45.59047579730338" lon="11.370511223411052"><ele>155.0</ele><time>2026-05-02T11:08:15.999Z</time></trkpt><trkpt lat="45.590534421149016" lon="11.370654391041557"><ele>155.6</ele><time>2026-05-02T11:08:16.999Z</time></trkpt><trkpt lat="45.59059180759917" lon="11.370801881541885"><ele>156.2</ele><time>2026-05-02T11:08:17.999Z</time></trkpt><trkpt lat="45.59064260817341" lon="11.370937426986591"><ele>156.8</ele><time>2026-05-02T11:08:18.999Z</time></trkpt><trkpt lat="45.59069432917536" lon="11.371065862266498"><ele>157.4</ele><time>2026-05-02T11:08:19.999Z</time></trkpt><trkpt lat="45.59074286245334" lon="11.371189522704393"><ele>158.0</ele><time>2026-05-02T11:08:20.999Z</time></trkpt><trkpt lat="45.59079220600892" lon="11.371306877951366"><ele>158.0</ele><time>2026-05-02T11:08:21.999Z</time></trkpt><trkpt lat="45.59083821507393" lon="11.371433919192798"><ele>158.0</ele><time>2026-05-02T11:08:22.999Z</time></trkpt><trkpt lat="45.59088442072508" lon="11.371561678868472"><ele>158.0</ele><time>2026-05-02T11:08:23.999Z</time></trkpt><trkpt lat="45.59092519531596" lon="11.371695805820158"><ele>158.0</ele><time>2026-05-02T11:08:24.999Z</time></trkpt><trkpt lat="45.59094999171452" lon="11.371832903552498"><ele>158.0</ele><time>2026-05-02T11:08:25.999Z</time></trkpt><trkpt lat="45.59096970042967" lon="11.371976639087087"><ele>158.0</ele><time>2026-05-02T11:08:26.999Z</time></trkpt><trkpt lat="45.59098013425518" lon="11.372125578886456"><ele>158.0</ele><time>2026-05-02T11:08:27.999Z</time></trkpt><trkpt lat="45.59098499120273" lon="11.372287152074408"><ele>158.0</ele><time>2026-05-02T11:08:28.999Z</time></trkpt><trkpt lat="45.59098129760765" lon="11.372453155871721"><ele>158.0</ele><time>2026-05-02T11:08:29.999Z</time></trkpt><trkpt lat="45.59096001331025" lon="11.372616088552713"><ele>157.75</ele><time>2026-05-02T11:08:30.999Z</time></trkpt><trkpt lat="45.59094705411029" lon="11.37276529977975"><ele>157.5</ele><time>2026-05-02T11:08:31.999Z</time></trkpt><trkpt lat="45.59093095636483" lon="11.372918759234672"><ele>157.25</ele><time>2026-05-02T11:08:32.999Z</time></trkpt><trkpt lat="45.590912710459406" lon="11.373081704071513"><ele>157.0</ele><time>2026-05-02T11:08:33.999Z</time></trkpt><trkpt lat="45.59089134097253" lon="11.373252050778918"><ele>156.75</ele><time>2026-05-02T11:08:34.999Z</time></trkpt><trkpt lat="45.590872128351656" lon="11.373428891468972"><ele>156.5</ele><time>2026-05-02T11:08:35.999Z</time></trkpt><trkpt lat="45.590855379127134" lon="11.373609496194993"><ele>156.25</ele><time>2026-05-02T11:08:36.999Z</time></trkpt><trkpt lat="45.590836570845966" lon="11.37379579089904"><ele>156.0</ele><time>2026-05-02T11:08:37.999Z</time></trkpt><trkpt lat="45.590842984109635" lon="11.373989760511892"><ele>155.5</ele><time>2026-05-02T11:08:38.999Z</time></trkpt><trkpt lat="45.59085648738917" lon="11.374185841409897"><ele>155.0</ele><time>2026-05-02T11:08:39.999Z</time></trkpt><trkpt lat="45.590880635219285" lon="11.37438126656722"><ele>154.5</ele><time>2026-05-02T11:08:40.999Z</time></trkpt><trkpt lat="45.59091646228101" lon="11.374561535278298"><ele>154.0</ele><time>2026-05-02T11:08:41.999Z</time></trkpt><trkpt lat="45.5909597247822" lon="11.374731838648328"><ele>154.0</ele><time>2026-05-02T11:08:42.999Z</time></trkpt><trkpt lat="45.59100515556552" lon="11.374890825253605"><ele>154.0</ele><time>2026-05-02T11:08:43.998Z</time></trkpt><trkpt lat="45.59106204102423" lon="11.375036329060665"><ele>154.0</ele><time>2026-05-02T11:08:44.998Z</time></trkpt><trkpt lat="45.59112497333464" lon="11.375163768376686"><ele>154.0</ele><time>2026-05-02T11:08:45.998Z</time></trkpt><trkpt lat="45.591183303710075" lon="11.375283190912985"><ele>154.0</ele><time>2026-05-02T11:08:46.998Z</time></trkpt><trkpt lat="45.591237305132374" lon="11.375393365411893"><ele>154.0</ele><time>2026-05-02T11:08:47.998Z</time></trkpt><trkpt lat="45.59128714561182" lon="11.375490031079483"><ele>154.0</ele><time>2026-05-02T11:08:48.998Z</time></trkpt><trkpt lat="45.591329147577135" lon="11.37557336882605"><ele>154.0</ele><time>2026-05-02T11:08:49.998Z</time></trkpt><trkpt lat="45.59138644522602" lon="11.375703507462005"><ele>154.0</ele><time>2026-05-02T11:08:51.998Z</time></trkpt><trkpt lat="45.59141360771925" lon="11.375805980663975"><ele>154.0</ele><time>2026-05-02T11:08:54.998Z</time></trkpt><trkpt lat="45.591423977486315" lon="11.37589585098608"><ele>154.0</ele><time>2026-05-02T11:08:56.998Z</time></trkpt><trkpt lat="45.59140634545843" lon="11.376089759215226"><ele>154.0</ele><time>2026-05-02T11:08:58.998Z</time></trkpt><trkpt lat="45.59140111413258" lon="11.376212078508983"><ele>154.0</ele><time>2026-05-02T11:08:59.998Z</time></trkpt><trkpt lat="45.59142083734204" lon="11.376340571645764"><ele>154.0</ele><time>2026-05-02T11:09:00.998Z</time></trkpt><trkpt lat="45.59147320405149" lon="11.376443207978053"><ele>154.0</ele><time>2026-05-02T11:09:01.998Z</time></trkpt><trkpt lat="45.5915475704176" lon="11.376493344603041"><ele>154.0</ele><time>2026-05-02T11:09:02.998Z</time></trkpt><trkpt lat="45.59163388734273" lon="11.376572707705613"><ele>154.25</ele><time>2026-05-02T11:09:03.998Z</time></trkpt><trkpt lat="45.59175357888354" lon="11.376572960108916"><ele>154.5</ele><time>2026-05-02T11:09:04.998Z</time></trkpt><trkpt lat="45.59185981798352" lon="11.376511939555106"><ele>154.75</ele><time>2026-05-02T11:09:05.998Z</time></trkpt><trkpt lat="45.59194929930529" lon="11.376374945637169"><ele>155.0</ele><time>2026-05-02T11:09:06.998Z</time></trkpt><trkpt lat="45.59202393082805" lon="11.376250945001006"><ele>155.0</ele><time>2026-05-02T11:09:09Z</time></trkpt><trkpt lat="45.59207675254266" lon="11.376082986630232"><ele>155.0</ele><time>2026-05-02T11:09:10Z</time></trkpt><trkpt lat="45.59216362717406" lon="11.375937072011158"><ele>155.0</ele><time>2026-05-02T11:09:11Z</time></trkpt><trkpt lat="45.59227814273111" lon="11.375821489230857"><ele>155.0</ele><time>2026-05-02T11:09:12Z</time></trkpt><trkpt lat="45.59241179204794" lon="11.375709047134624"><ele>155.0</ele><time>2026-05-02T11:09:13Z</time></trkpt><trkpt lat="45.592549410070504" lon="11.375581029496816"><ele>155.0</ele><time>2026-05-02T11:09:14Z</time></trkpt><trkpt lat="45.59268615118941" lon="11.3754437425249"><ele>155.0</ele><time>2026-05-02T11:09:15Z</time></trkpt><trkpt lat="45.59281100956303" lon="11.375311538134998"><ele>155.75</ele><time>2026-05-02T11:09:16Z</time></trkpt><trkpt lat="45.592927843502046" lon="11.375179208027035"><ele>156.5</ele><time>2026-05-02T11:09:17Z</time></trkpt><trkpt lat="45.5930472526331" lon="11.375051738375548"><ele>157.25</ele><time>2026-05-02T11:09:18Z</time></trkpt><trkpt lat="45.593161947853496" lon="11.37493476566942"><ele>158.0</ele><time>2026-05-02T11:09:19Z</time></trkpt><trkpt lat="45.59327704287295" lon="11.374848028156915"><ele>158.0</ele><time>2026-05-02T11:09:20Z</time></trkpt><trkpt lat="45.59339722347044" lon="11.374803942347464"><ele>158.0</ele><time>2026-05-02T11:09:21Z</time></trkpt><trkpt lat="45.59353140821765" lon="11.374811288155335"><ele>158.0</ele><time>2026-05-02T11:09:22Z</time></trkpt><trkpt lat="45.593682310118275" lon="11.374852017119771"><ele>158.0</ele><time>2026-05-02T11:09:23Z</time></trkpt><trkpt lat="45.593837428329984" lon="11.374918689657337"><ele>158.0</ele><time>2026-05-02T11:09:24Z</time></trkpt><trkpt lat="45.59400254012262" lon="11.374986952032463"><ele>158.0</ele><time>2026-05-02T11:09:25Z</time></trkpt><trkpt lat="45.594180210559465" lon="11.375046847891339"><ele>158.0</ele><time>2026-05-02T11:09:26Z</time></trkpt><trkpt lat="45.59436270325624" lon="11.375112214712393"><ele>158.33333333333331</ele><time>2026-05-02T11:09:27Z</time></trkpt><trkpt lat="45.59454886335301" lon="11.375177927509009"><ele>158.66666666666666</ele><time>2026-05-02T11:09:28Z</time></trkpt><trkpt lat="45.59473816885362" lon="11.375237893044574"><ele>159.0</ele><time>2026-05-02T11:09:29Z</time></trkpt><trkpt lat="45.594930457144166" lon="11.375313153576375"><ele>159.0</ele><time>2026-05-02T11:09:30Z</time></trkpt><trkpt lat="45.59511859752772" lon="11.375390389619115"><ele>159.0</ele><time>2026-05-02T11:09:31Z</time></trkpt><trkpt lat="45.595305263749" lon="11.375480997975476"><ele>159.0</ele><time>2026-05-02T11:09:32Z</time></trkpt><trkpt lat="45.59548792427251" lon="11.375584518929381"><ele>158.66666666666666</ele><time>2026-05-02T11:09:33Z</time></trkpt><trkpt lat="45.59566522643818" lon="11.3756973777605"><ele>158.33333333333331</ele><time>2026-05-02T11:09:34Z</time></trkpt><trkpt lat="45.595835427008375" lon="11.375816260778558"><ele>158.0</ele><time>2026-05-02T11:09:35Z</time></trkpt><trkpt lat="45.59598841920146" lon="11.375939103002377"><ele>158.0</ele><time>2026-05-02T11:09:36Z</time></trkpt><trkpt lat="45.59612877541872" lon="11.37606636820274"><ele>158.0</ele><time>2026-05-02T11:09:37Z</time></trkpt><trkpt lat="45.59626188763952" lon="11.376188390314113"><ele>158.0</ele><time>2026-05-02T11:09:38Z</time></trkpt><trkpt lat="45.59638445008374" lon="11.376303492837833"><ele>157.5</ele><time>2026-05-02T11:09:39Z</time></trkpt><trkpt lat="45.596493491815025" lon="11.37641514954334"><ele>157.0</ele><time>2026-05-02T11:09:40Z</time></trkpt><trkpt lat="45.59659063563817" lon="11.376529372037702"><ele>156.5</ele><time>2026-05-02T11:09:41Z</time></trkpt><trkpt lat="45.596679286619846" lon="11.376645670359737"><ele>156.0</ele><time>2026-05-02T11:09:42Z</time></trkpt><trkpt lat="45.59674854924857" lon="11.37676343801642"><ele>156.0</ele><time>2026-05-02T11:09:43Z</time></trkpt><trkpt lat="45.596790648104395" lon="11.376888408818377"><ele>156.0</ele><time>2026-05-02T11:09:44Z</time></trkpt><trkpt lat="45.59680489613279" lon="11.377036536861612"><ele>156.0</ele><time>2026-05-02T11:09:45Z</time></trkpt><trkpt lat="45.59682003301844" lon="11.377186114498567"><ele>156.0</ele><time>2026-05-02T11:09:46Z</time></trkpt><trkpt lat="45.59687130188439" lon="11.377317893528382"><ele>156.0</ele><time>2026-05-02T11:09:46.999Z</time></trkpt><trkpt lat="45.59694198310865" lon="11.377432470847861"><ele>156.0</ele><time>2026-05-02T11:09:47.999Z</time></trkpt><trkpt lat="45.59708452910394" lon="11.377438164312636"><ele>156.0</ele><time>2026-05-02T11:09:48.999Z</time></trkpt><trkpt lat="45.59719821695066" lon="11.377388382492269"><ele>156.0</ele><time>2026-05-02T11:09:49.999Z</time></trkpt><trkpt lat="45.597313480711904" lon="11.377437783061724"><ele>156.0</ele><time>2026-05-02T11:09:50.999Z</time></trkpt><trkpt lat="45.597373158839254" lon="11.377725376551304"><ele>156.0</ele><time>2026-05-02T11:09:51.999Z</time></trkpt><trkpt lat="45.59746457270149" lon="11.377892597006538"><ele>156.0</ele><time>2026-05-02T11:09:52.999Z</time></trkpt><trkpt lat="45.59754273215838" lon="11.378092529378659"><ele>156.0</ele><time>2026-05-02T11:09:53.999Z</time></trkpt><trkpt lat="45.59763048816421" lon="11.378303923684152"><ele>156.33333333333334</ele><time>2026-05-02T11:09:54.999Z</time></trkpt><trkpt lat="45.597722918898164" lon="11.378526732679806"><ele>156.66666666666669</ele><time>2026-05-02T11:09:55.999Z</time></trkpt><trkpt lat="45.59782683407291" lon="11.37876432998312"><ele>157.0</ele><time>2026-05-02T11:09:56.999Z</time></trkpt><trkpt lat="45.59792889222561" lon="11.379009415286452"><ele>157.0</ele><time>2026-05-02T11:09:57.999Z</time></trkpt><trkpt lat="45.59803629933657" lon="11.379266421435757"><ele>157.0</ele><time>2026-05-02T11:09:58.999Z</time></trkpt><trkpt lat="45.59814236681639" lon="11.379518475940163"><ele>157.0</ele><time>2026-05-02T11:09:59.999Z</time></trkpt><trkpt lat="45.598262660227064" lon="11.379789028776633"><ele>157.0</ele><time>2026-05-02T11:10:00.999Z</time></trkpt><trkpt lat="45.598392344527944" lon="11.380054371064569"><ele>157.0</ele><time>2026-05-02T11:10:01.999Z</time></trkpt><trkpt lat="45.59852724277366" lon="11.380292470119317"><ele>157.0</ele><time>2026-05-02T11:10:02.999Z</time></trkpt><trkpt lat="45.59866892747611" lon="11.380520553293069"><ele>157.0</ele><time>2026-05-02T11:10:03.999Z</time></trkpt><trkpt lat="45.5988248473149" lon="11.380735761095469"><ele>157.0</ele><time>2026-05-02T11:10:04.999Z</time></trkpt><trkpt lat="45.59899188502492" lon="11.380933757854825"><ele>157.0</ele><time>2026-05-02T11:10:05.999Z</time></trkpt><trkpt lat="45.59916978587042" lon="11.381122729628451"><ele>157.0</ele><time>2026-05-02T11:10:06.999Z</time></trkpt><trkpt lat="45.5993597060753" lon="11.381309618559374"><ele>157.0</ele><time>2026-05-02T11:10:07.999Z</time></trkpt><trkpt lat="45.59956455726813" lon="11.381475046717933"><ele>155.5</ele><time>2026-05-02T11:10:08.999Z</time></trkpt><trkpt lat="45.59977515046274" lon="11.381624189636863"><ele>154.0</ele><time>2026-05-02T11:10:09.999Z</time></trkpt><trkpt lat="45.5999934367973" lon="11.381750860699732"><ele>154.0</ele><time>2026-05-02T11:10:10.999Z</time></trkpt><trkpt lat="45.600218997043896" lon="11.381860169748549"><ele>154.0</ele><time>2026-05-02T11:10:11.999Z</time></trkpt><trkpt lat="45.60045415156479" lon="11.38195491177219"><ele>153.5</ele><time>2026-05-02T11:10:12.999Z</time></trkpt><trkpt lat="45.600698101404305" lon="11.382018522000944"><ele>153.0</ele><time>2026-05-02T11:10:13.999Z</time></trkpt><trkpt lat="45.60094108550862" lon="11.382057835191022"><ele>152.0</ele><time>2026-05-02T11:10:14.999Z</time></trkpt><trkpt lat="45.601196212959415" lon="11.382075845160406"><ele>151.0</ele><time>2026-05-02T11:10:15.999Z</time></trkpt><trkpt lat="45.601457752923174" lon="11.382077185818503"><ele>151.0</ele><time>2026-05-02T11:10:16.999Z</time></trkpt><trkpt lat="45.601717625918624" lon="11.382073131420158"><ele>151.0</ele><time>2026-05-02T11:10:17.999Z</time></trkpt><trkpt lat="45.60197561425372" lon="11.382067266942608"><ele>151.0</ele><time>2026-05-02T11:10:18.999Z</time></trkpt><trkpt lat="45.60223453439637" lon="11.382069948482217"><ele>151.0</ele><time>2026-05-02T11:10:19.999Z</time></trkpt><trkpt lat="45.602494129135124" lon="11.382076425569208"><ele>151.0</ele><time>2026-05-02T11:10:20.999Z</time></trkpt><trkpt lat="45.60274673316403" lon="11.382085361868139"><ele>151.0</ele><time>2026-05-02T11:10:21.999Z</time></trkpt><trkpt lat="45.602992318474534" lon="11.38208658613956"><ele>150.0</ele><time>2026-05-02T11:10:22.999Z</time></trkpt><trkpt lat="45.603233055772684" lon="11.382085516314971"><ele>149.0</ele><time>2026-05-02T11:10:23.999Z</time></trkpt><trkpt lat="45.603472535947255" lon="11.382066757546188"><ele>149.5</ele><time>2026-05-02T11:10:24.999Z</time></trkpt><trkpt lat="45.60372294259538" lon="11.382020087206486"><ele>150.0</ele><time>2026-05-02T11:10:25.999Z</time></trkpt><trkpt lat="45.60397174960311" lon="11.38195740756715"><ele>150.0</ele><time>2026-05-02T11:10:26.999Z</time></trkpt><trkpt lat="45.604218663454034" lon="11.381875880024735"><ele>150.0</ele><time>2026-05-02T11:10:27.999Z</time></trkpt><trkpt lat="45.60446475424172" lon="11.381772660195116"><ele>152.0</ele><time>2026-05-02T11:10:28.999Z</time></trkpt><trkpt lat="45.60470968823212" lon="11.381650869041756"><ele>154.0</ele><time>2026-05-02T11:10:29.999Z</time></trkpt><trkpt lat="45.604941044030795" lon="11.381503876264984"><ele>153.5</ele><time>2026-05-02T11:10:30.999Z</time></trkpt><trkpt lat="45.60516263732595" lon="11.381347861554378"><ele>153.0</ele><time>2026-05-02T11:10:31.999Z</time></trkpt><trkpt lat="45.605372779322394" lon="11.381180057505908"><ele>154.0</ele><time>2026-05-02T11:10:32.999Z</time></trkpt><trkpt lat="45.60557842556144" lon="11.381007331833775"><ele>155.0</ele><time>2026-05-02T11:10:33.999Z</time></trkpt><trkpt lat="45.60578108251335" lon="11.380837507016736"><ele>155.0</ele><time>2026-05-02T11:10:34.999Z</time></trkpt><trkpt lat="45.60597965069727" lon="11.380678321148807"><ele>155.0</ele><time>2026-05-02T11:10:35.999Z</time></trkpt><trkpt lat="45.60617640968189" lon="11.380523604066026"><ele>156.66666666666666</ele><time>2026-05-02T11:10:36.999Z</time></trkpt><trkpt lat="45.606370653942825" lon="11.380372738862967"><ele>158.33333333333334</ele><time>2026-05-02T11:10:37.999Z</time></trkpt><trkpt lat="45.60656291211618" lon="11.380225680377931"><ele>160.0</ele><time>2026-05-02T11:10:38.999Z</time></trkpt><trkpt lat="45.60674985475245" lon="11.380080312034794"><ele>160.0</ele><time>2026-05-02T11:10:39.999Z</time></trkpt><trkpt lat="45.60693866170832" lon="11.379930628685159"><ele>160.0</ele><time>2026-05-02T11:10:40.999Z</time></trkpt><trkpt lat="45.60712822394701" lon="11.379784229390602"><ele>160.0</ele><time>2026-05-02T11:10:41.999Z</time></trkpt><trkpt lat="45.60732355623266" lon="11.379651193404936"><ele>160.33333333333334</ele><time>2026-05-02T11:10:42.999Z</time></trkpt><trkpt lat="45.607523531576284" lon="11.379526607856457"><ele>160.66666666666666</ele><time>2026-05-02T11:10:43.999Z</time></trkpt><trkpt lat="45.60772332815007" lon="11.379430032737146"><ele>161.0</ele><time>2026-05-02T11:10:44.998Z</time></trkpt><trkpt lat="45.60791633983358" lon="11.379360412072577"><ele>161.0</ele><time>2026-05-02T11:10:45.998Z</time></trkpt><trkpt lat="45.60811462049888" lon="11.379306611067234"><ele>161.0</ele><time>2026-05-02T11:10:46.998Z</time></trkpt><trkpt lat="45.60833093787228" lon="11.379272308389462"><ele>161.0</ele><time>2026-05-02T11:10:47.998Z</time></trkpt><trkpt lat="45.60852884101688" lon="11.379256444574116"><ele>162.0</ele><time>2026-05-02T11:10:48.998Z</time></trkpt><trkpt lat="45.60876118741697" lon="11.37926819704313"><ele>163.0</ele><time>2026-05-02T11:10:49.998Z</time></trkpt><trkpt lat="45.60898387135728" lon="11.37928866075284"><ele>163.0</ele><time>2026-05-02T11:10:50.998Z</time></trkpt><trkpt lat="45.609211247007806" lon="11.379314748819194"><ele>163.0</ele><time>2026-05-02T11:10:51.998Z</time></trkpt><trkpt lat="45.6094412375832" lon="11.37933842684426"><ele>164.5</ele><time>2026-05-02T11:10:52.998Z</time></trkpt><trkpt lat="45.60967481575683" lon="11.379361604245068"><ele>166.0</ele><time>2026-05-02T11:10:53.998Z</time></trkpt><trkpt lat="45.60990555405696" lon="11.379393365128974"><ele>166.0</ele><time>2026-05-02T11:10:54.998Z</time></trkpt><trkpt lat="45.61012712048659" lon="11.379445100581865"><ele>166.0</ele><time>2026-05-02T11:10:55.998Z</time></trkpt><trkpt lat="45.61034237173819" lon="11.379510829365127"><ele>166.0</ele><time>2026-05-02T11:10:56.998Z</time></trkpt><trkpt lat="45.61055351764285" lon="11.37958922491495"><ele>165.0</ele><time>2026-05-02T11:10:57.998Z</time></trkpt><trkpt lat="45.6107567202736" lon="11.379672870080531"><ele>164.0</ele><time>2026-05-02T11:10:58.998Z</time></trkpt><trkpt lat="45.61095791840215" lon="11.37975039264903"><ele>163.0</ele><time>2026-05-02T11:10:59.998Z</time></trkpt><trkpt lat="45.61114732294562" lon="11.379820113686687"><ele>165.33333333333334</ele><time>2026-05-02T11:11:00.998Z</time></trkpt><trkpt lat="45.611329693196616" lon="11.379886359348374"><ele>167.66666666666666</ele><time>2026-05-02T11:11:01.998Z</time></trkpt><trkpt lat="45.61150825448321" lon="11.37994825805816"><ele>170.0</ele><time>2026-05-02T11:11:02.998Z</time></trkpt><trkpt lat="45.61168433315299" lon="11.380004084637502"><ele>170.0</ele><time>2026-05-02T11:11:03.998Z</time></trkpt><trkpt lat="45.61186081803746" lon="11.380056980427616"><ele>170.0</ele><time>2026-05-02T11:11:04.998Z</time></trkpt><trkpt lat="45.61203476760063" lon="11.380101572505344"><ele>170.0</ele><time>2026-05-02T11:11:05.998Z</time></trkpt><trkpt lat="45.612197662323794" lon="11.380141119012352"><ele>171.66666666666666</ele><time>2026-05-02T11:11:06.998Z</time></trkpt><trkpt lat="45.61236827234177" lon="11.380180711430292"><ele>173.33333333333334</ele><time>2026-05-02T11:11:07.998Z</time></trkpt><trkpt lat="45.6125212154655" lon="11.380212710603548"><ele>175.0</ele><time>2026-05-02T11:11:08.998Z</time></trkpt><trkpt lat="45.61266912019868" lon="11.380243275385773"><ele>175.0</ele><time>2026-05-02T11:11:09.998Z</time></trkpt><trkpt lat="45.61281112013151" lon="11.380274137046655"><ele>175.0</ele><time>2026-05-02T11:11:10.998Z</time></trkpt><trkpt lat="45.612947533549345" lon="11.380300533590628"><ele>175.0</ele><time>2026-05-02T11:11:11.998Z</time></trkpt><trkpt lat="45.61306955985289" lon="11.38033049484839"><ele>175.0</ele><time>2026-05-02T11:11:12.998Z</time></trkpt><trkpt lat="45.61318020271795" lon="11.380358492043571"><ele>174.75</ele><time>2026-05-02T11:11:13.998Z</time></trkpt><trkpt lat="45.61328704449218" lon="11.380386172340115"><ele>174.5</ele><time>2026-05-02T11:11:15Z</time></trkpt><trkpt lat="45.61339133962369" lon="11.380411825897124"><ele>174.25</ele><time>2026-05-02T11:11:16Z</time></trkpt><trkpt lat="45.61351269974311" lon="11.380435736571066"><ele>174.0</ele><time>2026-05-02T11:11:17Z</time></trkpt><trkpt lat="45.613643480663654" lon="11.380449999493663"><ele>174.25</ele><time>2026-05-02T11:11:18Z</time></trkpt><trkpt lat="45.613780858375776" lon="11.380469326747946"><ele>174.5</ele><time>2026-05-02T11:11:19Z</time></trkpt><trkpt lat="45.61393277942593" lon="11.380498830130353"><ele>174.75</ele><time>2026-05-02T11:11:20Z</time></trkpt><trkpt lat="45.61408559495647" lon="11.380526428078149"><ele>175.0</ele><time>2026-05-02T11:11:21Z</time></trkpt><trkpt lat="45.61425809558984" lon="11.380564608696217"><ele>175.66666666666669</ele><time>2026-05-02T11:11:22Z</time></trkpt><trkpt lat="45.614435466777756" lon="11.380616656433434"><ele>176.33333333333334</ele><time>2026-05-02T11:11:23Z</time></trkpt><trkpt lat="45.614619294022724" lon="11.380684728180372"><ele>177.0</ele><time>2026-05-02T11:11:24Z</time></trkpt><trkpt lat="45.614804412723494" lon="11.380772534014643"><ele>177.0</ele><time>2026-05-02T11:11:25Z</time></trkpt><trkpt lat="45.61498698615998" lon="11.380885209529527"><ele>177.0</ele><time>2026-05-02T11:11:26Z</time></trkpt><trkpt lat="45.61516055930816" lon="11.381016556433156"><ele>177.0</ele><time>2026-05-02T11:11:27Z</time></trkpt><trkpt lat="45.61533491081173" lon="11.381167669734907"><ele>177.33333333333334</ele><time>2026-05-02T11:11:28Z</time></trkpt><trkpt lat="45.61551196688904" lon="11.381330886304495"><ele>177.66666666666669</ele><time>2026-05-02T11:11:29Z</time></trkpt><trkpt lat="45.615689996691124" lon="11.38148794870666"><ele>178.0</ele><time>2026-05-02T11:11:30Z</time></trkpt><trkpt lat="45.61586669119287" lon="11.381629099991656"><ele>178.0</ele><time>2026-05-02T11:11:31Z</time></trkpt><trkpt lat="45.616053640019615" lon="11.381753936601694"><ele>178.0</ele><time>2026-05-02T11:11:32Z</time></trkpt><trkpt lat="45.61625141586113" lon="11.381860038344309"><ele>178.0</ele><time>2026-05-02T11:11:33Z</time></trkpt><trkpt lat="45.616451919349956" lon="11.381945342921261"><ele>180.66666666666669</ele><time>2026-05-02T11:11:34Z</time></trkpt><trkpt lat="45.61665173989342" lon="11.382014705519865"><ele>183.33333333333334</ele><time>2026-05-02T11:11:35Z</time></trkpt><trkpt lat="45.61685879350403" lon="11.382065352236816"><ele>186.0</ele><time>2026-05-02T11:11:36Z</time></trkpt><trkpt lat="45.6170749241396" lon="11.382087145547338"><ele>187.5</ele><time>2026-05-02T11:11:37Z</time></trkpt><trkpt lat="45.61729741392677" lon="11.38209343220621"><ele>189.0</ele><time>2026-05-02T11:11:38Z</time></trkpt><trkpt lat="45.61752591232051" lon="11.382060782864727"><ele>189.0</ele><time>2026-05-02T11:11:39Z</time></trkpt><trkpt lat="45.61776706504722" lon="11.382010805587848"><ele>189.0</ele><time>2026-05-02T11:11:40Z</time></trkpt><trkpt lat="45.61801179891286" lon="11.38196628201472"><ele>193.0</ele><time>2026-05-02T11:11:41Z</time></trkpt><trkpt lat="45.61827042670289" lon="11.381924466932485"><ele>197.0</ele><time>2026-05-02T11:11:42Z</time></trkpt><trkpt lat="45.61853295459492" lon="11.381897840342276"><ele>199.0</ele><time>2026-05-02T11:11:43Z</time></trkpt><trkpt lat="45.61879549183739" lon="11.38189325436622"><ele>201.0</ele><time>2026-05-02T11:11:44Z</time></trkpt><trkpt lat="45.61904961520694" lon="11.38190797498588"><ele>201.0</ele><time>2026-05-02T11:11:45Z</time></trkpt><trkpt lat="45.6192892876082" lon="11.381921308994743"><ele>201.0</ele><time>2026-05-02T11:11:46Z</time></trkpt><trkpt lat="45.61951804666737" lon="11.381937385119077"><ele>205.0</ele><time>2026-05-02T11:11:47Z</time></trkpt><trkpt lat="45.61974767702966" lon="11.381928807924183"><ele>209.0</ele><time>2026-05-02T11:11:48Z</time></trkpt><trkpt lat="45.61996773311953" lon="11.381933277289763"><ele>209.0</ele><time>2026-05-02T11:11:48.999Z</time></trkpt><trkpt lat="45.620187099519256" lon="11.381925683284154"><ele>209.0</ele><time>2026-05-02T11:11:49.999Z</time></trkpt><trkpt lat="45.62040079660838" lon="11.381869803080455"><ele>209.0</ele><time>2026-05-02T11:11:50.999Z</time></trkpt><trkpt lat="45.62061347312586" lon="11.381786515217291"><ele>207.5</ele><time>2026-05-02T11:11:51.999Z</time></trkpt><trkpt lat="45.62081775824164" lon="11.381663089141357"><ele>206.0</ele><time>2026-05-02T11:11:52.999Z</time></trkpt><trkpt lat="45.621020201010495" lon="11.381497564964237"><ele>210.0</ele><time>2026-05-02T11:11:53.999Z</time></trkpt><trkpt lat="45.62121112201679" lon="11.381308883177569"><ele>214.0</ele><time>2026-05-02T11:11:54.999Z</time></trkpt><trkpt lat="45.62139742740497" lon="11.381100348272238"><ele>214.0</ele><time>2026-05-02T11:11:55.999Z</time></trkpt><trkpt lat="45.621569894354195" lon="11.380863705659445"><ele>214.0</ele><time>2026-05-02T11:11:56.999Z</time></trkpt><trkpt lat="45.621728909317284" lon="11.380597967090326"><ele>214.0</ele><time>2026-05-02T11:11:57.999Z</time></trkpt><trkpt lat="45.62188131578981" lon="11.380318148657942"><ele>214.0</ele><time>2026-05-02T11:11:58.999Z</time></trkpt><trkpt lat="45.62204161165949" lon="11.38004783983448"><ele>214.0</ele><time>2026-05-02T11:11:59.999Z</time></trkpt><trkpt lat="45.62219427807358" lon="11.379782446715641"><ele>214.0</ele><time>2026-05-02T11:12:00.999Z</time></trkpt><trkpt lat="45.62233753138084" lon="11.379532569586065"><ele>215.33333333333331</ele><time>2026-05-02T11:12:01.999Z</time></trkpt><trkpt lat="45.622485233548076" lon="11.37929994423359"><ele>216.66666666666669</ele><time>2026-05-02T11:12:02.999Z</time></trkpt><trkpt lat="45.62265521326308" lon="11.379106005903648"><ele>218.0</ele><time>2026-05-02T11:12:03.999Z</time></trkpt><trkpt lat="45.62282629535776" lon="11.378936689816957"><ele>227.66666666666669</ele><time>2026-05-02T11:12:04.999Z</time></trkpt><trkpt lat="45.623007144365275" lon="11.378807062456238"><ele>237.33333333333331</ele><time>2026-05-02T11:12:05.999Z</time></trkpt><trkpt lat="45.62319836962321" lon="11.37870525085972"><ele>247.0</ele><time>2026-05-02T11:12:06.999Z</time></trkpt><trkpt lat="45.62339191566561" lon="11.378614811023983"><ele>247.0</ele><time>2026-05-02T11:12:07.999Z</time></trkpt><trkpt lat="45.623572605574964" lon="11.378523239430436"><ele>247.0</ele><time>2026-05-02T11:12:08.999Z</time></trkpt><trkpt lat="45.623754878558515" lon="11.378395729598381"><ele>247.0</ele><time>2026-05-02T11:12:09.999Z</time></trkpt><trkpt lat="45.623930516619694" lon="11.378249157147112"><ele>250.0</ele><time>2026-05-02T11:12:10.999Z</time></trkpt><trkpt lat="45.62409955142979" lon="11.378057852389869"><ele>253.0</ele><time>2026-05-02T11:12:11.999Z</time></trkpt><trkpt lat="45.6242750513407" lon="11.377827763768305"><ele>253.0</ele><time>2026-05-02T11:12:12.999Z</time></trkpt><trkpt lat="45.62443099740046" lon="11.377626101167024"><ele>253.0</ele><time>2026-05-02T11:12:13.999Z</time></trkpt><trkpt lat="45.62457217825333" lon="11.37746867764065"><ele>253.0</ele><time>2026-05-02T11:12:14.999Z</time></trkpt><trkpt lat="45.62468296495344" lon="11.377364116366618"><ele>253.5</ele><time>2026-05-02T11:12:15.999Z</time></trkpt><trkpt lat="45.624852908958246" lon="11.377247639830054"><ele>254.0</ele><time>2026-05-02T11:12:16.999Z</time></trkpt><trkpt lat="45.625117633527" lon="11.377102081419885"><ele>246.5</ele><time>2026-05-02T11:12:17.999Z</time></trkpt><trkpt lat="45.62534035765507" lon="11.377030440858931"><ele>239.0</ele><time>2026-05-02T11:12:18.999Z</time></trkpt><trkpt lat="45.62556841707273" lon="11.376975734335753"><ele>239.0</ele><time>2026-05-02T11:12:19.999Z</time></trkpt><trkpt lat="45.62579637596345" lon="11.376906558700012"><ele>239.0</ele><time>2026-05-02T11:12:20.999Z</time></trkpt><trkpt lat="45.626029284485845" lon="11.37682748550668"><ele>238.5</ele><time>2026-05-02T11:12:21.999Z</time></trkpt><trkpt lat="45.626265611351" lon="11.376755230277546"><ele>238.0</ele><time>2026-05-02T11:12:22.999Z</time></trkpt><trkpt lat="45.626502276265704" lon="11.376680654588126"><ele>238.0</ele><time>2026-05-02T11:12:23.999Z</time></trkpt><trkpt lat="45.62673643073086" lon="11.376601412653253"><ele>238.0</ele><time>2026-05-02T11:12:24.999Z</time></trkpt><trkpt lat="45.62697399258583" lon="11.376517190373354"><ele>237.0</ele><time>2026-05-02T11:12:25.999Z</time></trkpt><trkpt lat="45.627210006165335" lon="11.376427965626064"><ele>236.0</ele><time>2026-05-02T11:12:26.999Z</time></trkpt><trkpt lat="45.627439911316884" lon="11.376316776894502"><ele>240.0</ele><time>2026-05-02T11:12:27.999Z</time></trkpt><trkpt lat="45.62767552707575" lon="11.376190458067217"><ele>244.0</ele><time>2026-05-02T11:12:28.999Z</time></trkpt><trkpt lat="45.62791128545451" lon="11.376059426330373"><ele>244.0</ele><time>2026-05-02T11:12:29.999Z</time></trkpt><trkpt lat="45.6281450607505" lon="11.375916429887106"><ele>244.0</ele><time>2026-05-02T11:12:30.999Z</time></trkpt><trkpt lat="45.62837724062328" lon="11.375764582323297"><ele>244.0</ele><time>2026-05-02T11:12:31.999Z</time></trkpt><trkpt lat="45.62860548434542" lon="11.375607183573228"><ele>244.0</ele><time>2026-05-02T11:12:32.999Z</time></trkpt><trkpt lat="45.628828851745844" lon="11.375449568189778"><ele>244.5</ele><time>2026-05-02T11:12:33.999Z</time></trkpt><trkpt lat="45.62904766192326" lon="11.37529685881968"><ele>245.0</ele><time>2026-05-02T11:12:34.999Z</time></trkpt><trkpt lat="45.629258104961586" lon="11.375150269302404"><ele>245.0</ele><time>2026-05-02T11:12:35.999Z</time></trkpt><trkpt lat="45.62945362203013" lon="11.375013998376554"><ele>245.0</ele><time>2026-05-02T11:12:36.999Z</time></trkpt><trkpt lat="45.629635577567" lon="11.374886505367684"><ele>245.0</ele><time>2026-05-02T11:12:37.999Z</time></trkpt><trkpt lat="45.62981110366259" lon="11.3747665473224"><ele>247.0</ele><time>2026-05-02T11:12:38.999Z</time></trkpt><trkpt lat="45.629980684171905" lon="11.374640370075328"><ele>249.0</ele><time>2026-05-02T11:12:39.999Z</time></trkpt><trkpt lat="45.63013052303352" lon="11.374495572779495"><ele>251.0</ele><time>2026-05-02T11:12:40.999Z</time></trkpt><trkpt lat="45.630269851436076" lon="11.374352454848333"><ele>249.33333333333334</ele><time>2026-05-02T11:12:41.999Z</time></trkpt><trkpt lat="45.630393292485536" lon="11.374215812030169"><ele>247.66666666666669</ele><time>2026-05-02T11:12:42.999Z</time></trkpt><trkpt lat="45.63051489806462" lon="11.37407930597312"><ele>246.0</ele><time>2026-05-02T11:12:43.999Z</time></trkpt><trkpt lat="45.630629236163514" lon="11.37394623942721"><ele>247.75</ele><time>2026-05-02T11:12:44.999Z</time></trkpt><trkpt lat="45.6307458178708" lon="11.373813531191518"><ele>249.5</ele><time>2026-05-02T11:12:45.999Z</time></trkpt><trkpt lat="45.630855194519754" lon="11.373683140549717"><ele>251.25</ele><time>2026-05-02T11:12:46.999Z</time></trkpt><trkpt lat="45.6309601794893" lon="11.37355920185749"><ele>253.0</ele><time>2026-05-02T11:12:47.999Z</time></trkpt><trkpt lat="45.63106171827832" lon="11.373442736294551"><ele>252.25</ele><time>2026-05-02T11:12:48.999Z</time></trkpt><trkpt lat="45.63116672706395" lon="11.373328039212941"><ele>251.5</ele><time>2026-05-02T11:12:49.999Z</time></trkpt><trkpt lat="45.631279946230094" lon="11.373205618806114"><ele>250.75</ele><time>2026-05-02T11:12:50.999Z</time></trkpt><trkpt lat="45.631396980083046" lon="11.373073138217242"><ele>250.0</ele><time>2026-05-02T11:12:51.998Z</time></trkpt><trkpt lat="45.63151194155514" lon="11.372940711821789"><ele>250.0</ele><time>2026-05-02T11:12:52.998Z</time></trkpt><trkpt lat="45.63162852312142" lon="11.372797544631183"><ele>250.0</ele><time>2026-05-02T11:12:53.998Z</time></trkpt><trkpt lat="45.63174249030239" lon="11.372669888906499"><ele>250.0</ele><time>2026-05-02T11:12:54.998Z</time></trkpt><trkpt lat="45.631865562031706" lon="11.372555505727348"><ele>250.0</ele><time>2026-05-02T11:12:55.998Z</time></trkpt><trkpt lat="45.63200656659826" lon="11.372472310707318"><ele>250.25</ele><time>2026-05-02T11:12:56.998Z</time></trkpt><trkpt lat="45.63214821280792" lon="11.372432846148214"><ele>250.5</ele><time>2026-05-02T11:12:57.998Z</time></trkpt><trkpt lat="45.632295129786215" lon="11.3724373603512"><ele>250.75</ele><time>2026-05-02T11:12:58.998Z</time></trkpt><trkpt lat="45.63243865861046" lon="11.372498054812889"><ele>251.0</ele><time>2026-05-02T11:12:59.998Z</time></trkpt><trkpt lat="45.632567646081746" lon="11.372576462514045"><ele>251.0</ele><time>2026-05-02T11:13:00.998Z</time></trkpt><trkpt lat="45.63269976284666" lon="11.372671593947931"><ele>251.0</ele><time>2026-05-02T11:13:01.998Z</time></trkpt><trkpt lat="45.63283541020006" lon="11.372759363362688"><ele>251.0</ele><time>2026-05-02T11:13:02.998Z</time></trkpt><trkpt lat="45.63297165582665" lon="11.37284539606324"><ele>251.0</ele><time>2026-05-02T11:13:03.998Z</time></trkpt><trkpt lat="45.63311120475553" lon="11.372928514672656"><ele>252.0</ele><time>2026-05-02T11:13:04.998Z</time></trkpt><trkpt lat="45.63325146380014" lon="11.373011229154155"><ele>253.0</ele><time>2026-05-02T11:13:05.998Z</time></trkpt><trkpt lat="45.633391999653604" lon="11.373096642364576"><ele>254.0</ele><time>2026-05-02T11:13:06.998Z</time></trkpt><trkpt lat="45.6335325191992" lon="11.373178853809543"><ele>255.25</ele><time>2026-05-02T11:13:07.998Z</time></trkpt><trkpt lat="45.633672238808415" lon="11.373252675706768"><ele>256.5</ele><time>2026-05-02T11:13:08.998Z</time></trkpt><trkpt lat="45.63380872008669" lon="11.37332233829237"><ele>257.75</ele><time>2026-05-02T11:13:09.998Z</time></trkpt><trkpt lat="45.63394199749088" lon="11.373392250646775"><ele>259.0</ele><time>2026-05-02T11:13:10.998Z</time></trkpt><trkpt lat="45.63407693072504" lon="11.37346513898547"><ele>259.0</ele><time>2026-05-02T11:13:11.998Z</time></trkpt><trkpt lat="45.63420743842901" lon="11.373537515336553"><ele>259.0</ele><time>2026-05-02T11:13:12.998Z</time></trkpt><trkpt lat="45.6343281109029" lon="11.373604284791838"><ele>259.0</ele><time>2026-05-02T11:13:13.998Z</time></trkpt><trkpt lat="45.63444901427248" lon="11.373658341650629"><ele>259.0</ele><time>2026-05-02T11:13:14.998Z</time></trkpt><trkpt lat="45.63457590328396" lon="11.373688609298288"><ele>255.5</ele><time>2026-05-02T11:13:15.998Z</time></trkpt><trkpt lat="45.63470469550885" lon="11.373685998922472"><ele>252.0</ele><time>2026-05-02T11:13:16.998Z</time></trkpt><trkpt lat="45.63482634311797" lon="11.373651057499794"><ele>248.5</ele><time>2026-05-02T11:13:17.998Z</time></trkpt><trkpt lat="45.63494259765973" lon="11.373610054084752"><ele>245.0</ele><time>2026-05-02T11:13:18.998Z</time></trkpt><trkpt lat="45.63505577056209" lon="11.373569290419702"><ele>245.0</ele><time>2026-05-02T11:13:19.998Z</time></trkpt><trkpt lat="45.63516626321905" lon="11.37354646789656"><ele>245.0</ele><time>2026-05-02T11:13:21Z</time></trkpt><trkpt lat="45.63527469834716" lon="11.373545884019238"><ele>245.0</ele><time>2026-05-02T11:13:22Z</time></trkpt><trkpt lat="45.63538621277938" lon="11.373587507077584"><ele>245.0</ele><time>2026-05-02T11:13:23Z</time></trkpt><trkpt lat="45.63550349518463" lon="11.373661634427808"><ele>247.25</ele><time>2026-05-02T11:13:24Z</time></trkpt><trkpt lat="45.63561754551564" lon="11.373751349475414"><ele>249.5</ele><time>2026-05-02T11:13:25Z</time></trkpt><trkpt lat="45.63572699752177" lon="11.373847768202216"><ele>251.75</ele><time>2026-05-02T11:13:26Z</time></trkpt><trkpt lat="45.63583922868672" lon="11.373940221228477"><ele>254.0</ele><time>2026-05-02T11:13:27Z</time></trkpt><trkpt lat="45.635946955167384" lon="11.374016468790977"><ele>254.0</ele><time>2026-05-02T11:13:28Z</time></trkpt><trkpt lat="45.63604737576436" lon="11.374074966101906"><ele>253.99999999999997</ele><time>2026-05-02T11:13:29Z</time></trkpt><trkpt lat="45.636142030408394" lon="11.374133338129916"><ele>253.99999999999997</ele><time>2026-05-02T11:13:30Z</time></trkpt><trkpt lat="45.63622808940658" lon="11.374192852671696"><ele>254.0</ele><time>2026-05-02T11:13:31Z</time></trkpt><trkpt lat="45.63630729276267" lon="11.374238956744149"><ele>254.0</ele><time>2026-05-02T11:13:32Z</time></trkpt><trkpt lat="45.636414320619664" lon="11.374236123826893"><ele>254.0</ele><time>2026-05-02T11:13:34Z</time></trkpt><trkpt lat="45.63642478548972" lon="11.374070576499713"><ele>253.99999999999997</ele><time>2026-05-02T11:13:36Z</time></trkpt><trkpt lat="45.63637901960638" lon="11.373999626863569"><ele>253.99999999999997</ele><time>2026-05-02T11:13:37Z</time></trkpt><trkpt lat="45.636294865479485" lon="11.373956491568908"><ele>254.0</ele><time>2026-05-02T11:13:38Z</time></trkpt><trkpt lat="45.63620784063352" lon="11.373927027257142"><ele>254.0</ele><time>2026-05-02T11:13:39Z</time></trkpt><trkpt lat="45.63610979348722" lon="11.373893427236728"><ele>247.6</ele><time>2026-05-02T11:13:40Z</time></trkpt><trkpt lat="45.636011950510905" lon="11.373840063324334"><ele>241.2</ele><time>2026-05-02T11:13:41Z</time></trkpt><trkpt lat="45.635923461305005" lon="11.373767046681651"><ele>234.79999999999998</ele><time>2026-05-02T11:13:42Z</time></trkpt><trkpt lat="45.63583108994536" lon="11.373674622324017"><ele>228.39999999999998</ele><time>2026-05-02T11:13:43Z</time></trkpt><trkpt lat="45.63574035486068" lon="11.37355362682088"><ele>222.0</ele><time>2026-05-02T11:13:44Z</time></trkpt><trkpt lat="45.635660111918774" lon="11.37342343978055"><ele>222.0</ele><time>2026-05-02T11:13:45Z</time></trkpt><trkpt lat="45.63558699176373" lon="11.373309441076998"><ele>222.0</ele><time>2026-05-02T11:13:46Z</time></trkpt><trkpt lat="45.63550074254181" lon="11.373220890403909"><ele>222.0</ele><time>2026-05-02T11:13:47Z</time></trkpt><trkpt lat="45.63539884930853" lon="11.373183691112079"><ele>222.0</ele><time>2026-05-02T11:13:48Z</time></trkpt><trkpt lat="45.635292692532225" lon="11.373170932900482"><ele>222.0</ele><time>2026-05-02T11:13:49Z</time></trkpt><trkpt lat="45.635199864199855" lon="11.373139828531421"><ele>226.6</ele><time>2026-05-02T11:13:50Z</time></trkpt><trkpt lat="45.635116238069614" lon="11.373066629506733"><ele>231.2</ele><time>2026-05-02T11:13:51Z</time></trkpt><trkpt lat="45.635056358666155" lon="11.372960831547129"><ele>235.8</ele><time>2026-05-02T11:13:52Z</time></trkpt><trkpt lat="45.63503252558472" lon="11.372830670903095"><ele>240.4</ele><time>2026-05-02T11:13:53Z</time></trkpt><trkpt lat="45.635061984799115" lon="11.372700848031831"><ele>245.0</ele><time>2026-05-02T11:13:54Z</time></trkpt><trkpt lat="45.63513727177294" lon="11.37259994977877"><ele>245.5</ele><time>2026-05-02T11:13:55Z</time></trkpt><trkpt lat="45.63523444069811" lon="11.372518020491258"><ele>246.0</ele><time>2026-05-02T11:13:56Z</time></trkpt><trkpt lat="45.63534754261199" lon="11.372450091468108"><ele>246.5</ele><time>2026-05-02T11:13:57Z</time></trkpt><trkpt lat="45.635466196687666" lon="11.372375448615896"><ele>247.0</ele><time>2026-05-02T11:13:58Z</time></trkpt><trkpt lat="45.63558538378314" lon="11.372286714336292"><ele>244.75</ele><time>2026-05-02T11:13:59Z</time></trkpt><trkpt lat="45.63570252296426" lon="11.372201759710212"><ele>242.5</ele><time>2026-05-02T11:13:59.999Z</time></trkpt><trkpt lat="45.63582571220799" lon="11.37213963563969"><ele>240.25</ele><time>2026-05-02T11:14:00.999Z</time></trkpt><trkpt lat="45.63596631244181" lon="11.372123050272368"><ele>238.0</ele><time>2026-05-02T11:14:01.999Z</time></trkpt><trkpt lat="45.6361005349011" lon="11.372139669370831"><ele>235.0</ele><time>2026-05-02T11:14:02.999Z</time></trkpt><trkpt lat="45.63624123110618" lon="11.372176462551387"><ele>232.0</ele><time>2026-05-02T11:14:03.999Z</time></trkpt><trkpt lat="45.63638557832025" lon="11.372232900287479"><ele>229.0</ele><time>2026-05-02T11:14:04.999Z</time></trkpt><trkpt lat="45.63652608160474" lon="11.372307242516413"><ele>226.0</ele><time>2026-05-02T11:14:05.999Z</time></trkpt><trkpt lat="45.636657557164206" lon="11.372366961122022"><ele>224.25</ele><time>2026-05-02T11:14:06.999Z</time></trkpt><trkpt lat="45.6367834316569" lon="11.372419003313954"><ele>222.5</ele><time>2026-05-02T11:14:07.999Z</time></trkpt><trkpt lat="45.63690185094728" lon="11.372478401407097"><ele>220.75</ele><time>2026-05-02T11:14:08.999Z</time></trkpt><trkpt lat="45.63701733346728" lon="11.372546142207034"><ele>219.0</ele><time>2026-05-02T11:14:09.999Z</time></trkpt><trkpt lat="45.6371214447064" lon="11.372649186255366"><ele>219.0</ele><time>2026-05-02T11:14:10.999Z</time></trkpt><trkpt lat="45.63722265337864" lon="11.372788691432167"><ele>219.0</ele><time>2026-05-02T11:14:11.999Z</time></trkpt><trkpt lat="45.63730993422129" lon="11.372963855176769"><ele>219.0</ele><time>2026-05-02T11:14:12.999Z</time></trkpt><trkpt lat="45.63739029235053" lon="11.373143130496471"><ele>219.0</ele><time>2026-05-02T11:14:13.999Z</time></trkpt><trkpt lat="45.63745477961701" lon="11.373326715513652"><ele>216.5</ele><time>2026-05-02T11:14:14.999Z</time></trkpt><trkpt lat="45.63751533580951" lon="11.37349749794713"><ele>214.0</ele><time>2026-05-02T11:14:15.999Z</time></trkpt><trkpt lat="45.6375807950132" lon="11.37366316558774"><ele>211.5</ele><time>2026-05-02T11:14:16.999Z</time></trkpt><trkpt lat="45.63763545106702" lon="11.373819881754454"><ele>209.0</ele><time>2026-05-02T11:14:17.999Z</time></trkpt><trkpt lat="45.63769637876808" lon="11.37396652491089"><ele>208.5</ele><time>2026-05-02T11:14:18.999Z</time></trkpt><trkpt lat="45.637781702805796" lon="11.374097593400815"><ele>208.0</ele><time>2026-05-02T11:14:19.999Z</time></trkpt><trkpt lat="45.63789129496303" lon="11.374199513616892"><ele>207.5</ele><time>2026-05-02T11:14:20.999Z</time></trkpt><trkpt lat="45.6380159544868" lon="11.374276519893183"><ele>207.0</ele><time>2026-05-02T11:14:21.999Z</time></trkpt><trkpt lat="45.638138256849196" lon="11.37434337905744"><ele>206.75</ele><time>2026-05-02T11:14:22.999Z</time></trkpt><trkpt lat="45.63826883925108" lon="11.374415622004584"><ele>206.5</ele><time>2026-05-02T11:14:23.999Z</time></trkpt><trkpt lat="45.63840214941385" lon="11.374498380307557"><ele>206.25</ele><time>2026-05-02T11:14:24.999Z</time></trkpt><trkpt lat="45.63852680097334" lon="11.374583883029194"><ele>206.0</ele><time>2026-05-02T11:14:25.999Z</time></trkpt><trkpt lat="45.63863262125323" lon="11.374696764206943"><ele>205.0</ele><time>2026-05-02T11:14:26.999Z</time></trkpt><trkpt lat="45.638731794038655" lon="11.374842867650823"><ele>204.0</ele><time>2026-05-02T11:14:27.999Z</time></trkpt><trkpt lat="45.63881862973345" lon="11.37500402946875"><ele>203.0</ele><time>2026-05-02T11:14:28.999Z</time></trkpt><trkpt lat="45.63889037730303" lon="11.375164887765727"><ele>202.0</ele><time>2026-05-02T11:14:29.999Z</time></trkpt><trkpt lat="45.63894895306405" lon="11.375318395637679"><ele>202.0</ele><time>2026-05-02T11:14:30.999Z</time></trkpt><trkpt lat="45.63900754139018" lon="11.375455300512549"><ele>202.0</ele><time>2026-05-02T11:14:31.999Z</time></trkpt><trkpt lat="45.639059835940685" lon="11.375568132016173"><ele>202.0</ele><time>2026-05-02T11:14:32.999Z</time></trkpt><trkpt lat="45.63911588949078" lon="11.375674859543427"><ele>202.0</ele><time>2026-05-02T11:14:33.999Z</time></trkpt><trkpt lat="45.63918522433934" lon="11.375755843759555"><ele>202.0</ele><time>2026-05-02T11:14:34.999Z</time></trkpt><trkpt lat="45.639274713082436" lon="11.375786784092803"><ele>201.8</ele><time>2026-05-02T11:14:35.999Z</time></trkpt><trkpt lat="45.63938605858962" lon="11.375753301146236"><ele>201.6</ele><time>2026-05-02T11:14:36.999Z</time></trkpt><trkpt lat="45.63948337751965" lon="11.375685437663384"><ele>201.4</ele><time>2026-05-02T11:14:37.999Z</time></trkpt><trkpt lat="45.63958018493516" lon="11.375619308551475"><ele>201.20000000000002</ele><time>2026-05-02T11:14:38.999Z</time></trkpt><trkpt lat="45.639676532708926" lon="11.375553731858515"><ele>201.0</ele><time>2026-05-02T11:14:39.999Z</time></trkpt><trkpt lat="45.639771350115446" lon="11.375480599611791"><ele>201.0</ele><time>2026-05-02T11:14:40.999Z</time></trkpt><trkpt lat="45.63986165746442" lon="11.375419853389834"><ele>201.0</ele><time>2026-05-02T11:14:41.999Z</time></trkpt><trkpt lat="45.639950089387" lon="11.375398975528848"><ele>201.0</ele><time>2026-05-02T11:14:42.999Z</time></trkpt><trkpt lat="45.640030780972445" lon="11.375441459757512"><ele>201.0</ele><time>2026-05-02T11:14:43.999Z</time></trkpt><trkpt lat="45.64010148369112" lon="11.37551504346261"><ele>201.0</ele><time>2026-05-02T11:14:44.999Z</time></trkpt><trkpt lat="45.64013656404006" lon="11.37562571902764"><ele>201.0</ele><time>2026-05-02T11:14:45.999Z</time></trkpt><trkpt lat="45.6401367883571" lon="11.375726784695795"><ele>199.0</ele><time>2026-05-02T11:14:46.999Z</time></trkpt><trkpt lat="45.640117797500054" lon="11.375822554495416"><ele>197.0</ele><time>2026-05-02T11:14:47.999Z</time></trkpt><trkpt lat="45.64007287043651" lon="11.37590326708987"><ele>195.0</ele><time>2026-05-02T11:14:48.999Z</time></trkpt><trkpt lat="45.64000370437607" lon="11.375994855675279"><ele>193.0</ele><time>2026-05-02T11:14:49.999Z</time></trkpt><trkpt lat="45.6399282016708" lon="11.376100498840568"><ele>191.0</ele><time>2026-05-02T11:14:50.999Z</time></trkpt><trkpt lat="45.63984826806486" lon="11.376208312812818"><ele>191.0</ele><time>2026-05-02T11:14:51.999Z</time></trkpt><trkpt lat="45.63977099581497" lon="11.376322745135042"><ele>191.0</ele><time>2026-05-02T11:14:52.999Z</time></trkpt><trkpt lat="45.63971109878345" lon="11.376421772531195"><ele>191.0</ele><time>2026-05-02T11:14:53.999Z</time></trkpt><trkpt lat="45.63962276958943" lon="11.376544026667114"><ele>191.0</ele><time>2026-05-02T11:14:54.999Z</time></trkpt><trkpt lat="45.63954777870303" lon="11.37667864821342"><ele>191.0</ele><time>2026-05-02T11:14:55.999Z</time></trkpt><trkpt lat="45.63948159820413" lon="11.376828056969996"><ele>189.4</ele><time>2026-05-02T11:14:56.999Z</time></trkpt><trkpt lat="45.63943092125618" lon="11.37697193171111"><ele>187.8</ele><time>2026-05-02T11:14:57.999Z</time></trkpt><trkpt lat="45.639383224721065" lon="11.377109226730367"><ele>186.20000000000002</ele><time>2026-05-02T11:14:58.999Z</time></trkpt><trkpt lat="45.63933491607659" lon="11.377243406223739"><ele>184.60000000000002</ele><time>2026-05-02T11:14:59.999Z</time></trkpt><trkpt lat="45.639290073896014" lon="11.377384374399789"><ele>183.0</ele><time>2026-05-02T11:15:00.999Z</time></trkpt><trkpt lat="45.6392569907608" lon="11.377540034070359"><ele>182.5</ele><time>2026-05-02T11:15:01.999Z</time></trkpt><trkpt lat="45.639257971389455" lon="11.377711594390636"><ele>182.0</ele><time>2026-05-02T11:15:02.999Z</time></trkpt><trkpt lat="45.63929323263391" lon="11.377878750430275"><ele>181.5</ele><time>2026-05-02T11:15:03.998Z</time></trkpt><trkpt lat="45.639350740450546" lon="11.378020939905706"><ele>181.0</ele><time>2026-05-02T11:15:04.998Z</time></trkpt><trkpt lat="45.639422400696475" lon="11.378136225416215"><ele>179.0</ele><time>2026-05-02T11:15:05.998Z</time></trkpt><trkpt lat="45.63950486740606" lon="11.378209479383187"><ele>177.0</ele><time>2026-05-02T11:15:06.998Z</time></trkpt><trkpt lat="45.63958960132918" lon="11.378254427810136"><ele>175.0</ele><time>2026-05-02T11:15:07.998Z</time></trkpt><trkpt lat="45.6396824174392" lon="11.378268805381342"><ele>173.0</ele><time>2026-05-02T11:15:08.998Z</time></trkpt><trkpt lat="45.63977381455704" lon="11.378234372609786"><ele>171.0</ele><time>2026-05-02T11:15:09.998Z</time></trkpt><trkpt lat="45.63986704421789" lon="11.378162275532846"><ele>171.0</ele><time>2026-05-02T11:15:10.998Z</time></trkpt><trkpt lat="45.63993924482376" lon="11.378041741423333"><ele>171.0</ele><time>2026-05-02T11:15:11.998Z</time></trkpt><trkpt lat="45.64000274242174" lon="11.377900885764637"><ele>171.0</ele><time>2026-05-02T11:15:12.998Z</time></trkpt><trkpt lat="45.64007378542599" lon="11.377759611671658"><ele>171.0</ele><time>2026-05-02T11:15:13.998Z</time></trkpt><trkpt lat="45.640146646170436" lon="11.377638281231498"><ele>171.33333333333334</ele><time>2026-05-02T11:15:14.998Z</time></trkpt><trkpt lat="45.64020680417288" lon="11.377515372643371"><ele>171.66666666666666</ele><time>2026-05-02T11:15:15.998Z</time></trkpt><trkpt lat="45.640260369181" lon="11.377430741536575"><ele>172.0</ele><time>2026-05-02T11:15:16.998Z</time></trkpt><trkpt lat="45.64031168057356" lon="11.377370865583746"><ele>172.33333333333331</ele><time>2026-05-02T11:15:17.998Z</time></trkpt><trkpt lat="45.64037651028718" lon="11.377360193307249"><ele>172.66666666666666</ele><time>2026-05-02T11:15:18.998Z</time></trkpt><trkpt lat="45.64044228063755" lon="11.377408439841776"><ele>173.0</ele><time>2026-05-02T11:15:19.998Z</time></trkpt><trkpt lat="45.64048100947114" lon="11.377505267192875"><ele>173.0</ele><time>2026-05-02T11:15:20.998Z</time></trkpt><trkpt lat="45.64047560001298" lon="11.377633030923594"><ele>173.0</ele><time>2026-05-02T11:15:21.998Z</time></trkpt><trkpt lat="45.64050698349811" lon="11.377744089952254"><ele>173.0</ele><time>2026-05-02T11:15:22.998Z</time></trkpt><trkpt lat="45.64054804691883" lon="11.37784678225353"><ele>173.0</ele><time>2026-05-02T11:15:23.998Z</time></trkpt><trkpt lat="45.64061452159276" lon="11.37793087933713"><ele>173.0</ele><time>2026-05-02T11:15:24.998Z</time></trkpt><trkpt lat="45.640699128798076" lon="11.378003194830931"><ele>173.0</ele><time>2026-05-02T11:15:25.998Z</time></trkpt><trkpt lat="45.64077996398862" lon="11.378096563591296"><ele>171.0</ele><time>2026-05-02T11:15:27Z</time></trkpt><trkpt lat="45.64085723628113" lon="11.378191507437222"><ele>169.0</ele><time>2026-05-02T11:15:28Z</time></trkpt><trkpt lat="45.640930628999854" lon="11.378278886045148"><ele>167.0</ele><time>2026-05-02T11:15:29Z</time></trkpt><trkpt lat="45.640992365337866" lon="11.378379712666382"><ele>165.0</ele><time>2026-05-02T11:15:30Z</time></trkpt><trkpt lat="45.64102803274653" lon="11.378499397463633"><ele>163.0</ele><time>2026-05-02T11:15:31Z</time></trkpt><trkpt lat="45.6410240809588" lon="11.378636146218671"><ele>163.0</ele><time>2026-05-02T11:15:32Z</time></trkpt><trkpt lat="45.64097378886015" lon="11.378772337334754"><ele>163.0</ele><time>2026-05-02T11:15:33Z</time></trkpt><trkpt lat="45.64089063048836" lon="11.378876476204375"><ele>163.0</ele><time>2026-05-02T11:15:34Z</time></trkpt><trkpt lat="45.64078780872142" lon="11.378950217448752"><ele>163.0</ele><time>2026-05-02T11:15:35Z</time></trkpt><trkpt lat="45.64069415070258" lon="11.379036872052835"><ele>163.0</ele><time>2026-05-02T11:15:36Z</time></trkpt><trkpt lat="45.64063197603827" lon="11.37917158546374"><ele>161.5</ele><time>2026-05-02T11:15:37Z</time></trkpt><trkpt lat="45.640603206661375" lon="11.379340155274038"><ele>160.0</ele><time>2026-05-02T11:15:38Z</time></trkpt><trkpt lat="45.64058638075408" lon="11.379516929050036"><ele>158.5</ele><time>2026-05-02T11:15:39Z</time></trkpt><trkpt lat="45.6405869074001" lon="11.379687965887097"><ele>157.0</ele><time>2026-05-02T11:15:40Z</time></trkpt><trkpt lat="45.64061199275818" lon="11.379848153488751"><ele>155.75</ele><time>2026-05-02T11:15:41Z</time></trkpt><trkpt lat="45.64065891979959" lon="11.379999816403695"><ele>154.5</ele><time>2026-05-02T11:15:42Z</time></trkpt><trkpt lat="45.64072833508691" lon="11.380146038466194"><ele>153.25</ele><time>2026-05-02T11:15:43Z</time></trkpt><trkpt lat="45.64080693222093" lon="11.380282367109524"><ele>152.0</ele><time>2026-05-02T11:15:44Z</time></trkpt><trkpt lat="45.640884088801926" lon="11.380417079521896"><ele>151.25</ele><time>2026-05-02T11:15:45Z</time></trkpt><trkpt lat="45.64095244179952" lon="11.380554071019537"><ele>150.5</ele><time>2026-05-02T11:15:46Z</time></trkpt><trkpt lat="45.64101794739229" lon="11.380699128249983"><ele>149.75</ele><time>2026-05-02T11:15:47Z</time></trkpt><trkpt lat="45.641055242295884" lon="11.380871286500529"><ele>149.0</ele><time>2026-05-02T11:15:48Z</time></trkpt><trkpt lat="45.64107491988754" lon="11.381046577021454"><ele>149.0</ele><time>2026-05-02T11:15:49Z</time></trkpt><trkpt lat="45.64108354130594" lon="11.381232752968135"><ele>149.0</ele><time>2026-05-02T11:15:50Z</time></trkpt><trkpt lat="45.6410994558511" lon="11.381419161049049"><ele>149.0</ele><time>2026-05-02T11:15:51Z</time></trkpt><trkpt lat="45.64109849651263" lon="11.38160339132908"><ele>149.0</ele><time>2026-05-02T11:15:52Z</time></trkpt><trkpt lat="45.64110291263531" lon="11.381791726956417"><ele>151.5</ele><time>2026-05-02T11:15:53Z</time></trkpt><trkpt lat="45.64113474576169" lon="11.381978454495778"><ele>154.0</ele><time>2026-05-02T11:15:54Z</time></trkpt><trkpt lat="45.64116350588718" lon="11.382159113949657"><ele>156.5</ele><time>2026-05-02T11:15:55Z</time></trkpt><trkpt lat="45.641207659365925" lon="11.382329249558287"><ele>159.0</ele><time>2026-05-02T11:15:56Z</time></trkpt><trkpt lat="45.64125976846997" lon="11.382495910343874"><ele>159.0</ele><time>2026-05-02T11:15:57Z</time></trkpt><trkpt lat="45.64131974255471" lon="11.382665043275162"><ele>159.0</ele><time>2026-05-02T11:15:58Z</time></trkpt><trkpt lat="45.64139313277542" lon="11.38282824981938"><ele>159.0</ele><time>2026-05-02T11:15:59Z</time></trkpt><trkpt lat="45.64147604379918" lon="11.382982413881962"><ele>159.0</ele><time>2026-05-02T11:16:00Z</time></trkpt><trkpt lat="45.64156816629065" lon="11.383132645738446"><ele>157.25</ele><time>2026-05-02T11:16:01Z</time></trkpt><trkpt lat="45.64166402598773" lon="11.383269466960362"><ele>155.5</ele><time>2026-05-02T11:16:02Z</time></trkpt><trkpt lat="45.641769779685376" lon="11.38340033126616"><ele>153.75</ele><time>2026-05-02T11:16:03Z</time></trkpt><trkpt lat="45.64188285610223" lon="11.383520808868843"><ele>152.0</ele><time>2026-05-02T11:16:04Z</time></trkpt><trkpt lat="45.64200525220425" lon="11.383620848737356"><ele>152.0</ele><time>2026-05-02T11:16:05Z</time></trkpt><trkpt lat="45.64213908831311" lon="11.383695939263196"><ele>152.0</ele><time>2026-05-02T11:16:06Z</time></trkpt><trkpt lat="45.64228196503592" lon="11.383741192119341"><ele>152.0</ele><time>2026-05-02T11:16:07Z</time></trkpt><trkpt lat="45.64242167342738" lon="11.383787226119134"><ele>152.0</ele><time>2026-05-02T11:16:07.999Z</time></trkpt><trkpt lat="45.64255496443042" lon="11.38382603961145"><ele>148.25</ele><time>2026-05-02T11:16:08.999Z</time></trkpt><trkpt lat="45.64267316835836" lon="11.383878468670439"><ele>144.5</ele><time>2026-05-02T11:16:09.999Z</time></trkpt><trkpt lat="45.64278887498015" lon="11.38391123540016"><ele>140.75</ele><time>2026-05-02T11:16:10.999Z</time></trkpt><trkpt lat="45.642898001543664" lon="11.38395215109814"><ele>137.0</ele><time>2026-05-02T11:16:11.999Z</time></trkpt><trkpt lat="45.64300996014461" lon="11.383995004217603"><ele>136.5</ele><time>2026-05-02T11:16:12.999Z</time></trkpt><trkpt lat="45.64313044321599" lon="11.384039388581883"><ele>136.0</ele><time>2026-05-02T11:16:13.999Z</time></trkpt><trkpt lat="45.64324602227731" lon="11.384075418161542"><ele>135.5</ele><time>2026-05-02T11:16:14.999Z</time></trkpt><trkpt lat="45.64336789692111" lon="11.384112458090058"><ele>135.0</ele><time>2026-05-02T11:16:15.999Z</time></trkpt><trkpt lat="45.643500119353185" lon="11.384152996678926"><ele>135.25</ele><time>2026-05-02T11:16:16.999Z</time></trkpt><trkpt lat="45.643637142225614" lon="11.384199211451088"><ele>135.5</ele><time>2026-05-02T11:16:17.999Z</time></trkpt><trkpt lat="45.64378145458106" lon="11.384247427879515"><ele>135.75</ele><time>2026-05-02T11:16:18.999Z</time></trkpt><trkpt lat="45.64393536950707" lon="11.384304272702709"><ele>136.0</ele><time>2026-05-02T11:16:19.999Z</time></trkpt><trkpt lat="45.64407831319479" lon="11.384357493989747"><ele>136.0</ele><time>2026-05-02T11:16:20.999Z</time></trkpt><trkpt lat="45.644240193227894" lon="11.384399938486187"><ele>136.0</ele><time>2026-05-02T11:16:21.999Z</time></trkpt><trkpt lat="45.64439118481813" lon="11.384445374096638"><ele>136.0</ele><time>2026-05-02T11:16:22.999Z</time></trkpt><trkpt lat="45.64453636012871" lon="11.38449642558318"><ele>136.0</ele><time>2026-05-02T11:16:23.999Z</time></trkpt><trkpt lat="45.64467809118254" lon="11.384545607171434"><ele>136.0</ele><time>2026-05-02T11:16:24.999Z</time></trkpt><trkpt lat="45.64482472825831" lon="11.3845997546466"><ele>136.0</ele><time>2026-05-02T11:16:25.999Z</time></trkpt><trkpt lat="45.644969045610026" lon="11.384649478268386"><ele>136.0</ele><time>2026-05-02T11:16:26.999Z</time></trkpt><trkpt lat="45.6451123009926" lon="11.384696258039535"><ele>135.25</ele><time>2026-05-02T11:16:27.999Z</time></trkpt><trkpt lat="45.64525489340837" lon="11.384744785743145"><ele>134.5</ele><time>2026-05-02T11:16:28.999Z</time></trkpt><trkpt lat="45.645390033506196" lon="11.384790829943523"><ele>133.75</ele><time>2026-05-02T11:16:29.999Z</time></trkpt><trkpt lat="45.64552723683759" lon="11.384834407765164"><ele>133.0</ele><time>2026-05-02T11:16:30.999Z</time></trkpt><trkpt lat="45.64566296404829" lon="11.384882221791685"><ele>133.0</ele><time>2026-05-02T11:16:31.999Z</time></trkpt><trkpt lat="45.645805591125665" lon="11.384930449891499"><ele>133.0</ele><time>2026-05-02T11:16:32.999Z</time></trkpt><trkpt lat="45.645947474246405" lon="11.384977046406453"><ele>133.0</ele><time>2026-05-02T11:16:33.999Z</time></trkpt><trkpt lat="45.646083952575594" lon="11.385046862963485"><ele>133.0</ele><time>2026-05-02T11:16:34.999Z</time></trkpt><trkpt lat="45.64623244408036" lon="11.385077380072705"><ele>133.0</ele><time>2026-05-02T11:16:35.999Z</time></trkpt><trkpt lat="45.64636893445966" lon="11.385124707205575"><ele>133.0</ele><time>2026-05-02T11:16:36.999Z</time></trkpt><trkpt lat="45.646508042652826" lon="11.385170104970872"><ele>133.0</ele><time>2026-05-02T11:16:37.999Z</time></trkpt><trkpt lat="45.646645949019295" lon="11.385236325449648"><ele>133.0</ele><time>2026-05-02T11:16:38.999Z</time></trkpt><trkpt lat="45.64678726910637" lon="11.385283917525546"><ele>133.0</ele><time>2026-05-02T11:16:39.999Z</time></trkpt><trkpt lat="45.646932631640595" lon="11.385332870949558"><ele>133.0</ele><time>2026-05-02T11:16:40.999Z</time></trkpt><trkpt lat="45.64707680042205" lon="11.385381422385155"><ele>133.0</ele><time>2026-05-02T11:16:41.999Z</time></trkpt><trkpt lat="45.64721673934874" lon="11.385428549353142"><ele>133.0</ele><time>2026-05-02T11:16:42.999Z</time></trkpt><trkpt lat="45.64735347454861" lon="11.385474597329027"><ele>132.5</ele><time>2026-05-02T11:16:43.999Z</time></trkpt><trkpt lat="45.6474953528228" lon="11.38549852605194"><ele>132.0</ele><time>2026-05-02T11:16:44.999Z</time></trkpt><trkpt lat="45.64763548663004" lon="11.385546321468649"><ele>131.5</ele><time>2026-05-02T11:16:45.999Z</time></trkpt><trkpt lat="45.647775965994484" lon="11.385595532671335"><ele>131.0</ele><time>2026-05-02T11:16:46.999Z</time></trkpt><trkpt lat="45.6479116115219" lon="11.385646359981251"><ele>130.0</ele><time>2026-05-02T11:16:47.999Z</time></trkpt><trkpt lat="45.64804944433844" lon="11.385693900175387"><ele>129.0</ele><time>2026-05-02T11:16:48.999Z</time></trkpt><trkpt lat="45.648183689862606" lon="11.38573501580881"><ele>128.0</ele><time>2026-05-02T11:16:49.999Z</time></trkpt><trkpt lat="45.64831932305158" lon="11.385785474145257"><ele>127.0</ele><time>2026-05-02T11:16:50.999Z</time></trkpt><trkpt lat="45.64846114044745" lon="11.385832868684917"><ele>127.0</ele><time>2026-05-02T11:16:51.999Z</time></trkpt><trkpt lat="45.64860494182049" lon="11.38587588493136"><ele>127.0</ele><time>2026-05-02T11:16:52.999Z</time></trkpt><trkpt lat="45.648753332770454" lon="11.385926163589701"><ele>127.0</ele><time>2026-05-02T11:16:53.999Z</time></trkpt><trkpt lat="45.64889778780658" lon="11.385976076784912"><ele>127.0</ele><time>2026-05-02T11:16:54.999Z</time></trkpt><trkpt lat="45.64904977835427" lon="11.386031206766521"><ele>127.0</ele><time>2026-05-02T11:16:55.999Z</time></trkpt><trkpt lat="45.649203503665746" lon="11.386080936046115"><ele>127.0</ele><time>2026-05-02T11:16:56.999Z</time></trkpt><trkpt lat="45.649358997419895" lon="11.386132178609763"><ele>127.0</ele><time>2026-05-02T11:16:57.999Z</time></trkpt><trkpt lat="45.64951094009674" lon="11.386182750305306"><ele>126.75</ele><time>2026-05-02T11:16:58.999Z</time></trkpt><trkpt lat="45.649657739402734" lon="11.386230152305053"><ele>126.5</ele><time>2026-05-02T11:16:59.999Z</time></trkpt><trkpt lat="45.649800326213914" lon="11.38628059221101"><ele>126.25</ele><time>2026-05-02T11:17:00.999Z</time></trkpt><trkpt lat="45.64994269546661" lon="11.38632640033799"><ele>126.0</ele><time>2026-05-02T11:17:01.999Z</time></trkpt><trkpt lat="45.65009152365723" lon="11.386378225977571"><ele>125.5</ele><time>2026-05-02T11:17:02.999Z</time></trkpt><trkpt lat="45.65024059335792" lon="11.386428435722943"><ele>125.0</ele><time>2026-05-02T11:17:03.999Z</time></trkpt><trkpt lat="45.65038569183555" lon="11.386481289263276"><ele>124.5</ele><time>2026-05-02T11:17:04.999Z</time></trkpt><trkpt lat="45.65052541050019" lon="11.3865424665291"><ele>124.0</ele><time>2026-05-02T11:17:05.999Z</time></trkpt><trkpt lat="45.65066002150591" lon="11.386620781412985"><ele>124.0</ele><time>2026-05-02T11:17:06.999Z</time></trkpt><trkpt lat="45.65079607349986" lon="11.386719403752707"><ele>124.0</ele><time>2026-05-02T11:17:07.999Z</time></trkpt><trkpt lat="45.65092207327122" lon="11.386827485268023"><ele>124.0</ele><time>2026-05-02T11:17:08.999Z</time></trkpt><trkpt lat="45.65103767860526" lon="11.386965518174792"><ele>123.33333333333334</ele><time>2026-05-02T11:17:09.999Z</time></trkpt><trkpt lat="45.651162550397316" lon="11.387136157594073"><ele>122.66666666666666</ele><time>2026-05-02T11:17:10.999Z</time></trkpt><trkpt lat="45.651275539116824" lon="11.387311164851125"><ele>122.0</ele><time>2026-05-02T11:17:11.998Z</time></trkpt><trkpt lat="45.651354803142915" lon="11.387513656811466"><ele>122.0</ele><time>2026-05-02T11:17:12.998Z</time></trkpt><trkpt lat="45.65144589243977" lon="11.38769815815407"><ele>122.0</ele><time>2026-05-02T11:17:13.998Z</time></trkpt><trkpt lat="45.65151789737793" lon="11.387900123625613"><ele>122.0</ele><time>2026-05-02T11:17:14.998Z</time></trkpt><trkpt lat="45.651586457732506" lon="11.388085678778655"><ele>122.33333333333333</ele><time>2026-05-02T11:17:15.998Z</time></trkpt><trkpt lat="45.65166168672284" lon="11.388266777302388"><ele>122.66666666666666</ele><time>2026-05-02T11:17:16.998Z</time></trkpt><trkpt lat="45.65173264465091" lon="11.388456558404604"><ele>123.0</ele><time>2026-05-02T11:17:17.998Z</time></trkpt><trkpt lat="45.65182628241107" lon="11.388674428542014"><ele>123.0</ele><time>2026-05-02T11:17:18.998Z</time></trkpt><trkpt lat="45.65190961188322" lon="11.38888210105389"><ele>123.0</ele><time>2026-05-02T11:17:19.998Z</time></trkpt><trkpt lat="45.65198613292434" lon="11.38907560589988"><ele>123.0</ele><time>2026-05-02T11:17:20.998Z</time></trkpt><trkpt lat="45.652064108099765" lon="11.389274326701546"><ele>123.0</ele><time>2026-05-02T11:17:21.998Z</time></trkpt><trkpt lat="45.65214328662094" lon="11.389478182855761"><ele>123.0</ele><time>2026-05-02T11:17:22.998Z</time></trkpt><trkpt lat="45.65222408342598" lon="11.389681496476987"><ele>123.0</ele><time>2026-05-02T11:17:23.998Z</time></trkpt><trkpt lat="45.652300643386816" lon="11.38987583647424"><ele>122.5</ele><time>2026-05-02T11:17:24.998Z</time></trkpt><trkpt lat="45.6523697206712" lon="11.390059310169354"><ele>122.0</ele><time>2026-05-02T11:17:25.998Z</time></trkpt><trkpt lat="45.65244223864824" lon="11.390242414029144"><ele>121.5</ele><time>2026-05-02T11:17:26.998Z</time></trkpt><trkpt lat="45.652516398789935" lon="11.390419477456302"><ele>121.0</ele><time>2026-05-02T11:17:27.998Z</time></trkpt><trkpt lat="45.652592144234035" lon="11.390604771813134"><ele>120.66666666666667</ele><time>2026-05-02T11:17:28.998Z</time></trkpt><trkpt lat="45.6526660336676" lon="11.390797185041468"><ele>120.33333333333334</ele><time>2026-05-02T11:17:29.998Z</time></trkpt><trkpt lat="45.65274062299642" lon="11.390988418645671"><ele>120.0</ele><time>2026-05-02T11:17:30.998Z</time></trkpt><trkpt lat="45.652813045730525" lon="11.391182196617663"><ele>120.25</ele><time>2026-05-02T11:17:31.998Z</time></trkpt><trkpt lat="45.65288449024127" lon="11.391363222540793"><ele>120.5</ele><time>2026-05-02T11:17:33Z</time></trkpt><trkpt lat="45.652954764515066" lon="11.391539570722975"><ele>120.75</ele><time>2026-05-02T11:17:34Z</time></trkpt><trkpt lat="45.6530195560394" lon="11.39170844791959"><ele>121.0</ele><time>2026-05-02T11:17:35Z</time></trkpt><trkpt lat="45.65308080481736" lon="11.391872198956536"><ele>121.0</ele><time>2026-05-02T11:17:36Z</time></trkpt><trkpt lat="45.65314384329351" lon="11.392035051109316"><ele>121.0</ele><time>2026-05-02T11:17:37Z</time></trkpt><trkpt lat="45.65320440365061" lon="11.392191196661964"><ele>121.0</ele><time>2026-05-02T11:17:38Z</time></trkpt><trkpt lat="45.65326917082737" lon="11.392349024040103"><ele>121.0</ele><time>2026-05-02T11:17:39Z</time></trkpt><trkpt lat="45.653333896039236" lon="11.392512579361819"><ele>120.5</ele><time>2026-05-02T11:17:40Z</time></trkpt><trkpt lat="45.65340053406983" lon="11.392671491860206"><ele>120.0</ele><time>2026-05-02T11:17:41Z</time></trkpt><trkpt lat="45.65346672001533" lon="11.392833369819659"><ele>119.5</ele><time>2026-05-02T11:17:42Z</time></trkpt><trkpt lat="45.6535270885474" lon="11.392987602347679"><ele>119.0</ele><time>2026-05-02T11:17:43Z</time></trkpt><trkpt lat="45.65358216022548" lon="11.39313327018901"><ele>118.80000000000001</ele><time>2026-05-02T11:17:44Z</time></trkpt><trkpt lat="45.6536262105045" lon="11.393272275417193"><ele>118.60000000000001</ele><time>2026-05-02T11:17:45Z</time></trkpt><trkpt lat="45.65365358665438" lon="11.39340039187179"><ele>118.4</ele><time>2026-05-02T11:17:46Z</time></trkpt><trkpt lat="45.653654403711485" lon="11.393531387475303"><ele>118.2</ele><time>2026-05-02T11:17:47Z</time></trkpt><trkpt lat="45.65364567228599" lon="11.393646278847056"><ele>118.0</ele><time>2026-05-02T11:17:48Z</time></trkpt><trkpt lat="45.65366523861717" lon="11.393760508812543"><ele>118.0</ele><time>2026-05-02T11:17:49Z</time></trkpt><trkpt lat="45.65372496398829" lon="11.39385484503649"><ele>118.00000000000001</ele><time>2026-05-02T11:17:50Z</time></trkpt><trkpt lat="45.65380755371128" lon="11.39391387391116"><ele>118.00000000000001</ele><time>2026-05-02T11:17:51Z</time></trkpt><trkpt lat="45.65388105043388" lon="11.393967893382433"><ele>118.0</ele><time>2026-05-02T11:17:52Z</time></trkpt><trkpt lat="45.653950562513366" lon="11.394059432642537"><ele>118.0</ele><time>2026-05-02T11:17:53Z</time></trkpt><trkpt lat="45.653991766040164" lon="11.394197911908673"><ele>118.0</ele><time>2026-05-02T11:17:54Z</time></trkpt><trkpt lat="45.654059766812516" lon="11.394326401138574"><ele>118.0</ele><time>2026-05-02T11:17:55Z</time></trkpt><trkpt lat="45.65411588421678" lon="11.394478258350228"><ele>118.0</ele><time>2026-05-02T11:17:56Z</time></trkpt><trkpt lat="45.654177923718855" lon="11.39463582727452"><ele>118.0</ele><time>2026-05-02T11:17:57Z</time></trkpt><trkpt lat="45.65424411885974" lon="11.394807882396957"><ele>117.75</ele><time>2026-05-02T11:17:58Z</time></trkpt><trkpt lat="45.65430658173264" lon="11.394968857570712"><ele>117.5</ele><time>2026-05-02T11:17:59Z</time></trkpt><trkpt lat="45.654367905605795" lon="11.395126471934521"><ele>117.25</ele><time>2026-05-02T11:18:00Z</time></trkpt><trkpt lat="45.65442959425965" lon="11.395279449483194"><ele>117.0</ele><time>2026-05-02T11:18:01Z</time></trkpt><trkpt lat="45.65449598553965" lon="11.395444045062575"><ele>116.5</ele><time>2026-05-02T11:18:02Z</time></trkpt><trkpt lat="45.6545643696667" lon="11.39561660997611"><ele>116.0</ele><time>2026-05-02T11:18:03Z</time></trkpt><trkpt lat="45.65463841559098" lon="11.3958104511363"><ele>115.5</ele><time>2026-05-02T11:18:04Z</time></trkpt><trkpt lat="45.65471384629491" lon="11.396002530987149"><ele>115.0</ele><time>2026-05-02T11:18:05Z</time></trkpt><trkpt lat="45.65478680565685" lon="11.39618875823416"><ele>115.0</ele><time>2026-05-02T11:18:06Z</time></trkpt><trkpt lat="45.65481181040861" lon="11.396309205970978"><ele>115.0</ele><time>2026-05-02T11:18:07Z</time></trkpt><trkpt lat="45.654836354151804" lon="11.396451947433013"><ele>115.0</ele><time>2026-05-02T11:18:09Z</time></trkpt><trkpt lat="45.65509455734407" lon="11.396980086494017"><ele>115.0</ele><time>2026-05-02T11:18:10Z</time></trkpt><trkpt lat="45.65517122189358" lon="11.397174913843466"><ele>115.0</ele><time>2026-05-02T11:18:11Z</time></trkpt><trkpt lat="45.65524895938544" lon="11.39736944771116"><ele>115.0</ele><time>2026-05-02T11:18:12Z</time></trkpt><trkpt lat="45.65532422305811" lon="11.397555178097447"><ele>115.0</ele><time>2026-05-02T11:18:13Z</time></trkpt><trkpt lat="45.65540309387988" lon="11.39774088903127"><ele>115.0</ele><time>2026-05-02T11:18:14Z</time></trkpt><trkpt lat="45.65549442468821" lon="11.397916228002122"><ele>115.0</ele><time>2026-05-02T11:18:15Z</time></trkpt><trkpt lat="45.65560387357452" lon="11.398070280370725"><ele>114.66666666666667</ele><time>2026-05-02T11:18:16Z</time></trkpt><trkpt lat="45.655728665762794" lon="11.398198885841264"><ele>114.33333333333334</ele><time>2026-05-02T11:18:17Z</time></trkpt><trkpt lat="45.6558631937198" lon="11.398302174474972"><ele>114.0</ele><time>2026-05-02T11:18:17.999Z</time></trkpt><trkpt lat="45.65601134009771" lon="11.3983854445216"><ele>114.33333333333334</ele><time>2026-05-02T11:18:18.999Z</time></trkpt><trkpt lat="45.65616644491258" lon="11.39844974975752"><ele>114.66666666666667</ele><time>2026-05-02T11:18:19.999Z</time></trkpt><trkpt lat="45.656330278490636" lon="11.398486737639375"><ele>115.0</ele><time>2026-05-02T11:18:20.999Z</time></trkpt><trkpt lat="45.65650189010085" lon="11.398510791375836"><ele>115.0</ele><time>2026-05-02T11:18:21.999Z</time></trkpt><trkpt lat="45.65667163596112" lon="11.398531660644723"><ele>115.0</ele><time>2026-05-02T11:18:22.999Z</time></trkpt><trkpt lat="45.65683661634216" lon="11.39855527445702"><ele>115.0</ele><time>2026-05-02T11:18:23.999Z</time></trkpt><trkpt lat="45.65698679962387" lon="11.39858048491864"><ele>115.25</ele><time>2026-05-02T11:18:24.999Z</time></trkpt><trkpt lat="45.65712632647962" lon="11.398601863910981"><ele>115.5</ele><time>2026-05-02T11:18:25.999Z</time></trkpt><trkpt lat="45.65725700565776" lon="11.39862417971198"><ele>115.75</ele><time>2026-05-02T11:18:26.999Z</time></trkpt><trkpt lat="45.65738378478545" lon="11.39864300692461"><ele>116.0</ele><time>2026-05-02T11:18:27.999Z</time></trkpt><trkpt lat="45.65749531821545" lon="11.398661400543668"><ele>115.99999999999999</ele><time>2026-05-02T11:18:28.999Z</time></trkpt><trkpt lat="45.65759901423821" lon="11.398677060615318"><ele>116.0</ele><time>2026-05-02T11:18:29.999Z</time></trkpt><trkpt lat="45.657690327925124" lon="11.398696622876118"><ele>116.0</ele><time>2026-05-02T11:18:30.999Z</time></trkpt><trkpt lat="45.65776895169916" lon="11.398725953158893"><ele>116.0</ele><time>2026-05-02T11:18:31.999Z</time></trkpt><trkpt lat="45.65782290035475" lon="11.398783136169879"><ele>115.99999999999999</ele><time>2026-05-02T11:18:32.999Z</time></trkpt><trkpt lat="45.65789113698652" lon="11.398860379598311"><ele>116.0</ele><time>2026-05-02T11:18:33.999Z</time></trkpt><trkpt lat="45.65794767750135" lon="11.398967587448377"><ele>116.6</ele><time>2026-05-02T11:18:34.999Z</time></trkpt><trkpt lat="45.65799498453028" lon="11.399079241194334"><ele>117.19999999999999</ele><time>2026-05-02T11:18:35.999Z</time></trkpt><trkpt lat="45.6580590866573" lon="11.399169513696142"><ele>117.80000000000001</ele><time>2026-05-02T11:18:36.999Z</time></trkpt><trkpt lat="45.65814379597842" lon="11.39922437382646"><ele>118.4</ele><time>2026-05-02T11:18:37.999Z</time></trkpt><trkpt lat="45.65824200845905" lon="11.399225951376224"><ele>119.0</ele><time>2026-05-02T11:18:38.999Z</time></trkpt><trkpt lat="45.658337830790224" lon="11.399161223879906"><ele>119.0</ele><time>2026-05-02T11:18:39.999Z</time></trkpt><trkpt lat="45.65844367227823" lon="11.399326356250508"><ele>119.0</ele><time>2026-05-02T11:18:40.999Z</time></trkpt><trkpt lat="45.65854172160549" lon="11.399417031300375"><ele>119.0</ele><time>2026-05-02T11:18:41.999Z</time></trkpt><trkpt lat="45.65862993704807" lon="11.399541886002599"><ele>119.0</ele><time>2026-05-02T11:18:42.999Z</time></trkpt><trkpt lat="45.65872434660262" lon="11.399662779424649"><ele>119.25</ele><time>2026-05-02T11:18:43.999Z</time></trkpt><trkpt lat="45.65882637004296" lon="11.399784088731145"><ele>119.5</ele><time>2026-05-02T11:18:44.999Z</time></trkpt><trkpt lat="45.658933007769825" lon="11.399910811991976"><ele>119.75</ele><time>2026-05-02T11:18:45.999Z</time></trkpt><trkpt lat="45.65904141524916" lon="11.400039045670198"><ele>120.0</ele><time>2026-05-02T11:18:46.999Z</time></trkpt><trkpt lat="45.65915572337204" lon="11.400169687501633"><ele>120.0</ele><time>2026-05-02T11:18:47.999Z</time></trkpt><trkpt lat="45.659274770618346" lon="11.400304397384854"><ele>120.0</ele><time>2026-05-02T11:18:48.999Z</time></trkpt><trkpt lat="45.6594048636239" lon="11.400448982034145"><ele>120.0</ele><time>2026-05-02T11:18:49.999Z</time></trkpt><trkpt lat="45.65954182128929" lon="11.400610709782125"><ele>120.66666666666666</ele><time>2026-05-02T11:18:50.999Z</time></trkpt><trkpt lat="45.65968914593389" lon="11.400786058047702"><ele>121.33333333333333</ele><time>2026-05-02T11:18:51.999Z</time></trkpt><trkpt lat="45.65983250966837" lon="11.400986713153692"><ele>122.0</ele><time>2026-05-02T11:18:52.999Z</time></trkpt><trkpt lat="45.65998767636154" lon="11.401148151539164"><ele>122.0</ele><time>2026-05-02T11:18:53.999Z</time></trkpt><trkpt lat="45.66011889588425" lon="11.401316592729158"><ele>122.0</ele><time>2026-05-02T11:18:54.999Z</time></trkpt><trkpt lat="45.66024392069824" lon="11.401467511357115"><ele>122.0</ele><time>2026-05-02T11:18:55.999Z</time></trkpt><trkpt lat="45.660353206725205" lon="11.401604532128363"><ele>122.0</ele><time>2026-05-02T11:18:56.999Z</time></trkpt><trkpt lat="45.66044933920718" lon="11.401723588879046"><ele>121.99999999999999</ele><time>2026-05-02T11:18:57.999Z</time></trkpt><trkpt lat="45.66053631182109" lon="11.401832118078016"><ele>121.99999999999999</ele><time>2026-05-02T11:18:58.999Z</time></trkpt><trkpt lat="45.66061610994224" lon="11.4019278849995"><ele>122.0</ele><time>2026-05-02T11:18:59.999Z</time></trkpt><trkpt lat="45.660693629778144" lon="11.402013668545099"><ele>122.0</ele><time>2026-05-02T11:19:00.999Z</time></trkpt><trkpt lat="45.66076553961489" lon="11.402091662822185"><ele>121.99999999999999</ele><time>2026-05-02T11:19:01.999Z</time></trkpt><trkpt lat="45.66082933185236" lon="11.402160299711657"><ele>122.0</ele><time>2026-05-02T11:19:02.999Z</time></trkpt><trkpt lat="45.660884864122266" lon="11.40220735046338"><ele>122.0</ele><time>2026-05-02T11:19:03.999Z</time></trkpt><trkpt lat="45.66096761762356" lon="11.402291902359305"><ele>122.0</ele><time>2026-05-02T11:19:05.999Z</time></trkpt><trkpt lat="45.661030718918646" lon="11.402433699398337"><ele>121.99999999999999</ele><time>2026-05-02T11:19:07.999Z</time></trkpt><trkpt lat="45.66107965335223" lon="11.402515316306243"><ele>122.0</ele><time>2026-05-02T11:19:08.999Z</time></trkpt><trkpt lat="45.66114641923845" lon="11.402592869524028"><ele>122.0</ele><time>2026-05-02T11:19:09.999Z</time></trkpt><trkpt lat="45.661244775142485" lon="11.40264180051929"><ele>122.0</ele><time>2026-05-02T11:19:10.999Z</time></trkpt><trkpt lat="45.66133004860336" lon="11.402758545813828"><ele>122.0</ele><time>2026-05-02T11:19:11.999Z</time></trkpt><trkpt lat="45.661423866929056" lon="11.402884453839013"><ele>122.0</ele><time>2026-05-02T11:19:12.999Z</time></trkpt><trkpt lat="45.66152964161123" lon="11.403021824824956"><ele>121.66666666666666</ele><time>2026-05-02T11:19:13.999Z</time></trkpt><trkpt lat="45.66164371965256" lon="11.40315477362402"><ele>121.33333333333334</ele><time>2026-05-02T11:19:14.999Z</time></trkpt><trkpt lat="45.6617628011228" lon="11.403296892787196"><ele>121.0</ele><time>2026-05-02T11:19:15.999Z</time></trkpt><trkpt lat="45.66187753529045" lon="11.403431312943582"><ele>121.0</ele><time>2026-05-02T11:19:16.999Z</time></trkpt><trkpt lat="45.66198409445373" lon="11.403555768691703"><ele>121.0</ele><time>2026-05-02T11:19:17.999Z</time></trkpt><trkpt lat="45.66208109762883" lon="11.4036751475436"><ele>121.0</ele><time>2026-05-02T11:19:18.999Z</time></trkpt><trkpt lat="45.66216912098605" lon="11.403790065465662"><ele>121.0</ele><time>2026-05-02T11:19:19.999Z</time></trkpt><trkpt lat="45.66224745978775" lon="11.403897638459322"><ele>120.6</ele><time>2026-05-02T11:19:20.999Z</time></trkpt><trkpt lat="45.66230752161239" lon="11.403994536359328"><ele>120.19999999999999</ele><time>2026-05-02T11:19:21.999Z</time></trkpt><trkpt lat="45.66236312751421" lon="11.404093361035772"><ele>119.80000000000001</ele><time>2026-05-02T11:19:22.998Z</time></trkpt><trkpt lat="45.66240767374529" lon="11.404212999071467"><ele>119.4</ele><time>2026-05-02T11:19:23.998Z</time></trkpt><trkpt lat="45.66252640979005" lon="11.40427494993036"><ele>119.0</ele><time>2026-05-02T11:19:24.998Z</time></trkpt><trkpt lat="45.66263846320074" lon="11.404359739688482"><ele>119.0</ele><time>2026-05-02T11:19:25.998Z</time></trkpt><trkpt lat="45.66275820477691" lon="11.404459891053499"><ele>119.0</ele><time>2026-05-02T11:19:26.998Z</time></trkpt><trkpt lat="45.66288411739903" lon="11.40457757597509"><ele>119.0</ele><time>2026-05-02T11:19:27.998Z</time></trkpt><trkpt lat="45.663023119353475" lon="11.404698181846216"><ele>119.0</ele><time>2026-05-02T11:19:28.998Z</time></trkpt><trkpt lat="45.66316846201386" lon="11.40481812039569"><ele>119.0</ele><time>2026-05-02T11:19:29.998Z</time></trkpt><trkpt lat="45.66332237769567" lon="11.404937830056706"><ele>119.0</ele><time>2026-05-02T11:19:30.998Z</time></trkpt><trkpt lat="45.663468793877946" lon="11.405061073121498"><ele>119.0</ele><time>2026-05-02T11:19:31.998Z</time></trkpt><trkpt lat="45.66361042566367" lon="11.405180731692873"><ele>119.0</ele><time>2026-05-02T11:19:32.998Z</time></trkpt><trkpt lat="45.66375529506398" lon="11.405304228292648"><ele>119.0</ele><time>2026-05-02T11:19:33.998Z</time></trkpt><trkpt lat="45.66389716953021" lon="11.405426765505954"><ele>119.33333333333333</ele><time>2026-05-02T11:19:34.998Z</time></trkpt><trkpt lat="45.66403522740574" lon="11.40553817881665"><ele>119.66666666666666</ele><time>2026-05-02T11:19:35.998Z</time></trkpt><trkpt lat="45.664180054982076" lon="11.405639801619337"><ele>120.0</ele><time>2026-05-02T11:19:36.998Z</time></trkpt><trkpt lat="45.664334556140425" lon="11.4057298933613"><ele>120.33333333333334</ele><time>2026-05-02T11:19:37.998Z</time></trkpt><trkpt lat="45.6644946354181" lon="11.405803680869978"><ele>120.66666666666667</ele><time>2026-05-02T11:19:39Z</time></trkpt><trkpt lat="45.66466438465823" lon="11.405879300041166"><ele>121.0</ele><time>2026-05-02T11:19:40Z</time></trkpt><trkpt lat="45.66484001241377" lon="11.40595345796504"><ele>121.0</ele><time>2026-05-02T11:19:41Z</time></trkpt><trkpt lat="45.665000541360065" lon="11.406028232372016"><ele>121.0</ele><time>2026-05-02T11:19:42Z</time></trkpt><trkpt lat="45.66514718000326" lon="11.406098122471665"><ele>121.0</ele><time>2026-05-02T11:19:43Z</time></trkpt><trkpt lat="45.66528692772803" lon="11.406160851875349"><ele>121.25</ele><time>2026-05-02T11:19:44Z</time></trkpt><trkpt lat="45.66541056586463" lon="11.40621989661216"><ele>121.5</ele><time>2026-05-02T11:19:45Z</time></trkpt><trkpt lat="45.6655269558403" lon="11.406279344063154"><ele>121.75</ele><time>2026-05-02T11:19:46Z</time></trkpt><trkpt lat="45.665633393559794" lon="11.406339160697271"><ele>122.0</ele><time>2026-05-02T11:19:47Z</time></trkpt><trkpt lat="45.6657311036382" lon="11.406411021539373"><ele>121.6</ele><time>2026-05-02T11:19:48Z</time></trkpt><trkpt lat="45.665809142563006" lon="11.40650669372198"><ele>121.19999999999999</ele><time>2026-05-02T11:19:49Z</time></trkpt><trkpt lat="45.66585877846118" lon="11.406619051202462"><ele>120.8</ele><time>2026-05-02T11:19:50Z</time></trkpt><trkpt lat="45.6658799114431" lon="11.406740547575454"><ele>120.4</ele><time>2026-05-02T11:19:51Z</time></trkpt><trkpt lat="45.6658860670601" lon="11.406867831932407"><ele>120.0</ele><time>2026-05-02T11:19:52Z</time></trkpt><trkpt lat="45.66591847766044" lon="11.406995651943346"><ele>120.0</ele><time>2026-05-02T11:19:53Z</time></trkpt><trkpt lat="45.66599627102948" lon="11.40709366025601"><ele>120.0</ele><time>2026-05-02T11:19:54Z</time></trkpt><trkpt lat="45.666097249965524" lon="11.407137649973269"><ele>120.0</ele><time>2026-05-02T11:19:55Z</time></trkpt><trkpt lat="45.666201813057235" lon="11.407115027679078"><ele>120.0</ele><time>2026-05-02T11:19:56Z</time></trkpt><trkpt lat="45.66628785153791" lon="11.407025143960077"><ele>120.0</ele><time>2026-05-02T11:19:57Z</time></trkpt><trkpt lat="45.66635978151472" lon="11.406901795338774"><ele>120.75</ele><time>2026-05-02T11:19:58Z</time></trkpt><trkpt lat="45.666438667357596" lon="11.406777250825927"><ele>121.5</ele><time>2026-05-02T11:19:59Z</time></trkpt><trkpt lat="45.666547509159564" lon="11.406676027223499"><ele>122.25</ele><time>2026-05-02T11:20:00Z</time></trkpt><trkpt lat="45.66667827091152" lon="11.406607118654993"><ele>123.0</ele><time>2026-05-02T11:20:01Z</time></trkpt><trkpt lat="45.666827578202785" lon="11.406561393527069"><ele>122.66666666666666</ele><time>2026-05-02T11:20:02Z</time></trkpt><trkpt lat="45.66699575456072" lon="11.406516294895255"><ele>122.33333333333333</ele><time>2026-05-02T11:20:03Z</time></trkpt><trkpt lat="45.66716820538816" lon="11.406469526282637"><ele>122.0</ele><time>2026-05-02T11:20:04Z</time></trkpt><trkpt lat="45.667342425384" lon="11.406422000228396"><ele>122.0</ele><time>2026-05-02T11:20:05Z</time></trkpt><trkpt lat="45.667521414740094" lon="11.406370850888813"><ele>122.0</ele><time>2026-05-02T11:20:06Z</time></trkpt><trkpt lat="45.667692176863454" lon="11.40632284176627"><ele>122.0</ele><time>2026-05-02T11:20:07Z</time></trkpt><trkpt lat="45.66786549112604" lon="11.406275839659436"><ele>122.66666666666666</ele><time>2026-05-02T11:20:08Z</time></trkpt><trkpt lat="45.66802996554397" lon="11.406230668848291"><ele>123.33333333333334</ele><time>2026-05-02T11:20:09Z</time></trkpt><trkpt lat="45.66818453385948" lon="11.406186578851665"><ele>124.0</ele><time>2026-05-02T11:20:10Z</time></trkpt><trkpt lat="45.66833455183994" lon="11.406141007820105"><ele>124.0</ele><time>2026-05-02T11:20:11Z</time></trkpt><trkpt lat="45.668485049027325" lon="11.406094507179091"><ele>124.0</ele><time>2026-05-02T11:20:12Z</time></trkpt><trkpt lat="45.66863779963477" lon="11.406049035596189"><ele>124.0</ele><time>2026-05-02T11:20:13Z</time></trkpt><trkpt lat="45.668799735757425" lon="11.405999245171982"><ele>124.0</ele><time>2026-05-02T11:20:14Z</time></trkpt><trkpt lat="45.66896925719624" lon="11.405946342811392"><ele>124.0</ele><time>2026-05-02T11:20:15Z</time></trkpt><trkpt lat="45.66914661955159" lon="11.405918005906083"><ele>124.0</ele><time>2026-05-02T11:20:16Z</time></trkpt><trkpt lat="45.66932045082647" lon="11.40586690497211"><ele>124.0</ele><time>2026-05-02T11:20:17Z</time></trkpt><trkpt lat="45.66949575548397" lon="11.405815370918864"><ele>124.0</ele><time>2026-05-02T11:20:18Z</time></trkpt><trkpt lat="45.6697045143626" lon="11.405754002378604"><ele>124.0</ele><time>2026-05-02T11:20:19Z</time></trkpt><trkpt lat="45.66992521996071" lon="11.405668001102548"><ele>124.0</ele><time>2026-05-02T11:20:20Z</time></trkpt><trkpt lat="45.670153546305485" lon="11.405610478475248"><ele>124.0</ele><time>2026-05-02T11:20:21Z</time></trkpt><trkpt lat="45.67038976847803" lon="11.405545904900563"><ele>125.0</ele><time>2026-05-02T11:20:22Z</time></trkpt><trkpt lat="45.670638365409125" lon="11.405477636708367"><ele>126.0</ele><time>2026-05-02T11:20:23Z</time></trkpt><trkpt lat="45.670889607066705" lon="11.405404475889373"><ele>126.0</ele><time>2026-05-02T11:20:23.999Z</time></trkpt><trkpt lat="45.67114160006196" lon="11.405329516055664"><ele>126.0</ele><time>2026-05-02T11:20:24.999Z</time></trkpt><trkpt lat="45.67140097169838" lon="11.405258130106803"><ele>126.0</ele><time>2026-05-02T11:20:25.999Z</time></trkpt><trkpt lat="45.671664296751466" lon="11.405184392607659"><ele>126.0</ele><time>2026-05-02T11:20:26.999Z</time></trkpt><trkpt lat="45.67192578174329" lon="11.405111937329888"><ele>126.5</ele><time>2026-05-02T11:20:27.999Z</time></trkpt><trkpt lat="45.672192532517926" lon="11.405044218139063"><ele>127.0</ele><time>2026-05-02T11:20:28.999Z</time></trkpt><trkpt lat="45.67245466888812" lon="11.404968213242624"><ele>127.0</ele><time>2026-05-02T11:20:29.999Z</time></trkpt><trkpt lat="45.67271762244762" lon="11.404884099134188"><ele>127.0</ele><time>2026-05-02T11:20:30.999Z</time></trkpt><trkpt lat="45.67297949238731" lon="11.404797754844182"><ele>127.0</ele><time>2026-05-02T11:20:31.999Z</time></trkpt><trkpt lat="45.67323872305912" lon="11.404699926329428"><ele>127.0</ele><time>2026-05-02T11:20:32.999Z</time></trkpt><trkpt lat="45.67349685854041" lon="11.404587546655252"><ele>128.0</ele><time>2026-05-02T11:20:33.999Z</time></trkpt><trkpt lat="45.67375805007941" lon="11.404462946667373"><ele>129.0</ele><time>2026-05-02T11:20:34.999Z</time></trkpt><trkpt lat="45.67401420935672" lon="11.404339734717984"><ele>129.0</ele><time>2026-05-02T11:20:35.999Z</time></trkpt><trkpt lat="45.6742759923272" lon="11.404218140539154"><ele>129.0</ele><time>2026-05-02T11:20:36.999Z</time></trkpt><trkpt lat="45.67453719491122" lon="11.404096467792856"><ele>129.0</ele><time>2026-05-02T11:20:37.999Z</time></trkpt><trkpt lat="45.67478761132507" lon="11.403979502457782"><ele>129.0</ele><time>2026-05-02T11:20:38.999Z</time></trkpt><trkpt lat="45.67502442850548" lon="11.403867895381469"><ele>131.0</ele><time>2026-05-02T11:20:39.999Z</time></trkpt><trkpt lat="45.67524588878319" lon="11.403763561338979"><ele>133.0</ele><time>2026-05-02T11:20:40.999Z</time></trkpt><trkpt lat="45.67545667320064" lon="11.403667719500353"><ele>133.0</ele><time>2026-05-02T11:20:41.999Z</time></trkpt><trkpt lat="45.675665976752796" lon="11.403567721772982"><ele>133.0</ele><time>2026-05-02T11:20:42.999Z</time></trkpt><trkpt lat="45.67586093199877" lon="11.403478904051912"><ele>133.0</ele><time>2026-05-02T11:20:43.999Z</time></trkpt><trkpt lat="45.676048306001434" lon="11.403385979445892"><ele>132.66666666666669</ele><time>2026-05-02T11:20:44.999Z</time></trkpt><trkpt lat="45.676225771763804" lon="11.40330285600617"><ele>132.33333333333334</ele><time>2026-05-02T11:20:45.999Z</time></trkpt><trkpt lat="45.67639917698995" lon="11.40322318581752"><ele>132.0</ele><time>2026-05-02T11:20:46.999Z</time></trkpt><trkpt lat="45.67655975446648" lon="11.403148126481648"><ele>132.0</ele><time>2026-05-02T11:20:47.999Z</time></trkpt><trkpt lat="45.67670155056723" lon="11.403076645391543"><ele>132.0</ele><time>2026-05-02T11:20:48.999Z</time></trkpt><trkpt lat="45.67683944287193" lon="11.40301651645247"><ele>132.0</ele><time>2026-05-02T11:20:49.999Z</time></trkpt><trkpt lat="45.67697170362604" lon="11.402986777870822"><ele>132.0</ele><time>2026-05-02T11:20:50.999Z</time></trkpt><trkpt lat="45.677100911926104" lon="11.403002967656935"><ele>132.0</ele><time>2026-05-02T11:20:51.999Z</time></trkpt><trkpt lat="45.67721263309583" lon="11.403067175961475"><ele>132.0</ele><time>2026-05-02T11:20:52.999Z</time></trkpt><trkpt lat="45.67731603969877" lon="11.40313028601901"><ele>132.0</ele><time>2026-05-02T11:20:53.999Z</time></trkpt><trkpt lat="45.67742500474202" lon="11.403154443545263"><ele>132.0</ele><time>2026-05-02T11:20:54.999Z</time></trkpt><trkpt lat="45.67752297703147" lon="11.40311114409502"><ele>132.0</ele><time>2026-05-02T11:20:55.999Z</time></trkpt><trkpt lat="45.67760546019027" lon="11.40301760717119"><ele>132.0</ele><time>2026-05-02T11:20:56.999Z</time></trkpt><trkpt lat="45.677668161185856" lon="11.402886821641482"><ele>132.0</ele><time>2026-05-02T11:20:57.999Z</time></trkpt><trkpt lat="45.67772364263235" lon="11.40274361242587"><ele>132.0</ele><time>2026-05-02T11:20:58.999Z</time></trkpt><trkpt lat="45.67780558297146" lon="11.402615771280857"><ele>132.0</ele><time>2026-05-02T11:20:59.999Z</time></trkpt><trkpt lat="45.677911472502885" lon="11.402515841275733"><ele>132.0</ele><time>2026-05-02T11:21:00.999Z</time></trkpt><trkpt lat="45.67804458124059" lon="11.402464738835677"><ele>132.0</ele><time>2026-05-02T11:21:01.999Z</time></trkpt><trkpt lat="45.678179572730635" lon="11.402398496001231"><ele>132.0</ele><time>2026-05-02T11:21:02.999Z</time></trkpt><trkpt lat="45.67833192748598" lon="11.40232631590693"><ele>132.0</ele><time>2026-05-02T11:21:03.999Z</time></trkpt><trkpt lat="45.67849091245702" lon="11.402230570956274"><ele>133.0</ele><time>2026-05-02T11:21:04.999Z</time></trkpt><trkpt lat="45.67866694985436" lon="11.402146665540235"><ele>134.0</ele><time>2026-05-02T11:21:05.999Z</time></trkpt><trkpt lat="45.67886830965084" lon="11.402076154245066"><ele>135.0</ele><time>2026-05-02T11:21:06.999Z</time></trkpt><trkpt lat="45.67906685823182" lon="11.401983079299276"><ele>135.0</ele><time>2026-05-02T11:21:07.999Z</time></trkpt><trkpt lat="45.67927100000063" lon="11.401886147802154"><ele>135.0</ele><time>2026-05-02T11:21:08.999Z</time></trkpt><trkpt lat="45.679495967304824" lon="11.401755954728733"><ele>136.0</ele><time>2026-05-02T11:21:09.999Z</time></trkpt><trkpt lat="45.67972944035384" lon="11.4016487299188"><ele>137.0</ele><time>2026-05-02T11:21:10.999Z</time></trkpt><trkpt lat="45.67996441445699" lon="11.401538943306248"><ele>137.0</ele><time>2026-05-02T11:21:11.999Z</time></trkpt><trkpt lat="45.680194644320665" lon="11.401429375578408"><ele>137.0</ele><time>2026-05-02T11:21:12.999Z</time></trkpt><trkpt lat="45.68042268050012" lon="11.401319301389833"><ele>137.5</ele><time>2026-05-02T11:21:13.999Z</time></trkpt><trkpt lat="45.68066100051349" lon="11.401207269496185"><ele>138.0</ele><time>2026-05-02T11:21:14.999Z</time></trkpt><trkpt lat="45.680906928856395" lon="11.401099489671319"><ele>138.5</ele><time>2026-05-02T11:21:15.999Z</time></trkpt><trkpt lat="45.68115089025365" lon="11.400984746195558"><ele>139.0</ele><time>2026-05-02T11:21:16.999Z</time></trkpt><trkpt lat="45.68139417701312" lon="11.400870227477602"><ele>139.0</ele><time>2026-05-02T11:21:17.999Z</time></trkpt><trkpt lat="45.68163738429065" lon="11.4007587938204"><ele>139.0</ele><time>2026-05-02T11:21:18.999Z</time></trkpt><trkpt lat="45.68187522750335" lon="11.400650267175056"><ele>139.0</ele><time>2026-05-02T11:21:19.999Z</time></trkpt><trkpt lat="45.68211803771058" lon="11.400550009984448"><ele>139.0</ele><time>2026-05-02T11:21:20.999Z</time></trkpt><trkpt lat="45.6823550253019" lon="11.400449145982678"><ele>139.0</ele><time>2026-05-02T11:21:21.999Z</time></trkpt><trkpt lat="45.68259065544389" lon="11.400344224322756"><ele>139.0</ele><time>2026-05-02T11:21:22.999Z</time></trkpt><trkpt lat="45.68282587346701" lon="11.400238480354098"><ele>140.0</ele><time>2026-05-02T11:21:23.999Z</time></trkpt><trkpt lat="45.683057436129566" lon="11.400121990074478"><ele>141.0</ele><time>2026-05-02T11:21:24.999Z</time></trkpt><trkpt lat="45.68329243960673" lon="11.400000449804942"><ele>141.0</ele><time>2026-05-02T11:21:25.999Z</time></trkpt><trkpt lat="45.68352477209528" lon="11.39987742343782"><ele>141.0</ele><time>2026-05-02T11:21:26.999Z</time></trkpt><trkpt lat="45.683762283802835" lon="11.39975845548544"><ele>141.0</ele><time>2026-05-02T11:21:27.999Z</time></trkpt><trkpt lat="45.68400427965333" lon="11.399645754429049"><ele>141.0</ele><time>2026-05-02T11:21:28.998Z</time></trkpt><trkpt lat="45.68424473497982" lon="11.399534521716712"><ele>142.5</ele><time>2026-05-02T11:21:29.998Z</time></trkpt><trkpt lat="45.68448784692644" lon="11.399423105557133"><ele>144.0</ele><time>2026-05-02T11:21:30.998Z</time></trkpt><trkpt lat="45.684728394375206" lon="11.399306120388898"><ele>144.0</ele><time>2026-05-02T11:21:31.998Z</time></trkpt><trkpt lat="45.68496508326341" lon="11.39919136516164"><ele>144.0</ele><time>2026-05-02T11:21:32.998Z</time></trkpt><trkpt lat="45.68519625428528" lon="11.399052994344354"><ele>144.0</ele><time>2026-05-02T11:21:33.998Z</time></trkpt><trkpt lat="45.68541613876811" lon="11.39890726136933"><ele>144.0</ele><time>2026-05-02T11:21:34.998Z</time></trkpt><trkpt lat="45.68563649706546" lon="11.398739136440627"><ele>144.5</ele><time>2026-05-02T11:21:35.998Z</time></trkpt><trkpt lat="45.685851348132545" lon="11.398553868272792"><ele>145.0</ele><time>2026-05-02T11:21:36.998Z</time></trkpt><trkpt lat="45.68606389356885" lon="11.398352600356349"><ele>146.5</ele><time>2026-05-02T11:21:37.998Z</time></trkpt><trkpt lat="45.6862682876297" lon="11.398126713616197"><ele>148.0</ele><time>2026-05-02T11:21:38.998Z</time></trkpt><trkpt lat="45.686464380877844" lon="11.397888441746526"><ele>148.0</ele><time>2026-05-02T11:21:39.998Z</time></trkpt><trkpt lat="45.68666130897673" lon="11.397635767659226"><ele>148.0</ele><time>2026-05-02T11:21:40.998Z</time></trkpt><trkpt lat="45.686865529738846" lon="11.397373449180337"><ele>147.0</ele><time>2026-05-02T11:21:41.998Z</time></trkpt><trkpt lat="45.68707204334329" lon="11.397107781850584"><ele>146.0</ele><time>2026-05-02T11:21:42.998Z</time></trkpt><trkpt lat="45.68727806394568" lon="11.396847914151925"><ele>146.0</ele><time>2026-05-02T11:21:43.998Z</time></trkpt><trkpt lat="45.68747753436184" lon="11.396595211455553"><ele>146.0</ele><time>2026-05-02T11:21:45Z</time></trkpt><trkpt lat="45.68766778033797" lon="11.396356489029335"><ele>147.0</ele><time>2026-05-02T11:21:46Z</time></trkpt><trkpt lat="45.68784478964761" lon="11.396133774949847"><ele>148.0</ele><time>2026-05-02T11:21:47Z</time></trkpt><trkpt lat="45.688014193891256" lon="11.395917047956939"><ele>148.0</ele><time>2026-05-02T11:21:48Z</time></trkpt><trkpt lat="45.68817273102701" lon="11.395712700228357"><ele>148.0</ele><time>2026-05-02T11:21:49Z</time></trkpt><trkpt lat="45.68832328447474" lon="11.395525109470722"><ele>148.0</ele><time>2026-05-02T11:21:50Z</time></trkpt><trkpt lat="45.68846912333689" lon="11.395343395517733"><ele>148.0</ele><time>2026-05-02T11:21:51Z</time></trkpt><trkpt lat="45.68860866133151" lon="11.395172165386448"><ele>148.0</ele><time>2026-05-02T11:21:52Z</time></trkpt><trkpt lat="45.688734786462206" lon="11.39501240693763"><ele>148.0</ele><time>2026-05-02T11:21:53Z</time></trkpt><trkpt lat="45.68885360471106" lon="11.394864559904237"><ele>148.0</ele><time>2026-05-02T11:21:54Z</time></trkpt><trkpt lat="45.68895541500018" lon="11.39474148281195"><ele>148.0</ele><time>2026-05-02T11:21:55Z</time></trkpt><trkpt lat="45.689052258922636" lon="11.394639746233016"><ele>148.0</ele><time>2026-05-02T11:21:56Z</time></trkpt><trkpt lat="45.689149345789076" lon="11.394560782590561"><ele>148.0</ele><time>2026-05-02T11:21:57Z</time></trkpt><trkpt lat="45.68925192006832" lon="11.394532742361092"><ele>148.6</ele><time>2026-05-02T11:21:58Z</time></trkpt><trkpt lat="45.68934538032418" lon="11.394515905861255"><ele>149.20000000000002</ele><time>2026-05-02T11:21:59Z</time></trkpt><trkpt lat="45.68941222606377" lon="11.394434227395678"><ele>149.8</ele><time>2026-05-02T11:22:00Z</time></trkpt><trkpt lat="45.6894448631945" lon="11.394282690940809"><ele>150.4</ele><time>2026-05-02T11:22:01Z</time></trkpt><trkpt lat="45.68948513566555" lon="11.394104656610367"><ele>151.0</ele><time>2026-05-02T11:22:02Z</time></trkpt><trkpt lat="45.68957627177511" lon="11.393957518230604"><ele>151.33333333333334</ele><time>2026-05-02T11:22:03Z</time></trkpt><trkpt lat="45.68968702325039" lon="11.39382089376917"><ele>151.66666666666666</ele><time>2026-05-02T11:22:04Z</time></trkpt><trkpt lat="45.689808033507546" lon="11.393658256572978"><ele>152.0</ele><time>2026-05-02T11:22:05Z</time></trkpt><trkpt lat="45.68994339976286" lon="11.393479247131042"><ele>152.0</ele><time>2026-05-02T11:22:06Z</time></trkpt><trkpt lat="45.69008172986143" lon="11.393300531872748"><ele>152.0</ele><time>2026-05-02T11:22:07Z</time></trkpt><trkpt lat="45.69022394874026" lon="11.393116702742075"><ele>152.0</ele><time>2026-05-02T11:22:08Z</time></trkpt><trkpt lat="45.6903838264309" lon="11.392907986615574"><ele>152.5</ele><time>2026-05-02T11:22:09Z</time></trkpt><trkpt lat="45.69055105435295" lon="11.392695249416997"><ele>153.0</ele><time>2026-05-02T11:22:10Z</time></trkpt><trkpt lat="45.69072198084095" lon="11.392476167804904"><ele>153.0</ele><time>2026-05-02T11:22:11Z</time></trkpt><trkpt lat="45.690873023474325" lon="11.39227800040561"><ele>153.0</ele><time>2026-05-02T11:22:12Z</time></trkpt><trkpt lat="45.69105164843478" lon="11.392040629087623"><ele>153.0</ele><time>2026-05-02T11:22:13Z</time></trkpt><trkpt lat="45.691237054568475" lon="11.391807246923351"><ele>153.5</ele><time>2026-05-02T11:22:14Z</time></trkpt><trkpt lat="45.69142649588552" lon="11.391573875406067"><ele>154.0</ele><time>2026-05-02T11:22:15Z</time></trkpt><trkpt lat="45.6916194908963" lon="11.391340694900304"><ele>154.5</ele><time>2026-05-02T11:22:16Z</time></trkpt><trkpt lat="45.69181160260801" lon="11.39110043166749"><ele>155.0</ele><time>2026-05-02T11:22:17Z</time></trkpt><trkpt lat="45.692004566155546" lon="11.390857602460448"><ele>155.0</ele><time>2026-05-02T11:22:18Z</time></trkpt><trkpt lat="45.69219505276001" lon="11.390616614762664"><ele>155.0</ele><time>2026-05-02T11:22:19Z</time></trkpt><trkpt lat="45.692386798221776" lon="11.390374380129035"><ele>155.0</ele><time>2026-05-02T11:22:20Z</time></trkpt><trkpt lat="45.69257656494474" lon="11.390137356607047"><ele>155.0</ele><time>2026-05-02T11:22:21Z</time></trkpt><trkpt lat="45.69276284922567" lon="11.389897501973467"><ele>156.0</ele><time>2026-05-02T11:22:22Z</time></trkpt><trkpt lat="45.692947050683834" lon="11.389663200567073"><ele>157.0</ele><time>2026-05-02T11:22:23Z</time></trkpt><trkpt lat="45.69313113388343" lon="11.38943337367773"><ele>157.0</ele><time>2026-05-02T11:22:24Z</time></trkpt><trkpt lat="45.69331385914863" lon="11.389205081166368"><ele>157.0</ele><time>2026-05-02T11:22:25Z</time></trkpt><trkpt lat="45.6934942126229" lon="11.38897527780618"><ele>157.5</ele><time>2026-05-02T11:22:26Z</time></trkpt><trkpt lat="45.69367382670377" lon="11.388746099678395"><ele>158.0</ele><time>2026-05-02T11:22:27Z</time></trkpt><trkpt lat="45.69385344841469" lon="11.38851607944983"><ele>158.0</ele><time>2026-05-02T11:22:27.999Z</time></trkpt><trkpt lat="45.69403070018111" lon="11.388291355052683"><ele>158.0</ele><time>2026-05-02T11:22:28.999Z</time></trkpt><trkpt lat="45.69420916671485" lon="11.388065604419916"><ele>158.0</ele><time>2026-05-02T11:22:29.999Z</time></trkpt><trkpt lat="45.69438672550372" lon="11.387839044280435"><ele>158.0</ele><time>2026-05-02T11:22:30.999Z</time></trkpt><trkpt lat="45.6945639064897" lon="11.38761286432668"><ele>158.0</ele><time>2026-05-02T11:22:31.999Z</time></trkpt><trkpt lat="45.694741769998316" lon="11.387382310160216"><ele>158.0</ele><time>2026-05-02T11:22:32.999Z</time></trkpt><trkpt lat="45.69492068251039" lon="11.387150855889477"><ele>157.5</ele><time>2026-05-02T11:22:33.999Z</time></trkpt><trkpt lat="45.69509625676213" lon="11.386921809985486"><ele>157.0</ele><time>2026-05-02T11:22:34.999Z</time></trkpt><trkpt lat="45.69527398563233" lon="11.386699529880167"><ele>158.5</ele><time>2026-05-02T11:22:35.999Z</time></trkpt><trkpt lat="45.69544955839341" lon="11.386477216545059"><ele>160.0</ele><time>2026-05-02T11:22:36.999Z</time></trkpt><trkpt lat="45.69561759428434" lon="11.386261501093438"><ele>160.66666666666669</ele><time>2026-05-02T11:22:37.999Z</time></trkpt><trkpt lat="45.69578533567164" lon="11.386051079007018"><ele>161.33333333333334</ele><time>2026-05-02T11:22:38.999Z</time></trkpt><trkpt lat="45.69594329560907" lon="11.385848567366946"><ele>162.0</ele><time>2026-05-02T11:22:39.999Z</time></trkpt><trkpt lat="45.69609401219204" lon="11.385656970240634"><ele>162.33333333333334</ele><time>2026-05-02T11:22:40.999Z</time></trkpt><trkpt lat="45.69623864832866" lon="11.385478333079114"><ele>162.66666666666669</ele><time>2026-05-02T11:22:41.999Z</time></trkpt><trkpt lat="45.69638528427306" lon="11.385309425092062"><ele>163.0</ele><time>2026-05-02T11:22:42.999Z</time></trkpt><trkpt lat="45.69653942859169" lon="11.385160098253532"><ele>163.0</ele><time>2026-05-02T11:22:43.999Z</time></trkpt><trkpt lat="45.69670335540122" lon="11.38504027650469"><ele>163.0</ele><time>2026-05-02T11:22:44.999Z</time></trkpt><trkpt lat="45.69686835948049" lon="11.384945308880225"><ele>163.0</ele><time>2026-05-02T11:22:45.999Z</time></trkpt><trkpt lat="45.69702689813089" lon="11.384845295485283"><ele>163.33333333333334</ele><time>2026-05-02T11:22:46.999Z</time></trkpt><trkpt lat="45.69718740772109" lon="11.384743927775935"><ele>163.66666666666666</ele><time>2026-05-02T11:22:47.999Z</time></trkpt><trkpt lat="45.69734825405268" lon="11.384635157626661"><ele>164.0</ele><time>2026-05-02T11:22:48.999Z</time></trkpt><trkpt lat="45.69751239295436" lon="11.384503615456703"><ele>164.33333333333331</ele><time>2026-05-02T11:22:49.999Z</time></trkpt><trkpt lat="45.697666589417764" lon="11.384325738907865"><ele>164.66666666666666</ele><time>2026-05-02T11:22:50.999Z</time></trkpt><trkpt lat="45.697834903915684" lon="11.384139293241713"><ele>165.0</ele><time>2026-05-02T11:22:51.999Z</time></trkpt><trkpt lat="45.698004530268676" lon="11.383958188893933"><ele>165.5</ele><time>2026-05-02T11:22:52.999Z</time></trkpt><trkpt lat="45.69818774843812" lon="11.383772321093028"><ele>166.0</ele><time>2026-05-02T11:22:53.999Z</time></trkpt><trkpt lat="45.69837271282948" lon="11.383578557157275"><ele>166.0</ele><time>2026-05-02T11:22:54.999Z</time></trkpt><trkpt lat="45.698559754051225" lon="11.383381661083188"><ele>166.0</ele><time>2026-05-02T11:22:55.999Z</time></trkpt><trkpt lat="45.69874253662322" lon="11.383191559789916"><ele>166.66666666666669</ele><time>2026-05-02T11:22:56.999Z</time></trkpt><trkpt lat="45.69892400631452" lon="11.38301005448177"><ele>167.33333333333334</ele><time>2026-05-02T11:22:57.999Z</time></trkpt><trkpt lat="45.699098822094946" lon="11.38283554776191"><ele>168.0</ele><time>2026-05-02T11:22:58.999Z</time></trkpt><trkpt lat="45.699267552913845" lon="11.382659156746328"><ele>168.5</ele><time>2026-05-02T11:22:59.999Z</time></trkpt><trkpt lat="45.69944533377177" lon="11.382470347123878"><ele>169.0</ele><time>2026-05-02T11:23:00.999Z</time></trkpt><trkpt lat="45.69968060413467" lon="11.382205545561645"><ele>169.5</ele><time>2026-05-02T11:23:01.999Z</time></trkpt><trkpt lat="45.699943364738644" lon="11.381984994027873"><ele>170.0</ele><time>2026-05-02T11:23:02.999Z</time></trkpt><trkpt lat="45.700093070590604" lon="11.381807307835516"><ele>169.66666666666666</ele><time>2026-05-02T11:23:04.999Z</time></trkpt><trkpt lat="45.70025099553261" lon="11.38165228773879"><ele>169.33333333333334</ele><time>2026-05-02T11:23:05.999Z</time></trkpt><trkpt lat="45.70040354643074" lon="11.38150204287321"><ele>169.0</ele><time>2026-05-02T11:23:06.999Z</time></trkpt><trkpt lat="45.70055283381141" lon="11.381360708091442"><ele>169.66666666666669</ele><time>2026-05-02T11:23:07.999Z</time></trkpt><trkpt lat="45.70068811970658" lon="11.3812284419285"><ele>170.33333333333334</ele><time>2026-05-02T11:23:08.999Z</time></trkpt><trkpt lat="45.700817778273965" lon="11.381098594081639"><ele>171.0</ele><time>2026-05-02T11:23:09.999Z</time></trkpt><trkpt lat="45.70094568145549" lon="11.380972364523595"><ele>171.0</ele><time>2026-05-02T11:23:10.999Z</time></trkpt><trkpt lat="45.70107039697457" lon="11.380850088445642"><ele>171.0</ele><time>2026-05-02T11:23:11.999Z</time></trkpt><trkpt lat="45.70118887307508" lon="11.38072686031857"><ele>171.0</ele><time>2026-05-02T11:23:12.999Z</time></trkpt><trkpt lat="45.70130267328197" lon="11.380604143030219"><ele>171.0</ele><time>2026-05-02T11:23:13.999Z</time></trkpt><trkpt lat="45.70141787585" lon="11.380483646483668"><ele>171.0</ele><time>2026-05-02T11:23:14.999Z</time></trkpt><trkpt lat="45.701527959232806" lon="11.38035567296245"><ele>171.0</ele><time>2026-05-02T11:23:15.999Z</time></trkpt><trkpt lat="45.70163381174067" lon="11.380202515401367"><ele>171.0</ele><time>2026-05-02T11:23:16.999Z</time></trkpt><trkpt lat="45.701730596633" lon="11.380031704074504"><ele>171.0</ele><time>2026-05-02T11:23:17.999Z</time></trkpt><trkpt lat="45.701811270592415" lon="11.379838764522011"><ele>171.0</ele><time>2026-05-02T11:23:18.999Z</time></trkpt><trkpt lat="45.701870915654844" lon="11.379651398349141"><ele>171.0</ele><time>2026-05-02T11:23:19.999Z</time></trkpt><trkpt lat="45.70191116640491" lon="11.379473432006469"><ele>171.0</ele><time>2026-05-02T11:23:20.999Z</time></trkpt><trkpt lat="45.70195747733522" lon="11.379287716851348"><ele>171.0</ele><time>2026-05-02T11:23:21.999Z</time></trkpt><trkpt lat="45.70201193927401" lon="11.379103440566892"><ele>171.0</ele><time>2026-05-02T11:23:22.999Z</time></trkpt><trkpt lat="45.70207035687668" lon="11.378921868785739"><ele>171.0</ele><time>2026-05-02T11:23:23.999Z</time></trkpt><trkpt lat="45.70212313171217" lon="11.378732854337139"><ele>171.0</ele><time>2026-05-02T11:23:24.999Z</time></trkpt><trkpt lat="45.702183568216114" lon="11.378543617670797"><ele>171.0</ele><time>2026-05-02T11:23:25.999Z</time></trkpt><trkpt lat="45.702247626054" lon="11.37835819949222"><ele>171.25</ele><time>2026-05-02T11:23:26.999Z</time></trkpt><trkpt lat="45.70231251629306" lon="11.378172892967418"><ele>171.5</ele><time>2026-05-02T11:23:27.999Z</time></trkpt><trkpt lat="45.70237402642364" lon="11.377993462505492"><ele>171.75</ele><time>2026-05-02T11:23:28.999Z</time></trkpt><trkpt lat="45.70243679391986" lon="11.37780544573413"><ele>172.0</ele><time>2026-05-02T11:23:29.999Z</time></trkpt><trkpt lat="45.70250448048112" lon="11.377612389735246"><ele>172.0</ele><time>2026-05-02T11:23:30.999Z</time></trkpt><trkpt lat="45.70257671815167" lon="11.377422108014127"><ele>172.0</ele><time>2026-05-02T11:23:31.999Z</time></trkpt><trkpt lat="45.702650885428746" lon="11.377220960614974"><ele>172.0</ele><time>2026-05-02T11:23:32.999Z</time></trkpt><trkpt lat="45.70271804698529" lon="11.377034584345905"><ele>172.66666666666669</ele><time>2026-05-02T11:23:33.999Z</time></trkpt><trkpt lat="45.702777418620045" lon="11.376830150682098"><ele>173.33333333333334</ele><time>2026-05-02T11:23:34.998Z</time></trkpt><trkpt lat="45.702841758391095" lon="11.376605583710516"><ele>174.0</ele><time>2026-05-02T11:23:35.998Z</time></trkpt><trkpt lat="45.70288201245722" lon="11.376390562093649"><ele>174.25</ele><time>2026-05-02T11:23:36.998Z</time></trkpt><trkpt lat="45.70292099186989" lon="11.37618783882494"><ele>174.5</ele><time>2026-05-02T11:23:37.998Z</time></trkpt><trkpt lat="45.70294535837821" lon="11.375997476990445"><ele>174.75</ele><time>2026-05-02T11:23:38.998Z</time></trkpt><trkpt lat="45.702976072721064" lon="11.375825223082126"><ele>175.0</ele><time>2026-05-02T11:23:39.998Z</time></trkpt><trkpt lat="45.70299431705854" lon="11.37566109472504"><ele>175.2</ele><time>2026-05-02T11:23:40.998Z</time></trkpt><trkpt lat="45.7030127893659" lon="11.375509347338294"><ele>175.4</ele><time>2026-05-02T11:23:41.998Z</time></trkpt><trkpt lat="45.703032643937945" lon="11.3753794209697"><ele>175.60000000000002</ele><time>2026-05-02T11:23:42.998Z</time></trkpt><trkpt lat="45.703047906548946" lon="11.375267819945073"><ele>175.8</ele><time>2026-05-02T11:23:43.998Z</time></trkpt><trkpt lat="45.70305885364354" lon="11.375179033751904"><ele>176.0</ele><time>2026-05-02T11:23:44.998Z</time></trkpt><trkpt lat="45.703086819947075" lon="11.37502731704275"><ele>176.0</ele><time>2026-05-02T11:23:46.998Z</time></trkpt><trkpt lat="45.70313196718352" lon="11.374941982139976"><ele>176.0</ele><time>2026-05-02T11:23:47.998Z</time></trkpt><trkpt lat="45.70319087609117" lon="11.374848516865779"><ele>176.0</ele><time>2026-05-02T11:23:48.998Z</time></trkpt><trkpt lat="45.70324745493798" lon="11.37475161071638"><ele>176.0</ele><time>2026-05-02T11:23:49.998Z</time></trkpt><trkpt lat="45.703296392427255" lon="11.374667792385063"><ele>176.0</ele><time>2026-05-02T11:23:51Z</time></trkpt><trkpt lat="45.703495423427384" lon="11.374806518309233"><ele>176.16666666666666</ele><time>2026-05-02T11:23:52Z</time></trkpt><trkpt lat="45.70359164758321" lon="11.374855410088776"><ele>176.33333333333331</ele><time>2026-05-02T11:23:53Z</time></trkpt><trkpt lat="45.70367399352595" lon="11.37490206238669"><ele>176.5</ele><time>2026-05-02T11:23:54Z</time></trkpt><trkpt lat="45.703755057598485" lon="11.37494756945996"><ele>176.66666666666666</ele><time>2026-05-02T11:23:55Z</time></trkpt><trkpt lat="45.703826852622065" lon="11.37499187073123"><ele>176.83333333333334</ele><time>2026-05-02T11:23:56Z</time></trkpt><trkpt lat="45.70389796421983" lon="11.375033461524447"><ele>177.0</ele><time>2026-05-02T11:23:57Z</time></trkpt><trkpt lat="45.7039582403467" lon="11.375078945305383"><ele>177.0</ele><time>2026-05-02T11:23:58Z</time></trkpt><trkpt lat="45.70401493708636" lon="11.375144746518407"><ele>177.0</ele><time>2026-05-02T11:23:59Z</time></trkpt><trkpt lat="45.704063313173705" lon="11.375234237421653"><ele>177.0</ele><time>2026-05-02T11:24:00Z</time></trkpt><trkpt lat="45.70410090790287" lon="11.375334973798386"><ele>177.0</ele><time>2026-05-02T11:24:01Z</time></trkpt><trkpt lat="45.70415266553169" lon="11.375419367583246"><ele>177.0</ele><time>2026-05-02T11:24:02Z</time></trkpt><trkpt lat="45.70422668902966" lon="11.375470284793009"><ele>177.0</ele><time>2026-05-02T11:24:03Z</time></trkpt><trkpt lat="45.704318362749945" lon="11.375483706491885"><ele>177.25</ele><time>2026-05-02T11:24:04Z</time></trkpt><trkpt lat="45.704425672879026" lon="11.375466431417305"><ele>177.5</ele><time>2026-05-02T11:24:05Z</time></trkpt><trkpt lat="45.70454488255896" lon="11.375458305416254"><ele>177.75</ele><time>2026-05-02T11:24:06Z</time></trkpt><trkpt lat="45.704682178062995" lon="11.375455056731168"><ele>178.0</ele><time>2026-05-02T11:24:07Z</time></trkpt><trkpt lat="45.704825382133315" lon="11.375537578407398"><ele>177.33333333333334</ele><time>2026-05-02T11:24:08Z</time></trkpt><trkpt lat="45.704970815085595" lon="11.37561193926371"><ele>176.66666666666666</ele><time>2026-05-02T11:24:09Z</time></trkpt><trkpt lat="45.705116160795136" lon="11.375697478551436"><ele>176.0</ele><time>2026-05-02T11:24:10Z</time></trkpt><trkpt lat="45.70528246803103" lon="11.375792320352588"><ele>174.66666666666666</ele><time>2026-05-02T11:24:11Z</time></trkpt><trkpt lat="45.70545889187987" lon="11.375892025811652"><ele>173.33333333333334</ele><time>2026-05-02T11:24:12Z</time></trkpt><trkpt lat="45.70565309227621" lon="11.375995778887424"><ele>172.0</ele><time>2026-05-02T11:24:13Z</time></trkpt><trkpt lat="45.70586095806274" lon="11.3761399837467"><ele>172.5</ele><time>2026-05-02T11:24:14Z</time></trkpt><trkpt lat="45.70609448541651" lon="11.376249357361385"><ele>173.0</ele><time>2026-05-02T11:24:15Z</time></trkpt><trkpt lat="45.7063217256491" lon="11.37638447316833"><ele>173.0</ele><time>2026-05-02T11:24:16Z</time></trkpt><trkpt lat="45.7065577249598" lon="11.376524293949007"><ele>173.0</ele><time>2026-05-02T11:24:17Z</time></trkpt><trkpt lat="45.706790511165515" lon="11.376661243282934"><ele>173.0</ele><time>2026-05-02T11:24:18Z</time></trkpt><trkpt lat="45.70701416888981" lon="11.376791606063282"><ele>173.0</ele><time>2026-05-02T11:24:19Z</time></trkpt><trkpt lat="45.707236264787646" lon="11.376917992708291"><ele>173.0</ele><time>2026-05-02T11:24:20Z</time></trkpt><trkpt lat="45.707447768696944" lon="11.37703791580184"><ele>173.0</ele><time>2026-05-02T11:24:21Z</time></trkpt><trkpt lat="45.70764384716827" lon="11.37715124449791"><ele>173.0</ele><time>2026-05-02T11:24:22Z</time></trkpt><trkpt lat="45.70783061436072" lon="11.377255903177637"><ele>173.33333333333331</ele><time>2026-05-02T11:24:23Z</time></trkpt><trkpt lat="45.707994075302224" lon="11.377353848126752"><ele>173.66666666666666</ele><time>2026-05-02T11:24:24Z</time></trkpt><trkpt lat="45.70814478470861" lon="11.377461624118771"><ele>174.0</ele><time>2026-05-02T11:24:25Z</time></trkpt><trkpt lat="45.70827231486248" lon="11.377606173290475"><ele>174.0</ele><time>2026-05-02T11:24:26Z</time></trkpt><trkpt lat="45.70838519267948" lon="11.377761773281499"><ele>174.0</ele><time>2026-05-02T11:24:27Z</time></trkpt><trkpt lat="45.70848248838106" lon="11.377965039992917"><ele>174.0</ele><time>2026-05-02T11:24:28Z</time></trkpt><trkpt lat="45.70856950558449" lon="11.378202252746352"><ele>173.66666666666666</ele><time>2026-05-02T11:24:29Z</time></trkpt><trkpt lat="45.7086658238079" lon="11.378453700583128"><ele>173.33333333333331</ele><time>2026-05-02T11:24:30Z</time></trkpt><trkpt lat="45.708768931736046" lon="11.378719342520386"><ele>173.0</ele><time>2026-05-02T11:24:31Z</time></trkpt><trkpt lat="45.70888382607385" lon="11.378999112053867"><ele>173.0</ele><time>2026-05-02T11:24:32Z</time></trkpt><trkpt lat="45.70899807503577" lon="11.379287198314314"><ele>173.0</ele><time>2026-05-02T11:24:33Z</time></trkpt><trkpt lat="45.709121507720646" lon="11.379588850066462"><ele>172.0</ele><time>2026-05-02T11:24:34Z</time></trkpt><trkpt lat="45.7092470974572" lon="11.37990433119373"><ele>171.0</ele><time>2026-05-02T11:24:35Z</time></trkpt><trkpt lat="45.70937628157765" lon="11.38022878260258"><ele>172.0</ele><time>2026-05-02T11:24:36Z</time></trkpt><trkpt lat="45.70950998046258" lon="11.380556484397026"><ele>173.0</ele><time>2026-05-02T11:24:36.999Z</time></trkpt><trkpt lat="45.709643365313184" lon="11.380888816670842"><ele>173.0</ele><time>2026-05-02T11:24:37.999Z</time></trkpt><trkpt lat="45.709773026396604" lon="11.38120964115885"><ele>173.0</ele><time>2026-05-02T11:24:38.999Z</time></trkpt><trkpt lat="45.70990038376119" lon="11.38151333010423"><ele>174.5</ele><time>2026-05-02T11:24:39.999Z</time></trkpt><trkpt lat="45.71002021478256" lon="11.381802261389206"><ele>176.0</ele><time>2026-05-02T11:24:40.999Z</time></trkpt><trkpt lat="45.71012876806474" lon="11.382074572353675"><ele>175.66666666666666</ele><time>2026-05-02T11:24:41.999Z</time></trkpt><trkpt lat="45.7102344188677" lon="11.382332352015716"><ele>175.33333333333334</ele><time>2026-05-02T11:24:42.999Z</time></trkpt><trkpt lat="45.71034415077411" lon="11.382587754539937"><ele>175.0</ele><time>2026-05-02T11:24:43.999Z</time></trkpt><trkpt lat="45.71043513773968" lon="11.38283606420803"><ele>174.0</ele><time>2026-05-02T11:24:44.999Z</time></trkpt><trkpt lat="45.71053986137355" lon="11.383061373508589"><ele>173.0</ele><time>2026-05-02T11:24:45.999Z</time></trkpt><trkpt lat="45.71066953822184" lon="11.383261607973672"><ele>172.0</ele><time>2026-05-02T11:24:46.999Z</time></trkpt><trkpt lat="45.710827847298305" lon="11.383427221495445"><ele>172.0</ele><time>2026-05-02T11:24:47.999Z</time></trkpt><trkpt lat="45.71100914009955" lon="11.383566273627734"><ele>172.0</ele><time>2026-05-02T11:24:48.999Z</time></trkpt><trkpt lat="45.71119538828069" lon="11.383720327546968"><ele>172.0</ele><time>2026-05-02T11:24:49.999Z</time></trkpt><trkpt lat="45.711383751075175" lon="11.383883963079832"><ele>172.5</ele><time>2026-05-02T11:24:50.999Z</time></trkpt><trkpt lat="45.71157485363775" lon="11.384058836602277"><ele>173.0</ele><time>2026-05-02T11:24:51.999Z</time></trkpt><trkpt lat="45.71176607376395" lon="11.38424517340447"><ele>173.0</ele><time>2026-05-02T11:24:52.999Z</time></trkpt><trkpt lat="45.71195935389541" lon="11.384417584222447"><ele>173.0</ele><time>2026-05-02T11:24:53.999Z</time></trkpt><trkpt lat="45.71214892023265" lon="11.384583556649243"><ele>172.0</ele><time>2026-05-02T11:24:54.999Z</time></trkpt><trkpt lat="45.71234045541232" lon="11.384751736202327"><ele>171.0</ele><time>2026-05-02T11:24:55.999Z</time></trkpt><trkpt lat="45.712530062838155" lon="11.384923872248192"><ele>170.0</ele><time>2026-05-02T11:24:56.999Z</time></trkpt><trkpt lat="45.71271461739028" lon="11.385089817227886"><ele>171.66666666666666</ele><time>2026-05-02T11:24:57.999Z</time></trkpt><trkpt lat="45.71289936636036" lon="11.385255643342441"><ele>173.33333333333334</ele><time>2026-05-02T11:24:58.999Z</time></trkpt><trkpt lat="45.71308419400607" lon="11.385420990241153"><ele>175.0</ele><time>2026-05-02T11:24:59.999Z</time></trkpt><trkpt lat="45.71326951931675" lon="11.385586427990093"><ele>175.0</ele><time>2026-05-02T11:25:00.999Z</time></trkpt><trkpt lat="45.71345313003447" lon="11.385751007660957"><ele>175.0</ele><time>2026-05-02T11:25:01.999Z</time></trkpt><trkpt lat="45.71363635146018" lon="11.385914759336663"><ele>175.0</ele><time>2026-05-02T11:25:02.999Z</time></trkpt><trkpt lat="45.71382565049948" lon="11.386077174830024"><ele>175.5</ele><time>2026-05-02T11:25:03.999Z</time></trkpt><trkpt lat="45.71391019261596" lon="11.386275472147076"><ele>176.0</ele><time>2026-05-02T11:25:04.999Z</time></trkpt><trkpt lat="45.713828920035134" lon="11.386213087990244"><ele>176.5</ele><time>2026-05-02T11:25:05.999Z</time></trkpt><trkpt lat="45.71390484459032" lon="11.386356583548318"><ele>177.0</ele><time>2026-05-02T11:25:06.999Z</time></trkpt><trkpt lat="45.71397421053424" lon="11.386503529350884"><ele>177.0</ele><time>2026-05-02T11:25:07.999Z</time></trkpt><trkpt lat="45.71399577996592" lon="11.386686944034105"><ele>177.0</ele><time>2026-05-02T11:25:08.999Z</time></trkpt><trkpt lat="45.714023481083444" lon="11.386878143858247"><ele>177.0</ele><time>2026-05-02T11:25:09.999Z</time></trkpt><trkpt lat="45.71400966657792" lon="11.387040905974974"><ele>177.0</ele><time>2026-05-02T11:25:10.999Z</time></trkpt><trkpt lat="45.713976826409706" lon="11.387188929501304"><ele>176.2</ele><time>2026-05-02T11:25:11.999Z</time></trkpt><trkpt lat="45.71392824657212" lon="11.387329092548173"><ele>175.39999999999998</ele><time>2026-05-02T11:25:12.999Z</time></trkpt><trkpt lat="45.71386651114724" lon="11.38744628208381"><ele>174.60000000000002</ele><time>2026-05-02T11:25:13.999Z</time></trkpt><trkpt lat="45.71378702162742" lon="11.387525969116746"><ele>173.8</ele><time>2026-05-02T11:25:14.999Z</time></trkpt><trkpt lat="45.713690382398354" lon="11.387561983490073"><ele>173.0</ele><time>2026-05-02T11:25:15.999Z</time></trkpt><trkpt lat="45.7135863611103" lon="11.38754625225436"><ele>173.60000000000002</ele><time>2026-05-02T11:25:16.999Z</time></trkpt><trkpt lat="45.71349287500678" lon="11.387486510415517"><ele>174.20000000000002</ele><time>2026-05-02T11:25:17.999Z</time></trkpt><trkpt lat="45.713422719233044" lon="11.387380659709123"><ele>174.8</ele><time>2026-05-02T11:25:18.999Z</time></trkpt><trkpt lat="45.713376680429654" lon="11.387249009318463"><ele>175.4</ele><time>2026-05-02T11:25:19.999Z</time></trkpt><trkpt lat="45.713369505648885" lon="11.38709632073302"><ele>176.0</ele><time>2026-05-02T11:25:20.999Z</time></trkpt><trkpt lat="45.7133872945171" lon="11.386944939660209"><ele>176.0</ele><time>2026-05-02T11:25:21.999Z</time></trkpt><trkpt lat="45.7134471653993" lon="11.38680225696945"><ele>176.0</ele><time>2026-05-02T11:25:22.999Z</time></trkpt><trkpt lat="45.71353996792523" lon="11.386685253142913"><ele>176.0</ele><time>2026-05-02T11:25:23.999Z</time></trkpt><trkpt lat="45.713651571179696" lon="11.386575670141546"><ele>176.0</ele><time>2026-05-02T11:25:24.999Z</time></trkpt><trkpt lat="45.71377214828282" lon="11.38645801181918"><ele>177.66666666666666</ele><time>2026-05-02T11:25:25.999Z</time></trkpt><trkpt lat="45.71389836742169" lon="11.386324943208278"><ele>179.33333333333334</ele><time>2026-05-02T11:25:26.999Z</time></trkpt><trkpt lat="45.714037926511075" lon="11.386200796137013"><ele>181.0</ele><time>2026-05-02T11:25:27.999Z</time></trkpt><trkpt lat="45.71418234087768" lon="11.386084630626533"><ele>181.0</ele><time>2026-05-02T11:25:28.999Z</time></trkpt><trkpt lat="45.71433992184411" lon="11.385985120607556"><ele>181.0</ele><time>2026-05-02T11:25:29.999Z</time></trkpt><trkpt lat="45.71450807298739" lon="11.385900767261827"><ele>181.0</ele><time>2026-05-02T11:25:30.999Z</time></trkpt><trkpt lat="45.71469361872406" lon="11.38582385937834"><ele>179.33333333333334</ele><time>2026-05-02T11:25:31.999Z</time></trkpt><trkpt lat="45.71488488089536" lon="11.385756538378638"><ele>177.66666666666666</ele><time>2026-05-02T11:25:32.999Z</time></trkpt><trkpt lat="45.71507488134586" lon="11.385699626860722"><ele>176.0</ele><time>2026-05-02T11:25:33.999Z</time></trkpt><trkpt lat="45.71526377577295" lon="11.385652223916372"><ele>176.0</ele><time>2026-05-02T11:25:34.999Z</time></trkpt><trkpt lat="45.715432991105445" lon="11.385606529702143"><ele>176.0</ele><time>2026-05-02T11:25:35.999Z</time></trkpt><trkpt lat="45.71557938729481" lon="11.38556441127651"><ele>176.0</ele><time>2026-05-02T11:25:36.999Z</time></trkpt><trkpt lat="45.71570827403617" lon="11.385532539003464"><ele>176.0</ele><time>2026-05-02T11:25:37.999Z</time></trkpt><trkpt lat="45.71582004434004" lon="11.385536087206471"><ele>176.0</ele><time>2026-05-02T11:25:38.999Z</time></trkpt><trkpt lat="45.715914357526" lon="11.385560222890796"><ele>176.0</ele><time>2026-05-02T11:25:39.999Z</time></trkpt><trkpt lat="45.71599545820008" lon="11.385595009768979"><ele>176.0</ele><time>2026-05-02T11:25:40.999Z</time></trkpt><trkpt lat="45.71607059067181" lon="11.385647067839905"><ele>176.0</ele><time>2026-05-02T11:25:41.999Z</time></trkpt><trkpt lat="45.71615328478523" lon="11.38571847819738"><ele>176.5</ele><time>2026-05-02T11:25:42.999Z</time></trkpt><trkpt lat="45.716233701903136" lon="11.385821905474632"><ele>177.0</ele><time>2026-05-02T11:25:43.999Z</time></trkpt><trkpt lat="45.7163070398808" lon="11.385957161791803"><ele>177.5</ele><time>2026-05-02T11:25:44.998Z</time></trkpt><trkpt lat="45.71636133934377" lon="11.386134472064457"><ele>178.0</ele><time>2026-05-02T11:25:45.998Z</time></trkpt><trkpt lat="45.7164017520465" lon="11.386331990422494"><ele>177.75</ele><time>2026-05-02T11:25:46.998Z</time></trkpt><trkpt lat="45.71643704677364" lon="11.386540454973465"><ele>177.5</ele><time>2026-05-02T11:25:47.998Z</time></trkpt><trkpt lat="45.71647144841749" lon="11.38673539548185"><ele>177.25</ele><time>2026-05-02T11:25:48.998Z</time></trkpt><trkpt lat="45.71654401823896" lon="11.386930719784084"><ele>177.0</ele><time>2026-05-02T11:25:49.998Z</time></trkpt><trkpt lat="45.716584550088854" lon="11.387123281720983"><ele>177.0</ele><time>2026-05-02T11:25:50.998Z</time></trkpt><trkpt lat="45.71660932372902" lon="11.387309278759325"><ele>177.0</ele><time>2026-05-02T11:25:51.998Z</time></trkpt><trkpt lat="45.71659863563932" lon="11.387495390444029"><ele>177.0</ele><time>2026-05-02T11:25:52.998Z</time></trkpt><trkpt lat="45.71656639236888" lon="11.387667673791956"><ele>177.0</ele><time>2026-05-02T11:25:53.998Z</time></trkpt><trkpt lat="45.71653602687929" lon="11.387822987775817"><ele>177.0</ele><time>2026-05-02T11:25:54.998Z</time></trkpt><trkpt lat="45.716546605480055" lon="11.387965066182721"><ele>177.0</ele><time>2026-05-02T11:25:55.998Z</time></trkpt><trkpt lat="45.7166007287588" lon="11.388076747873926"><ele>177.0</ele><time>2026-05-02T11:25:57Z</time></trkpt><trkpt lat="45.71668522198567" lon="11.388142284751037"><ele>177.0</ele><time>2026-05-02T11:25:58Z</time></trkpt><trkpt lat="45.71678298866814" lon="11.388172312308559"><ele>177.0</ele><time>2026-05-02T11:25:59Z</time></trkpt><trkpt lat="45.716889652729186" lon="11.388140727191708"><ele>177.0</ele><time>2026-05-02T11:26:00Z</time></trkpt><trkpt lat="45.71699505243856" lon="11.388049352242252"><ele>177.0</ele><time>2026-05-02T11:26:01Z</time></trkpt><trkpt lat="45.71708151135149" lon="11.38791330629662"><ele>177.0</ele><time>2026-05-02T11:26:02Z</time></trkpt><trkpt lat="45.717154332314124" lon="11.387762659589692"><ele>177.0</ele><time>2026-05-02T11:26:03Z</time></trkpt><trkpt lat="45.717231333228156" lon="11.387634000749525"><ele>177.0</ele><time>2026-05-02T11:26:04Z</time></trkpt><trkpt lat="45.717330816451316" lon="11.387552164435686"><ele>177.0</ele><time>2026-05-02T11:26:05Z</time></trkpt><trkpt lat="45.71744270321193" lon="11.387524611752013"><ele>177.0</ele><time>2026-05-02T11:26:06Z</time></trkpt><trkpt lat="45.71757026630705" lon="11.387584559196332"><ele>177.0</ele><time>2026-05-02T11:26:07Z</time></trkpt><trkpt lat="45.71771551649985" lon="11.387556801727147"><ele>177.33333333333334</ele><time>2026-05-02T11:26:08Z</time></trkpt><trkpt lat="45.717869838318904" lon="11.387573793426835"><ele>177.66666666666669</ele><time>2026-05-02T11:26:09Z</time></trkpt><trkpt lat="45.71804035110037" lon="11.387581664935588"><ele>178.0</ele><time>2026-05-02T11:26:10Z</time></trkpt><trkpt lat="45.71822480638369" lon="11.387595592453751"><ele>178.0</ele><time>2026-05-02T11:26:11Z</time></trkpt><trkpt lat="45.71842701871324" lon="11.387645244582517"><ele>178.0</ele><time>2026-05-02T11:26:12Z</time></trkpt><trkpt lat="45.71864492716166" lon="11.387635015896306"><ele>178.0</ele><time>2026-05-02T11:26:13Z</time></trkpt><trkpt lat="45.71886605436497" lon="11.3876551482924"><ele>178.5</ele><time>2026-05-02T11:26:14Z</time></trkpt><trkpt lat="45.71909058618872" lon="11.38766910500405"><ele>179.0</ele><time>2026-05-02T11:26:15Z</time></trkpt><trkpt lat="45.719322688369914" lon="11.387689802507792"><ele>180.5</ele><time>2026-05-02T11:26:16Z</time></trkpt><trkpt lat="45.719553123527966" lon="11.387710449498972"><ele>182.0</ele><time>2026-05-02T11:26:17Z</time></trkpt><trkpt lat="45.719783311111506" lon="11.387730037770124"><ele>182.0</ele><time>2026-05-02T11:26:18Z</time></trkpt><trkpt lat="45.720009425376" lon="11.387735799490827"><ele>182.0</ele><time>2026-05-02T11:26:19Z</time></trkpt><trkpt lat="45.72023438324477" lon="11.38775607741917"><ele>181.33333333333331</ele><time>2026-05-02T11:26:20Z</time></trkpt><trkpt lat="45.72045035947194" lon="11.387769525672226"><ele>180.66666666666666</ele><time>2026-05-02T11:26:21Z</time></trkpt><trkpt lat="45.72065867615035" lon="11.387785150500475"><ele>180.0</ele><time>2026-05-02T11:26:22Z</time></trkpt><trkpt lat="45.72085672779044" lon="11.387799609819762"><ele>180.0</ele><time>2026-05-02T11:26:23Z</time></trkpt><trkpt lat="45.72101078893753" lon="11.387801145703781"><ele>180.0</ele><time>2026-05-02T11:26:24Z</time></trkpt><trkpt lat="45.721126587912124" lon="11.387822903795508"><ele>180.0</ele><time>2026-05-02T11:26:25Z</time></trkpt><trkpt lat="45.72122941254424" lon="11.387841664810644"><ele>180.0</ele><time>2026-05-02T11:26:26Z</time></trkpt><trkpt lat="45.72170406144194" lon="11.387845872236715"><ele>182.0</ele><time>2026-05-02T11:26:27Z</time></trkpt><trkpt lat="45.72190271312907" lon="11.387857319594413"><ele>184.0</ele><time>2026-05-02T11:26:28Z</time></trkpt><trkpt lat="45.722085446813125" lon="11.387865904869662"><ele>186.0</ele><time>2026-05-02T11:26:29Z</time></trkpt><trkpt lat="45.72226026083882" lon="11.387879043107253"><ele>186.0</ele><time>2026-05-02T11:26:30Z</time></trkpt><trkpt lat="45.722430081268456" lon="11.387887719088997"><ele>186.0</ele><time>2026-05-02T11:26:31Z</time></trkpt><trkpt lat="45.72258896024669" lon="11.387936431851534"><ele>186.0</ele><time>2026-05-02T11:26:32Z</time></trkpt><trkpt lat="45.72275065887954" lon="11.387950104705423"><ele>185.33333333333334</ele><time>2026-05-02T11:26:33Z</time></trkpt><trkpt lat="45.72291233145259" lon="11.38798715782627"><ele>184.66666666666669</ele><time>2026-05-02T11:26:34Z</time></trkpt><trkpt lat="45.723090857369094" lon="11.38793268612277"><ele>184.0</ele><time>2026-05-02T11:26:35Z</time></trkpt><trkpt lat="45.723263613886594" lon="11.387944277378542"><ele>184.0</ele><time>2026-05-02T11:26:36Z</time></trkpt><trkpt lat="45.72345517344568" lon="11.387939174560248"><ele>184.0</ele><time>2026-05-02T11:26:37Z</time></trkpt><trkpt lat="45.72366338210036" lon="11.387921270295019"><ele>184.0</ele><time>2026-05-02T11:26:38Z</time></trkpt><trkpt lat="45.72388511980111" lon="11.388006480307483"><ele>184.0</ele><time>2026-05-02T11:26:39Z</time></trkpt><trkpt lat="45.72410115772636" lon="11.387994541629412"><ele>184.0</ele><time>2026-05-02T11:26:40Z</time></trkpt><trkpt lat="45.72432376905235" lon="11.387983078008617"><ele>184.0</ele><time>2026-05-02T11:26:41Z</time></trkpt><trkpt lat="45.72454801087229" lon="11.38797446178973"><ele>186.0</ele><time>2026-05-02T11:26:42Z</time></trkpt><trkpt lat="45.724773991287925" lon="11.387965169929235"><ele>188.0</ele><time>2026-05-02T11:26:43Z</time></trkpt><trkpt lat="45.72500195932332" lon="11.387952650495375"><ele>188.0</ele><time>2026-05-02T11:26:44Z</time></trkpt><trkpt lat="45.7252297139356" lon="11.387942053054594"><ele>188.0</ele><time>2026-05-02T11:26:44.999Z</time></trkpt><trkpt lat="45.72545067432054" lon="11.387933580799778"><ele>188.0</ele><time>2026-05-02T11:26:45.999Z</time></trkpt><trkpt lat="45.725671914639584" lon="11.387923841135997"><ele>188.0</ele><time>2026-05-02T11:26:46.999Z</time></trkpt><trkpt lat="45.7258900066848" lon="11.387915333717359"><ele>188.0</ele><time>2026-05-02T11:26:47.999Z</time></trkpt><trkpt lat="45.72610760714232" lon="11.38790517707208"><ele>188.0</ele><time>2026-05-02T11:26:48.999Z</time></trkpt><trkpt lat="45.72632290556037" lon="11.387805637986466"><ele>189.66666666666666</ele><time>2026-05-02T11:26:49.999Z</time></trkpt><trkpt lat="45.72653596103987" lon="11.3877963170644"><ele>191.33333333333331</ele><time>2026-05-02T11:26:50.999Z</time></trkpt><trkpt lat="45.72674921991436" lon="11.387785946954589"><ele>193.0</ele><time>2026-05-02T11:26:51.999Z</time></trkpt><trkpt lat="45.72695971442222" lon="11.387779049578695"><ele>193.0</ele><time>2026-05-02T11:26:52.999Z</time></trkpt><trkpt lat="45.72717295028323" lon="11.387770703016463"><ele>193.0</ele><time>2026-05-02T11:26:53.999Z</time></trkpt><trkpt lat="45.727391600632245" lon="11.387762959545485"><ele>193.0</ele><time>2026-05-02T11:26:54.999Z</time></trkpt><trkpt lat="45.72761261060951" lon="11.387752560007257"><ele>193.66666666666666</ele><time>2026-05-02T11:26:55.999Z</time></trkpt><trkpt lat="45.72783449889862" lon="11.387741202404207"><ele>194.33333333333331</ele><time>2026-05-02T11:26:56.999Z</time></trkpt><trkpt lat="45.728053740332534" lon="11.387729929513139"><ele>195.0</ele><time>2026-05-02T11:26:57.999Z</time></trkpt><trkpt lat="45.72827065547542" lon="11.38771923046238"><ele>195.0</ele><time>2026-05-02T11:26:58.999Z</time></trkpt><trkpt lat="45.72848424462852" lon="11.387701834570533"><ele>195.0</ele><time>2026-05-02T11:26:59.999Z</time></trkpt><trkpt lat="45.72870284780186" lon="11.38768967884537"><ele>195.0</ele><time>2026-05-02T11:27:00.999Z</time></trkpt><trkpt lat="45.72891792782093" lon="11.387677236957098"><ele>195.33333333333331</ele><time>2026-05-02T11:27:01.999Z</time></trkpt><trkpt lat="45.729133796169414" lon="11.387664147814862"><ele>195.66666666666666</ele><time>2026-05-02T11:27:02.999Z</time></trkpt><trkpt lat="45.72934186606875" lon="11.387652342884556"><ele>196.0</ele><time>2026-05-02T11:27:03.999Z</time></trkpt><trkpt lat="45.72954903693426" lon="11.38764258131747"><ele>196.66666666666666</ele><time>2026-05-02T11:27:04.999Z</time></trkpt><trkpt lat="45.72974606612481" lon="11.387630343519042"><ele>197.33333333333331</ele><time>2026-05-02T11:27:05.999Z</time></trkpt><trkpt lat="45.72994026707336" lon="11.387620328736196"><ele>198.0</ele><time>2026-05-02T11:27:06.999Z</time></trkpt><trkpt lat="45.73013686490909" lon="11.387603349262594"><ele>198.33333333333331</ele><time>2026-05-02T11:27:07.999Z</time></trkpt><trkpt lat="45.73032945281741" lon="11.38757710406972"><ele>198.66666666666666</ele><time>2026-05-02T11:27:08.999Z</time></trkpt><trkpt lat="45.730521322260294" lon="11.38754300424902"><ele>199.0</ele><time>2026-05-02T11:27:09.999Z</time></trkpt><trkpt lat="45.73070888124869" lon="11.387501194133785"><ele>199.0</ele><time>2026-05-02T11:27:10.999Z</time></trkpt><trkpt lat="45.73087889593622" lon="11.38744826593583"><ele>199.0</ele><time>2026-05-02T11:27:11.999Z</time></trkpt><trkpt lat="45.73104007451459" lon="11.387392644953266"><ele>199.0</ele><time>2026-05-02T11:27:12.999Z</time></trkpt><trkpt lat="45.73118837554949" lon="11.387335899588342"><ele>199.25</ele><time>2026-05-02T11:27:13.999Z</time></trkpt><trkpt lat="45.731323859491454" lon="11.387281191718882"><ele>199.5</ele><time>2026-05-02T11:27:14.999Z</time></trkpt><trkpt lat="45.731442988518765" lon="11.387229890089792"><ele>199.75</ele><time>2026-05-02T11:27:15.999Z</time></trkpt><trkpt lat="45.73155734398398" lon="11.387185470819848"><ele>200.0</ele><time>2026-05-02T11:27:16.999Z</time></trkpt><trkpt lat="45.73166446012591" lon="11.387141650814504"><ele>200.33333333333334</ele><time>2026-05-02T11:27:17.999Z</time></trkpt><trkpt lat="45.73175129131983" lon="11.38710271226435"><ele>200.66666666666669</ele><time>2026-05-02T11:27:18.999Z</time></trkpt><trkpt lat="45.731831897286526" lon="11.387066527069262"><ele>201.0</ele><time>2026-05-02T11:27:19.999Z</time></trkpt><trkpt lat="45.73190121542604" lon="11.38703683729807"><ele>201.33333333333331</ele><time>2026-05-02T11:27:20.999Z</time></trkpt><trkpt lat="45.73199704380571" lon="11.386993659175072"><ele>201.66666666666666</ele><time>2026-05-02T11:27:22.999Z</time></trkpt><trkpt lat="45.73206928424425" lon="11.386927646464883"><ele>202.0</ele><time>2026-05-02T11:28:15Z</time></trkpt><trkpt lat="45.732179962834756" lon="11.386920290097928"><ele>202.16666666666666</ele><time>2026-05-02T11:28:17Z</time></trkpt><trkpt lat="45.732250129509524" lon="11.386934572547597"><ele>202.33333333333331</ele><time>2026-05-02T11:28:18Z</time></trkpt><trkpt lat="45.73231779909008" lon="11.386974178981545"><ele>202.5</ele><time>2026-05-02T11:28:19Z</time></trkpt><trkpt lat="45.73238247422526" lon="11.387035098280855"><ele>202.66666666666669</ele><time>2026-05-02T11:28:20Z</time></trkpt><trkpt lat="45.73241720062068" lon="11.387148541359057"><ele>202.83333333333334</ele><time>2026-05-02T11:28:21Z</time></trkpt><trkpt lat="45.73244827308534" lon="11.387287272827184"><ele>203.0</ele><time>2026-05-02T11:28:22Z</time></trkpt><trkpt lat="45.732481019137836" lon="11.387442356433612"><ele>203.0</ele><time>2026-05-02T11:28:23Z</time></trkpt><trkpt lat="45.732521153641805" lon="11.387608843691325"><ele>203.0</ele><time>2026-05-02T11:28:24Z</time></trkpt><trkpt lat="45.73257489924811" lon="11.38780079589549"><ele>203.0</ele><time>2026-05-02T11:28:25Z</time></trkpt><trkpt lat="45.7326226672647" lon="11.38800173692091"><ele>203.0</ele><time>2026-05-02T11:28:26Z</time></trkpt><trkpt lat="45.73267352664092" lon="11.388218955060653"><ele>203.33333333333334</ele><time>2026-05-02T11:28:27Z</time></trkpt><trkpt lat="45.73273299489193" lon="11.388449598980364"><ele>203.66666666666669</ele><time>2026-05-02T11:28:28Z</time></trkpt><trkpt lat="45.73279780832851" lon="11.388698305422364"><ele>204.0</ele><time>2026-05-02T11:28:29Z</time></trkpt><trkpt lat="45.73286741170514" lon="11.38895692898023"><ele>204.0</ele><time>2026-05-02T11:28:30Z</time></trkpt><trkpt lat="45.732939958181284" lon="11.389229076447693"><ele>204.0</ele><time>2026-05-02T11:28:31Z</time></trkpt><trkpt lat="45.73301077758791" lon="11.3895078113606"><ele>204.0</ele><time>2026-05-02T11:28:32Z</time></trkpt><trkpt lat="45.7330836993038" lon="11.389794726181272"><ele>204.66666666666669</ele><time>2026-05-02T11:28:33Z</time></trkpt><trkpt lat="45.733157896544654" lon="11.390089306310296"><ele>205.33333333333334</ele><time>2026-05-02T11:28:34Z</time></trkpt><trkpt lat="45.73323559188533" lon="11.390390505924877"><ele>206.0</ele><time>2026-05-02T11:28:35Z</time></trkpt><trkpt lat="45.73331693345359" lon="11.390696477053917"><ele>204.0</ele><time>2026-05-02T11:28:36Z</time></trkpt><trkpt lat="45.73339819280639" lon="11.391006653713399"><ele>202.0</ele><time>2026-05-02T11:28:37Z</time></trkpt><trkpt lat="45.73347866775484" lon="11.391321524558395"><ele>205.5</ele><time>2026-05-02T11:28:38Z</time></trkpt><trkpt lat="45.73355860204098" lon="11.391631966539626"><ele>209.0</ele><time>2026-05-02T11:28:39Z</time></trkpt><trkpt lat="45.733642089455145" lon="11.39193898367375"><ele>208.66666666666669</ele><time>2026-05-02T11:28:40Z</time></trkpt><trkpt lat="45.7337163361525" lon="11.392238820115818"><ele>208.33333333333331</ele><time>2026-05-02T11:28:41Z</time></trkpt><trkpt lat="45.73379626773239" lon="11.392541482783262"><ele>208.0</ele><time>2026-05-02T11:28:42Z</time></trkpt><trkpt lat="45.733875421227935" lon="11.392845926104146"><ele>204.5</ele><time>2026-05-02T11:28:43Z</time></trkpt><trkpt lat="45.733955286488545" lon="11.393156177839067"><ele>201.0</ele><time>2026-05-02T11:28:44Z</time></trkpt><trkpt lat="45.73403467082151" lon="11.393468200987613"><ele>201.0</ele><time>2026-05-02T11:28:45Z</time></trkpt><trkpt lat="45.734114734952215" lon="11.393779891906242"><ele>201.0</ele><time>2026-05-02T11:28:46Z</time></trkpt><trkpt lat="45.73419911635303" lon="11.394094539145954"><ele>199.5</ele><time>2026-05-02T11:28:47Z</time></trkpt><trkpt lat="45.734285205199534" lon="11.394411685750562"><ele>198.0</ele><time>2026-05-02T11:28:48Z</time></trkpt><trkpt lat="45.73434772188958" lon="11.394739849023951"><ele>195.5</ele><time>2026-05-02T11:28:49Z</time></trkpt><trkpt lat="45.73443011252516" lon="11.395058894825906"><ele>193.0</ele><time>2026-05-02T11:28:50Z</time></trkpt><trkpt lat="45.73451292025586" lon="11.395379643169607"><ele>193.5</ele><time>2026-05-02T11:28:51Z</time></trkpt><trkpt lat="45.734598654242745" lon="11.395711726084231"><ele>194.0</ele><time>2026-05-02T11:28:52Z</time></trkpt><trkpt lat="45.73468214431578" lon="11.396035117441642"><ele>193.5</ele><time>2026-05-02T11:28:53Z</time></trkpt><trkpt lat="45.73476467609175" lon="11.396356941246388"><ele>193.0</ele><time>2026-05-02T11:28:53.999Z</time></trkpt><trkpt lat="45.734845523323045" lon="11.396672947109941"><ele>193.0</ele><time>2026-05-02T11:28:54.999Z</time></trkpt><trkpt lat="45.73492351680367" lon="11.396981456594824"><ele>193.0</ele><time>2026-05-02T11:28:55.999Z</time></trkpt><trkpt lat="45.73500072422069" lon="11.397287563139592"><ele>192.66666666666666</ele><time>2026-05-02T11:28:56.999Z</time></trkpt><trkpt lat="45.7350869083841" lon="11.397576722372776"><ele>192.33333333333331</ele><time>2026-05-02T11:28:57.999Z</time></trkpt><trkpt lat="45.73516452301205" lon="11.397876596734783"><ele>192.0</ele><time>2026-05-02T11:28:58.999Z</time></trkpt><trkpt lat="45.735241502831" lon="11.398171562370557"><ele>193.33333333333331</ele><time>2026-05-02T11:28:59.999Z</time></trkpt><trkpt lat="45.7353153384057" lon="11.398465676170451"><ele>194.66666666666666</ele><time>2026-05-02T11:29:00.999Z</time></trkpt><trkpt lat="45.73538771453626" lon="11.398763715176342"><ele>196.0</ele><time>2026-05-02T11:29:01.999Z</time></trkpt><trkpt lat="45.73546281183494" lon="11.399063293838825"><ele>196.0</ele><time>2026-05-02T11:29:02.999Z</time></trkpt><trkpt lat="45.73554109789345" lon="11.399369494470596"><ele>196.0</ele><time>2026-05-02T11:29:03.999Z</time></trkpt><trkpt lat="45.73562232917519" lon="11.399683341125964"><ele>195.0</ele><time>2026-05-02T11:29:04.999Z</time></trkpt><trkpt lat="45.7357015323839" lon="11.399993693773345"><ele>194.0</ele><time>2026-05-02T11:29:05.999Z</time></trkpt><trkpt lat="45.73578278618663" lon="11.40030783366453"><ele>192.66666666666669</ele><time>2026-05-02T11:29:06.999Z</time></trkpt><trkpt lat="45.735859841116586" lon="11.400608842814838"><ele>191.33333333333334</ele><time>2026-05-02T11:29:07.999Z</time></trkpt><trkpt lat="45.73594040929224" lon="11.40090255354908"><ele>190.0</ele><time>2026-05-02T11:29:08.999Z</time></trkpt><trkpt lat="45.73602292761326" lon="11.401180151932136"><ele>191.0</ele><time>2026-05-02T11:29:09.999Z</time></trkpt><trkpt lat="45.73609081778005" lon="11.4014352462456"><ele>192.0</ele><time>2026-05-02T11:29:10.999Z</time></trkpt><trkpt lat="45.73614998190445" lon="11.401715485584017"><ele>193.0</ele><time>2026-05-02T11:29:11.999Z</time></trkpt><trkpt lat="45.73622413629429" lon="11.401938723725628"><ele>193.0</ele><time>2026-05-02T11:29:12.999Z</time></trkpt><trkpt lat="45.73628185552885" lon="11.402156830900285"><ele>193.0</ele><time>2026-05-02T11:29:13.999Z</time></trkpt><trkpt lat="45.73633388861303" lon="11.402355644117252"><ele>193.0</ele><time>2026-05-02T11:29:14.999Z</time></trkpt><trkpt lat="45.736380848626055" lon="11.402539241003103"><ele>193.0</ele><time>2026-05-02T11:29:15.999Z</time></trkpt><trkpt lat="45.73642812948453" lon="11.402709136607076"><ele>192.5</ele><time>2026-05-02T11:29:16.999Z</time></trkpt><trkpt lat="45.73646918388462" lon="11.40286566161342"><ele>192.0</ele><time>2026-05-02T11:29:17.999Z</time></trkpt><trkpt lat="45.73649423401493" lon="11.403029136476142"><ele>191.5</ele><time>2026-05-02T11:29:18.999Z</time></trkpt><trkpt lat="45.73648201579956" lon="11.403201484947633"><ele>191.0</ele><time>2026-05-02T11:29:19.999Z</time></trkpt><trkpt lat="45.73643238093396" lon="11.403381427843417"><ele>191.0</ele><time>2026-05-02T11:29:20.999Z</time></trkpt><trkpt lat="45.73635962181477" lon="11.403557202764304"><ele>191.0</ele><time>2026-05-02T11:29:21.999Z</time></trkpt><trkpt lat="45.73629726456217" lon="11.40371877414979"><ele>191.0</ele><time>2026-05-02T11:29:22.999Z</time></trkpt><trkpt lat="45.73626214072866" lon="11.403878557367486"><ele>191.0</ele><time>2026-05-02T11:29:23.999Z</time></trkpt><trkpt lat="45.73625542525917" lon="11.404033567880397"><ele>191.20000000000002</ele><time>2026-05-02T11:29:24.999Z</time></trkpt><trkpt lat="45.73626967190717" lon="11.404165902088971"><ele>191.4</ele><time>2026-05-02T11:29:25.999Z</time></trkpt><trkpt lat="45.73629118242337" lon="11.404287364658021"><ele>191.6</ele><time>2026-05-02T11:29:26.999Z</time></trkpt><trkpt lat="45.73630579779409" lon="11.404422284572071"><ele>191.8</ele><time>2026-05-02T11:29:27.999Z</time></trkpt><trkpt lat="45.73633823644072" lon="11.404552858279699"><ele>192.0</ele><time>2026-05-02T11:29:28.999Z</time></trkpt><trkpt lat="45.736402119167224" lon="11.40466340910211"><ele>192.25</ele><time>2026-05-02T11:29:29.999Z</time></trkpt><trkpt lat="45.73649340812174" lon="11.40473263275579"><ele>192.5</ele><time>2026-05-02T11:29:30.999Z</time></trkpt><trkpt lat="45.736607263416694" lon="11.404754738581776"><ele>192.75</ele><time>2026-05-02T11:29:31.999Z</time></trkpt><trkpt lat="45.73672305862946" lon="11.40474304253614"><ele>193.0</ele><time>2026-05-02T11:29:32.999Z</time></trkpt><trkpt lat="45.736842312879766" lon="11.404750679836761"><ele>195.0</ele><time>2026-05-02T11:29:33.999Z</time></trkpt><trkpt lat="45.73695807127233" lon="11.404825594571765"><ele>197.0</ele><time>2026-05-02T11:29:34.999Z</time></trkpt><trkpt lat="45.73703207883957" lon="11.404952281604892"><ele>199.0</ele><time>2026-05-02T11:29:35.999Z</time></trkpt><trkpt lat="45.73707984869857" lon="11.405105242135317"><ele>201.0</ele><time>2026-05-02T11:29:36.999Z</time></trkpt><trkpt lat="45.73712434605182" lon="11.405279747273859"><ele>201.0</ele><time>2026-05-02T11:29:37.999Z</time></trkpt><trkpt lat="45.73717298425601" lon="11.405465792231189"><ele>201.0</ele><time>2026-05-02T11:29:38.999Z</time></trkpt><trkpt lat="45.73722428161067" lon="11.405658715874482"><ele>201.0</ele><time>2026-05-02T11:29:39.999Z</time></trkpt><trkpt lat="45.73728197114812" lon="11.405863873546268"><ele>201.0</ele><time>2026-05-02T11:29:40.999Z</time></trkpt><trkpt lat="45.73733840404185" lon="11.406066019249538"><ele>200.66666666666669</ele><time>2026-05-02T11:29:41.999Z</time></trkpt><trkpt lat="45.73740000878682" lon="11.406287273303569"><ele>200.33333333333334</ele><time>2026-05-02T11:29:42.999Z</time></trkpt><trkpt lat="45.73746419006206" lon="11.40651651265574"><ele>200.0</ele><time>2026-05-02T11:29:43.999Z</time></trkpt><trkpt lat="45.73752594687329" lon="11.406739050388845"><ele>200.0</ele><time>2026-05-02T11:29:44.999Z</time></trkpt><trkpt lat="45.737584752866574" lon="11.40696074921134"><ele>200.0</ele><time>2026-05-02T11:29:45.999Z</time></trkpt><trkpt lat="45.737641773367685" lon="11.407177863976262"><ele>200.0</ele><time>2026-05-02T11:29:46.999Z</time></trkpt><trkpt lat="45.73770133784172" lon="11.407394113307005"><ele>201.0</ele><time>2026-05-02T11:29:47.999Z</time></trkpt><trkpt lat="45.73775994151555" lon="11.407604533963447"><ele>202.0</ele><time>2026-05-02T11:29:48.999Z</time></trkpt><trkpt lat="45.73781687221388" lon="11.407818589074472"><ele>203.0</ele><time>2026-05-02T11:29:49.999Z</time></trkpt><trkpt lat="45.73787048188155" lon="11.408028815278724"><ele>203.0</ele><time>2026-05-02T11:29:50.999Z</time></trkpt><trkpt lat="45.73792582275579" lon="11.408237743429698"><ele>203.0</ele><time>2026-05-02T11:29:51.999Z</time></trkpt><trkpt lat="45.737987540707856" lon="11.408452478367398"><ele>203.0</ele><time>2026-05-02T11:29:52.999Z</time></trkpt><trkpt lat="45.73805529799927" lon="11.40867765740211"><ele>202.33333333333334</ele><time>2026-05-02T11:29:53.999Z</time></trkpt><trkpt lat="45.73813339850503" lon="11.408898007453374"><ele>201.66666666666669</ele><time>2026-05-02T11:29:54.999Z</time></trkpt><trkpt lat="45.73822393283821" lon="11.409115574950748"><ele>201.0</ele><time>2026-05-02T11:29:55.999Z</time></trkpt><trkpt lat="45.738327552416806" lon="11.409327897382623"><ele>201.0</ele><time>2026-05-02T11:29:56.999Z</time></trkpt><trkpt lat="45.73843437222194" lon="11.409528594021658"><ele>201.0</ele><time>2026-05-02T11:29:57.999Z</time></trkpt><trkpt lat="45.73854098676595" lon="11.409732602328356"><ele>201.0</ele><time>2026-05-02T11:29:58.999Z</time></trkpt><trkpt lat="45.738643989821234" lon="11.409931873220847"><ele>201.33333333333331</ele><time>2026-05-02T11:29:59.998Z</time></trkpt><trkpt lat="45.738750668656785" lon="11.4101334959583"><ele>201.66666666666666</ele><time>2026-05-02T11:30:00.998Z</time></trkpt><trkpt lat="45.738859254142945" lon="11.410339575519663"><ele>202.0</ele><time>2026-05-02T11:30:01.998Z</time></trkpt><trkpt lat="45.738966279698296" lon="11.410548496998281"><ele>202.0</ele><time>2026-05-02T11:30:02.998Z</time></trkpt><trkpt lat="45.739081486085894" lon="11.410751777475053"><ele>202.0</ele><time>2026-05-02T11:30:03.998Z</time></trkpt><trkpt lat="45.739202578035645" lon="11.410978297136454"><ele>202.0</ele><time>2026-05-02T11:30:04.998Z</time></trkpt><trkpt lat="45.739330375784995" lon="11.411219263361215"><ele>202.66666666666666</ele><time>2026-05-02T11:30:05.998Z</time></trkpt><trkpt lat="45.73946363124435" lon="11.411472950849134"><ele>203.33333333333331</ele><time>2026-05-02T11:30:06.998Z</time></trkpt><trkpt lat="45.73959798793121" lon="11.411727787432504"><ele>204.0</ele><time>2026-05-02T11:30:07.998Z</time></trkpt><trkpt lat="45.73973036159956" lon="11.411985437823901"><ele>203.0</ele><time>2026-05-02T11:30:09Z</time></trkpt><trkpt lat="45.739864445161366" lon="11.412248814890102"><ele>202.0</ele><time>2026-05-02T11:30:10Z</time></trkpt><trkpt lat="45.740002995498585" lon="11.41251907163322"><ele>202.0</ele><time>2026-05-02T11:30:11Z</time></trkpt><trkpt lat="45.740145147473655" lon="11.412786614666304"><ele>202.0</ele><time>2026-05-02T11:30:12Z</time></trkpt><trkpt lat="45.74028091063563" lon="11.413047016375824"><ele>203.0</ele><time>2026-05-02T11:30:13Z</time></trkpt><trkpt lat="45.74041783809716" lon="11.413311535595907"><ele>204.0</ele><time>2026-05-02T11:30:14Z</time></trkpt><trkpt lat="45.74056281610617" lon="11.413581748219658"><ele>205.0</ele><time>2026-05-02T11:30:15Z</time></trkpt><trkpt lat="45.74070968472807" lon="11.413857111115655"><ele>206.0</ele><time>2026-05-02T11:30:16Z</time></trkpt><trkpt lat="45.74085195593753" lon="11.414141790916787"><ele>206.0</ele><time>2026-05-02T11:30:17Z</time></trkpt><trkpt lat="45.74099553964603" lon="11.414429930737754"><ele>206.0</ele><time>2026-05-02T11:30:18Z</time></trkpt><trkpt lat="45.74114181380498" lon="11.414716170909394"><ele>206.0</ele><time>2026-05-02T11:30:19Z</time></trkpt><trkpt lat="45.74128489388938" lon="11.41499658174183"><ele>206.0</ele><time>2026-05-02T11:30:20Z</time></trkpt><trkpt lat="45.74142690176353" lon="11.415269933836456"><ele>207.0</ele><time>2026-05-02T11:30:21Z</time></trkpt><trkpt lat="45.74156479379707" lon="11.41553425181093"><ele>208.0</ele><time>2026-05-02T11:30:22Z</time></trkpt><trkpt lat="45.741698091289045" lon="11.415788617020825"><ele>208.0</ele><time>2026-05-02T11:30:23Z</time></trkpt><trkpt lat="45.74182462103149" lon="11.416032473003234"><ele>208.0</ele><time>2026-05-02T11:30:24Z</time></trkpt><trkpt lat="45.741941198706215" lon="11.416259964948159"><ele>208.0</ele><time>2026-05-02T11:30:25Z</time></trkpt><trkpt lat="45.74203956898599" lon="11.416482948699526"><ele>208.33333333333331</ele><time>2026-05-02T11:30:26Z</time></trkpt><trkpt lat="45.74212832203205" lon="11.416686038399657"><ele>208.66666666666669</ele><time>2026-05-02T11:30:27Z</time></trkpt><trkpt lat="45.742299270466745" lon="11.416955675963274"><ele>209.0</ele><time>2026-05-02T11:30:28Z</time></trkpt><trkpt lat="45.74241744843262" lon="11.417175514202462"><ele>209.0</ele><time>2026-05-02T11:30:29Z</time></trkpt><trkpt lat="45.742523793056016" lon="11.417376936184809"><ele>209.0</ele><time>2026-05-02T11:30:30Z</time></trkpt><trkpt lat="45.74262971242423" lon="11.417574869880056"><ele>209.0</ele><time>2026-05-02T11:30:31Z</time></trkpt><trkpt lat="45.742726783321245" lon="11.417763492514604"><ele>210.33333333333334</ele><time>2026-05-02T11:30:32Z</time></trkpt><trkpt lat="45.742822753998176" lon="11.417951056788887"><ele>211.66666666666669</ele><time>2026-05-02T11:30:33Z</time></trkpt><trkpt lat="45.742913751926515" lon="11.418128930113383"><ele>213.0</ele><time>2026-05-02T11:30:34Z</time></trkpt><trkpt lat="45.743003343819474" lon="11.418294646073992"><ele>213.5</ele><time>2026-05-02T11:30:35Z</time></trkpt><trkpt lat="45.743091213940595" lon="11.41846193689814"><ele>214.0</ele><time>2026-05-02T11:30:36Z</time></trkpt><trkpt lat="45.74317971816658" lon="11.418633488083545"><ele>214.5</ele><time>2026-05-02T11:30:37Z</time></trkpt><trkpt lat="45.74327059024" lon="11.418809030336057"><ele>215.0</ele><time>2026-05-02T11:30:38Z</time></trkpt><trkpt lat="45.74336036576996" lon="11.418981522611551"><ele>215.25</ele><time>2026-05-02T11:30:39Z</time></trkpt><trkpt lat="45.74345027405038" lon="11.419151943563143"><ele>215.5</ele><time>2026-05-02T11:30:40Z</time></trkpt><trkpt lat="45.743537494619716" lon="11.41932302479733"><ele>215.75</ele><time>2026-05-02T11:30:41Z</time></trkpt><trkpt lat="45.743624563608506" lon="11.419490870089772"><ele>216.0</ele><time>2026-05-02T11:30:42Z</time></trkpt><trkpt lat="45.74371232628097" lon="11.419650690550688"><ele>216.5</ele><time>2026-05-02T11:30:43Z</time></trkpt><trkpt lat="45.743797416484945" lon="11.41980633636385"><ele>217.0</ele><time>2026-05-02T11:30:44Z</time></trkpt><trkpt lat="45.743877098513714" lon="11.419957620484944"><ele>217.5</ele><time>2026-05-02T11:30:45Z</time></trkpt><trkpt lat="45.74395770922866" lon="11.420114653602614"><ele>218.0</ele><time>2026-05-02T11:30:46Z</time></trkpt><trkpt lat="45.74404026186871" lon="11.420279843884305"><ele>218.0</ele><time>2026-05-02T11:30:47Z</time></trkpt><trkpt lat="45.744127788683414" lon="11.420447881918813"><ele>218.0</ele><time>2026-05-02T11:30:48Z</time></trkpt><trkpt lat="45.74421284867224" lon="11.420610637626508"><ele>218.0</ele><time>2026-05-02T11:30:49Z</time></trkpt><trkpt lat="45.74429107605514" lon="11.420763324315656"><ele>218.0</ele><time>2026-05-02T11:30:50Z</time></trkpt><trkpt lat="45.74436465948691" lon="11.420902712623775"><ele>218.25</ele><time>2026-05-02T11:30:51Z</time></trkpt><trkpt lat="45.74443449709376" lon="11.421038579676416"><ele>218.5</ele><time>2026-05-02T11:30:52Z</time></trkpt><trkpt lat="45.74451072633885" lon="11.421184169029036"><ele>218.75</ele><time>2026-05-02T11:30:53Z</time></trkpt><trkpt lat="45.74458833021513" lon="11.421334756960213"><ele>219.0</ele><time>2026-05-02T11:30:53.999Z</time></trkpt><trkpt lat="45.74466335804667" lon="11.421477512383104"><ele>219.0</ele><time>2026-05-02T11:30:54.999Z</time></trkpt><trkpt lat="45.74473622457028" lon="11.421601276625113"><ele>219.0</ele><time>2026-05-02T11:30:55.999Z</time></trkpt><trkpt lat="45.74482493755667" lon="11.421733907748706"><ele>219.0</ele><time>2026-05-02T11:30:56.999Z</time></trkpt><trkpt lat="45.744924656723626" lon="11.421867460436523"><ele>219.0</ele><time>2026-05-02T11:30:57.999Z</time></trkpt><trkpt lat="45.7450359512663" lon="11.421993160626"><ele>219.0</ele><time>2026-05-02T11:30:58.999Z</time></trkpt><trkpt lat="45.745147148274185" lon="11.422118096075602"><ele>219.0</ele><time>2026-05-02T11:30:59.999Z</time></trkpt><trkpt lat="45.74525562682807" lon="11.422235427378292"><ele>219.0</ele><time>2026-05-02T11:31:00.999Z</time></trkpt><trkpt lat="45.745368129760834" lon="11.422353029583277"><ele>219.0</ele><time>2026-05-02T11:31:01.999Z</time></trkpt><trkpt lat="45.74547533544599" lon="11.422469094892318"><ele>220.0</ele><time>2026-05-02T11:31:02.999Z</time></trkpt><trkpt lat="45.74558114083972" lon="11.422587684174255"><ele>221.0</ele><time>2026-05-02T11:31:03.999Z</time></trkpt><trkpt lat="45.745685629789214" lon="11.422706343310066"><ele>222.0</ele><time>2026-05-02T11:31:04.999Z</time></trkpt><trkpt lat="45.74579076238456" lon="11.42282551075944"><ele>223.0</ele><time>2026-05-02T11:31:05.999Z</time></trkpt><trkpt lat="45.74589641906263" lon="11.422941901117952"><ele>223.75</ele><time>2026-05-02T11:31:06.999Z</time></trkpt><trkpt lat="45.74599908858073" lon="11.423055128954694"><ele>224.5</ele><time>2026-05-02T11:31:07.999Z</time></trkpt><trkpt lat="45.74609792711903" lon="11.423165379971538"><ele>225.25</ele><time>2026-05-02T11:31:08.999Z</time></trkpt><trkpt lat="45.746194081914894" lon="11.423275143460653"><ele>226.0</ele><time>2026-05-02T11:31:09.999Z</time></trkpt><trkpt lat="45.74628900163376" lon="11.423386016667415"><ele>226.25</ele><time>2026-05-02T11:31:10.999Z</time></trkpt><trkpt lat="45.74638779999664" lon="11.423498267525511"><ele>226.5</ele><time>2026-05-02T11:31:11.999Z</time></trkpt><trkpt lat="45.7464907286533" lon="11.423611391127062"><ele>226.75</ele><time>2026-05-02T11:31:12.999Z</time></trkpt><trkpt lat="45.7465933279097" lon="11.423720562825075"><ele>227.0</ele><time>2026-05-02T11:31:13.999Z</time></trkpt><trkpt lat="45.74669801169003" lon="11.42383145514929"><ele>227.0</ele><time>2026-05-02T11:31:14.999Z</time></trkpt><trkpt lat="45.74679963021532" lon="11.423941728073185"><ele>227.0</ele><time>2026-05-02T11:31:15.999Z</time></trkpt><trkpt lat="45.74689431620481" lon="11.42403998708202"><ele>227.0</ele><time>2026-05-02T11:31:16.999Z</time></trkpt><trkpt lat="45.74697584246592" lon="11.424161815774529"><ele>227.0</ele><time>2026-05-02T11:31:17.999Z</time></trkpt><trkpt lat="45.74706680133727" lon="11.424264036503132"><ele>227.00000000000003</ele><time>2026-05-02T11:31:18.999Z</time></trkpt><trkpt lat="45.74715727681613" lon="11.424365275113113"><ele>227.0</ele><time>2026-05-02T11:31:19.999Z</time></trkpt><trkpt lat="45.74724135790912" lon="11.424458233478335"><ele>227.0</ele><time>2026-05-02T11:31:20.999Z</time></trkpt><trkpt lat="45.747310308163065" lon="11.424533611000859"><ele>227.0</ele><time>2026-05-02T11:31:21.999Z</time></trkpt><trkpt lat="45.747363455969634" lon="11.42459171303618"><ele>227.00000000000003</ele><time>2026-05-02T11:31:22.999Z</time></trkpt><trkpt lat="45.74741885842425" lon="11.424652806756848"><ele>227.0</ele><time>2026-05-02T11:31:24.999Z</time></trkpt><trkpt lat="45.74750751477651" lon="11.424754893526908"><ele>227.0</ele><time>2026-05-02T11:31:44.999Z</time></trkpt><trkpt lat="45.747568806872756" lon="11.424829834051334"><ele>227.0</ele><time>2026-05-02T11:31:45.999Z</time></trkpt><trkpt lat="45.74764726146037" lon="11.424911060790548"><ele>227.0</ele><time>2026-05-02T11:31:46.999Z</time></trkpt><trkpt lat="45.74772381982649" lon="11.425001082146027"><ele>227.0</ele><time>2026-05-02T11:31:47.999Z</time></trkpt><trkpt lat="45.74781634007204" lon="11.425096176946017"><ele>227.0</ele><time>2026-05-02T11:31:48.999Z</time></trkpt><trkpt lat="45.74793075089521" lon="11.425210056729439"><ele>227.0</ele><time>2026-05-02T11:31:49.999Z</time></trkpt><trkpt lat="45.748039456572656" lon="11.425325456777054"><ele>227.0</ele><time>2026-05-02T11:31:50.999Z</time></trkpt><trkpt lat="45.7481899057938" lon="11.425493984390254"><ele>227.0</ele><time>2026-05-02T11:31:51.999Z</time></trkpt><trkpt lat="45.748346632765475" lon="11.425682067842063"><ele>228.0</ele><time>2026-05-02T11:31:52.999Z</time></trkpt><trkpt lat="45.74851931625519" lon="11.42587865014705"><ele>229.0</ele><time>2026-05-02T11:31:53.999Z</time></trkpt><trkpt lat="45.748704340979586" lon="11.426087631031825"><ele>230.5</ele><time>2026-05-02T11:31:54.999Z</time></trkpt><trkpt lat="45.74889854987878" lon="11.426308163850242"><ele>232.0</ele><time>2026-05-02T11:31:55.999Z</time></trkpt><trkpt lat="45.749089092402826" lon="11.426523249103617"><ele>233.0</ele><time>2026-05-02T11:31:56.999Z</time></trkpt><trkpt lat="45.74927632719182" lon="11.426735764924613"><ele>234.0</ele><time>2026-05-02T11:31:57.999Z</time></trkpt><trkpt lat="45.74945799920232" lon="11.426937611347897"><ele>234.33333333333331</ele><time>2026-05-02T11:31:58.999Z</time></trkpt><trkpt lat="45.749634795129154" lon="11.427134572909479"><ele>234.66666666666666</ele><time>2026-05-02T11:31:59.999Z</time></trkpt><trkpt lat="45.74980895400142" lon="11.427322545993805"><ele>235.0</ele><time>2026-05-02T11:32:00.998Z</time></trkpt><trkpt lat="45.7499773458992" lon="11.427514382623182"><ele>235.33333333333331</ele><time>2026-05-02T11:32:01.998Z</time></trkpt><trkpt lat="45.75014736014894" lon="11.427696553027653"><ele>235.66666666666669</ele><time>2026-05-02T11:32:02.998Z</time></trkpt><trkpt lat="45.75031593548179" lon="11.427875769396913"><ele>236.0</ele><time>2026-05-02T11:32:03.998Z</time></trkpt><trkpt lat="45.750475954454984" lon="11.428045479100154"><ele>237.33333333333334</ele><time>2026-05-02T11:32:04.998Z</time></trkpt><trkpt lat="45.75062221600383" lon="11.42821088310489"><ele>238.66666666666669</ele><time>2026-05-02T11:32:05.998Z</time></trkpt><trkpt lat="45.75075740385366" lon="11.428368066155354"><ele>240.0</ele><time>2026-05-02T11:32:06.998Z</time></trkpt><trkpt lat="45.75088816997404" lon="11.428505714347834"><ele>240.0</ele><time>2026-05-02T11:32:07.998Z</time></trkpt><trkpt lat="45.75100948147782" lon="11.428609899276177"><ele>240.0</ele><time>2026-05-02T11:32:08.998Z</time></trkpt><trkpt lat="45.75112666242571" lon="11.428697184355377"><ele>240.0</ele><time>2026-05-02T11:32:09.998Z</time></trkpt><trkpt lat="45.75123363597341" lon="11.428762292963377"><ele>240.0</ele><time>2026-05-02T11:32:10.998Z</time></trkpt><trkpt lat="45.751311682195116" lon="11.428816121611609"><ele>240.66666666666666</ele><time>2026-05-02T11:32:11.998Z</time></trkpt><trkpt lat="45.75134012125608" lon="11.428904411423277"><ele>241.33333333333331</ele><time>2026-05-02T11:32:12.998Z</time></trkpt><trkpt lat="45.75136657383449" lon="11.42906641959771"><ele>242.0</ele><time>2026-05-02T11:32:16Z</time></trkpt><trkpt lat="45.751379051716114" lon="11.429168778929185"><ele>242.66666666666666</ele><time>2026-05-02T11:32:17Z</time></trkpt><trkpt lat="45.75139595076008" lon="11.429285686169978"><ele>243.33333333333331</ele><time>2026-05-02T11:32:18Z</time></trkpt><trkpt lat="45.75145168720368" lon="11.429394320234083"><ele>244.0</ele><time>2026-05-02T11:32:19Z</time></trkpt><trkpt lat="45.7515446031749" lon="11.429473913264614"><ele>244.0</ele><time>2026-05-02T11:32:20Z</time></trkpt><trkpt lat="45.75165449932568" lon="11.42954080422954"><ele>244.0</ele><time>2026-05-02T11:32:21Z</time></trkpt><trkpt lat="45.75177006853476" lon="11.429606368373713"><ele>244.0</ele><time>2026-05-02T11:32:22Z</time></trkpt><trkpt lat="45.75188307586641" lon="11.429689781415073"><ele>244.0</ele><time>2026-05-02T11:32:23Z</time></trkpt><trkpt lat="45.75201151689596" lon="11.429759482122035"><ele>244.75</ele><time>2026-05-02T11:32:24Z</time></trkpt><trkpt lat="45.752145201145474" lon="11.429828028349265"><ele>245.5</ele><time>2026-05-02T11:32:25Z</time></trkpt><trkpt lat="45.752279781539315" lon="11.429902930089392"><ele>246.25</ele><time>2026-05-02T11:32:26Z</time></trkpt><trkpt lat="45.75240529491144" lon="11.429957626292845"><ele>247.0</ele><time>2026-05-02T11:32:27Z</time></trkpt><trkpt lat="45.75250376998763" lon="11.430000194088137"><ele>246.99999999999997</ele><time>2026-05-02T11:32:28Z</time></trkpt><trkpt lat="45.752590350352634" lon="11.430002313394414"><ele>247.0</ele><time>2026-05-02T11:32:29Z</time></trkpt><trkpt lat="45.75264987251227" lon="11.429931541023906"><ele>247.0</ele><time>2026-05-02T11:32:30Z</time></trkpt><trkpt lat="45.75269760563466" lon="11.42982776316703"><ele>247.0</ele><time>2026-05-02T11:32:31Z</time></trkpt><trkpt lat="45.752738319961246" lon="11.429699238886158"><ele>246.99999999999997</ele><time>2026-05-02T11:32:32Z</time></trkpt><trkpt lat="45.752743995908276" lon="11.429571167870504"><ele>247.0</ele><time>2026-05-02T11:32:33Z</time></trkpt><trkpt lat="45.75274101286465" lon="11.42946155550331"><ele>247.49999999999997</ele><time>2026-05-02T11:32:34Z</time></trkpt><trkpt lat="45.75276230015285" lon="11.42936921290656"><ele>248.0</ele><time>2026-05-02T11:32:35Z</time></trkpt><trkpt lat="45.75282555502825" lon="11.429306721247428"><ele>248.5</ele><time>2026-05-02T11:32:36Z</time></trkpt><trkpt lat="45.752907195964454" lon="11.429299210656863"><ele>249.0</ele><time>2026-05-02T11:32:37Z</time></trkpt><trkpt lat="45.7529992532389" lon="11.429345758537934"><ele>249.49999999999997</ele><time>2026-05-02T11:32:38Z</time></trkpt><trkpt lat="45.75310072046863" lon="11.429391403956503"><ele>250.0</ele><time>2026-05-02T11:32:39Z</time></trkpt><trkpt lat="45.75321900477246" lon="11.429438514762282"><ele>250.0</ele><time>2026-05-02T11:32:40Z</time></trkpt><trkpt lat="45.75334537722017" lon="11.429483095992026"><ele>250.0</ele><time>2026-05-02T11:32:41Z</time></trkpt><trkpt lat="45.75348622240262" lon="11.429530617706884"><ele>250.0</ele><time>2026-05-02T11:32:42Z</time></trkpt><trkpt lat="45.75363206434033" lon="11.429579430424182"><ele>250.0</ele><time>2026-05-02T11:32:43Z</time></trkpt><trkpt lat="45.75378515706913" lon="11.42963191511737"><ele>250.66666666666666</ele><time>2026-05-02T11:32:44Z</time></trkpt><trkpt lat="45.7539322731646" lon="11.429696527051124"><ele>251.33333333333331</ele><time>2026-05-02T11:32:45Z</time></trkpt><trkpt lat="45.75409065428193" lon="11.429770326266716"><ele>252.0</ele><time>2026-05-02T11:32:46Z</time></trkpt><trkpt lat="45.75423198454206" lon="11.429861063532634"><ele>252.0</ele><time>2026-05-02T11:32:47Z</time></trkpt><trkpt lat="45.754361386762824" lon="11.42995727873596"><ele>252.0</ele><time>2026-05-02T11:32:48Z</time></trkpt><trkpt lat="45.754471849442865" lon="11.430053044641173"><ele>252.0</ele><time>2026-05-02T11:32:49Z</time></trkpt><trkpt lat="45.75456501125655" lon="11.430141836266111"><ele>252.0</ele><time>2026-05-02T11:32:50Z</time></trkpt><trkpt lat="45.754647868167375" lon="11.430232004264235"><ele>252.5</ele><time>2026-05-02T11:32:51Z</time></trkpt><trkpt lat="45.754720553943116" lon="11.430347083164778"><ele>253.0</ele><time>2026-05-02T11:32:52Z</time></trkpt><trkpt lat="45.75480376858687" lon="11.430460159958791"><ele>253.5</ele><time>2026-05-02T11:32:53Z</time></trkpt><trkpt lat="45.7548866591904" lon="11.430582296934508"><ele>254.0</ele><time>2026-05-02T11:32:54Z</time></trkpt><trkpt lat="45.75497224724751" lon="11.430708523020618"><ele>254.0</ele><time>2026-05-02T11:32:55Z</time></trkpt><trkpt lat="45.75506456084576" lon="11.43084328287751"><ele>254.0</ele><time>2026-05-02T11:32:56Z</time></trkpt><trkpt lat="45.75516120392778" lon="11.430983700771998"><ele>254.0</ele><time>2026-05-02T11:32:57Z</time></trkpt><trkpt lat="45.75525655431993" lon="11.43112224043739"><ele>254.0</ele><time>2026-05-02T11:32:57.999Z</time></trkpt><trkpt lat="45.75534758650004" lon="11.431254505781572"><ele>254.39999999999998</ele><time>2026-05-02T11:32:58.999Z</time></trkpt><trkpt lat="45.7554338725462" lon="11.431380041314197"><ele>254.79999999999998</ele><time>2026-05-02T11:32:59.999Z</time></trkpt><trkpt lat="45.75551489555785" lon="11.431497925718466"><ele>255.20000000000002</ele><time>2026-05-02T11:33:00.999Z</time></trkpt><trkpt lat="45.75559053089667" lon="11.431607971305903"><ele>255.60000000000002</ele><time>2026-05-02T11:33:01.999Z</time></trkpt><trkpt lat="45.755669175717856" lon="11.431689675186611"><ele>256.0</ele><time>2026-05-02T11:33:02.999Z</time></trkpt><trkpt lat="45.75573089508162" lon="11.431786552253648"><ele>255.99999999999997</ele><time>2026-05-02T11:33:03.999Z</time></trkpt><trkpt lat="45.75578878172262" lon="11.431865118179473"><ele>256.0</ele><time>2026-05-02T11:33:04.999Z</time></trkpt><trkpt lat="45.755833841191965" lon="11.43193786777039"><ele>256.0</ele><time>2026-05-02T11:33:05.999Z</time></trkpt><trkpt lat="45.75587355364397" lon="11.432019755182791"><ele>256.0</ele><time>2026-05-02T11:33:06.999Z</time></trkpt><trkpt lat="45.755937372125906" lon="11.432080630505286"><ele>255.99999999999997</ele><time>2026-05-02T11:33:07.999Z</time></trkpt><trkpt lat="45.75598594826936" lon="11.432183285404182"><ele>256.0</ele><time>2026-05-02T11:33:08.999Z</time></trkpt><trkpt lat="45.75605391975168" lon="11.432282180103329"><ele>256.40000000000003</ele><time>2026-05-02T11:33:09.999Z</time></trkpt><trkpt lat="45.75612663520629" lon="11.432389370576892"><ele>256.8</ele><time>2026-05-02T11:33:10.999Z</time></trkpt><trkpt lat="45.75621502319572" lon="11.432488099593689"><ele>257.20000000000005</ele><time>2026-05-02T11:33:11.999Z</time></trkpt><trkpt lat="45.756286431578786" lon="11.432613389669141"><ele>257.6</ele><time>2026-05-02T11:33:12.999Z</time></trkpt><trkpt lat="45.75636382666264" lon="11.43273112556864"><ele>258.0</ele><time>2026-05-02T11:33:13.999Z</time></trkpt><trkpt lat="45.75644197689767" lon="11.432857885705085"><ele>257.5</ele><time>2026-05-02T11:33:14.999Z</time></trkpt><trkpt lat="45.756522368415816" lon="11.432976985995408"><ele>257.0</ele><time>2026-05-02T11:33:15.999Z</time></trkpt><trkpt lat="45.75660441930232" lon="11.433083538999263"><ele>256.5</ele><time>2026-05-02T11:33:16.999Z</time></trkpt><trkpt lat="45.75668077581156" lon="11.433199560348395"><ele>256.0</ele><time>2026-05-02T11:33:17.999Z</time></trkpt><trkpt lat="45.756766866864204" lon="11.4333186485499"><ele>256.0</ele><time>2026-05-02T11:33:18.999Z</time></trkpt><trkpt lat="45.75685845401297" lon="11.433452712441667"><ele>256.0</ele><time>2026-05-02T11:33:19.999Z</time></trkpt><trkpt lat="45.7569476650039" lon="11.433579379967854"><ele>256.0</ele><time>2026-05-02T11:33:20.999Z</time></trkpt><trkpt lat="45.757035729189994" lon="11.433708385451444"><ele>256.0</ele><time>2026-05-02T11:33:21.999Z</time></trkpt><trkpt lat="45.75711753090932" lon="11.433829943606238"><ele>256.25</ele><time>2026-05-02T11:33:22.999Z</time></trkpt><trkpt lat="45.75720948913451" lon="11.433947458254385"><ele>256.5</ele><time>2026-05-02T11:33:23.999Z</time></trkpt><trkpt lat="45.75729469662179" lon="11.434074025160685"><ele>256.75</ele><time>2026-05-02T11:33:24.999Z</time></trkpt><trkpt lat="45.75737928061568" lon="11.434197592591207"><ele>257.0</ele><time>2026-05-02T11:33:25.999Z</time></trkpt><trkpt lat="45.75746785941803" lon="11.434324355252324"><ele>257.0</ele><time>2026-05-02T11:33:26.999Z</time></trkpt><trkpt lat="45.75756257161937" lon="11.43445412818909"><ele>257.0</ele><time>2026-05-02T11:33:27.999Z</time></trkpt><trkpt lat="45.75765565713663" lon="11.434581984700994"><ele>257.0</ele><time>2026-05-02T11:33:28.999Z</time></trkpt><trkpt lat="45.757755397394895" lon="11.434701171775183"><ele>257.0</ele><time>2026-05-02T11:33:29.999Z</time></trkpt><trkpt lat="45.75785463953884" lon="11.434817687695336"><ele>257.5</ele><time>2026-05-02T11:33:30.999Z</time></trkpt><trkpt lat="45.757948267376364" lon="11.434944883163705"><ele>258.0</ele><time>2026-05-02T11:33:31.999Z</time></trkpt><trkpt lat="45.758041585152796" lon="11.43504521783126"><ele>258.5</ele><time>2026-05-02T11:33:32.999Z</time></trkpt><trkpt lat="45.75814105848514" lon="11.435115016827927"><ele>259.0</ele><time>2026-05-02T11:33:33.999Z</time></trkpt><trkpt lat="45.75822634893483" lon="11.435200374043713"><ele>259.0</ele><time>2026-05-02T11:33:34.999Z</time></trkpt><trkpt lat="45.75829720413373" lon="11.43527598700888"><ele>259.0</ele><time>2026-05-02T11:33:35.999Z</time></trkpt><trkpt lat="45.75835923897199" lon="11.435333462465584"><ele>259.0</ele><time>2026-05-02T11:33:36.999Z</time></trkpt><trkpt lat="45.75845591534445" lon="11.435428401584442"><ele>259.0</ele><time>2026-05-02T11:33:38.999Z</time></trkpt><trkpt lat="45.75853364804298" lon="11.435546705904791"><ele>259.0</ele><time>2026-05-02T11:33:40.999Z</time></trkpt><trkpt lat="45.758636840677504" lon="11.435601807402076"><ele>259.59999999999997</ele><time>2026-05-02T11:33:42.999Z</time></trkpt><trkpt lat="45.7587076336807" lon="11.435452857210958"><ele>260.2</ele><time>2026-05-02T11:33:44.999Z</time></trkpt><trkpt lat="45.75872948592065" lon="11.435347174852"><ele>260.79999999999995</ele><time>2026-05-02T11:33:45.999Z</time></trkpt><trkpt lat="45.75876950581904" lon="11.435242787502583"><ele>261.4</ele><time>2026-05-02T11:33:46.999Z</time></trkpt><trkpt lat="45.7588223116605" lon="11.435135262318317"><ele>262.0</ele><time>2026-05-02T11:33:47.999Z</time></trkpt><trkpt lat="45.75887945339236" lon="11.435014156038577"><ele>262.0</ele><time>2026-05-02T11:33:48.999Z</time></trkpt><trkpt lat="45.7589358746573" lon="11.43488815964838"><ele>262.0</ele><time>2026-05-02T11:33:49.999Z</time></trkpt><trkpt lat="45.758992183560096" lon="11.434766390056572"><ele>262.0</ele><time>2026-05-02T11:33:50.999Z</time></trkpt><trkpt lat="45.75904238274884" lon="11.434667496367844"><ele>262.0</ele><time>2026-05-02T11:33:51.999Z</time></trkpt><trkpt lat="45.75908701754506" lon="11.434582366091542"><ele>262.0</ele><time>2026-05-02T11:33:52.999Z</time></trkpt><trkpt lat="45.759129155983686" lon="11.434502499202905"><ele>262.0</ele><time>2026-05-02T11:33:53.999Z</time></trkpt><trkpt lat="45.75916476475519" lon="11.434426460851224"><ele>262.0</ele><time>2026-05-02T11:33:54.999Z</time></trkpt><trkpt lat="45.75923454830135" lon="11.434303847221216"><ele>262.0</ele><time>2026-05-02T11:33:56.999Z</time></trkpt><trkpt lat="45.75919313157462" lon="11.434400151733024"><ele>262.0</ele><time>2026-05-02T11:34:16.998Z</time></trkpt><trkpt lat="45.75914784549719" lon="11.434487726482466"><ele>262.0</ele><time>2026-05-02T11:34:17.998Z</time></trkpt><trkpt lat="45.75907109469677" lon="11.434589424508712"><ele>262.0</ele><time>2026-05-02T11:34:18.998Z</time></trkpt><trkpt lat="45.75901616913809" lon="11.434700235740657"><ele>262.0</ele><time>2026-05-02T11:34:19.998Z</time></trkpt><trkpt lat="45.758968437247056" lon="11.434803666462239"><ele>262.0</ele><time>2026-05-02T11:34:21Z</time></trkpt><trkpt lat="45.75892164403744" lon="11.434895136426542"><ele>262.0</ele><time>2026-05-02T11:34:22Z</time></trkpt><trkpt lat="45.758882109061766" lon="11.434985659900812"><ele>262.0</ele><time>2026-05-02T11:34:23Z</time></trkpt><trkpt lat="45.758842511305616" lon="11.435076751524742"><ele>262.0</ele><time>2026-05-02T11:34:24Z</time></trkpt><trkpt lat="45.7587977633365" lon="11.435169437752961"><ele>262.0</ele><time>2026-05-02T11:34:25Z</time></trkpt><trkpt lat="45.758764493655924" lon="11.435251083960939"><ele>262.0</ele><time>2026-05-02T11:34:26Z</time></trkpt><trkpt lat="45.758698425745095" lon="11.435357869988632"><ele>262.0</ele><time>2026-05-02T11:34:28Z</time></trkpt><trkpt lat="45.75861418529014" lon="11.435409687929155"><ele>262.0</ele><time>2026-05-02T11:34:30Z</time></trkpt><trkpt lat="45.758551428168786" lon="11.43551313096555"><ele>262.0</ele><time>2026-05-02T11:34:32Z</time></trkpt><trkpt lat="45.7585868725628" lon="11.43559833082971"><ele>262.0</ele><time>2026-05-02T11:34:34Z</time></trkpt><trkpt lat="45.75868440836873" lon="11.435622531179893"><ele>262.0</ele><time>2026-05-02T11:34:36Z</time></trkpt><trkpt lat="45.75875445604225" lon="11.435614061617825"><ele>262.0</ele><time>2026-05-02T11:34:37Z</time></trkpt><trkpt lat="45.75883422053832" lon="11.43565382947065"><ele>262.0</ele><time>2026-05-02T11:34:38Z</time></trkpt><trkpt lat="45.75892357932551" lon="11.435710441272986"><ele>262.0</ele><time>2026-05-02T11:34:39Z</time></trkpt><trkpt lat="45.759027678992965" lon="11.435765721275114"><ele>262.0</ele><time>2026-05-02T11:34:40Z</time></trkpt><trkpt lat="45.759139207397915" lon="11.435827633258448"><ele>262.0</ele><time>2026-05-02T11:34:41Z</time></trkpt><trkpt lat="45.75926443473581" lon="11.435888022237412"><ele>262.0</ele><time>2026-05-02T11:34:42Z</time></trkpt><trkpt lat="45.759404238638545" lon="11.435948043997048"><ele>262.0</ele><time>2026-05-02T11:34:43Z</time></trkpt><trkpt lat="45.75954991713535" lon="11.436004504441243"><ele>262.0</ele><time>2026-05-02T11:34:44Z</time></trkpt><trkpt lat="45.75969687042225" lon="11.436056349181106"><ele>262.0</ele><time>2026-05-02T11:34:45Z</time></trkpt><trkpt lat="45.759844699035874" lon="11.436108863905066"><ele>262.0</ele><time>2026-05-02T11:34:46Z</time></trkpt><trkpt lat="45.760002281467536" lon="11.436169843788457"><ele>262.0</ele><time>2026-05-02T11:34:47Z</time></trkpt><trkpt lat="45.760152767360125" lon="11.43622347164569"><ele>263.3333333333333</ele><time>2026-05-02T11:34:48Z</time></trkpt><trkpt lat="45.7603050977986" lon="11.436279045186359"><ele>264.6666666666667</ele><time>2026-05-02T11:34:49Z</time></trkpt><trkpt lat="45.76046013452048" lon="11.436332715942006"><ele>266.0</ele><time>2026-05-02T11:34:50Z</time></trkpt><trkpt lat="45.76062914305613" lon="11.436388213856148"><ele>266.0</ele><time>2026-05-02T11:34:51Z</time></trkpt><trkpt lat="45.760792718711045" lon="11.436441887271434"><ele>266.0</ele><time>2026-05-02T11:34:52Z</time></trkpt><trkpt lat="45.76095374608479" lon="11.436501214413273"><ele>266.0</ele><time>2026-05-02T11:34:53Z</time></trkpt><trkpt lat="45.761111380837036" lon="11.436554103167134"><ele>266.33333333333337</ele><time>2026-05-02T11:34:54Z</time></trkpt><trkpt lat="45.76126368729341" lon="11.436603487878722"><ele>266.6666666666667</ele><time>2026-05-02T11:34:55Z</time></trkpt><trkpt lat="45.761407961671544" lon="11.436647823277621"><ele>267.0</ele><time>2026-05-02T11:34:56Z</time></trkpt><trkpt lat="45.7615578460676" lon="11.436693212629052"><ele>267.0</ele><time>2026-05-02T11:34:57Z</time></trkpt><trkpt lat="45.7616986692269" lon="11.436708018871474"><ele>267.0</ele><time>2026-05-02T11:34:58Z</time></trkpt><trkpt lat="45.7618397646547" lon="11.436702644769976"><ele>267.0</ele><time>2026-05-02T11:34:59Z</time></trkpt><trkpt lat="45.76197733534993" lon="11.436682969557856"><ele>267.0</ele><time>2026-05-02T11:35:00Z</time></trkpt><trkpt lat="45.76209345337614" lon="11.436649401842075"><ele>267.2</ele><time>2026-05-02T11:35:01Z</time></trkpt><trkpt lat="45.76218118950512" lon="11.436611203597138"><ele>267.4</ele><time>2026-05-02T11:35:02Z</time></trkpt><trkpt lat="45.762264220018245" lon="11.436561145934045"><ele>267.6</ele><time>2026-05-02T11:35:03.999Z</time></trkpt><trkpt lat="45.76233239688705" lon="11.436528139248036"><ele>267.8</ele><time>2026-05-02T11:36:25.998Z</time></trkpt><trkpt lat="45.762449124540026" lon="11.436457890828398"><ele>268.0</ele><time>2026-05-02T11:36:28Z</time></trkpt><trkpt lat="45.76252639022883" lon="11.436394452267585"><ele>268.0</ele><time>2026-05-02T11:36:29Z</time></trkpt><trkpt lat="45.76259809642887" lon="11.436295504052675"><ele>268.0</ele><time>2026-05-02T11:36:30Z</time></trkpt><trkpt lat="45.76267184314553" lon="11.436170554368815"><ele>268.0</ele><time>2026-05-02T11:36:31Z</time></trkpt><trkpt lat="45.7627503308659" lon="11.436028620338455"><ele>268.0</ele><time>2026-05-02T11:36:32Z</time></trkpt><trkpt lat="45.762825097808175" lon="11.435888391664133"><ele>268.25</ele><time>2026-05-02T11:36:33Z</time></trkpt><trkpt lat="45.76290375523551" lon="11.435733574987305"><ele>268.5</ele><time>2026-05-02T11:36:34Z</time></trkpt><trkpt lat="45.76296594926667" lon="11.435586903518839"><ele>268.75</ele><time>2026-05-02T11:36:35Z</time></trkpt><trkpt lat="45.76303206866969" lon="11.435423981079856"><ele>269.0</ele><time>2026-05-02T11:36:36Z</time></trkpt><trkpt lat="45.763123346866" lon="11.435244127956157"><ele>270.0</ele><time>2026-05-02T11:36:37Z</time></trkpt><trkpt lat="45.76324520188989" lon="11.434969206372232"><ele>271.0</ele><time>2026-05-02T11:36:38Z</time></trkpt><trkpt lat="45.7633481483758" lon="11.434755292765372"><ele>272.0</ele><time>2026-05-02T11:36:39Z</time></trkpt><trkpt lat="45.76343937199588" lon="11.434542439798138"><ele>272.33333333333337</ele><time>2026-05-02T11:36:40Z</time></trkpt><trkpt lat="45.76352413602682" lon="11.434333105378718"><ele>272.6666666666667</ele><time>2026-05-02T11:36:41Z</time></trkpt><trkpt lat="45.76360732947911" lon="11.434129372513713"><ele>273.0</ele><time>2026-05-02T11:36:42Z</time></trkpt><trkpt lat="45.763689048503515" lon="11.433931604046027"><ele>274.3333333333333</ele><time>2026-05-02T11:36:43Z</time></trkpt><trkpt lat="45.763768554592765" lon="11.433737439742917"><ele>275.66666666666663</ele><time>2026-05-02T11:36:44Z</time></trkpt><trkpt lat="45.7638497049615" lon="11.433549302338148"><ele>277.0</ele><time>2026-05-02T11:36:45Z</time></trkpt><trkpt lat="45.763932616974216" lon="11.433362898279825"><ele>277.0</ele><time>2026-05-02T11:36:46Z</time></trkpt><trkpt lat="45.764013774999334" lon="11.43318059692435"><ele>277.0</ele><time>2026-05-02T11:36:47Z</time></trkpt><trkpt lat="45.76409391216718" lon="11.433000787619328"><ele>277.0</ele><time>2026-05-02T11:36:48Z</time></trkpt><trkpt lat="45.764167276096565" lon="11.432839367636463"><ele>277.0</ele><time>2026-05-02T11:36:49Z</time></trkpt><trkpt lat="45.76423082107904" lon="11.432689472209391"><ele>277.2</ele><time>2026-05-02T11:36:50Z</time></trkpt><trkpt lat="45.7642878675992" lon="11.432556016459877"><ele>277.4</ele><time>2026-05-02T11:36:51Z</time></trkpt><trkpt lat="45.76433894594863" lon="11.43243801051893"><ele>277.6</ele><time>2026-05-02T11:36:52Z</time></trkpt><trkpt lat="45.764384557794415" lon="11.432343100037993"><ele>277.8</ele><time>2026-05-02T11:36:53Z</time></trkpt><trkpt lat="45.76442106078074" lon="11.432259216478172"><ele>278.0</ele><time>2026-05-02T11:36:54Z</time></trkpt><trkpt lat="45.7644734188038" lon="11.432141984349046"><ele>278.6</ele><time>2026-05-02T11:36:56Z</time></trkpt><trkpt lat="45.76450903662228" lon="11.43205822469596"><ele>279.20000000000005</ele><time>2026-05-02T11:36:59Z</time></trkpt><trkpt lat="45.764587754257626" lon="11.431938062598508"><ele>279.8</ele><time>2026-05-02T11:37:16.999Z</time></trkpt><trkpt lat="45.7646439349676" lon="11.431852288130822"><ele>280.40000000000003</ele><time>2026-05-02T11:37:17.999Z</time></trkpt><trkpt lat="45.764724816504845" lon="11.431779352034367"><ele>281.0</ele><time>2026-05-02T11:37:18.999Z</time></trkpt><trkpt lat="45.76482867164491" lon="11.431733634046738"><ele>281.0</ele><time>2026-05-02T11:37:19.999Z</time></trkpt><trkpt lat="45.764945442685914" lon="11.431693103710103"><ele>281.0</ele><time>2026-05-02T11:37:20.999Z</time></trkpt><trkpt lat="45.76507888874525" lon="11.431652713017108"><ele>281.0</ele><time>2026-05-02T11:37:21.999Z</time></trkpt><trkpt lat="45.76524960890764" lon="11.4316057129505"><ele>281.0</ele><time>2026-05-02T11:37:22.999Z</time></trkpt><trkpt lat="45.76544356551567" lon="11.431554074191814"><ele>281.0</ele><time>2026-05-02T11:37:23.999Z</time></trkpt><trkpt lat="45.76565194266151" lon="11.431498596051414"><ele>281.0</ele><time>2026-05-02T11:37:24.999Z</time></trkpt><trkpt lat="45.7658227009908" lon="11.431453240131447"><ele>281.0</ele><time>2026-05-02T11:37:25.999Z</time></trkpt><trkpt lat="45.76600720581554" lon="11.431400169959648"><ele>281.33333333333337</ele><time>2026-05-02T11:37:27.999Z</time></trkpt><trkpt lat="45.76616973861571" lon="11.43134839577299"><ele>281.6666666666667</ele><time>2026-05-02T11:37:28.999Z</time></trkpt><trkpt lat="45.766327386754746" lon="11.431288374145891"><ele>282.0</ele><time>2026-05-02T11:37:29.999Z</time></trkpt><trkpt lat="45.76647996475446" lon="11.431208758630174"><ele>283.3333333333333</ele><time>2026-05-02T11:37:30.999Z</time></trkpt><trkpt lat="45.766632314795665" lon="11.431120388788816"><ele>284.66666666666663</ele><time>2026-05-02T11:37:31.999Z</time></trkpt><trkpt lat="45.766780064503614" lon="11.431014982353084"><ele>286.0</ele><time>2026-05-02T11:37:32.999Z</time></trkpt><trkpt lat="45.76692399841421" lon="11.430904027087628"><ele>286.0</ele><time>2026-05-02T11:37:33.999Z</time></trkpt><trkpt lat="45.7670561043129" lon="11.43077577897325"><ele>286.0</ele><time>2026-05-02T11:37:34.999Z</time></trkpt><trkpt lat="45.76718620690184" lon="11.430632607599376"><ele>286.0</ele><time>2026-05-02T11:37:35.999Z</time></trkpt><trkpt lat="45.7673011580373" lon="11.430467884183813"><ele>286.66666666666663</ele><time>2026-05-02T11:37:36.999Z</time></trkpt><trkpt lat="45.76740162875044" lon="11.430272661538195"><ele>287.3333333333333</ele><time>2026-05-02T11:37:37.999Z</time></trkpt><trkpt lat="45.76750380832913" lon="11.430068389560548"><ele>288.0</ele><time>2026-05-02T11:37:38.999Z</time></trkpt><trkpt lat="45.767607152301856" lon="11.42985652429583"><ele>288.6666666666667</ele><time>2026-05-02T11:37:39.999Z</time></trkpt><trkpt lat="45.76771527047123" lon="11.429655828159609"><ele>289.33333333333337</ele><time>2026-05-02T11:37:40.999Z</time></trkpt><trkpt lat="45.76781966879678" lon="11.42945513922184"><ele>290.0</ele><time>2026-05-02T11:37:41.999Z</time></trkpt><trkpt lat="45.76792197857628" lon="11.429257107094053"><ele>290.0</ele><time>2026-05-02T11:37:42.999Z</time></trkpt><trkpt lat="45.768024219959806" lon="11.429067508392178"><ele>290.0</ele><time>2026-05-02T11:37:43.999Z</time></trkpt><trkpt lat="45.768118022730306" lon="11.428879071099692"><ele>290.0</ele><time>2026-05-02T11:37:44.999Z</time></trkpt><trkpt lat="45.76821517067313" lon="11.428684147102711"><ele>288.6666666666667</ele><time>2026-05-02T11:37:45.999Z</time></trkpt><trkpt lat="45.7683140203766" lon="11.428480684692135"><ele>287.3333333333333</ele><time>2026-05-02T11:37:46.999Z</time></trkpt><trkpt lat="45.768422697807296" lon="11.428279865862104"><ele>286.0</ele><time>2026-05-02T11:37:47.999Z</time></trkpt><trkpt lat="45.76853686433842" lon="11.428077725626675"><ele>286.66666666666663</ele><time>2026-05-02T11:37:48.999Z</time></trkpt><trkpt lat="45.768646384606065" lon="11.427850903507457"><ele>287.3333333333333</ele><time>2026-05-02T11:37:49.999Z</time></trkpt><trkpt lat="45.76876499114344" lon="11.427651847663325"><ele>288.0</ele><time>2026-05-02T11:37:50.999Z</time></trkpt><trkpt lat="45.76887348637043" lon="11.427443642767262"><ele>288.0</ele><time>2026-05-02T11:37:51.999Z</time></trkpt><trkpt lat="45.768976219825895" lon="11.427235135994717"><ele>288.0</ele><time>2026-05-02T11:37:52.999Z</time></trkpt><trkpt lat="45.769072041719596" lon="11.427017115183178"><ele>288.0</ele><time>2026-05-02T11:37:53.999Z</time></trkpt><trkpt lat="45.7691731243023" lon="11.426812148206228"><ele>290.6666666666667</ele><time>2026-05-02T11:37:54.999Z</time></trkpt><trkpt lat="45.76926514197616" lon="11.42661063243873"><ele>293.33333333333337</ele><time>2026-05-02T11:37:55.999Z</time></trkpt><trkpt lat="45.76933745230437" lon="11.426420421151542"><ele>296.0</ele><time>2026-05-02T11:37:56.999Z</time></trkpt><trkpt lat="45.76942048743223" lon="11.426256071503683"><ele>297.0</ele><time>2026-05-02T11:37:57.999Z</time></trkpt><trkpt lat="45.76950463600336" lon="11.426112426313063"><ele>298.0</ele><time>2026-05-02T11:37:58.999Z</time></trkpt><trkpt lat="45.76959365097221" lon="11.425971870501101"><ele>299.0</ele><time>2026-05-02T11:37:59.999Z</time></trkpt><trkpt lat="45.769690518631165" lon="11.42583745256598"><ele>300.0</ele><time>2026-05-02T11:38:00.999Z</time></trkpt><trkpt lat="45.769792428873956" lon="11.425717005977248"><ele>300.0</ele><time>2026-05-02T11:38:01.999Z</time></trkpt><trkpt lat="45.76991675613388" lon="11.425630703726451"><ele>300.0</ele><time>2026-05-02T11:38:02.999Z</time></trkpt><trkpt lat="45.77004495415482" lon="11.425564882690912"><ele>300.0</ele><time>2026-05-02T11:38:03.999Z</time></trkpt><trkpt lat="45.770171413174545" lon="11.42551741395859"><ele>300.0</ele><time>2026-05-02T11:38:04.999Z</time></trkpt><trkpt lat="45.77031270365779" lon="11.425525525242254"><ele>297.3333333333333</ele><time>2026-05-02T11:38:05.999Z</time></trkpt><trkpt lat="45.77046162589256" lon="11.425527982802738"><ele>294.66666666666663</ele><time>2026-05-02T11:38:06.999Z</time></trkpt><trkpt lat="45.770624308154936" lon="11.425552359961296"><ele>292.0</ele><time>2026-05-02T11:38:07.999Z</time></trkpt><trkpt lat="45.77078523206862" lon="11.425609817739941"><ele>292.0</ele><time>2026-05-02T11:38:08.999Z</time></trkpt><trkpt lat="45.770936535947136" lon="11.425671485632492"><ele>292.0</ele><time>2026-05-02T11:38:09.999Z</time></trkpt><trkpt lat="45.77109747160009" lon="11.425718962667258"><ele>292.0</ele><time>2026-05-02T11:38:10.999Z</time></trkpt><trkpt lat="45.771267447415944" lon="11.42579635439224"><ele>278.66666666666663</ele><time>2026-05-02T11:38:11.999Z</time></trkpt><trkpt lat="45.771443549655636" lon="11.42587265160317"><ele>265.3333333333333</ele><time>2026-05-02T11:38:12.999Z</time></trkpt><trkpt lat="45.77161301268726" lon="11.425952088775658"><ele>252.0</ele><time>2026-05-02T11:38:13.999Z</time></trkpt><trkpt lat="45.77178957848134" lon="11.426024398806984"><ele>257.3333333333333</ele><time>2026-05-02T11:38:14.999Z</time></trkpt><trkpt lat="45.7719776418551" lon="11.426099815859617"><ele>262.66666666666663</ele><time>2026-05-02T11:38:15.999Z</time></trkpt><trkpt lat="45.77215425129567" lon="11.426200742282747"><ele>268.0</ele><time>2026-05-02T11:38:16.999Z</time></trkpt><trkpt lat="45.77234530896567" lon="11.426282758022104"><ele>269.66666666666663</ele><time>2026-05-02T11:38:17.999Z</time></trkpt><trkpt lat="45.77253320175417" lon="11.426363748547457"><ele>271.3333333333333</ele><time>2026-05-02T11:38:18.999Z</time></trkpt><trkpt lat="45.77272281370195" lon="11.426451217073152"><ele>273.0</ele><time>2026-05-02T11:38:19.999Z</time></trkpt><trkpt lat="45.77292162976031" lon="11.426551701826847"><ele>275.3333333333333</ele><time>2026-05-02T11:38:20.999Z</time></trkpt><trkpt lat="45.77312088489677" lon="11.426660463983731"><ele>277.66666666666663</ele><time>2026-05-02T11:38:21.999Z</time></trkpt><trkpt lat="45.77333751798236" lon="11.42677737763664"><ele>280.0</ele><time>2026-05-02T11:38:22.999Z</time></trkpt><trkpt lat="45.773536803574636" lon="11.426884929055126"><ele>280.0</ele><time>2026-05-02T11:38:23.999Z</time></trkpt><trkpt lat="45.773740524609316" lon="11.426994874094891"><ele>280.0</ele><time>2026-05-02T11:38:24.998Z</time></trkpt><trkpt lat="45.773953356230734" lon="11.427105227578277"><ele>280.0</ele><time>2026-05-02T11:38:25.998Z</time></trkpt><trkpt lat="45.77416877942214" lon="11.427216243411435"><ele>281.5</ele><time>2026-05-02T11:38:26.998Z</time></trkpt><trkpt lat="45.774387987437514" lon="11.427329209747146"><ele>283.0</ele><time>2026-05-02T11:38:27.998Z</time></trkpt><trkpt lat="45.774603395877314" lon="11.427437485706573"><ele>283.0</ele><time>2026-05-02T11:38:28.998Z</time></trkpt><trkpt lat="45.77482737390328" lon="11.427546495362517"><ele>283.0</ele><time>2026-05-02T11:38:29.998Z</time></trkpt><trkpt lat="45.7750497985189" lon="11.427631993132396"><ele>282.0</ele><time>2026-05-02T11:38:30.998Z</time></trkpt><trkpt lat="45.77526802498028" lon="11.427737322450344"><ele>281.0</ele><time>2026-05-02T11:38:31.998Z</time></trkpt><trkpt lat="45.77548761963826" lon="11.427840772907269"><ele>281.0</ele><time>2026-05-02T11:38:33Z</time></trkpt><trkpt lat="45.77570258152044" lon="11.427939798124047"><ele>281.0</ele><time>2026-05-02T11:38:34Z</time></trkpt><trkpt lat="45.77592140782642" lon="11.428041485431491"><ele>281.0</ele><time>2026-05-02T11:38:35Z</time></trkpt><trkpt lat="45.776134285406336" lon="11.428142488426822"><ele>281.0</ele><time>2026-05-02T11:38:36Z</time></trkpt><trkpt lat="45.77634860855688" lon="11.428244544175932"><ele>281.0</ele><time>2026-05-02T11:38:37Z</time></trkpt><trkpt lat="45.77656278794118" lon="11.428344769254002"><ele>281.0</ele><time>2026-05-02T11:38:38Z</time></trkpt><trkpt lat="45.77677980857438" lon="11.428437461425352"><ele>281.6666666666667</ele><time>2026-05-02T11:38:39Z</time></trkpt><trkpt lat="45.776988310984756" lon="11.428530989785294"><ele>282.3333333333333</ele><time>2026-05-02T11:38:40Z</time></trkpt><trkpt lat="45.777197782471696" lon="11.428624062372595"><ele>283.0</ele><time>2026-05-02T11:38:41Z</time></trkpt><trkpt lat="45.777405598285995" lon="11.42872204663677"><ele>282.66666666666663</ele><time>2026-05-02T11:38:42Z</time></trkpt><trkpt lat="45.77761232240466" lon="11.42882257783624"><ele>282.3333333333333</ele><time>2026-05-02T11:38:43Z</time></trkpt><trkpt lat="45.77781719387248" lon="11.428918655949877"><ele>282.0</ele><time>2026-05-02T11:38:44Z</time></trkpt><trkpt lat="45.778027215757504" lon="11.429002501519061"><ele>283.6666666666667</ele><time>2026-05-02T11:38:45Z</time></trkpt><trkpt lat="45.77824672117956" lon="11.429074228662953"><ele>285.33333333333337</ele><time>2026-05-02T11:38:46Z</time></trkpt><trkpt lat="45.778467933894305" lon="11.429125360768825"><ele>287.0</ele><time>2026-05-02T11:38:47Z</time></trkpt><trkpt lat="45.77868988509385" lon="11.42916545295396"><ele>287.6666666666667</ele><time>2026-05-02T11:38:48Z</time></trkpt><trkpt lat="45.77891371788957" lon="11.429200893767142"><ele>288.3333333333333</ele><time>2026-05-02T11:38:49Z</time></trkpt><trkpt lat="45.77913544418528" lon="11.429240133937833"><ele>289.0</ele><time>2026-05-02T11:38:50Z</time></trkpt><trkpt lat="45.77935097282722" lon="11.429279545556478"><ele>289.66666666666663</ele><time>2026-05-02T11:38:51Z</time></trkpt><trkpt lat="45.779564136342024" lon="11.429318405938705"><ele>290.3333333333333</ele><time>2026-05-02T11:38:52Z</time></trkpt><trkpt lat="45.7797669232182" lon="11.429359350678292"><ele>291.0</ele><time>2026-05-02T11:38:53Z</time></trkpt><trkpt lat="45.77996229762376" lon="11.429397434084764"><ele>291.0</ele><time>2026-05-02T11:38:54Z</time></trkpt><trkpt lat="45.78015059052913" lon="11.42943323985091"><ele>291.0</ele><time>2026-05-02T11:38:55Z</time></trkpt><trkpt lat="45.78032967741656" lon="11.4294698131372"><ele>291.0</ele><time>2026-05-02T11:38:56Z</time></trkpt><trkpt lat="45.7804971756474" lon="11.429499158580958"><ele>291.0</ele><time>2026-05-02T11:38:57Z</time></trkpt><trkpt lat="45.780659342871" lon="11.429511506773867"><ele>291.0</ele><time>2026-05-02T11:38:58Z</time></trkpt><trkpt lat="45.780838611934726" lon="11.429492462714194"><ele>291.0</ele><time>2026-05-02T11:38:59Z</time></trkpt><trkpt lat="45.78101487104657" lon="11.42945934168969"><ele>290.3333333333333</ele><time>2026-05-02T11:39:00Z</time></trkpt><trkpt lat="45.78120670545766" lon="11.42939366808294"><ele>289.66666666666663</ele><time>2026-05-02T11:39:01Z</time></trkpt><trkpt lat="45.78140056541454" lon="11.42931404154101"><ele>289.0</ele><time>2026-05-02T11:39:02Z</time></trkpt><trkpt lat="45.78158577763518" lon="11.429202102136593"><ele>289.0</ele><time>2026-05-02T11:39:03Z</time></trkpt><trkpt lat="45.78175924940193" lon="11.429068499182577"><ele>289.0</ele><time>2026-05-02T11:39:04Z</time></trkpt><trkpt lat="45.78192340866052" lon="11.428916843297174"><ele>289.0</ele><time>2026-05-02T11:39:05Z</time></trkpt><trkpt lat="45.782085196625665" lon="11.428737988752864"><ele>289.66666666666663</ele><time>2026-05-02T11:39:06Z</time></trkpt><trkpt lat="45.78223938622651" lon="11.428536016009023"><ele>290.3333333333333</ele><time>2026-05-02T11:39:07Z</time></trkpt><trkpt lat="45.78237440200078" lon="11.428328754182555"><ele>291.0</ele><time>2026-05-02T11:39:08Z</time></trkpt><trkpt lat="45.78249482090734" lon="11.428101220230209"><ele>291.3333333333333</ele><time>2026-05-02T11:39:09Z</time></trkpt><trkpt lat="45.78259996048667" lon="11.4278636296829"><ele>291.66666666666663</ele><time>2026-05-02T11:39:10Z</time></trkpt><trkpt lat="45.78268988312822" lon="11.42761255523089"><ele>292.0</ele><time>2026-05-02T11:39:11Z</time></trkpt><trkpt lat="45.782781252590496" lon="11.427353394560965"><ele>293.3333333333333</ele><time>2026-05-02T11:39:12Z</time></trkpt><trkpt lat="45.78287543025042" lon="11.427095569073552"><ele>294.6666666666667</ele><time>2026-05-02T11:39:13Z</time></trkpt><trkpt lat="45.782971158455624" lon="11.426841074525333"><ele>296.0</ele><time>2026-05-02T11:39:14Z</time></trkpt><trkpt lat="45.78306354575972" lon="11.426596387219274"><ele>296.0</ele><time>2026-05-02T11:39:15Z</time></trkpt><trkpt lat="45.783154547207616" lon="11.426347060030249"><ele>296.0</ele><time>2026-05-02T11:39:16Z</time></trkpt><trkpt lat="45.7832451622107" lon="11.426101232246593"><ele>296.0</ele><time>2026-05-02T11:39:16.999Z</time></trkpt><trkpt lat="45.78333573242775" lon="11.425854366269766"><ele>296.0</ele><time>2026-05-02T11:39:17.999Z</time></trkpt><trkpt lat="45.78342278407551" lon="11.425621233446046"><ele>296.0</ele><time>2026-05-02T11:39:18.999Z</time></trkpt><trkpt lat="45.783505586441635" lon="11.42539770542744"><ele>296.0</ele><time>2026-05-02T11:39:19.999Z</time></trkpt><trkpt lat="45.783587789238894" lon="11.425175186142518"><ele>297.0</ele><time>2026-05-02T11:39:20.999Z</time></trkpt><trkpt lat="45.78366469155246" lon="11.424962775030947"><ele>298.0</ele><time>2026-05-02T11:39:21.999Z</time></trkpt><trkpt lat="45.78373521875229" lon="11.424767542472686"><ele>299.0</ele><time>2026-05-02T11:39:22.999Z</time></trkpt><trkpt lat="45.78380389141404" lon="11.424585590385773"><ele>299.0</ele><time>2026-05-02T11:39:23.999Z</time></trkpt><trkpt lat="45.783865826905696" lon="11.424418523965173"><ele>299.0</ele><time>2026-05-02T11:39:24.999Z</time></trkpt><trkpt lat="45.78391637782058" lon="11.424279434210405"><ele>299.0</ele><time>2026-05-02T11:39:25.999Z</time></trkpt><trkpt lat="45.78396796425997" lon="11.424156477565818"><ele>299.0</ele><time>2026-05-02T11:39:26.999Z</time></trkpt><trkpt lat="45.78401935029776" lon="11.42404905297528"><ele>299.0</ele><time>2026-05-02T11:39:27.999Z</time></trkpt><trkpt lat="45.78408443927545" lon="11.423961525562834"><ele>299.0</ele><time>2026-05-02T11:39:28.999Z</time></trkpt><trkpt lat="45.784151534983394" lon="11.423885305621393"><ele>299.0</ele><time>2026-05-02T11:39:29.999Z</time></trkpt><trkpt lat="45.78419446902999" lon="11.42377015507309"><ele>299.0</ele><time>2026-05-02T11:39:30.999Z</time></trkpt><trkpt lat="45.78420521973521" lon="11.42363447370093"><ele>299.0</ele><time>2026-05-02T11:39:31.999Z</time></trkpt><trkpt lat="45.784214317468" lon="11.423482545999947"><ele>299.0</ele><time>2026-05-02T11:39:32.999Z</time></trkpt><trkpt lat="45.78425188027043" lon="11.423325074463731"><ele>298.75</ele><time>2026-05-02T11:39:33.999Z</time></trkpt><trkpt lat="45.78431012796235" lon="11.423169121124829"><ele>298.5</ele><time>2026-05-02T11:39:34.999Z</time></trkpt><trkpt lat="45.78438080359647" lon="11.423001752497582"><ele>298.25</ele><time>2026-05-02T11:39:35.999Z</time></trkpt><trkpt lat="45.78445501184452" lon="11.422815347820169"><ele>298.0</ele><time>2026-05-02T11:39:36.999Z</time></trkpt><trkpt lat="45.78452670529999" lon="11.422612845969432"><ele>298.0</ele><time>2026-05-02T11:39:37.999Z</time></trkpt><trkpt lat="45.78460257814912" lon="11.422404746325903"><ele>298.0</ele><time>2026-05-02T11:39:38.999Z</time></trkpt><trkpt lat="45.78468069932317" lon="11.422184707569778"><ele>298.0</ele><time>2026-05-02T11:39:39.999Z</time></trkpt><trkpt lat="45.784764290482954" lon="11.421950728487946"><ele>298.0</ele><time>2026-05-02T11:39:40.999Z</time></trkpt><trkpt lat="45.784851185794736" lon="11.421711671825904"><ele>298.0</ele><time>2026-05-02T11:39:41.999Z</time></trkpt><trkpt lat="45.784941520865914" lon="11.421461683858237"><ele>298.0</ele><time>2026-05-02T11:39:42.999Z</time></trkpt><trkpt lat="45.785033832081666" lon="11.42120589477452"><ele>298.3333333333333</ele><time>2026-05-02T11:39:43.999Z</time></trkpt><trkpt lat="45.78512583377124" lon="11.420949946682923"><ele>298.6666666666667</ele><time>2026-05-02T11:39:44.999Z</time></trkpt><trkpt lat="45.7852240394204" lon="11.4206928229653"><ele>299.0</ele><time>2026-05-02T11:39:45.999Z</time></trkpt><trkpt lat="45.78531512626433" lon="11.420444591026591"><ele>299.33333333333337</ele><time>2026-05-02T11:39:46.999Z</time></trkpt><trkpt lat="45.78540352396756" lon="11.420192428061725"><ele>299.6666666666667</ele><time>2026-05-02T11:39:47.999Z</time></trkpt><trkpt lat="45.78549677123155" lon="11.419939268294208"><ele>300.0</ele><time>2026-05-02T11:39:48.999Z</time></trkpt><trkpt lat="45.78558706891701" lon="11.419691623859979"><ele>300.3333333333333</ele><time>2026-05-02T11:39:49.999Z</time></trkpt><trkpt lat="45.785670347330274" lon="11.419453581978269"><ele>300.66666666666663</ele><time>2026-05-02T11:39:50.999Z</time></trkpt><trkpt lat="45.785754432863584" lon="11.419215493336242"><ele>301.0</ele><time>2026-05-02T11:39:51.999Z</time></trkpt><trkpt lat="45.785838024125276" lon="11.418986074811219"><ele>301.3333333333333</ele><time>2026-05-02T11:39:52.999Z</time></trkpt><trkpt lat="45.785919785003486" lon="11.418760089895796"><ele>301.6666666666667</ele><time>2026-05-02T11:39:53.999Z</time></trkpt><trkpt lat="45.78600124332773" lon="11.418531261071903"><ele>302.0</ele><time>2026-05-02T11:39:54.999Z</time></trkpt><trkpt lat="45.786085449531335" lon="11.418300785557493"><ele>303.6666666666667</ele><time>2026-05-02T11:39:55.999Z</time></trkpt><trkpt lat="45.78617060448268" lon="11.418065486905052"><ele>305.3333333333333</ele><time>2026-05-02T11:39:56.999Z</time></trkpt><trkpt lat="45.786257467427795" lon="11.417827165171863"><ele>307.0</ele><time>2026-05-02T11:39:57.999Z</time></trkpt><trkpt lat="45.78634185675794" lon="11.417587998527088"><ele>307.0</ele><time>2026-05-02T11:39:58.999Z</time></trkpt><trkpt lat="45.786433044282674" lon="11.417339529880454"><ele>307.0</ele><time>2026-05-02T11:39:59.999Z</time></trkpt><trkpt lat="45.78652632441897" lon="11.417096290397001"><ele>307.0</ele><time>2026-05-02T11:40:00.999Z</time></trkpt><trkpt lat="45.786615063909544" lon="11.416837849588319"><ele>307.3333333333333</ele><time>2026-05-02T11:40:01.999Z</time></trkpt><trkpt lat="45.786709922976016" lon="11.416561443413306"><ele>307.6666666666667</ele><time>2026-05-02T11:40:02.999Z</time></trkpt><trkpt lat="45.78678934224447" lon="11.416312234449343"><ele>308.0</ele><time>2026-05-02T11:40:03.999Z</time></trkpt><trkpt lat="45.78688667517136" lon="11.416074698413285"><ele>308.0</ele><time>2026-05-02T11:40:04.999Z</time></trkpt><trkpt lat="45.7869789740841" lon="11.415821739676119"><ele>308.0</ele><time>2026-05-02T11:40:05.999Z</time></trkpt><trkpt lat="45.78707308235592" lon="11.4155604282851"><ele>308.0</ele><time>2026-05-02T11:40:06.999Z</time></trkpt><trkpt lat="45.78716731403921" lon="11.415300189823988"><ele>307.33333333333337</ele><time>2026-05-02T11:40:07.999Z</time></trkpt><trkpt lat="45.787263833869574" lon="11.41503899023928"><ele>306.6666666666667</ele><time>2026-05-02T11:40:08.999Z</time></trkpt><trkpt lat="45.78735979658075" lon="11.41478499189225"><ele>306.0</ele><time>2026-05-02T11:40:09.999Z</time></trkpt><trkpt lat="45.78745032746939" lon="11.414528385286562"><ele>305.6666666666667</ele><time>2026-05-02T11:40:10.999Z</time></trkpt><trkpt lat="45.78753939164149" lon="11.414268598604169"><ele>305.33333333333337</ele><time>2026-05-02T11:40:11.999Z</time></trkpt><trkpt lat="45.787640451205384" lon="11.413996309065272"><ele>305.0</ele><time>2026-05-02T11:40:12.999Z</time></trkpt><trkpt lat="45.7877427473114" lon="11.413734306386718"><ele>304.0</ele><time>2026-05-02T11:40:13.999Z</time></trkpt><trkpt lat="45.78785388560238" lon="11.41347784936051"><ele>303.0</ele><time>2026-05-02T11:40:14.999Z</time></trkpt><trkpt lat="45.78798441762978" lon="11.413212002382227"><ele>302.0</ele><time>2026-05-02T11:40:15.999Z</time></trkpt><trkpt lat="45.788121567211164" lon="11.41295697410555"><ele>302.33333333333337</ele><time>2026-05-02T11:40:16.999Z</time></trkpt><trkpt lat="45.78825628420517" lon="11.412707359612675"><ele>302.6666666666667</ele><time>2026-05-02T11:40:17.999Z</time></trkpt><trkpt lat="45.7883934566166" lon="11.412464794720504"><ele>303.0</ele><time>2026-05-02T11:40:18.999Z</time></trkpt><trkpt lat="45.78852575018574" lon="11.412246665644805"><ele>302.6666666666667</ele><time>2026-05-02T11:40:19.999Z</time></trkpt><trkpt lat="45.788637884914365" lon="11.412034772604084"><ele>302.33333333333337</ele><time>2026-05-02T11:40:20.999Z</time></trkpt><trkpt lat="45.78875611272577" lon="11.41182674135574"><ele>302.0</ele><time>2026-05-02T11:40:21.999Z</time></trkpt><trkpt lat="45.78887501537432" lon="11.411622873716137"><ele>302.0</ele><time>2026-05-02T11:40:22.999Z</time></trkpt><trkpt lat="45.788990185050366" lon="11.411424893887181"><ele>302.0</ele><time>2026-05-02T11:40:23.999Z</time></trkpt><trkpt lat="45.78910001163193" lon="11.411245884321108"><ele>302.0</ele><time>2026-05-02T11:40:24.999Z</time></trkpt><trkpt lat="45.78920429016064" lon="11.411039302384157"><ele>302.0</ele><time>2026-05-02T11:40:25.999Z</time></trkpt><trkpt lat="45.789290396324134" lon="11.41088535263671"><ele>302.0</ele><time>2026-05-02T11:40:26.999Z</time></trkpt><trkpt lat="45.789365276400055" lon="11.410750872561326"><ele>302.0</ele><time>2026-05-02T11:40:27.999Z</time></trkpt><trkpt lat="45.78943140625022" lon="11.410639246608998"><ele>302.0</ele><time>2026-05-02T11:40:28.999Z</time></trkpt><trkpt lat="45.78949178588923" lon="11.410542203845644"><ele>301.83333333333337</ele><time>2026-05-02T11:40:29.999Z</time></trkpt><trkpt lat="45.789558808343656" lon="11.410465892692597"><ele>301.6666666666667</ele><time>2026-05-02T11:40:30.999Z</time></trkpt><trkpt lat="45.78964795207255" lon="11.410446258697847"><ele>301.5</ele><time>2026-05-02T11:40:31.999Z</time></trkpt><trkpt lat="45.789678040914346" lon="11.410362293396894"><ele>301.3333333333333</ele><time>2026-05-02T11:40:32.999Z</time></trkpt><trkpt lat="45.78972945191504" lon="11.410272271426033"><ele>301.16666666666663</ele><time>2026-05-02T11:40:33.998Z</time></trkpt><trkpt lat="45.789818268178344" lon="11.410221922685832"><ele>301.0</ele><time>2026-05-02T11:40:34.998Z</time></trkpt><trkpt lat="45.78981825179515" lon="11.410080119137426"><ele>301.0</ele><time>2026-05-02T11:40:35.998Z</time></trkpt><trkpt lat="45.78983565645531" lon="11.409931699262494"><ele>301.0</ele><time>2026-05-02T11:40:36.998Z</time></trkpt><trkpt lat="45.789891838837974" lon="11.409785082023012"><ele>301.0</ele><time>2026-05-02T11:40:37.998Z</time></trkpt><trkpt lat="45.7899655467363" lon="11.409637402050906"><ele>301.0</ele><time>2026-05-02T11:40:39Z</time></trkpt><trkpt lat="45.79004725240743" lon="11.40947124619197"><ele>301.3333333333333</ele><time>2026-05-02T11:40:40Z</time></trkpt><trkpt lat="45.790120567277604" lon="11.409282780756872"><ele>301.6666666666667</ele><time>2026-05-02T11:40:41Z</time></trkpt><trkpt lat="45.790191717620786" lon="11.409074056322293"><ele>302.0</ele><time>2026-05-02T11:40:42Z</time></trkpt><trkpt lat="45.79025506290018" lon="11.408847347876591"><ele>303.33333333333337</ele><time>2026-05-02T11:40:43Z</time></trkpt><trkpt lat="45.790318731299784" lon="11.408622257024172"><ele>304.6666666666667</ele><time>2026-05-02T11:40:44Z</time></trkpt><trkpt lat="45.79038321098827" lon="11.408390861191778"><ele>306.0</ele><time>2026-05-02T11:40:45Z</time></trkpt><trkpt lat="45.79045037972006" lon="11.40815732235579"><ele>306.6666666666667</ele><time>2026-05-02T11:40:46Z</time></trkpt><trkpt lat="45.79051821919496" lon="11.407915134902664"><ele>307.33333333333337</ele><time>2026-05-02T11:40:47Z</time></trkpt><trkpt lat="45.790581727236656" lon="11.407677296883204"><ele>308.0</ele><time>2026-05-02T11:40:48Z</time></trkpt><trkpt lat="45.79062363947111" lon="11.407483733194372"><ele>308.0</ele><time>2026-05-02T11:40:49Z</time></trkpt><trkpt lat="45.79071323886768" lon="11.407161603773346"><ele>308.0</ele><time>2026-05-02T11:40:50Z</time></trkpt><trkpt lat="45.79079069514557" lon="11.406896200169019"><ele>308.0</ele><time>2026-05-02T11:40:51Z</time></trkpt><trkpt lat="45.79090413263184" lon="11.406531229861425"><ele>309.0</ele><time>2026-05-02T11:40:52Z</time></trkpt><trkpt lat="45.79101867848357" lon="11.406210935638526"><ele>310.0</ele><time>2026-05-02T11:40:53Z</time></trkpt><trkpt lat="45.79104142759001" lon="11.40602046391717"><ele>311.0</ele><time>2026-05-02T11:40:55Z</time></trkpt><trkpt lat="45.791105034957646" lon="11.405788278273787"><ele>311.0</ele><time>2026-05-02T11:40:56Z</time></trkpt><trkpt lat="45.79117359656659" lon="11.405542714756265"><ele>311.0</ele><time>2026-05-02T11:40:57Z</time></trkpt><trkpt lat="45.79124659395665" lon="11.405288220370657"><ele>311.0</ele><time>2026-05-02T11:40:58Z</time></trkpt><trkpt lat="45.79131921006473" lon="11.405024770261017"><ele>311.33333333333337</ele><time>2026-05-02T11:40:59Z</time></trkpt><trkpt lat="45.7913854572301" lon="11.404752348440185"><ele>311.6666666666667</ele><time>2026-05-02T11:41:00Z</time></trkpt><trkpt lat="45.791451818123065" lon="11.404470258197728"><ele>312.0</ele><time>2026-05-02T11:41:01Z</time></trkpt><trkpt lat="45.79151212214259" lon="11.404173788959262"><ele>310.3333333333333</ele><time>2026-05-02T11:41:02Z</time></trkpt><trkpt lat="45.791568303939954" lon="11.403868107662685"><ele>308.66666666666663</ele><time>2026-05-02T11:41:03Z</time></trkpt><trkpt lat="45.79162732553365" lon="11.40356571460383"><ele>307.0</ele><time>2026-05-02T11:41:04Z</time></trkpt><trkpt lat="45.79168311202752" lon="11.403270236878381"><ele>306.3333333333333</ele><time>2026-05-02T11:41:05Z</time></trkpt><trkpt lat="45.79174286303606" lon="11.402966140008163"><ele>305.6666666666667</ele><time>2026-05-02T11:41:06Z</time></trkpt><trkpt lat="45.79180719542244" lon="11.402666156764512"><ele>305.0</ele><time>2026-05-02T11:41:07Z</time></trkpt><trkpt lat="45.79186501431888" lon="11.402356134127466"><ele>303.6666666666667</ele><time>2026-05-02T11:41:08Z</time></trkpt><trkpt lat="45.791925656645844" lon="11.402047150393528"><ele>302.3333333333333</ele><time>2026-05-02T11:41:09Z</time></trkpt><trkpt lat="45.791990125804695" lon="11.40173841803071"><ele>301.0</ele><time>2026-05-02T11:41:10Z</time></trkpt><trkpt lat="45.792047873020906" lon="11.401426036579126"><ele>299.66666666666663</ele><time>2026-05-02T11:41:11Z</time></trkpt><trkpt lat="45.792102543687214" lon="11.401112021101865"><ele>298.3333333333333</ele><time>2026-05-02T11:41:12Z</time></trkpt><trkpt lat="45.79216353412984" lon="11.400808292844271"><ele>297.0</ele><time>2026-05-02T11:41:13Z</time></trkpt><trkpt lat="45.792223185262976" lon="11.400503630971725"><ele>295.6666666666667</ele><time>2026-05-02T11:41:14Z</time></trkpt><trkpt lat="45.792284432825895" lon="11.400202679138966"><ele>294.33333333333337</ele><time>2026-05-02T11:41:15Z</time></trkpt><trkpt lat="45.792345858600775" lon="11.399901711793046"><ele>293.0</ele><time>2026-05-02T11:41:16Z</time></trkpt><trkpt lat="45.79241063156529" lon="11.399602265113183"><ele>292.6666666666667</ele><time>2026-05-02T11:41:17Z</time></trkpt><trkpt lat="45.79247074591241" lon="11.399304102798768"><ele>292.3333333333333</ele><time>2026-05-02T11:41:18Z</time></trkpt><trkpt lat="45.79253079022537" lon="11.399008490959813"><ele>292.0</ele><time>2026-05-02T11:41:19Z</time></trkpt><trkpt lat="45.79258767386451" lon="11.398720873156881"><ele>292.0</ele><time>2026-05-02T11:41:20Z</time></trkpt><trkpt lat="45.792634954089415" lon="11.398428718643194"><ele>292.0</ele><time>2026-05-02T11:41:21Z</time></trkpt><trkpt lat="45.792670840803474" lon="11.398131556030469"><ele>292.0</ele><time>2026-05-02T11:41:22Z</time></trkpt><trkpt lat="45.79268964053534" lon="11.39783119170789"><ele>294.0</ele><time>2026-05-02T11:41:23Z</time></trkpt><trkpt lat="45.79270432018393" lon="11.397530740312355"><ele>296.0</ele><time>2026-05-02T11:41:24Z</time></trkpt><trkpt lat="45.79271278389332" lon="11.397236501313044"><ele>298.0</ele><time>2026-05-02T11:41:25Z</time></trkpt><trkpt lat="45.79271628730078" lon="11.396952539439448"><ele>298.0</ele><time>2026-05-02T11:41:26Z</time></trkpt><trkpt lat="45.792719769920616" lon="11.396675872802552"><ele>298.0</ele><time>2026-05-02T11:41:27Z</time></trkpt><trkpt lat="45.79272786966541" lon="11.396411438886174"><ele>298.0</ele><time>2026-05-02T11:41:28Z</time></trkpt><trkpt lat="45.79273774412619" lon="11.396156296738786"><ele>298.66666666666663</ele><time>2026-05-02T11:41:29Z</time></trkpt><trkpt lat="45.79274558975897" lon="11.395903428567776"><ele>299.3333333333333</ele><time>2026-05-02T11:41:30Z</time></trkpt><trkpt lat="45.79275061840731" lon="11.395655731005302"><ele>300.0</ele><time>2026-05-02T11:41:31Z</time></trkpt><trkpt lat="45.792761842557276" lon="11.395403492770201"><ele>298.6666666666667</ele><time>2026-05-02T11:41:32Z</time></trkpt><trkpt lat="45.79277632999928" lon="11.395143137643071"><ele>297.33333333333337</ele><time>2026-05-02T11:41:32.999Z</time></trkpt><trkpt lat="45.7928088278126" lon="11.394883291109126"><ele>296.0</ele><time>2026-05-02T11:41:33.999Z</time></trkpt><trkpt lat="45.792848546355245" lon="11.39462788946421"><ele>294.0</ele><time>2026-05-02T11:41:34.999Z</time></trkpt><trkpt lat="45.79289741820213" lon="11.394373302339073"><ele>292.0</ele><time>2026-05-02T11:41:35.999Z</time></trkpt><trkpt lat="45.79296466036213" lon="11.394129409938829"><ele>290.0</ele><time>2026-05-02T11:41:36.999Z</time></trkpt><trkpt lat="45.793043573451186" lon="11.393899116493342"><ele>287.33333333333337</ele><time>2026-05-02T11:41:37.999Z</time></trkpt><trkpt lat="45.793123962973596" lon="11.393669247536733"><ele>284.6666666666667</ele><time>2026-05-02T11:41:38.999Z</time></trkpt><trkpt lat="45.79321913238459" lon="11.393442690641557"><ele>282.0</ele><time>2026-05-02T11:41:39.999Z</time></trkpt><trkpt lat="45.79332466823075" lon="11.393229850058548"><ele>282.0</ele><time>2026-05-02T11:41:40.999Z</time></trkpt><trkpt lat="45.79343993427136" lon="11.393023540877417"><ele>282.0</ele><time>2026-05-02T11:41:41.999Z</time></trkpt><trkpt lat="45.79356073918346" lon="11.392823969331731"><ele>282.0</ele><time>2026-05-02T11:41:42.999Z</time></trkpt><trkpt lat="45.79369232787485" lon="11.392641968264272"><ele>280.6666666666667</ele><time>2026-05-02T11:41:43.999Z</time></trkpt><trkpt lat="45.79382444435548" lon="11.392475311549234"><ele>279.33333333333337</ele><time>2026-05-02T11:41:44.999Z</time></trkpt><trkpt lat="45.793965159116496" lon="11.392321446240075"><ele>278.0</ele><time>2026-05-02T11:41:45.999Z</time></trkpt><trkpt lat="45.79411451138666" lon="11.392177388119025"><ele>274.6666666666667</ele><time>2026-05-02T11:41:46.999Z</time></trkpt><trkpt lat="45.79427705595857" lon="11.392051718838289"><ele>271.3333333333333</ele><time>2026-05-02T11:41:47.999Z</time></trkpt><trkpt lat="45.79445059819772" lon="11.391927511065633"><ele>268.0</ele><time>2026-05-02T11:41:48.999Z</time></trkpt><trkpt lat="45.79462970642291" lon="11.391821123663126"><ele>268.0</ele><time>2026-05-02T11:41:49.999Z</time></trkpt><trkpt lat="45.79482250699199" lon="11.39172960240704"><ele>268.0</ele><time>2026-05-02T11:41:50.999Z</time></trkpt><trkpt lat="45.79502132412727" lon="11.391652337344802"><ele>268.0</ele><time>2026-05-02T11:41:51.999Z</time></trkpt><trkpt lat="45.79522083184916" lon="11.391582368627924"><ele>270.66666666666663</ele><time>2026-05-02T11:41:52.999Z</time></trkpt><trkpt lat="45.79542154122931" lon="11.39151567009798"><ele>273.3333333333333</ele><time>2026-05-02T11:41:53.999Z</time></trkpt><trkpt lat="45.79561495547814" lon="11.391441336642188"><ele>276.0</ele><time>2026-05-02T11:41:54.999Z</time></trkpt><trkpt lat="45.795802634115255" lon="11.391365157366494"><ele>273.3333333333333</ele><time>2026-05-02T11:41:55.999Z</time></trkpt><trkpt lat="45.79598241359729" lon="11.391283315229577"><ele>270.66666666666663</ele><time>2026-05-02T11:41:56.999Z</time></trkpt><trkpt lat="45.79615595232815" lon="11.39118291970357"><ele>268.0</ele><time>2026-05-02T11:41:57.999Z</time></trkpt><trkpt lat="45.79631963477189" lon="11.391049087576295"><ele>268.0</ele><time>2026-05-02T11:41:58.999Z</time></trkpt><trkpt lat="45.79646409459512" lon="11.390869897199018"><ele>268.0</ele><time>2026-05-02T11:41:59.999Z</time></trkpt><trkpt lat="45.796586391171076" lon="11.390660614684986"><ele>268.0</ele><time>2026-05-02T11:42:00.999Z</time></trkpt><trkpt lat="45.796692725282874" lon="11.390424025059165"><ele>268.0</ele><time>2026-05-02T11:42:01.999Z</time></trkpt><trkpt lat="45.79677552847289" lon="11.390163190375791"><ele>268.0</ele><time>2026-05-02T11:42:02.999Z</time></trkpt><trkpt lat="45.79684270908284" lon="11.389881887839136"><ele>268.0</ele><time>2026-05-02T11:42:03.999Z</time></trkpt><trkpt lat="45.79690716471124" lon="11.389566463634416"><ele>268.0</ele><time>2026-05-02T11:42:04.999Z</time></trkpt><trkpt lat="45.79700059978768" lon="11.38922409366392"><ele>268.0</ele><time>2026-05-02T11:42:05.999Z</time></trkpt><trkpt lat="45.79705539429766" lon="11.388959255168217"><ele>268.0</ele><time>2026-05-02T11:42:06.999Z</time></trkpt><trkpt lat="45.797128883403914" lon="11.388636838597987"><ele>264.0</ele><time>2026-05-02T11:42:07.999Z</time></trkpt><trkpt lat="45.79721020898689" lon="11.388303609961174"><ele>260.0</ele><time>2026-05-02T11:42:08.999Z</time></trkpt><trkpt lat="45.79730407998682" lon="11.387954315246791"><ele>258.0</ele><time>2026-05-02T11:42:09.999Z</time></trkpt><trkpt lat="45.79739407880242" lon="11.387609918284253"><ele>256.0</ele><time>2026-05-02T11:42:10.999Z</time></trkpt><trkpt lat="45.797463947966136" lon="11.387285002207788"><ele>255.5</ele><time>2026-05-02T11:42:11.999Z</time></trkpt><trkpt lat="45.79754485696749" lon="11.38694039496346"><ele>255.0</ele><time>2026-05-02T11:42:12.999Z</time></trkpt><trkpt lat="45.797621101336475" lon="11.386598202615792"><ele>259.0</ele><time>2026-05-02T11:42:13.999Z</time></trkpt><trkpt lat="45.79770108558921" lon="11.386256517572598"><ele>263.0</ele><time>2026-05-02T11:42:14.999Z</time></trkpt><trkpt lat="45.797770814724174" lon="11.38593179723119"><ele>263.0</ele><time>2026-05-02T11:42:15.999Z</time></trkpt><trkpt lat="45.79785113750023" lon="11.385605635031125"><ele>263.0</ele><time>2026-05-02T11:42:16.999Z</time></trkpt><trkpt lat="45.797932797927636" lon="11.3852872818373"><ele>260.0</ele><time>2026-05-02T11:42:17.999Z</time></trkpt><trkpt lat="45.79800374833839" lon="11.384971749815275"><ele>257.0</ele><time>2026-05-02T11:42:18.999Z</time></trkpt><trkpt lat="45.79807973483746" lon="11.384663091574986"><ele>256.5</ele><time>2026-05-02T11:42:19.999Z</time></trkpt><trkpt lat="45.7981653621349" lon="11.38436438644159"><ele>256.0</ele><time>2026-05-02T11:42:20.999Z</time></trkpt><trkpt lat="45.79827552322229" lon="11.38406101848947"><ele>256.0</ele><time>2026-05-02T11:42:21.999Z</time></trkpt><trkpt lat="45.79839699504459" lon="11.383763245613553"><ele>256.0</ele><time>2026-05-02T11:42:22.999Z</time></trkpt><trkpt lat="45.798527918230334" lon="11.383476183901383"><ele>256.5</ele><time>2026-05-02T11:42:23.999Z</time></trkpt><trkpt lat="45.79868661144624" lon="11.383179017818001"><ele>257.0</ele><time>2026-05-02T11:42:24.999Z</time></trkpt><trkpt lat="45.798845881234804" lon="11.382882595880497"><ele>257.0</ele><time>2026-05-02T11:42:25.999Z</time></trkpt><trkpt lat="45.79900337944751" lon="11.382581527625929"><ele>257.0</ele><time>2026-05-02T11:42:26.999Z</time></trkpt><trkpt lat="45.79915020160884" lon="11.382280521384008"><ele>256.0</ele><time>2026-05-02T11:42:27.999Z</time></trkpt><trkpt lat="45.79930108070892" lon="11.381973873294015"><ele>255.0</ele><time>2026-05-02T11:42:28.999Z</time></trkpt><trkpt lat="45.79944814126419" lon="11.381669812306711"><ele>256.5</ele><time>2026-05-02T11:42:29.999Z</time></trkpt><trkpt lat="45.799597692983355" lon="11.381366668177874"><ele>258.0</ele><time>2026-05-02T11:42:30.999Z</time></trkpt><trkpt lat="45.79974071488726" lon="11.38106908991786"><ele>258.0</ele><time>2026-05-02T11:42:31.999Z</time></trkpt><trkpt lat="45.799884747050235" lon="11.38077450270383"><ele>258.0</ele><time>2026-05-02T11:42:32.999Z</time></trkpt><trkpt lat="45.800027538626495" lon="11.380486063285128"><ele>260.0</ele><time>2026-05-02T11:42:33.999Z</time></trkpt><trkpt lat="45.800171395290825" lon="11.380198873693912"><ele>262.0</ele><time>2026-05-02T11:42:34.999Z</time></trkpt><trkpt lat="45.80031384298757" lon="11.379913761815896"><ele>260.5</ele><time>2026-05-02T11:42:35.999Z</time></trkpt><trkpt lat="45.80045602246212" lon="11.379632839294423"><ele>259.0</ele><time>2026-05-02T11:42:36.999Z</time></trkpt><trkpt lat="45.80061206385421" lon="11.379345811257705"><ele>259.0</ele><time>2026-05-02T11:42:37.999Z</time></trkpt><trkpt lat="45.80081509442057" lon="11.378984308840135"><ele>259.0</ele><time>2026-05-02T11:42:38.999Z</time></trkpt><trkpt lat="45.80102682448776" lon="11.37861859640819"><ele>258.66666666666663</ele><time>2026-05-02T11:42:39.999Z</time></trkpt><trkpt lat="45.8010095917146" lon="11.378518010584445"><ele>258.3333333333333</ele><time>2026-05-02T11:42:40.999Z</time></trkpt><trkpt lat="45.80114335840962" lon="11.378243489201296"><ele>258.0</ele><time>2026-05-02T11:42:41.999Z</time></trkpt><trkpt lat="45.801273561949486" lon="11.37797235051602"><ele>258.0</ele><time>2026-05-02T11:42:42.999Z</time></trkpt><trkpt lat="45.80140885690123" lon="11.377703297269402"><ele>258.0</ele><time>2026-05-02T11:42:43.999Z</time></trkpt><trkpt lat="45.801541502209034" lon="11.377435641529335"><ele>257.5</ele><time>2026-05-02T11:42:45Z</time></trkpt><trkpt lat="45.80167695698831" lon="11.377166828409944"><ele>257.0</ele><time>2026-05-02T11:42:46Z</time></trkpt><trkpt lat="45.80181286775525" lon="11.37689362197899"><ele>256.5</ele><time>2026-05-02T11:42:47Z</time></trkpt><trkpt lat="45.801948819387206" lon="11.376610196377326"><ele>256.0</ele><time>2026-05-02T11:42:48Z</time></trkpt><trkpt lat="45.802085786929986" lon="11.376329820064617"><ele>256.0</ele><time>2026-05-02T11:42:49Z</time></trkpt><trkpt lat="45.80222290975931" lon="11.376061436116906"><ele>256.0</ele><time>2026-05-02T11:42:50Z</time></trkpt><trkpt lat="45.802356467452256" lon="11.375795469708182"><ele>256.0</ele><time>2026-05-02T11:42:51Z</time></trkpt><trkpt lat="45.80248582335339" lon="11.375532078621951"><ele>256.0</ele><time>2026-05-02T11:42:52Z</time></trkpt><trkpt lat="45.80261318145323" lon="11.375277971662394"><ele>256.0</ele><time>2026-05-02T11:42:53Z</time></trkpt><trkpt lat="45.80273005502395" lon="11.375042100076483"><ele>257.66666666666663</ele><time>2026-05-02T11:42:54Z</time></trkpt><trkpt lat="45.802833535152814" lon="11.374820037917935"><ele>259.3333333333333</ele><time>2026-05-02T11:42:55Z</time></trkpt><trkpt lat="45.80292688195346" lon="11.374608753272781"><ele>261.0</ele><time>2026-05-02T11:42:56Z</time></trkpt><trkpt lat="45.803002430425494" lon="11.374391893790598"><ele>261.0</ele><time>2026-05-02T11:42:57Z</time></trkpt><trkpt lat="45.80306420229701" lon="11.374187167516887"><ele>261.0</ele><time>2026-05-02T11:42:58Z</time></trkpt><trkpt lat="45.803121064563534" lon="11.373990196332198"><ele>261.0</ele><time>2026-05-02T11:42:59Z</time></trkpt><trkpt lat="45.80317316368168" lon="11.373803014001924"><ele>261.0</ele><time>2026-05-02T11:43:00Z</time></trkpt><trkpt lat="45.80321732018488" lon="11.373631030672037"><ele>260.75</ele><time>2026-05-02T11:43:01Z</time></trkpt><trkpt lat="45.80325450797207" lon="11.373470479055685"><ele>260.5</ele><time>2026-05-02T11:43:02Z</time></trkpt><trkpt lat="45.80328366061382" lon="11.37331219555558"><ele>260.25</ele><time>2026-05-02T11:43:03Z</time></trkpt><trkpt lat="45.803304530626704" lon="11.373157136643202"><ele>260.0</ele><time>2026-05-02T11:43:04Z</time></trkpt><trkpt lat="45.803333995677825" lon="11.372991978236975"><ele>260.0</ele><time>2026-05-02T11:43:05Z</time></trkpt><trkpt lat="45.803360091323775" lon="11.372825726226262"><ele>260.0</ele><time>2026-05-02T11:43:06Z</time></trkpt><trkpt lat="45.803379002634685" lon="11.372671066270563"><ele>260.0</ele><time>2026-05-02T11:43:07Z</time></trkpt><trkpt lat="45.8033932490134" lon="11.372513939487824"><ele>260.0</ele><time>2026-05-02T11:43:08Z</time></trkpt><trkpt lat="45.80340731605427" lon="11.372342664060138"><ele>260.0</ele><time>2026-05-02T11:43:09Z</time></trkpt><trkpt lat="45.8034337559821" lon="11.37214844156489"><ele>260.0</ele><time>2026-05-02T11:43:10Z</time></trkpt><trkpt lat="45.803447626160654" lon="11.371920663719814"><ele>260.0</ele><time>2026-05-02T11:43:11Z</time></trkpt><trkpt lat="45.803440041246056" lon="11.371675048655897"><ele>260.0</ele><time>2026-05-02T11:43:12Z</time></trkpt><trkpt lat="45.80344937494065" lon="11.371431189813391"><ele>260.0</ele><time>2026-05-02T11:43:13Z</time></trkpt><trkpt lat="45.80345085034726" lon="11.371187749023203"><ele>260.0</ele><time>2026-05-02T11:43:14Z</time></trkpt><trkpt lat="45.8034392976714" lon="11.370944907680567"><ele>259.75</ele><time>2026-05-02T11:43:15Z</time></trkpt><trkpt lat="45.8034218226791" lon="11.370713690404248"><ele>259.5</ele><time>2026-05-02T11:43:16Z</time></trkpt><trkpt lat="45.80341109174431" lon="11.370502912192016"><ele>259.25</ele><time>2026-05-02T11:43:17Z</time></trkpt><trkpt lat="45.80340587459323" lon="11.370310155016314"><ele>259.0</ele><time>2026-05-02T11:43:18Z</time></trkpt><trkpt lat="45.803399683691126" lon="11.370124244969844"><ele>259.75</ele><time>2026-05-02T11:43:19Z</time></trkpt><trkpt lat="45.80338965423736" lon="11.369927691200457"><ele>260.5</ele><time>2026-05-02T11:43:20Z</time></trkpt><trkpt lat="45.80338257171038" lon="11.369706354850358"><ele>261.25</ele><time>2026-05-02T11:43:21Z</time></trkpt><trkpt lat="45.803371558426846" lon="11.369489865436647"><ele>262.0</ele><time>2026-05-02T11:43:22Z</time></trkpt><trkpt lat="45.803363657437565" lon="11.369247270843967"><ele>262.5</ele><time>2026-05-02T11:43:23Z</time></trkpt><trkpt lat="45.80335767318588" lon="11.36900386757272"><ele>263.0</ele><time>2026-05-02T11:43:24Z</time></trkpt><trkpt lat="45.803349751641136" lon="11.36880253467216"><ele>263.5</ele><time>2026-05-02T11:43:25Z</time></trkpt><trkpt lat="45.80334434723033" lon="11.368612237261509"><ele>264.0</ele><time>2026-05-02T11:43:26Z</time></trkpt><trkpt lat="45.80333140203223" lon="11.368406695019097"><ele>265.6666666666667</ele><time>2026-05-02T11:43:27Z</time></trkpt><trkpt lat="45.80332265626916" lon="11.368185368480095"><ele>267.33333333333337</ele><time>2026-05-02T11:43:28Z</time></trkpt><trkpt lat="45.80331580709459" lon="11.367930126018837"><ele>269.0</ele><time>2026-05-02T11:43:29Z</time></trkpt><trkpt lat="45.803298471303364" lon="11.367657242940705"><ele>271.6666666666667</ele><time>2026-05-02T11:43:30Z</time></trkpt><trkpt lat="45.80330339531604" lon="11.367371039933797"><ele>274.3333333333333</ele><time>2026-05-02T11:43:31Z</time></trkpt><trkpt lat="45.80329123794473" lon="11.367076681087223"><ele>277.0</ele><time>2026-05-02T11:43:32Z</time></trkpt><trkpt lat="45.803265335350474" lon="11.366775172002585"><ele>278.0</ele><time>2026-05-02T11:43:33Z</time></trkpt><trkpt lat="45.803261334367015" lon="11.36646227607397"><ele>279.0</ele><time>2026-05-02T11:43:34Z</time></trkpt><trkpt lat="45.80325480543355" lon="11.36615046471595"><ele>280.0</ele><time>2026-05-02T11:43:35Z</time></trkpt><trkpt lat="45.80324309059695" lon="11.365829772108336"><ele>282.0</ele><time>2026-05-02T11:43:36Z</time></trkpt><trkpt lat="45.803230735078095" lon="11.365512115015942"><ele>284.0</ele><time>2026-05-02T11:43:37Z</time></trkpt><trkpt lat="45.80322003239155" lon="11.36520478077172"><ele>286.0</ele><time>2026-05-02T11:43:38Z</time></trkpt><trkpt lat="45.80321551138711" lon="11.364909057577187"><ele>287.66666666666663</ele><time>2026-05-02T11:43:39Z</time></trkpt><trkpt lat="45.803227825983896" lon="11.364640331171234"><ele>289.3333333333333</ele><time>2026-05-02T11:43:39.999Z</time></trkpt><trkpt lat="45.803255378729325" lon="11.364379281157477"><ele>291.0</ele><time>2026-05-02T11:43:40.999Z</time></trkpt><trkpt lat="45.80329725017918" lon="11.36411509288019"><ele>290.6666666666667</ele><time>2026-05-02T11:43:41.999Z</time></trkpt><trkpt lat="45.803347384071564" lon="11.363863223331755"><ele>290.33333333333337</ele><time>2026-05-02T11:43:42.999Z</time></trkpt><trkpt lat="45.803426843174734" lon="11.363616260569177"><ele>290.0</ele><time>2026-05-02T11:43:43.999Z</time></trkpt><trkpt lat="45.80351911766045" lon="11.363363841870063"><ele>293.6666666666667</ele><time>2026-05-02T11:43:44.999Z</time></trkpt><trkpt lat="45.803622382985395" lon="11.36312426067435"><ele>297.3333333333333</ele><time>2026-05-02T11:43:45.999Z</time></trkpt><trkpt lat="45.80372267671195" lon="11.362872730383833"><ele>301.0</ele><time>2026-05-02T11:43:46.999Z</time></trkpt><trkpt lat="45.803819914889935" lon="11.362619535996558"><ele>301.0</ele><time>2026-05-02T11:43:47.999Z</time></trkpt><trkpt lat="45.80392071947286" lon="11.36237007216234"><ele>301.0</ele><time>2026-05-02T11:43:48.999Z</time></trkpt><trkpt lat="45.804012502320795" lon="11.362139002881042"><ele>301.0</ele><time>2026-05-02T11:43:49.999Z</time></trkpt><trkpt lat="45.80409919612385" lon="11.361923828779215"><ele>303.3333333333333</ele><time>2026-05-02T11:43:50.999Z</time></trkpt><trkpt lat="45.80417972134698" lon="11.36171867042503"><ele>305.6666666666667</ele><time>2026-05-02T11:43:51.999Z</time></trkpt><trkpt lat="45.8042634427913" lon="11.36152312827559"><ele>308.0</ele><time>2026-05-02T11:43:52.999Z</time></trkpt><trkpt lat="45.80434389426299" lon="11.361324191001003"><ele>308.25</ele><time>2026-05-02T11:43:53.999Z</time></trkpt><trkpt lat="45.80441567992974" lon="11.361140001513684"><ele>308.5</ele><time>2026-05-02T11:43:54.999Z</time></trkpt><trkpt lat="45.80448892580289" lon="11.360967634818078"><ele>308.75</ele><time>2026-05-02T11:43:55.999Z</time></trkpt><trkpt lat="45.80455639605492" lon="11.360799166604222"><ele>309.0</ele><time>2026-05-02T11:43:56.999Z</time></trkpt><trkpt lat="45.80462253161952" lon="11.360638418736007"><ele>309.2</ele><time>2026-05-02T11:43:57.999Z</time></trkpt><trkpt lat="45.80467946016439" lon="11.360496346798529"><ele>309.4</ele><time>2026-05-02T11:43:58.999Z</time></trkpt><trkpt lat="45.80473021643509" lon="11.360380712106668"><ele>309.6</ele><time>2026-05-02T11:43:59.999Z</time></trkpt><trkpt lat="45.804782460438794" lon="11.360281370411155"><ele>309.8</ele><time>2026-05-02T11:44:00.999Z</time></trkpt><trkpt lat="45.80484479691107" lon="11.360180247904545"><ele>310.0</ele><time>2026-05-02T11:44:01.999Z</time></trkpt><trkpt lat="45.80490843776829" lon="11.360075226019807"><ele>310.0</ele><time>2026-05-02T11:44:02.999Z</time></trkpt><trkpt lat="45.804983294865906" lon="11.359970831053078"><ele>310.0</ele><time>2026-05-02T11:44:03.999Z</time></trkpt><trkpt lat="45.8050655256741" lon="11.359873524443746"><ele>310.0</ele><time>2026-05-02T11:44:04.999Z</time></trkpt><trkpt lat="45.80515276215582" lon="11.359785264457368"><ele>310.0</ele><time>2026-05-02T11:44:05.999Z</time></trkpt><trkpt lat="45.80523407189361" lon="11.359710906267246"><ele>310.0</ele><time>2026-05-02T11:44:06.999Z</time></trkpt><trkpt lat="45.80531652912298" lon="11.359635534023203"><ele>310.0</ele><time>2026-05-02T11:44:07.999Z</time></trkpt><trkpt lat="45.80540106339386" lon="11.359561970993761"><ele>310.0</ele><time>2026-05-02T11:44:08.999Z</time></trkpt><trkpt lat="45.80548308700482" lon="11.359493268643668"><ele>310.0</ele><time>2026-05-02T11:44:09.999Z</time></trkpt><trkpt lat="45.80556714346332" lon="11.359424468562498"><ele>310.0</ele><time>2026-05-02T11:44:10.999Z</time></trkpt><trkpt lat="45.805642644442905" lon="11.359369611418543"><ele>310.0</ele><time>2026-05-02T11:44:11.999Z</time></trkpt><trkpt lat="45.805709336803545" lon="11.359314317648538"><ele>310.0</ele><time>2026-05-02T11:44:12.999Z</time></trkpt><trkpt lat="45.805764774493916" lon="11.359240525727174"><ele>310.0</ele><time>2026-05-02T11:44:13.999Z</time></trkpt><trkpt lat="45.80580554689148" lon="11.359137917285057"><ele>310.0</ele><time>2026-05-02T11:44:14.999Z</time></trkpt><trkpt lat="45.80583138129546" lon="11.35900247831515"><ele>310.0</ele><time>2026-05-02T11:44:15.999Z</time></trkpt><trkpt lat="45.805839467679014" lon="11.358843265297285"><ele>310.0</ele><time>2026-05-02T11:44:16.999Z</time></trkpt><trkpt lat="45.8058478460873" lon="11.358672561580848"><ele>310.0</ele><time>2026-05-02T11:44:17.999Z</time></trkpt><trkpt lat="45.80584526232849" lon="11.358494839133245"><ele>310.0</ele><time>2026-05-02T11:44:18.999Z</time></trkpt><trkpt lat="45.80582078900374" lon="11.358317637082763"><ele>310.0</ele><time>2026-05-02T11:44:19.999Z</time></trkpt><trkpt lat="45.80577506105934" lon="11.358144033388468"><ele>310.0</ele><time>2026-05-02T11:44:20.999Z</time></trkpt><trkpt lat="45.805701581071816" lon="11.357991457747763"><ele>309.5</ele><time>2026-05-02T11:44:21.999Z</time></trkpt><trkpt lat="45.80560979987873" lon="11.357873802753462"><ele>309.0</ele><time>2026-05-02T11:44:22.999Z</time></trkpt><trkpt lat="45.80549731014078" lon="11.357767978149818"><ele>308.5</ele><time>2026-05-02T11:44:23.999Z</time></trkpt><trkpt lat="45.80537207958731" lon="11.357672702388417"><ele>308.0</ele><time>2026-05-02T11:44:24.999Z</time></trkpt><trkpt lat="45.80524941318881" lon="11.357569160922896"><ele>308.25</ele><time>2026-05-02T11:44:25.999Z</time></trkpt><trkpt lat="45.80513317024126" lon="11.3574606890589"><ele>308.5</ele><time>2026-05-02T11:44:26.999Z</time></trkpt><trkpt lat="45.8050220226829" lon="11.35735526263605"><ele>308.75</ele><time>2026-05-02T11:44:27.999Z</time></trkpt><trkpt lat="45.8049063244799" lon="11.357252718485583"><ele>309.0</ele><time>2026-05-02T11:44:28.999Z</time></trkpt><trkpt lat="45.80479648647848" lon="11.357148282854302"><ele>309.5</ele><time>2026-05-02T11:44:29.999Z</time></trkpt><trkpt lat="45.80468752640791" lon="11.357047274940406"><ele>310.0</ele><time>2026-05-02T11:44:30.999Z</time></trkpt><trkpt lat="45.80457799019258" lon="11.356947731202194"><ele>310.5</ele><time>2026-05-02T11:44:31.999Z</time></trkpt><trkpt lat="45.804467001063756" lon="11.356847297635268"><ele>311.0</ele><time>2026-05-02T11:44:32.999Z</time></trkpt><trkpt lat="45.804356880464304" lon="11.35674029898047"><ele>311.5</ele><time>2026-05-02T11:44:33.999Z</time></trkpt><trkpt lat="45.80424482188452" lon="11.356637149926199"><ele>312.0</ele><time>2026-05-02T11:44:34.999Z</time></trkpt><trkpt lat="45.804134359261894" lon="11.35653517147757"><ele>312.5</ele><time>2026-05-02T11:44:35.999Z</time></trkpt><trkpt lat="45.804027118752124" lon="11.35643141916161"><ele>313.0</ele><time>2026-05-02T11:44:36.999Z</time></trkpt><trkpt lat="45.80392127518811" lon="11.356329545188208"><ele>313.25</ele><time>2026-05-02T11:44:37.999Z</time></trkpt><trkpt lat="45.80381517165747" lon="11.35623286296998"><ele>313.5</ele><time>2026-05-02T11:44:38.999Z</time></trkpt><trkpt lat="45.80371933473462" lon="11.356140096811117"><ele>313.75</ele><time>2026-05-02T11:44:39.999Z</time></trkpt><trkpt lat="45.80362840699419" lon="11.356051314838266"><ele>314.0</ele><time>2026-05-02T11:44:40.999Z</time></trkpt><trkpt lat="45.80354799319299" lon="11.355955676964454"><ele>314.2</ele><time>2026-05-02T11:44:41.999Z</time></trkpt><trkpt lat="45.80345672233139" lon="11.35585806680147"><ele>314.4</ele><time>2026-05-02T11:44:42.999Z</time></trkpt><trkpt lat="45.80338567398752" lon="11.355751374988872"><ele>314.6</ele><time>2026-05-02T11:44:43.999Z</time></trkpt><trkpt lat="45.803329501679045" lon="11.355637570125785"><ele>314.8</ele><time>2026-05-02T11:44:44.999Z</time></trkpt><trkpt lat="45.80328875220375" lon="11.355505348498713"><ele>315.0</ele><time>2026-05-02T11:44:45.999Z</time></trkpt><trkpt lat="45.80327081140736" lon="11.35536093621982"><ele>315.0</ele><time>2026-05-02T11:44:46.999Z</time></trkpt><trkpt lat="45.80327107683061" lon="11.35521138929895"><ele>315.0</ele><time>2026-05-02T11:44:47.999Z</time></trkpt><trkpt lat="45.80329423770657" lon="11.355059888789125"><ele>315.0</ele><time>2026-05-02T11:44:48.999Z</time></trkpt><trkpt lat="45.803336415432085" lon="11.354904245684303"><ele>315.0</ele><time>2026-05-02T11:44:49.999Z</time></trkpt><trkpt lat="45.803393348570786" lon="11.354745993020911"><ele>315.0</ele><time>2026-05-02T11:44:51Z</time></trkpt><trkpt lat="45.80345327616978" lon="11.354586815608886"><ele>315.0</ele><time>2026-05-02T11:44:52Z</time></trkpt><trkpt lat="45.80351337295144" lon="11.354412518055177"><ele>315.0</ele><time>2026-05-02T11:44:53Z</time></trkpt><trkpt lat="45.803574771156875" lon="11.354237760733938"><ele>315.0</ele><time>2026-05-02T11:44:54Z</time></trkpt><trkpt lat="45.80363945006234" lon="11.35406720812762"><ele>315.0</ele><time>2026-05-02T11:44:55Z</time></trkpt><trkpt lat="45.80369900629991" lon="11.353895409459481"><ele>315.0</ele><time>2026-05-02T11:44:56Z</time></trkpt><trkpt lat="45.803745641251034" lon="11.353723778394794"><ele>315.0</ele><time>2026-05-02T11:44:57Z</time></trkpt><trkpt lat="45.80376708036432" lon="11.35354935558"><ele>315.0</ele><time>2026-05-02T11:44:58Z</time></trkpt><trkpt lat="45.803768163171945" lon="11.353370239290443"><ele>317.75</ele><time>2026-05-02T11:44:59Z</time></trkpt><trkpt lat="45.80374476775488" lon="11.353188934772543"><ele>320.5</ele><time>2026-05-02T11:45:00Z</time></trkpt><trkpt lat="45.80370458702346" lon="11.353019871244062"><ele>323.25</ele><time>2026-05-02T11:45:01Z</time></trkpt><trkpt lat="45.80364975844008" lon="11.352856150868167"><ele>326.0</ele><time>2026-05-02T11:45:02Z</time></trkpt><trkpt lat="45.80357969847358" lon="11.35270734390316"><ele>326.20000000000005</ele><time>2026-05-02T11:45:03Z</time></trkpt><trkpt lat="45.803500241336764" lon="11.352581542286996"><ele>326.40000000000003</ele><time>2026-05-02T11:45:04Z</time></trkpt><trkpt lat="45.80342313922898" lon="11.352461207960776"><ele>326.6</ele><time>2026-05-02T11:45:05Z</time></trkpt><trkpt lat="45.80335902642822" lon="11.352350489789025"><ele>326.8</ele><time>2026-05-02T11:45:06Z</time></trkpt><trkpt lat="45.80330110635175" lon="11.352240677678187"><ele>327.0</ele><time>2026-05-02T11:45:07Z</time></trkpt><trkpt lat="45.80324949275982" lon="11.352119328181917"><ele>329.0</ele><time>2026-05-02T11:45:08Z</time></trkpt><trkpt lat="45.8032067388657" lon="11.351988825745776"><ele>331.0</ele><time>2026-05-02T11:45:09Z</time></trkpt><trkpt lat="45.80317222705579" lon="11.35185755387391"><ele>333.0</ele><time>2026-05-02T11:45:10Z</time></trkpt><trkpt lat="45.80315186617624" lon="11.351727340921299"><ele>335.0</ele><time>2026-05-02T11:45:11Z</time></trkpt><trkpt lat="45.803155587390634" lon="11.351603270444885"><ele>337.0</ele><time>2026-05-02T11:45:12Z</time></trkpt><trkpt lat="45.8031337186783" lon="11.35148750138565"><ele>337.0</ele><time>2026-05-02T11:45:13Z</time></trkpt><trkpt lat="45.803126860814345" lon="11.35139001910065"><ele>337.0</ele><time>2026-05-02T11:45:14Z</time></trkpt><trkpt lat="45.803132730522385" lon="11.351233782349226"><ele>337.0</ele><time>2026-05-02T11:45:16Z</time></trkpt><trkpt lat="45.80319352563286" lon="11.351110142140131"><ele>337.0</ele><time>2026-05-02T11:45:18Z</time></trkpt><trkpt lat="45.80326193683391" lon="11.350954675406227"><ele>337.0</ele><time>2026-05-02T11:45:20Z</time></trkpt><trkpt lat="45.803315432382746" lon="11.35085553423419"><ele>338.0</ele><time>2026-05-02T11:45:21Z</time></trkpt><trkpt lat="45.80336572743645" lon="11.350751166322107"><ele>339.0</ele><time>2026-05-02T11:45:22Z</time></trkpt><trkpt lat="45.803422514700564" lon="11.350650412159553"><ele>340.0</ele><time>2026-05-02T11:45:23Z</time></trkpt><trkpt lat="45.80347082637973" lon="11.350557229509562"><ele>341.0</ele><time>2026-05-02T11:45:24Z</time></trkpt><trkpt lat="45.8035238850311" lon="11.350439778396737"><ele>342.0</ele><time>2026-05-02T11:45:26Z</time></trkpt><trkpt lat="45.80357331178526" lon="11.350379609039566"><ele>343.0</ele><time>2026-05-02T11:45:28Z</time></trkpt><trkpt lat="45.80364214612231" lon="11.350326516721365"><ele>344.2</ele><time>2026-05-02T11:45:30Z</time></trkpt><trkpt lat="45.803712625161076" lon="11.350343040454966"><ele>345.4</ele><time>2026-05-02T11:45:31Z</time></trkpt><trkpt lat="45.80379987545706" lon="11.350368374153902"><ele>346.59999999999997</ele><time>2026-05-02T11:45:32Z</time></trkpt><trkpt lat="45.803889434564084" lon="11.35040772378299"><ele>347.79999999999995</ele><time>2026-05-02T11:45:33Z</time></trkpt><trkpt lat="45.80398067128903" lon="11.35044654325594"><ele>349.0</ele><time>2026-05-02T11:45:34Z</time></trkpt><trkpt lat="45.804081828528325" lon="11.350493969639528"><ele>348.4</ele><time>2026-05-02T11:45:35Z</time></trkpt><trkpt lat="45.80417556986485" lon="11.350565237453896"><ele>347.79999999999995</ele><time>2026-05-02T11:45:36Z</time></trkpt><trkpt lat="45.80426550568404" lon="11.350657048264756"><ele>347.20000000000005</ele><time>2026-05-02T11:45:37Z</time></trkpt><trkpt lat="45.804344281701134" lon="11.350733214364745"><ele>346.6</ele><time>2026-05-02T11:45:38Z</time></trkpt><trkpt lat="45.80441271901612" lon="11.350811778195537"><ele>346.0</ele><time>2026-05-02T11:45:39Z</time></trkpt><trkpt lat="45.804489839175716" lon="11.350897755017536"><ele>347.5</ele><time>2026-05-02T11:45:40Z</time></trkpt><trkpt lat="45.80458445941302" lon="11.350987600960329"><ele>349.0</ele><time>2026-05-02T11:45:41Z</time></trkpt><trkpt lat="45.80468830258611" lon="11.35107747673697"><ele>350.5</ele><time>2026-05-02T11:45:41.999Z</time></trkpt><trkpt lat="45.80478811535969" lon="11.351171220502486"><ele>352.0</ele><time>2026-05-02T11:45:42.999Z</time></trkpt><trkpt lat="45.80489207230999" lon="11.351271053247268"><ele>352.0</ele><time>2026-05-02T11:45:43.999Z</time></trkpt><trkpt lat="45.80501863036723" lon="11.351356713991544"><ele>352.0</ele><time>2026-05-02T11:45:44.999Z</time></trkpt><trkpt lat="45.80514540990122" lon="11.351441835472663"><ele>352.0</ele><time>2026-05-02T11:45:45.999Z</time></trkpt><trkpt lat="45.80526935603888" lon="11.351533201983688"><ele>352.0</ele><time>2026-05-02T11:45:46.999Z</time></trkpt><trkpt lat="45.8053911026046" lon="11.351635665357332"><ele>352.25</ele><time>2026-05-02T11:45:47.999Z</time></trkpt><trkpt lat="45.805512924594225" lon="11.351725572912493"><ele>352.5</ele><time>2026-05-02T11:45:48.999Z</time></trkpt><trkpt lat="45.80563043851781" lon="11.351820204240939"><ele>352.75</ele><time>2026-05-02T11:45:49.999Z</time></trkpt><trkpt lat="45.805736889524546" lon="11.351934728030557"><ele>353.0</ele><time>2026-05-02T11:45:50.999Z</time></trkpt><trkpt lat="45.805843426618694" lon="11.352065130407503"><ele>350.0</ele><time>2026-05-02T11:45:51.999Z</time></trkpt><trkpt lat="45.80594649110096" lon="11.35221377445465"><ele>347.0</ele><time>2026-05-02T11:45:52.999Z</time></trkpt><trkpt lat="45.80605168529125" lon="11.352381858877367"><ele>344.0</ele><time>2026-05-02T11:45:53.999Z</time></trkpt><trkpt lat="45.80613965335419" lon="11.35255259190545"><ele>349.25</ele><time>2026-05-02T11:45:54.999Z</time></trkpt><trkpt lat="45.80621932247262" lon="11.35272294020114"><ele>354.5</ele><time>2026-05-02T11:45:55.999Z</time></trkpt><trkpt lat="45.80629350240544" lon="11.352883996642971"><ele>359.75</ele><time>2026-05-02T11:45:56.999Z</time></trkpt><trkpt lat="45.80636545681566" lon="11.353039014513778"><ele>365.0</ele><time>2026-05-02T11:45:57.999Z</time></trkpt><trkpt lat="45.8064336718881" lon="11.353191238172514"><ele>365.0</ele><time>2026-05-02T11:45:58.999Z</time></trkpt><trkpt lat="45.80649848020414" lon="11.35334136981897"><ele>365.0</ele><time>2026-05-02T11:45:59.999Z</time></trkpt><trkpt lat="45.80656936768427" lon="11.353484744411656"><ele>365.0</ele><time>2026-05-02T11:46:00.999Z</time></trkpt><trkpt lat="45.806638905747896" lon="11.35362749174587"><ele>365.0</ele><time>2026-05-02T11:46:01.999Z</time></trkpt><trkpt lat="45.80669916707145" lon="11.35377318049267"><ele>363.0</ele><time>2026-05-02T11:46:02.999Z</time></trkpt><trkpt lat="45.80675985744397" lon="11.353904824111348"><ele>361.0</ele><time>2026-05-02T11:46:03.999Z</time></trkpt><trkpt lat="45.80681097172862" lon="11.354017752562882"><ele>359.0</ele><time>2026-05-02T11:46:04.999Z</time></trkpt><trkpt lat="45.80685744967999" lon="11.35411103450298"><ele>357.0</ele><time>2026-05-02T11:46:05.999Z</time></trkpt><trkpt lat="45.80689506997746" lon="11.35419424266139"><ele>355.0</ele><time>2026-05-02T11:46:06.999Z</time></trkpt><trkpt lat="45.806956042023614" lon="11.354330124245974"><ele>359.4</ele><time>2026-05-02T11:46:08.999Z</time></trkpt><trkpt lat="45.807028733174896" lon="11.354482733075532"><ele>363.8</ele><time>2026-05-02T11:46:10.999Z</time></trkpt><trkpt lat="45.807076038160545" lon="11.354587350726568"><ele>368.20000000000005</ele><time>2026-05-02T11:46:11.999Z</time></trkpt><trkpt lat="45.80713461805484" lon="11.354711498036764"><ele>372.6</ele><time>2026-05-02T11:46:12.999Z</time></trkpt><trkpt lat="45.80720172944431" lon="11.354857502081536"><ele>377.0</ele><time>2026-05-02T11:46:13.999Z</time></trkpt><trkpt lat="45.807274956693064" lon="11.355010501364424"><ele>377.0</ele><time>2026-05-02T11:46:14.999Z</time></trkpt><trkpt lat="45.80735707027823" lon="11.355164969147845"><ele>377.0</ele><time>2026-05-02T11:46:15.999Z</time></trkpt><trkpt lat="45.80744745057533" lon="11.355321881426876"><ele>377.0</ele><time>2026-05-02T11:46:16.999Z</time></trkpt><trkpt lat="45.80754917808304" lon="11.355482113012163"><ele>377.0</ele><time>2026-05-02T11:46:17.999Z</time></trkpt><trkpt lat="45.80767216730497" lon="11.355632290387685"><ele>388.0</ele><time>2026-05-02T11:46:18.999Z</time></trkpt><trkpt lat="45.80779516677579" lon="11.355765613192904"><ele>399.0</ele><time>2026-05-02T11:46:19.999Z</time></trkpt><trkpt lat="45.807923978143954" lon="11.355911706692144"><ele>410.0</ele><time>2026-05-02T11:46:20.999Z</time></trkpt><trkpt lat="45.80805904495882" lon="11.35605919891179"><ele>410.0</ele><time>2026-05-02T11:46:21.999Z</time></trkpt><trkpt lat="45.80821392594637" lon="11.356233209535755"><ele>410.0</ele><time>2026-05-02T11:46:22.999Z</time></trkpt><trkpt lat="45.808372596771484" lon="11.356419904695473"><ele>410.0</ele><time>2026-05-02T11:46:23.999Z</time></trkpt><trkpt lat="45.8085159022676" lon="11.356616035104446"><ele>416.0</ele><time>2026-05-02T11:46:24.999Z</time></trkpt><trkpt lat="45.80864685080825" lon="11.356814786124842"><ele>422.0</ele><time>2026-05-02T11:46:25.999Z</time></trkpt><trkpt lat="45.808782793357814" lon="11.356992298370564"><ele>428.0</ele><time>2026-05-02T11:46:26.999Z</time></trkpt><trkpt lat="45.80893039570188" lon="11.357130074670003"><ele>423.3333333333333</ele><time>2026-05-02T11:46:27.999Z</time></trkpt><trkpt lat="45.809074945230634" lon="11.357207578669716"><ele>418.66666666666663</ele><time>2026-05-02T11:46:28.999Z</time></trkpt><trkpt lat="45.80923024694056" lon="11.357305913336916"><ele>414.0</ele><time>2026-05-02T11:46:29.999Z</time></trkpt><trkpt lat="45.80939037944736" lon="11.357417117746287"><ele>414.0</ele><time>2026-05-02T11:46:30.999Z</time></trkpt><trkpt lat="45.80954092649936" lon="11.357544781573237"><ele>414.0</ele><time>2026-05-02T11:46:31.999Z</time></trkpt><trkpt lat="45.809692855681504" lon="11.357690744105051"><ele>414.0</ele><time>2026-05-02T11:46:32.999Z</time></trkpt><trkpt lat="45.809843743447566" lon="11.357828883464943"><ele>414.0</ele><time>2026-05-02T11:46:33.999Z</time></trkpt><trkpt lat="45.810009795688686" lon="11.357950673637221"><ele>414.0</ele><time>2026-05-02T11:46:34.999Z</time></trkpt><trkpt lat="45.81018309572889" lon="11.358033125778988"><ele>414.0</ele><time>2026-05-02T11:46:35.999Z</time></trkpt><trkpt lat="45.810366452711456" lon="11.358098026985013"><ele>406.33333333333337</ele><time>2026-05-02T11:46:36.999Z</time></trkpt><trkpt lat="45.810550109753194" lon="11.358163379676455"><ele>398.6666666666667</ele><time>2026-05-02T11:46:37.999Z</time></trkpt><trkpt lat="45.81072092704995" lon="11.358228182354514"><ele>391.0</ele><time>2026-05-02T11:46:38.999Z</time></trkpt><trkpt lat="45.810912026165255" lon="11.358279453796284"><ele>398.6666666666667</ele><time>2026-05-02T11:46:39.999Z</time></trkpt><trkpt lat="45.811092251150875" lon="11.358349269699888"><ele>406.33333333333337</ele><time>2026-05-02T11:46:40.999Z</time></trkpt><trkpt lat="45.811222186916076" lon="11.35838828957758"><ele>414.0</ele><time>2026-05-02T11:46:41.999Z</time></trkpt><trkpt lat="45.81135935527912" lon="11.358404058268226"><ele>414.0</ele><time>2026-05-02T11:46:42.999Z</time></trkpt><trkpt lat="45.81148783065675" lon="11.35838121924929"><ele>414.0</ele><time>2026-05-02T11:46:43.999Z</time></trkpt><trkpt lat="45.81161489637648" lon="11.358344272590985"><ele>414.0</ele><time>2026-05-02T11:46:44.999Z</time></trkpt><trkpt lat="45.81173918942941" lon="11.35839439014696"><ele>414.0</ele><time>2026-05-02T11:46:45.999Z</time></trkpt><trkpt lat="45.81185641604122" lon="11.35848594745782"><ele>423.66666666666663</ele><time>2026-05-02T11:46:46.999Z</time></trkpt><trkpt lat="45.81199945252899" lon="11.35855226748826"><ele>433.3333333333333</ele><time>2026-05-02T11:46:47.999Z</time></trkpt><trkpt lat="45.81215088727029" lon="11.35862265261729"><ele>443.0</ele><time>2026-05-02T11:46:48.999Z</time></trkpt><trkpt lat="45.812311343577434" lon="11.358663735519139"><ele>443.0</ele><time>2026-05-02T11:46:49.999Z</time></trkpt><trkpt lat="45.81248477733559" lon="11.358697881263053"><ele>443.0</ele><time>2026-05-02T11:46:50.999Z</time></trkpt><trkpt lat="45.812664361117186" lon="11.358717281771682"><ele>443.0</ele><time>2026-05-02T11:46:51.999Z</time></trkpt><trkpt lat="45.81283663690136" lon="11.358670531362263"><ele>442.0</ele><time>2026-05-02T11:46:52.999Z</time></trkpt><trkpt lat="45.813023664209624" lon="11.358670305120706"><ele>441.0</ele><time>2026-05-02T11:46:53.999Z</time></trkpt><trkpt lat="45.81320823199259" lon="11.35859886082836"><ele>440.0</ele><time>2026-05-02T11:46:54.998Z</time></trkpt><trkpt lat="45.81339206149123" lon="11.358506308012757"><ele>438.0</ele><time>2026-05-02T11:46:55.998Z</time></trkpt><trkpt lat="45.813573787440184" lon="11.358416877294427"><ele>436.0</ele><time>2026-05-02T11:46:57Z</time></trkpt><trkpt lat="45.81373726939721" lon="11.358337686844656"><ele>434.0</ele><time>2026-05-02T11:46:58Z</time></trkpt><trkpt lat="45.81388408286605" lon="11.35830617059276"><ele>434.0</ele><time>2026-05-02T11:46:59Z</time></trkpt><trkpt lat="45.81400704092103" lon="11.358312697623866"><ele>434.0</ele><time>2026-05-02T11:47:00Z</time></trkpt><trkpt lat="45.814119068879926" lon="11.35836791892055"><ele>434.0</ele><time>2026-05-02T11:47:01Z</time></trkpt><trkpt lat="45.81425738090952" lon="11.358421587236077"><ele>434.0</ele><time>2026-05-02T11:47:02Z</time></trkpt><trkpt lat="45.8143973526654" lon="11.358475593849509"><ele>435.75</ele><time>2026-05-02T11:47:03Z</time></trkpt><trkpt lat="45.81454173308094" lon="11.358528368022382"><ele>437.5</ele><time>2026-05-02T11:47:04Z</time></trkpt><trkpt lat="45.81467551091681" lon="11.358569692254873"><ele>439.25</ele><time>2026-05-02T11:47:05Z</time></trkpt><trkpt lat="45.814807129033596" lon="11.35858678547388"><ele>441.0</ele><time>2026-05-02T11:47:06Z</time></trkpt><trkpt lat="45.814937207527855" lon="11.358567090067838"><ele>441.0</ele><time>2026-05-02T11:47:07Z</time></trkpt><trkpt lat="45.81506618819112" lon="11.358507702411622"><ele>441.0</ele><time>2026-05-02T11:47:08Z</time></trkpt><trkpt lat="45.8152145777223" lon="11.358446211233783"><ele>441.0</ele><time>2026-05-02T11:47:09Z</time></trkpt><trkpt lat="45.815370364141195" lon="11.358363835870582"><ele>443.33333333333337</ele><time>2026-05-02T11:47:10Z</time></trkpt><trkpt lat="45.815532802121" lon="11.358283786212041"><ele>445.6666666666667</ele><time>2026-05-02T11:47:11Z</time></trkpt><trkpt lat="45.81569739941348" lon="11.35819663790383"><ele>448.0</ele><time>2026-05-02T11:47:12Z</time></trkpt><trkpt lat="45.815863318357984" lon="11.358114186158375"><ele>476.33333333333337</ele><time>2026-05-02T11:47:13Z</time></trkpt><trkpt lat="45.81603673206967" lon="11.358087656237311"><ele>504.66666666666663</ele><time>2026-05-02T11:47:14Z</time></trkpt><trkpt lat="45.816208428781124" lon="11.358024403418042"><ele>533.0</ele><time>2026-05-02T11:47:15Z</time></trkpt><trkpt lat="45.81636990952879" lon="11.358008794604432"><ele>540.4</ele><time>2026-05-02T11:47:16Z</time></trkpt><trkpt lat="45.81649166828225" lon="11.357980054731211"><ele>547.8</ele><time>2026-05-02T11:47:17Z</time></trkpt><trkpt lat="45.8166059232628" lon="11.357958656754715"><ele>555.2</ele><time>2026-05-02T11:47:18Z</time></trkpt><trkpt lat="45.81669829674513" lon="11.357951492133306"><ele>562.6</ele><time>2026-05-02T11:47:19Z</time></trkpt><trkpt lat="45.81676063002729" lon="11.357982753755303"><ele>570.0</ele><time>2026-05-02T11:47:20Z</time></trkpt><trkpt lat="45.81683361780296" lon="11.358055224651807"><ele>570.0</ele><time>2026-05-02T11:47:21Z</time></trkpt><trkpt lat="45.81687871172262" lon="11.358167636885607"><ele>570.0</ele><time>2026-05-02T11:47:22Z</time></trkpt><trkpt lat="45.81688693479033" lon="11.358307263052163"><ele>570.0</ele><time>2026-05-02T11:47:23Z</time></trkpt><trkpt lat="45.816870171528045" lon="11.358452776279083"><ele>570.0</ele><time>2026-05-02T11:47:24Z</time></trkpt><trkpt lat="45.816790158825654" lon="11.35857099663372"><ele>570.0</ele><time>2026-05-02T11:47:25Z</time></trkpt><trkpt lat="45.816672810149825" lon="11.35866521736926"><ele>560.75</ele><time>2026-05-02T11:47:26Z</time></trkpt><trkpt lat="45.81655743902604" lon="11.35873143094902"><ele>551.5</ele><time>2026-05-02T11:47:27Z</time></trkpt><trkpt lat="45.81647125190782" lon="11.358860676565119"><ele>542.25</ele><time>2026-05-02T11:47:28Z</time></trkpt><trkpt lat="45.81637688981624" lon="11.35897811837178"><ele>533.0</ele><time>2026-05-02T11:47:29Z</time></trkpt><trkpt lat="45.81630062522639" lon="11.35910960498921"><ele>525.25</ele><time>2026-05-02T11:47:30Z</time></trkpt><trkpt lat="45.81626419923025" lon="11.35925499731414"><ele>517.5</ele><time>2026-05-02T11:47:31Z</time></trkpt><trkpt lat="45.81627751877403" lon="11.359429471085708"><ele>509.75</ele><time>2026-05-02T11:47:32Z</time></trkpt><trkpt lat="45.81634106521158" lon="11.359591251227242"><ele>502.0</ele><time>2026-05-02T11:47:33Z</time></trkpt><trkpt lat="45.816436725707526" lon="11.359728347841388"><ele>495.75</ele><time>2026-05-02T11:47:34Z</time></trkpt><trkpt lat="45.81651588504498" lon="11.359897976275901"><ele>489.5</ele><time>2026-05-02T11:47:35Z</time></trkpt><trkpt lat="45.81660058121244" lon="11.360062285541193"><ele>483.25</ele><time>2026-05-02T11:47:36Z</time></trkpt><trkpt lat="45.816699295007815" lon="11.360221988802506"><ele>477.0</ele><time>2026-05-02T11:47:37Z</time></trkpt><trkpt lat="45.816818693540384" lon="11.360334479136439"><ele>479.75</ele><time>2026-05-02T11:47:38Z</time></trkpt><trkpt lat="45.816946145673036" lon="11.360404895288312"><ele>482.5</ele><time>2026-05-02T11:47:39Z</time></trkpt><trkpt lat="45.817079508323815" lon="11.360456336868776"><ele>485.25</ele><time>2026-05-02T11:47:40Z</time></trkpt><trkpt lat="45.81722672693056" lon="11.360491109010528"><ele>488.0</ele><time>2026-05-02T11:47:41Z</time></trkpt><trkpt lat="45.817372701227775" lon="11.360562960027226"><ele>488.0</ele><time>2026-05-02T11:47:42Z</time></trkpt><trkpt lat="45.81750982394773" lon="11.360611632702552"><ele>488.0</ele><time>2026-05-02T11:47:42.999Z</time></trkpt><trkpt lat="45.81762472117705" lon="11.360659863762168"><ele>488.0</ele><time>2026-05-02T11:47:43.999Z</time></trkpt><trkpt lat="45.81770666781829" lon="11.360734670047393"><ele>488.0</ele><time>2026-05-02T11:47:44.999Z</time></trkpt><trkpt lat="45.817750980211365" lon="11.360855043217253"><ele>483.2</ele><time>2026-05-02T11:47:45.999Z</time></trkpt><trkpt lat="45.81777936804894" lon="11.361004986084886"><ele>478.4</ele><time>2026-05-02T11:47:46.999Z</time></trkpt><trkpt lat="45.81784634937973" lon="11.361136008943873"><ele>473.59999999999997</ele><time>2026-05-02T11:47:47.999Z</time></trkpt><trkpt lat="45.81791030659509" lon="11.361268364503024"><ele>468.79999999999995</ele><time>2026-05-02T11:47:48.999Z</time></trkpt><trkpt lat="45.81800493639457" lon="11.361362570179603"><ele>464.0</ele><time>2026-05-02T11:47:49.999Z</time></trkpt><trkpt lat="45.81813144034797" lon="11.361412143950094"><ele>464.0</ele><time>2026-05-02T11:47:50.999Z</time></trkpt><trkpt lat="45.81826623040595" lon="11.361442612401687"><ele>464.0</ele><time>2026-05-02T11:47:51.999Z</time></trkpt><trkpt lat="45.81841522427538" lon="11.361494203621618"><ele>464.0</ele><time>2026-05-02T11:47:52.999Z</time></trkpt><trkpt lat="45.81857123577849" lon="11.361537568029314"><ele>464.0</ele><time>2026-05-02T11:47:53.999Z</time></trkpt><trkpt lat="45.81873121762729" lon="11.361571365086355"><ele>479.0</ele><time>2026-05-02T11:47:54.999Z</time></trkpt><trkpt lat="45.81889730866357" lon="11.361595234608748"><ele>494.0</ele><time>2026-05-02T11:47:55.999Z</time></trkpt><trkpt lat="45.81906607620367" lon="11.361623749237229"><ele>509.0</ele><time>2026-05-02T11:47:56.999Z</time></trkpt><trkpt lat="45.81922495173387" lon="11.3616478564594"><ele>519.5</ele><time>2026-05-02T11:47:57.999Z</time></trkpt><trkpt lat="45.81937962831767" lon="11.361632830422387"><ele>530.0</ele><time>2026-05-02T11:47:58.999Z</time></trkpt><trkpt lat="45.819506259960384" lon="11.361596810100382"><ele>540.5</ele><time>2026-05-02T11:47:59.999Z</time></trkpt><trkpt lat="45.81963550261178" lon="11.361593906644153"><ele>551.0</ele><time>2026-05-02T11:48:00.999Z</time></trkpt><trkpt lat="45.81975491569835" lon="11.36166980093963"><ele>551.0</ele><time>2026-05-02T11:48:01.999Z</time></trkpt><trkpt lat="45.81988645887593" lon="11.361728145613535"><ele>551.0</ele><time>2026-05-02T11:48:02.999Z</time></trkpt><trkpt lat="45.82001483095493" lon="11.361784598685892"><ele>551.0</ele><time>2026-05-02T11:48:03.999Z</time></trkpt><trkpt lat="45.82014336344521" lon="11.361841120460829"><ele>551.0</ele><time>2026-05-02T11:48:04.999Z</time></trkpt><trkpt lat="45.8202756199622" lon="11.361898131003546"><ele>555.0</ele><time>2026-05-02T11:48:06.023Z</time></trkpt><trkpt lat="45.82041202003113" lon="11.361939218973465"><ele>559.0</ele><time>2026-05-02T11:48:07.02Z</time></trkpt><trkpt lat="45.820533870046006" lon="11.36204823040983"><ele>563.0</ele><time>2026-05-02T11:48:08.021Z</time></trkpt><trkpt lat="45.82067866684612" lon="11.362096224509614"><ele>567.0</ele><time>2026-05-02T11:48:09.017Z</time></trkpt><trkpt lat="45.821114462070234" lon="11.362225068173512"><ele>535.6666666666666</ele><time>2026-05-02T11:48:10.999Z</time></trkpt><trkpt lat="45.82127409388602" lon="11.36227812859529"><ele>504.3333333333333</ele><time>2026-05-02T11:48:11.999Z</time></trkpt><trkpt lat="45.82145829977608" lon="11.362312155097003"><ele>473.0</ele><time>2026-05-02T11:48:12.999Z</time></trkpt><trkpt lat="45.82163101942187" lon="11.362298598918812"><ele>473.0</ele><time>2026-05-02T11:48:13.999Z</time></trkpt><trkpt lat="45.82177456819824" lon="11.362267249800462"><ele>473.0</ele><time>2026-05-02T11:48:14.999Z</time></trkpt><trkpt lat="45.82190216008109" lon="11.362132357725034"><ele>473.0</ele><time>2026-05-02T11:48:15.999Z</time></trkpt><trkpt lat="45.8220323769289" lon="11.362036085894092"><ele>497.0</ele><time>2026-05-02T11:48:16.999Z</time></trkpt><trkpt lat="45.8221605922244" lon="11.361986621197143"><ele>521.0</ele><time>2026-05-02T11:48:17.999Z</time></trkpt><trkpt lat="45.82226864746622" lon="11.362065542690074"><ele>545.0</ele><time>2026-05-02T11:48:18.999Z</time></trkpt><trkpt lat="45.822399347965465" lon="11.362110903883902"><ele>569.0</ele><time>2026-05-02T11:48:19.999Z</time></trkpt><trkpt lat="45.82253188798632" lon="11.36215610251573"><ele>575.25</ele><time>2026-05-02T11:48:20.999Z</time></trkpt><trkpt lat="45.82267177894111" lon="11.362179324382234"><ele>581.5</ele><time>2026-05-02T11:48:21.999Z</time></trkpt><trkpt lat="45.822804834928036" lon="11.362149355493722"><ele>587.75</ele><time>2026-05-02T11:48:22.999Z</time></trkpt><trkpt lat="45.82291059223042" lon="11.362120789754224"><ele>594.0</ele><time>2026-05-02T11:48:23.999Z</time></trkpt><trkpt lat="45.822992213754986" lon="11.362054213776332"><ele>594.0</ele><time>2026-05-02T11:48:24.999Z</time></trkpt><trkpt lat="45.82310348657218" lon="11.36205168640716"><ele>594.0</ele><time>2026-05-02T11:48:25.999Z</time></trkpt><trkpt lat="45.82317985285001" lon="11.362094731727709"><ele>594.0</ele><time>2026-05-02T11:48:26.999Z</time></trkpt><trkpt lat="45.823279503742434" lon="11.362154152355519"><ele>594.0</ele><time>2026-05-02T11:48:27.999Z</time></trkpt><trkpt lat="45.82339678179872" lon="11.36215722169401"><ele>594.0</ele><time>2026-05-02T11:48:28.999Z</time></trkpt><trkpt lat="45.82349750576967" lon="11.362200247354478"><ele>589.0</ele><time>2026-05-02T11:48:29.999Z</time></trkpt><trkpt lat="45.82358884646842" lon="11.362256690150204"><ele>584.0</ele><time>2026-05-02T11:48:30.999Z</time></trkpt><trkpt lat="45.82364699004048" lon="11.362357577543646"><ele>579.0</ele><time>2026-05-02T11:48:31.999Z</time></trkpt><trkpt lat="45.823674671222705" lon="11.362484478664376"><ele>574.0</ele><time>2026-05-02T11:48:32.999Z</time></trkpt><trkpt lat="45.823698431473396" lon="11.362617017050123"><ele>569.0</ele><time>2026-05-02T11:48:33.999Z</time></trkpt><trkpt lat="45.823720121457995" lon="11.362752623299974"><ele>569.0</ele><time>2026-05-02T11:48:34.999Z</time></trkpt><trkpt lat="45.82375001341679" lon="11.362915607996795"><ele>569.0</ele><time>2026-05-02T11:48:35.999Z</time></trkpt><trkpt lat="45.82385682351683" lon="11.363143848012367"><ele>569.0</ele><time>2026-05-02T11:48:36.999Z</time></trkpt><trkpt lat="45.82393010973987" lon="11.36329101181131"><ele>569.0</ele><time>2026-05-02T11:48:37.999Z</time></trkpt><trkpt lat="45.82397884988849" lon="11.363439802599482"><ele>566.25</ele><time>2026-05-02T11:48:38.999Z</time></trkpt><trkpt lat="45.82406037499299" lon="11.363557120791862"><ele>563.5</ele><time>2026-05-02T11:48:39.999Z</time></trkpt><trkpt lat="45.82414299677212" lon="11.363683685523835"><ele>560.75</ele><time>2026-05-02T11:48:40.999Z</time></trkpt><trkpt lat="45.82426068386483" lon="11.363763367189545"><ele>558.0</ele><time>2026-05-02T11:48:41.999Z</time></trkpt><trkpt lat="45.82438870359204" lon="11.363774876147845"><ele>558.0</ele><time>2026-05-02T11:48:42.999Z</time></trkpt><trkpt lat="45.82452107649891" lon="11.363748642486147"><ele>558.0</ele><time>2026-05-02T11:48:43.999Z</time></trkpt><trkpt lat="45.82464987487813" lon="11.363730514286724"><ele>558.0</ele><time>2026-05-02T11:48:44.999Z</time></trkpt><trkpt lat="45.82479559374223" lon="11.363710655854316"><ele>558.0</ele><time>2026-05-02T11:48:45.999Z</time></trkpt><trkpt lat="45.824945828624685" lon="11.363668242932857"><ele>558.0</ele><time>2026-05-02T11:48:46.999Z</time></trkpt><trkpt lat="45.825106637314875" lon="11.36366083159628"><ele>558.0</ele><time>2026-05-02T11:48:47.999Z</time></trkpt><trkpt lat="45.82527246954184" lon="11.363634641112936"><ele>558.0</ele><time>2026-05-02T11:48:48.999Z</time></trkpt><trkpt lat="45.825436508295624" lon="11.363614387221098"><ele>556.25</ele><time>2026-05-02T11:48:49.999Z</time></trkpt><trkpt lat="45.825586105919186" lon="11.363597587840623"><ele>554.5</ele><time>2026-05-02T11:48:50.999Z</time></trkpt><trkpt lat="45.82571738234573" lon="11.363579272491805"><ele>552.75</ele><time>2026-05-02T11:48:51.999Z</time></trkpt><trkpt lat="45.82583786029022" lon="11.363555279626484"><ele>551.0</ele><time>2026-05-02T11:48:52.999Z</time></trkpt><trkpt lat="45.82594249175463" lon="11.36348823937646"><ele>549.5</ele><time>2026-05-02T11:48:53.999Z</time></trkpt><trkpt lat="45.82601994072507" lon="11.363360130894936"><ele>548.0</ele><time>2026-05-02T11:48:54.999Z</time></trkpt><trkpt lat="45.82607295784535" lon="11.363196534445809"><ele>546.5</ele><time>2026-05-02T11:48:55.999Z</time></trkpt><trkpt lat="45.82611228753305" lon="11.363026918982065"><ele>545.0</ele><time>2026-05-02T11:48:56.999Z</time></trkpt><trkpt lat="45.8261835423707" lon="11.362882808164066"><ele>552.0</ele><time>2026-05-02T11:48:57.999Z</time></trkpt><trkpt lat="45.82626479098591" lon="11.36277315429947"><ele>559.0</ele><time>2026-05-02T11:48:58.998Z</time></trkpt><trkpt lat="45.826350748474894" lon="11.3627110873924"><ele>566.0</ele><time>2026-05-02T11:48:59.998Z</time></trkpt><trkpt lat="45.826449614779186" lon="11.36267310505122"><ele>573.0</ele><time>2026-05-02T11:49:00.998Z</time></trkpt><trkpt lat="45.82654887478011" lon="11.362670947099405"><ele>580.0</ele><time>2026-05-02T11:49:01.998Z</time></trkpt><trkpt lat="45.826672717563795" lon="11.362722522680311"><ele>580.0</ele><time>2026-05-02T11:49:03Z</time></trkpt><trkpt lat="45.82677272486361" lon="11.362808133231898"><ele>580.0</ele><time>2026-05-02T11:49:04Z</time></trkpt><trkpt lat="45.82686139380037" lon="11.362939443645613"><ele>580.0</ele><time>2026-05-02T11:49:05Z</time></trkpt><trkpt lat="45.826953415681665" lon="11.363080700132382"><ele>580.0</ele><time>2026-05-02T11:49:06Z</time></trkpt><trkpt lat="45.82704491881295" lon="11.363241280666768"><ele>579.3333333333334</ele><time>2026-05-02T11:49:07Z</time></trkpt><trkpt lat="45.82716031643458" lon="11.363368978026406"><ele>578.6666666666666</ele><time>2026-05-02T11:49:08Z</time></trkpt><trkpt lat="45.82730536373787" lon="11.363462368760736"><ele>578.0</ele><time>2026-05-02T11:49:09Z</time></trkpt><trkpt lat="45.82744934030822" lon="11.363557424901193"><ele>578.0</ele><time>2026-05-02T11:49:10Z</time></trkpt><trkpt lat="45.82758302597848" lon="11.363653267356254"><ele>578.0</ele><time>2026-05-02T11:49:11Z</time></trkpt><trkpt lat="45.8277167765897" lon="11.363725467356886"><ele>578.0</ele><time>2026-05-02T11:49:12Z</time></trkpt><trkpt lat="45.82786059626128" lon="11.363734666836612"><ele>578.0</ele><time>2026-05-02T11:49:13Z</time></trkpt><trkpt lat="45.827999989173414" lon="11.363694669865938"><ele>581.6666666666666</ele><time>2026-05-02T11:49:14Z</time></trkpt><trkpt lat="45.82814055990912" lon="11.363589533044399"><ele>585.3333333333334</ele><time>2026-05-02T11:49:15Z</time></trkpt><trkpt lat="45.828273606238206" lon="11.363493602221778"><ele>589.0</ele><time>2026-05-02T11:49:16Z</time></trkpt><trkpt lat="45.82842281450268" lon="11.36344000857908"><ele>591.75</ele><time>2026-05-02T11:49:17Z</time></trkpt><trkpt lat="45.82856135509697" lon="11.36341119947841"><ele>594.5</ele><time>2026-05-02T11:49:18Z</time></trkpt><trkpt lat="45.82869850844309" lon="11.363392613394247"><ele>597.25</ele><time>2026-05-02T11:49:19Z</time></trkpt><trkpt lat="45.828826445329945" lon="11.36338841763564"><ele>600.0</ele><time>2026-05-02T11:49:20Z</time></trkpt><trkpt lat="45.828924879285914" lon="11.363395472424349"><ele>600.0</ele><time>2026-05-02T11:49:21Z</time></trkpt><trkpt lat="45.82900207829109" lon="11.363441172508828"><ele>600.0</ele><time>2026-05-02T11:49:22Z</time></trkpt><trkpt lat="45.82908588949424" lon="11.363551425990542"><ele>600.0</ele><time>2026-05-02T11:49:23Z</time></trkpt><trkpt lat="45.829189283402165" lon="11.363666767389606"><ele>600.0</ele><time>2026-05-02T11:49:24Z</time></trkpt><trkpt lat="45.82930082519334" lon="11.363782310774717"><ele>599.5</ele><time>2026-05-02T11:49:25Z</time></trkpt><trkpt lat="45.82941423309355" lon="11.363910708737123"><ele>599.0</ele><time>2026-05-02T11:49:26Z</time></trkpt><trkpt lat="45.829538859629544" lon="11.3640413444465"><ele>598.5</ele><time>2026-05-02T11:49:27Z</time></trkpt><trkpt lat="45.829650340284616" lon="11.364163312077906"><ele>598.0</ele><time>2026-05-02T11:49:28Z</time></trkpt><trkpt lat="45.82977511017556" lon="11.364254816653489"><ele>598.0</ele><time>2026-05-02T11:49:29Z</time></trkpt><trkpt lat="45.82990948957083" lon="11.364324654098002"><ele>598.0</ele><time>2026-05-02T11:49:30Z</time></trkpt><trkpt lat="45.83004029438449" lon="11.364391629110752"><ele>598.0</ele><time>2026-05-02T11:49:31Z</time></trkpt><trkpt lat="45.830164966946676" lon="11.36445007484899"><ele>598.0</ele><time>2026-05-02T11:49:32Z</time></trkpt><trkpt lat="45.830286005430565" lon="11.364498978895883"><ele>598.0</ele><time>2026-05-02T11:49:33Z</time></trkpt><trkpt lat="45.83040048525525" lon="11.364502653077485"><ele>598.0</ele><time>2026-05-02T11:49:34Z</time></trkpt><trkpt lat="45.83052121902663" lon="11.364467160404807"><ele>598.0</ele><time>2026-05-02T11:49:35Z</time></trkpt><trkpt lat="45.83064260484158" lon="11.364380355342455"><ele>598.0</ele><time>2026-05-02T11:49:36Z</time></trkpt><trkpt lat="45.830788975831496" lon="11.364287183540805"><ele>598.0</ele><time>2026-05-02T11:49:37Z</time></trkpt><trkpt lat="45.83094688588228" lon="11.364148719781511"><ele>598.0</ele><time>2026-05-02T11:49:38Z</time></trkpt><trkpt lat="45.83107963352973" lon="11.363963671664383"><ele>598.0</ele><time>2026-05-02T11:49:39Z</time></trkpt><trkpt lat="45.831214576420436" lon="11.36375552486186"><ele>601.0</ele><time>2026-05-02T11:49:40Z</time></trkpt><trkpt lat="45.83137242265016" lon="11.36355918795623"><ele>604.0</ele><time>2026-05-02T11:49:41Z</time></trkpt><trkpt lat="45.83152705353748" lon="11.363468542710958"><ele>607.0</ele><time>2026-05-02T11:49:42Z</time></trkpt><trkpt lat="45.83134066463268" lon="11.363552158123708"><ele>607.0</ele><time>2026-05-02T11:49:43Z</time></trkpt><trkpt lat="45.83145468067281" lon="11.363483290712626"><ele>607.0</ele><time>2026-05-02T11:49:44Z</time></trkpt><trkpt lat="45.83158153227013" lon="11.363390105802893"><ele>607.0</ele><time>2026-05-02T11:49:45Z</time></trkpt><trkpt lat="45.831721158798985" lon="11.363331282203415"><ele>607.0</ele><time>2026-05-02T11:49:46Z</time></trkpt><trkpt lat="45.831865647968776" lon="11.363255241729634"><ele>603.75</ele><time>2026-05-02T11:49:47Z</time></trkpt><trkpt lat="45.83200555332073" lon="11.36317961939175"><ele>600.5</ele><time>2026-05-02T11:49:48Z</time></trkpt><trkpt lat="45.83213518029442" lon="11.363089882498707"><ele>597.25</ele><time>2026-05-02T11:49:49Z</time></trkpt><trkpt lat="45.832255417386214" lon="11.36296707631049"><ele>594.0</ele><time>2026-05-02T11:49:50Z</time></trkpt><trkpt lat="45.83236482995342" lon="11.362823830202249"><ele>602.5</ele><time>2026-05-02T11:49:50.999Z</time></trkpt><trkpt lat="45.83248359114137" lon="11.362679532421465"><ele>611.0</ele><time>2026-05-02T11:49:51.999Z</time></trkpt><trkpt lat="45.8325804891882" lon="11.362554082784094"><ele>619.5</ele><time>2026-05-02T11:49:52.999Z</time></trkpt><trkpt lat="45.83267425690628" lon="11.362453652686478"><ele>628.0</ele><time>2026-05-02T11:49:53.999Z</time></trkpt><trkpt lat="45.832760620446535" lon="11.362393374572028"><ele>634.5999999999999</ele><time>2026-05-02T11:49:54.999Z</time></trkpt><trkpt lat="45.83283869358428" lon="11.362363224058054"><ele>641.1999999999999</ele><time>2026-05-02T11:49:55.999Z</time></trkpt><trkpt lat="45.83292130859878" lon="11.362372759536772"><ele>647.8</ele><time>2026-05-02T11:49:56.999Z</time></trkpt><trkpt lat="45.83297386098496" lon="11.36248428714286"><ele>654.4</ele><time>2026-05-02T11:49:57.999Z</time></trkpt><trkpt lat="45.833066536298986" lon="11.362566746041505"><ele>661.0</ele><time>2026-05-02T11:49:58.999Z</time></trkpt><trkpt lat="45.83317284993881" lon="11.362669597041938"><ele>661.0</ele><time>2026-05-02T11:49:59.999Z</time></trkpt><trkpt lat="45.83328546018677" lon="11.362778539933863"><ele>661.0</ele><time>2026-05-02T11:50:00.999Z</time></trkpt><trkpt lat="45.833408313417806" lon="11.362897804281532"><ele>661.0</ele><time>2026-05-02T11:50:01.999Z</time></trkpt><trkpt lat="45.83353538052511" lon="11.36302145460866"><ele>661.0</ele><time>2026-05-02T11:50:02.999Z</time></trkpt><trkpt lat="45.83366066194074" lon="11.363143367082035"><ele>658.25</ele><time>2026-05-02T11:50:03.999Z</time></trkpt><trkpt lat="45.833780772026934" lon="11.363241755891464"><ele>655.5</ele><time>2026-05-02T11:50:04.999Z</time></trkpt><trkpt lat="45.833889673765064" lon="11.363360540926683"><ele>652.75</ele><time>2026-05-02T11:50:05.999Z</time></trkpt><trkpt lat="45.83397655964195" lon="11.363439785626543"><ele>650.0</ele><time>2026-05-02T11:50:06.999Z</time></trkpt><trkpt lat="45.83408300357046" lon="11.363457308364017"><ele>650.0</ele><time>2026-05-02T11:50:07.999Z</time></trkpt><trkpt lat="45.83418300826732" lon="11.363403725091946"><ele>650.0</ele><time>2026-05-02T11:50:08.999Z</time></trkpt><trkpt lat="45.83430418175993" lon="11.363392962156817"><ele>650.0</ele><time>2026-05-02T11:50:09.999Z</time></trkpt><trkpt lat="45.834400853190424" lon="11.363370408210846"><ele>650.0</ele><time>2026-05-02T11:50:10.999Z</time></trkpt><trkpt lat="45.83447565972888" lon="11.363336890437363"><ele>650.0</ele><time>2026-05-02T11:50:11.999Z</time></trkpt><trkpt lat="45.8345486407618" lon="11.363300381729667"><ele>653.0</ele><time>2026-05-02T11:50:13.031Z</time></trkpt><trkpt lat="45.834632415237586" lon="11.363271799766549"><ele>656.0</ele><time>2026-05-02T11:50:14.018Z</time></trkpt><trkpt lat="45.83474659603675" lon="11.36324438672233"><ele>659.0</ele><time>2026-05-02T11:50:15.019Z</time></trkpt><trkpt lat="45.83482969599073" lon="11.363218727105934"><ele>662.0</ele><time>2026-05-02T11:50:16.018Z</time></trkpt><trkpt lat="45.83552036020396" lon="11.363006401700497"><ele>666.25</ele><time>2026-05-02T11:50:18.999Z</time></trkpt><trkpt lat="45.83561928334568" lon="11.362895369775753"><ele>670.5</ele><time>2026-05-02T11:50:19.999Z</time></trkpt><trkpt lat="45.835720038104384" lon="11.362776265888249"><ele>674.75</ele><time>2026-05-02T11:50:20.999Z</time></trkpt><trkpt lat="45.83581568052877" lon="11.362677432345864"><ele>679.0</ele><time>2026-05-02T11:50:21.999Z</time></trkpt><trkpt lat="45.8358849095293" lon="11.362625034853732"><ele>679.0</ele><time>2026-05-02T11:50:22.999Z</time></trkpt><trkpt lat="45.83594714461939" lon="11.362638828731665"><ele>679.0</ele><time>2026-05-02T11:50:23.999Z</time></trkpt><trkpt lat="45.8360500577056" lon="11.362662320193076"><ele>679.0</ele><time>2026-05-02T11:50:24.999Z</time></trkpt><trkpt lat="45.836134683963884" lon="11.362744167781905"><ele>679.0</ele><time>2026-05-02T11:50:25.999Z</time></trkpt><trkpt lat="45.836189049741094" lon="11.362871930025928"><ele>679.0</ele><time>2026-05-02T11:50:26.999Z</time></trkpt><trkpt lat="45.83623671727179" lon="11.363020346099598"><ele>674.25</ele><time>2026-05-02T11:50:27.999Z</time></trkpt><trkpt lat="45.836308781238664" lon="11.363147140656276"><ele>669.5</ele><time>2026-05-02T11:50:28.999Z</time></trkpt><trkpt lat="45.83639316717763" lon="11.363260197722655"><ele>664.75</ele><time>2026-05-02T11:50:29.999Z</time></trkpt><trkpt lat="45.83650646583626" lon="11.363340506531943"><ele>660.0</ele><time>2026-05-02T11:50:30.999Z</time></trkpt><trkpt lat="45.83661707365077" lon="11.363430194323522"><ele>660.0</ele><time>2026-05-02T11:50:31.999Z</time></trkpt><trkpt lat="45.83674015006335" lon="11.363525869154355"><ele>660.0</ele><time>2026-05-02T11:50:32.999Z</time></trkpt><trkpt lat="45.83687139263577" lon="11.36360814913958"><ele>660.0</ele><time>2026-05-02T11:50:33.999Z</time></trkpt><trkpt lat="45.83698719385263" lon="11.363700123461522"><ele>660.0</ele><time>2026-05-02T11:50:34.999Z</time></trkpt><trkpt lat="45.83707983362376" lon="11.363764253786277"><ele>660.6</ele><time>2026-05-02T11:50:35.999Z</time></trkpt><trkpt lat="45.83716376479376" lon="11.363751634597964"><ele>661.2</ele><time>2026-05-02T11:50:36.999Z</time></trkpt><trkpt lat="45.83725210123868" lon="11.363684476346425"><ele>661.8</ele><time>2026-05-02T11:50:37.999Z</time></trkpt><trkpt lat="45.83731846215244" lon="11.363537732592595"><ele>662.4</ele><time>2026-05-02T11:50:38.999Z</time></trkpt><trkpt lat="45.83737421574793" lon="11.363379413194021"><ele>663.0</ele><time>2026-05-02T11:50:39.999Z</time></trkpt><trkpt lat="45.837433659960276" lon="11.363230608660386"><ele>663.0</ele><time>2026-05-02T11:50:40.999Z</time></trkpt><trkpt lat="45.83750406978283" lon="11.363091251183024"><ele>663.0</ele><time>2026-05-02T11:50:41.999Z</time></trkpt><trkpt lat="45.837578777030544" lon="11.363000030826866"><ele>663.0</ele><time>2026-05-02T11:50:42.999Z</time></trkpt><trkpt lat="45.83764727069206" lon="11.362924730167052"><ele>663.0</ele><time>2026-05-02T11:50:43.999Z</time></trkpt><trkpt lat="45.83773017530683" lon="11.362877213543566"><ele>663.0</ele><time>2026-05-02T11:50:44.999Z</time></trkpt><trkpt lat="45.83782265323836" lon="11.362881601672662"><ele>664.0</ele><time>2026-05-02T11:50:45.999Z</time></trkpt><trkpt lat="45.83791990781069" lon="11.362930420431898"><ele>665.0</ele><time>2026-05-02T11:50:46.999Z</time></trkpt><trkpt lat="45.8380348227667" lon="11.362983977047065"><ele>666.0</ele><time>2026-05-02T11:50:47.999Z</time></trkpt><trkpt lat="45.8381664351095" lon="11.363025387101299"><ele>667.0</ele><time>2026-05-02T11:50:48.999Z</time></trkpt><trkpt lat="45.838295034258365" lon="11.363091347285817"><ele>667.0</ele><time>2026-05-02T11:50:49.999Z</time></trkpt><trkpt lat="45.83841483900828" lon="11.36313825364693"><ele>667.0</ele><time>2026-05-02T11:50:50.999Z</time></trkpt><trkpt lat="45.83851633490445" lon="11.36319015249632"><ele>667.0</ele><time>2026-05-02T11:50:51.999Z</time></trkpt><trkpt lat="45.83861476650114" lon="11.363188128923428"><ele>667.0</ele><time>2026-05-02T11:50:52.999Z</time></trkpt><trkpt lat="45.83871275427156" lon="11.363118463290716"><ele>667.0</ele><time>2026-05-02T11:50:53.999Z</time></trkpt><trkpt lat="45.83880256720556" lon="11.363002112572092"><ele>675.25</ele><time>2026-05-02T11:50:54.999Z</time></trkpt><trkpt lat="45.838914054357886" lon="11.362901798340097"><ele>683.5</ele><time>2026-05-02T11:50:55.999Z</time></trkpt><trkpt lat="45.8390285718768" lon="11.362780709413277"><ele>691.75</ele><time>2026-05-02T11:50:56.999Z</time></trkpt><trkpt lat="45.83915924239685" lon="11.36264254142183"><ele>700.0</ele><time>2026-05-02T11:50:57.999Z</time></trkpt><trkpt lat="45.83928809759682" lon="11.36248387503242"><ele>709.0</ele><time>2026-05-02T11:50:58.999Z</time></trkpt><trkpt lat="45.839438197321286" lon="11.362350104913931"><ele>718.0</ele><time>2026-05-02T11:50:59.999Z</time></trkpt><trkpt lat="45.839586560183456" lon="11.36219511910938"><ele>727.0</ele><time>2026-05-02T11:51:00.999Z</time></trkpt><trkpt lat="45.83973273584502" lon="11.362023438042845"><ele>739.6666666666667</ele><time>2026-05-02T11:51:01.999Z</time></trkpt><trkpt lat="45.83987105525352" lon="11.361896906871968"><ele>752.3333333333334</ele><time>2026-05-02T11:51:02.999Z</time></trkpt><trkpt lat="45.84000131877809" lon="11.36173408892931"><ele>765.0</ele><time>2026-05-02T11:51:03.999Z</time></trkpt><trkpt lat="45.84015117990508" lon="11.361594600762913"><ele>735.0</ele><time>2026-05-02T11:51:04.999Z</time></trkpt><trkpt lat="45.84030852113008" lon="11.361453160521465"><ele>705.0</ele><time>2026-05-02T11:51:06.019Z</time></trkpt><trkpt lat="45.840459423272904" lon="11.36131021044992"><ele>675.0</ele><time>2026-05-02T11:51:07.019Z</time></trkpt><trkpt lat="45.84060981674952" lon="11.361132448519017"><ele>681.75</ele><time>2026-05-02T11:51:08.02Z</time></trkpt><trkpt lat="45.84078250304275" lon="11.360964442385736"><ele>688.5</ele><time>2026-05-02T11:51:09.016Z</time></trkpt><trkpt lat="45.84084051436574" lon="11.360919947580113"><ele>695.25</ele><time>2026-05-02T11:51:10.998Z</time></trkpt><trkpt lat="45.84095254553037" lon="11.36090202423494"><ele>702.0</ele><time>2026-05-02T11:51:11.998Z</time></trkpt><trkpt lat="45.841081094230546" lon="11.360873262378412"><ele>702.0</ele><time>2026-05-02T11:51:12.998Z</time></trkpt><trkpt lat="45.84117762520969" lon="11.360851664436636"><ele>702.0</ele><time>2026-05-02T11:51:14Z</time></trkpt><trkpt lat="45.84128642072749" lon="11.360826663822467"><ele>702.0</ele><time>2026-05-02T11:51:15.016Z</time></trkpt><trkpt lat="45.84155746187191" lon="11.360771544359197"><ele>702.0</ele><time>2026-05-02T11:51:17Z</time></trkpt><trkpt lat="45.841670799879374" lon="11.360781996705594"><ele>702.0</ele><time>2026-05-02T11:51:18Z</time></trkpt><trkpt lat="45.841827073218" lon="11.360860007134603"><ele>702.0</ele><time>2026-05-02T11:51:19Z</time></trkpt><trkpt lat="45.84195327908273" lon="11.360930807376574"><ele>702.0</ele><time>2026-05-02T11:51:20Z</time></trkpt><trkpt lat="45.842103115702756" lon="11.360993862655139"><ele>703.0</ele><time>2026-05-02T11:51:21Z</time></trkpt><trkpt lat="45.84223869221107" lon="11.361097563917472"><ele>704.0</ele><time>2026-05-02T11:51:22Z</time></trkpt><trkpt lat="45.842344699778536" lon="11.361145189512854"><ele>705.0</ele><time>2026-05-02T11:51:23Z</time></trkpt><trkpt lat="45.842465171349" lon="11.361149192672148"><ele>706.0</ele><time>2026-05-02T11:51:24Z</time></trkpt><trkpt lat="45.84257955971797" lon="11.361122885449777"><ele>699.75</ele><time>2026-05-02T11:51:25Z</time></trkpt><trkpt lat="45.84269493884665" lon="11.361052108088371"><ele>693.5</ele><time>2026-05-02T11:51:26Z</time></trkpt><trkpt lat="45.84279749826644" lon="11.360950850607887"><ele>687.25</ele><time>2026-05-02T11:51:27Z</time></trkpt><trkpt lat="45.84288787532225" lon="11.360832543740768"><ele>681.0</ele><time>2026-05-02T11:51:28Z</time></trkpt><trkpt lat="45.842976287899454" lon="11.360645293560996"><ele>698.25</ele><time>2026-05-02T11:51:29Z</time></trkpt><trkpt lat="45.84308579441732" lon="11.360502652771645"><ele>715.5</ele><time>2026-05-02T11:51:30Z</time></trkpt><trkpt lat="45.84320445787338" lon="11.36037013306639"><ele>732.75</ele><time>2026-05-02T11:51:31Z</time></trkpt><trkpt lat="45.8433135915378" lon="11.360235528998711"><ele>750.0</ele><time>2026-05-02T11:51:32Z</time></trkpt><trkpt lat="45.84343408231394" lon="11.36012617544301"><ele>758.0</ele><time>2026-05-02T11:51:33Z</time></trkpt><trkpt lat="45.84356079284464" lon="11.360068412939052"><ele>766.0</ele><time>2026-05-02T11:51:34Z</time></trkpt><trkpt lat="45.843700672038295" lon="11.360007677742203"><ele>774.0</ele><time>2026-05-02T11:51:35Z</time></trkpt><trkpt lat="45.84381689855216" lon="11.359967886633878"><ele>782.0</ele><time>2026-05-02T11:51:36Z</time></trkpt><trkpt lat="45.843930451284535" lon="11.35994739885269"><ele>782.0</ele><time>2026-05-02T11:51:37Z</time></trkpt><trkpt lat="45.84403437293588" lon="11.359980055583067"><ele>782.0</ele><time>2026-05-02T11:51:38Z</time></trkpt><trkpt lat="45.84415791423258" lon="11.360044367036153"><ele>782.0</ele><time>2026-05-02T11:51:39Z</time></trkpt><trkpt lat="45.84430581442955" lon="11.360100583661506"><ele>782.0</ele><time>2026-05-02T11:51:40Z</time></trkpt><trkpt lat="45.84444683421189" lon="11.360196391235489"><ele>789.25</ele><time>2026-05-02T11:51:41Z</time></trkpt><trkpt lat="45.84458596950296" lon="11.360263577546466"><ele>796.5</ele><time>2026-05-02T11:51:42Z</time></trkpt><trkpt lat="45.84472405937908" lon="11.360334139461797"><ele>803.75</ele><time>2026-05-02T11:51:43Z</time></trkpt><trkpt lat="45.84486883769463" lon="11.360406490057185"><ele>811.0</ele><time>2026-05-02T11:51:44Z</time></trkpt><trkpt lat="45.845138315431996" lon="11.360564645240625"><ele>785.0</ele><time>2026-05-02T11:51:45Z</time></trkpt><trkpt lat="45.84527433816684" lon="11.360672484308097"><ele>759.0</ele><time>2026-05-02T11:51:46Z</time></trkpt><trkpt lat="45.84542114079346" lon="11.360753971720529"><ele>733.0</ele><time>2026-05-02T11:51:47Z</time></trkpt><trkpt lat="45.84552828156965" lon="11.360797154727244"><ele>707.0</ele><time>2026-05-02T11:51:48Z</time></trkpt><trkpt lat="45.845624894910365" lon="11.360782542896755"><ele>707.0</ele><time>2026-05-02T11:51:49Z</time></trkpt><trkpt lat="45.8457211632225" lon="11.360711734261505"><ele>707.0</ele><time>2026-05-02T11:51:50Z</time></trkpt><trkpt lat="45.84579020083486" lon="11.360580120811802"><ele>707.0</ele><time>2026-05-02T11:51:51Z</time></trkpt><trkpt lat="45.84583823021919" lon="11.360423034159897"><ele>707.0</ele><time>2026-05-02T11:51:52Z</time></trkpt><trkpt lat="45.84589191617869" lon="11.360273981809343"><ele>700.75</ele><time>2026-05-02T11:51:53Z</time></trkpt><trkpt lat="45.845959197058214" lon="11.360133268481775"><ele>694.5</ele><time>2026-05-02T11:51:54.018Z</time></trkpt><trkpt lat="45.84602733538806" lon="11.359991794426476"><ele>688.25</ele><time>2026-05-02T11:51:55.018Z</time></trkpt><trkpt lat="45.8460765103953" lon="11.359773964757611"><ele>682.0</ele><time>2026-05-02T11:51:56Z</time></trkpt><trkpt lat="45.846170139912985" lon="11.359500423310612"><ele>698.0</ele><time>2026-05-02T11:51:57Z</time></trkpt><trkpt lat="45.84622051767564" lon="11.359332174694105"><ele>714.0</ele><time>2026-05-02T11:51:58Z</time></trkpt><trkpt lat="45.84628172214483" lon="11.359201199668846"><ele>730.0</ele><time>2026-05-02T11:51:59Z</time></trkpt><trkpt lat="45.84635505206132" lon="11.359096219207684"><ele>746.0</ele><time>2026-05-02T11:52:00Z</time></trkpt><trkpt lat="45.84643549929736" lon="11.359032672697014"><ele>762.0</ele><time>2026-05-02T11:52:01Z</time></trkpt><trkpt lat="45.84656462602554" lon="11.359051906099497"><ele>762.0</ele><time>2026-05-02T11:52:02Z</time></trkpt><trkpt lat="45.84668099494633" lon="11.359094984083205"><ele>762.0</ele><time>2026-05-02T11:52:03Z</time></trkpt><trkpt lat="45.84680956223627" lon="11.359169774062298"><ele>762.0</ele><time>2026-05-02T11:52:04Z</time></trkpt><trkpt lat="45.84691151820338" lon="11.359253337666644"><ele>762.0</ele><time>2026-05-02T11:52:05Z</time></trkpt><trkpt lat="45.84702240160804" lon="11.359311434247958"><ele>754.0</ele><time>2026-05-02T11:52:06Z</time></trkpt><trkpt lat="45.847130014014276" lon="11.359313530588274"><ele>746.0</ele><time>2026-05-02T11:52:07Z</time></trkpt><trkpt lat="45.84724742849934" lon="11.359226045157367"><ele>738.0</ele><time>2026-05-02T11:52:08Z</time></trkpt><trkpt lat="45.84734924107825" lon="11.359095818470875"><ele>730.0</ele><time>2026-05-02T11:52:09Z</time></trkpt><trkpt lat="45.84743664519689" lon="11.35894444808991"><ele>727.75</ele><time>2026-05-02T11:52:10Z</time></trkpt><trkpt lat="45.84750930361173" lon="11.3587665101926"><ele>725.5</ele><time>2026-05-02T11:52:11Z</time></trkpt><trkpt lat="45.84758664571057" lon="11.358588426096667"><ele>723.25</ele><time>2026-05-02T11:52:12Z</time></trkpt><trkpt lat="45.847662781061395" lon="11.358412559261087"><ele>721.0</ele><time>2026-05-02T11:52:13Z</time></trkpt><trkpt lat="45.84774153777134" lon="11.358256641866463"><ele>721.0</ele><time>2026-05-02T11:52:14Z</time></trkpt><trkpt lat="45.84782305269786" lon="11.358109337327367"><ele>721.0</ele><time>2026-05-02T11:52:14.999Z</time></trkpt><trkpt lat="45.84792489156339" lon="11.358009857104944"><ele>721.0</ele><time>2026-05-02T11:52:15.999Z</time></trkpt><trkpt lat="45.8480516612249" lon="11.357941898055712"><ele>721.0</ele><time>2026-05-02T11:52:16.999Z</time></trkpt><trkpt lat="45.848180539618205" lon="11.35791141874128"><ele>727.0</ele><time>2026-05-02T11:52:17.999Z</time></trkpt><trkpt lat="45.84831643149011" lon="11.357901146030466"><ele>733.0</ele><time>2026-05-02T11:52:18.999Z</time></trkpt><trkpt lat="45.84846931569018" lon="11.357893624944209"><ele>739.0</ele><time>2026-05-02T11:52:19.999Z</time></trkpt><trkpt lat="45.84860777739651" lon="11.357861095414693"><ele>745.0</ele><time>2026-05-02T11:52:20.999Z</time></trkpt><trkpt lat="45.84873612283027" lon="11.357777093289569"><ele>745.0</ele><time>2026-05-02T11:52:21.999Z</time></trkpt><trkpt lat="45.84885496373696" lon="11.357655516360014"><ele>745.0</ele><time>2026-05-02T11:52:22.999Z</time></trkpt><trkpt lat="45.848964157093704" lon="11.357491709959598"><ele>745.0</ele><time>2026-05-02T11:52:23.999Z</time></trkpt><trkpt lat="45.849084591790664" lon="11.357313184009692"><ele>745.0</ele><time>2026-05-02T11:52:24.999Z</time></trkpt><trkpt lat="45.84923598239512" lon="11.357127627045875"><ele>745.0</ele><time>2026-05-02T11:52:25.999Z</time></trkpt><trkpt lat="45.84935667087837" lon="11.356970508271749"><ele>745.0</ele><time>2026-05-02T11:52:26.999Z</time></trkpt><trkpt lat="45.84950518232842" lon="11.356792453062107"><ele>745.0</ele><time>2026-05-02T11:52:27.999Z</time></trkpt><trkpt lat="45.84954206444057" lon="11.356675237095397"><ele>745.0</ele><time>2026-05-02T11:52:28.999Z</time></trkpt><trkpt lat="45.84967477690226" lon="11.356540584754027"><ele>745.0</ele><time>2026-05-02T11:52:29.999Z</time></trkpt><trkpt lat="45.849806359338075" lon="11.356423009113337"><ele>745.0</ele><time>2026-05-02T11:52:30.999Z</time></trkpt><trkpt lat="45.84995404216174" lon="11.356335871524168"><ele>755.3333333333334</ele><time>2026-05-02T11:52:31.999Z</time></trkpt><trkpt lat="45.85011670465402" lon="11.356275188546345"><ele>765.6666666666667</ele><time>2026-05-02T11:52:32.999Z</time></trkpt><trkpt lat="45.850286922464065" lon="11.356236186926573"><ele>776.0</ele><time>2026-05-02T11:52:33.999Z</time></trkpt><trkpt lat="45.850466570280204" lon="11.356192549955669"><ele>776.0</ele><time>2026-05-02T11:52:34.999Z</time></trkpt><trkpt lat="45.8506449329775" lon="11.35614093034375"><ele>776.0</ele><time>2026-05-02T11:52:35.999Z</time></trkpt><trkpt lat="45.85082890565501" lon="11.356077440029736"><ele>776.0</ele><time>2026-05-02T11:52:36.999Z</time></trkpt><trkpt lat="45.851023712535756" lon="11.356014016485943"><ele>773.6666666666667</ele><time>2026-05-02T11:52:37.999Z</time></trkpt><trkpt lat="45.85121345408225" lon="11.355937184228289"><ele>771.3333333333333</ele><time>2026-05-02T11:52:38.999Z</time></trkpt><trkpt lat="45.8513995445822" lon="11.355837119030411"><ele>769.0</ele><time>2026-05-02T11:52:39.999Z</time></trkpt><trkpt lat="45.8515891471701" lon="11.35575195371379"><ele>769.0</ele><time>2026-05-02T11:52:40.999Z</time></trkpt><trkpt lat="45.8517722402658" lon="11.35568053859514"><ele>769.0</ele><time>2026-05-02T11:52:41.999Z</time></trkpt><trkpt lat="45.8519608800935" lon="11.355632378891045"><ele>769.0</ele><time>2026-05-02T11:52:42.999Z</time></trkpt><trkpt lat="45.85215430026876" lon="11.35559986665787"><ele>769.6666666666666</ele><time>2026-05-02T11:52:43.999Z</time></trkpt><trkpt lat="45.85234516923765" lon="11.355554197099758"><ele>770.3333333333333</ele><time>2026-05-02T11:52:44.999Z</time></trkpt><trkpt lat="45.8525300032397" lon="11.355480762930538"><ele>771.0</ele><time>2026-05-02T11:52:45.999Z</time></trkpt><trkpt lat="45.85271082489909" lon="11.355403388334395"><ele>774.6666666666667</ele><time>2026-05-02T11:52:46.999Z</time></trkpt><trkpt lat="45.85288849899928" lon="11.355329471532933"><ele>778.3333333333334</ele><time>2026-05-02T11:52:47.999Z</time></trkpt><trkpt lat="45.85306342911912" lon="11.355251010282874"><ele>782.0</ele><time>2026-05-02T11:52:48.999Z</time></trkpt><trkpt lat="45.85322844415718" lon="11.355172229415755"><ele>782.0</ele><time>2026-05-02T11:52:49.999Z</time></trkpt><trkpt lat="45.85335423016022" lon="11.355070263469942"><ele>782.0</ele><time>2026-05-02T11:52:50.999Z</time></trkpt><trkpt lat="45.853473764415064" lon="11.354936201952993"><ele>782.0</ele><time>2026-05-02T11:52:51.999Z</time></trkpt><trkpt lat="45.85360085442768" lon="11.35478537749521"><ele>784.3333333333334</ele><time>2026-05-02T11:52:52.999Z</time></trkpt><trkpt lat="45.8537334666235" lon="11.354646082602464"><ele>786.6666666666667</ele><time>2026-05-02T11:52:53.999Z</time></trkpt><trkpt lat="45.8538700417152" lon="11.35451637462854"><ele>789.0</ele><time>2026-05-02T11:52:54.999Z</time></trkpt><trkpt lat="45.853992224376576" lon="11.354382934307829"><ele>789.0</ele><time>2026-05-02T11:52:55.999Z</time></trkpt><trkpt lat="45.85406352165414" lon="11.35420866496599"><ele>789.0</ele><time>2026-05-02T11:52:56.999Z</time></trkpt><trkpt lat="45.85412173466337" lon="11.354009642206115"><ele>789.0</ele><time>2026-05-02T11:52:57.999Z</time></trkpt><trkpt lat="45.85417933163652" lon="11.353811029602522"><ele>789.0</ele><time>2026-05-02T11:52:58.999Z</time></trkpt><trkpt lat="45.85427184089656" lon="11.353648905589637"><ele>792.3333333333333</ele><time>2026-05-02T11:52:59.999Z</time></trkpt><trkpt lat="45.85438472619833" lon="11.353515826440846"><ele>795.6666666666666</ele><time>2026-05-02T11:53:00.999Z</time></trkpt><trkpt lat="45.85451802453434" lon="11.353412090344817"><ele>799.0</ele><time>2026-05-02T11:53:01.999Z</time></trkpt><trkpt lat="45.854653336484546" lon="11.353277317643304"><ele>799.0</ele><time>2026-05-02T11:53:02.999Z</time></trkpt><trkpt lat="45.854803215175515" lon="11.353171477694874"><ele>799.0</ele><time>2026-05-02T11:53:03.999Z</time></trkpt><trkpt lat="45.854941678358934" lon="11.353049374704556"><ele>799.0</ele><time>2026-05-02T11:53:04.999Z</time></trkpt><trkpt lat="45.85507512324445" lon="11.352940152501038"><ele>808.3333333333333</ele><time>2026-05-02T11:53:05.999Z</time></trkpt><trkpt lat="45.855210564081446" lon="11.352830226056998"><ele>817.6666666666667</ele><time>2026-05-02T11:53:06.999Z</time></trkpt><trkpt lat="45.85535617102941" lon="11.352751374804685"><ele>827.0</ele><time>2026-05-02T11:53:07.999Z</time></trkpt><trkpt lat="45.85550645467015" lon="11.352742667235992"><ele>827.0</ele><time>2026-05-02T11:53:08.999Z</time></trkpt><trkpt lat="45.855654125568236" lon="11.352743933543065"><ele>827.0</ele><time>2026-05-02T11:53:09.999Z</time></trkpt><trkpt lat="45.855830812402594" lon="11.35274206023157"><ele>827.0</ele><time>2026-05-02T11:53:10.999Z</time></trkpt><trkpt lat="45.855927590114185" lon="11.352755314871198"><ele>827.0</ele><time>2026-05-02T11:53:11.999Z</time></trkpt><trkpt lat="45.856040645064006" lon="11.352768103148064"><ele>828.0</ele><time>2026-05-02T11:53:12.999Z</time></trkpt><trkpt lat="45.85613299909712" lon="11.35277438124055"><ele>829.0</ele><time>2026-05-02T11:53:13.999Z</time></trkpt><trkpt lat="45.85620991592246" lon="11.3527680581025"><ele>830.0</ele><time>2026-05-02T11:53:14.999Z</time></trkpt><trkpt lat="45.85627930319597" lon="11.352619473521505"><ele>831.0</ele><time>2026-05-02T11:53:16.999Z</time></trkpt><trkpt lat="45.8562418016115" lon="11.352540773761937"><ele>832.0</ele><time>2026-05-02T11:53:17.999Z</time></trkpt><trkpt lat="45.85616081832529" lon="11.35246892098054"><ele>832.0</ele><time>2026-05-02T11:53:18.999Z</time></trkpt><trkpt lat="45.85604956041259" lon="11.352465409395972"><ele>832.0</ele><time>2026-05-02T11:53:20.001Z</time></trkpt><trkpt lat="45.8559265799834" lon="11.352436985701098"><ele>832.0</ele><time>2026-05-02T11:53:21.001Z</time></trkpt><trkpt lat="45.85580165928055" lon="11.352397415766731"><ele>832.0</ele><time>2026-05-02T11:53:22.001Z</time></trkpt><trkpt lat="45.85565578143111" lon="11.35237043768704"><ele>830.3333333333333</ele><time>2026-05-02T11:53:23.001Z</time></trkpt><trkpt lat="45.855500795129586" lon="11.352318107160285"><ele>828.6666666666667</ele><time>2026-05-02T11:53:24.001Z</time></trkpt><trkpt lat="45.85532643237371" lon="11.352280343160807"><ele>827.0</ele><time>2026-05-02T11:53:25.001Z</time></trkpt><trkpt lat="45.85515871931667" lon="11.352226423122122"><ele>835.3333333333334</ele><time>2026-05-02T11:53:26.001Z</time></trkpt><trkpt lat="45.85497249699466" lon="11.352202489400836"><ele>843.6666666666667</ele><time>2026-05-02T11:53:27.001Z</time></trkpt><trkpt lat="45.85480007265684" lon="11.352146101274917"><ele>852.0</ele><time>2026-05-02T11:53:28.001Z</time></trkpt><trkpt lat="45.854593902897214" lon="11.35210549959709"><ele>852.0</ele><time>2026-05-02T11:53:29.001Z</time></trkpt><trkpt lat="45.85439898393067" lon="11.35205571388553"><ele>852.0</ele><time>2026-05-02T11:53:30.001Z</time></trkpt><trkpt lat="45.854223140867816" lon="11.352017137382925"><ele>852.0</ele><time>2026-05-02T11:53:31.001Z</time></trkpt><trkpt lat="45.85407512217332" lon="11.352041124778053"><ele>854.0</ele><time>2026-05-02T11:53:32.001Z</time></trkpt><trkpt lat="45.85391429370735" lon="11.352113871704168"><ele>856.0</ele><time>2026-05-02T11:53:33.001Z</time></trkpt><trkpt lat="45.85376457636406" lon="11.352205516078206"><ele>858.0</ele><time>2026-05-02T11:53:34.001Z</time></trkpt><trkpt lat="45.853610617923174" lon="11.35230787845757"><ele>851.6666666666667</ele><time>2026-05-02T11:53:35.001Z</time></trkpt><trkpt lat="45.853460950204564" lon="11.352392727808514"><ele>845.3333333333334</ele><time>2026-05-02T11:53:36.001Z</time></trkpt><trkpt lat="45.8533092275917" lon="11.352469670724647"><ele>839.0</ele><time>2026-05-02T11:53:37.001Z</time></trkpt><trkpt lat="45.85316710686372" lon="11.35250599754562"><ele>839.0</ele><time>2026-05-02T11:53:38.001Z</time></trkpt><trkpt lat="45.85303616513971" lon="11.352524025217448"><ele>839.0</ele><time>2026-05-02T11:53:39Z</time></trkpt><trkpt lat="45.85288713428858" lon="11.352505806665624"><ele>839.0</ele><time>2026-05-02T11:53:40Z</time></trkpt><trkpt lat="45.85273370487561" lon="11.352503733513533"><ele>839.0</ele><time>2026-05-02T11:53:41Z</time></trkpt><trkpt lat="45.85256930749588" lon="11.352495649979366"><ele>842.6666666666667</ele><time>2026-05-02T11:53:42Z</time></trkpt><trkpt lat="45.8523966257347" lon="11.352519899745092"><ele>846.3333333333333</ele><time>2026-05-02T11:53:43Z</time></trkpt><trkpt lat="45.85222357780401" lon="11.352561191301834"><ele>850.0</ele><time>2026-05-02T11:53:44Z</time></trkpt><trkpt lat="45.852047160617644" lon="11.352597424002367"><ele>850.0</ele><time>2026-05-02T11:53:45Z</time></trkpt><trkpt lat="45.85186978135755" lon="11.352650333767473"><ele>850.0</ele><time>2026-05-02T11:53:46Z</time></trkpt><trkpt lat="45.851703290998394" lon="11.352677039837799"><ele>850.0</ele><time>2026-05-02T11:53:47Z</time></trkpt><trkpt lat="45.85155892775653" lon="11.352722791528"><ele>853.0</ele><time>2026-05-02T11:53:48Z</time></trkpt><trkpt lat="45.85140232494293" lon="11.352700686217792"><ele>856.0</ele><time>2026-05-02T11:53:49Z</time></trkpt><trkpt lat="45.851243314862636" lon="11.352683159467096"><ele>859.0</ele><time>2026-05-02T11:53:50Z</time></trkpt><trkpt lat="45.8510700866219" lon="11.352679996342154"><ele>860.0</ele><time>2026-05-02T11:53:51Z</time></trkpt><trkpt lat="45.85089118638605" lon="11.352646266606753"><ele>861.0</ele><time>2026-05-02T11:53:52Z</time></trkpt><trkpt lat="45.85070952109499" lon="11.352621111714987"><ele>862.0</ele><time>2026-05-02T11:53:53Z</time></trkpt><trkpt lat="45.850537742088676" lon="11.352590776243527"><ele>862.0</ele><time>2026-05-02T11:53:54Z</time></trkpt><trkpt lat="45.85038694148513" lon="11.352558853290226"><ele>862.0</ele><time>2026-05-02T11:53:55Z</time></trkpt><trkpt lat="45.85025068463719" lon="11.352524885654947"><ele>862.0</ele><time>2026-05-02T11:53:56Z</time></trkpt><trkpt lat="45.85012947446548" lon="11.352487126561432"><ele>862.0</ele><time>2026-05-02T11:53:57Z</time></trkpt><trkpt lat="45.85003491309948" lon="11.352448906831674"><ele>861.9999999999999</ele><time>2026-05-02T11:53:58Z</time></trkpt><trkpt lat="45.849959260299066" lon="11.35242405592267"><ele>862.0</ele><time>2026-05-02T11:53:59Z</time></trkpt><trkpt lat="45.84991770240533" lon="11.352350522341045"><ele>862.0</ele><time>2026-05-02T11:54:00Z</time></trkpt><trkpt lat="45.84993114799415" lon="11.352260301118427"><ele>862.0</ele><time>2026-05-02T11:54:01Z</time></trkpt><trkpt lat="45.84999496601572" lon="11.352218519103973"><ele>861.9999999999999</ele><time>2026-05-02T11:54:02Z</time></trkpt><trkpt lat="45.85007106394563" lon="11.352270520322108"><ele>862.0</ele><time>2026-05-02T11:54:03Z</time></trkpt><trkpt lat="45.85016180979434" lon="11.352279135449427"><ele>862.0</ele><time>2026-05-02T11:54:04Z</time></trkpt><trkpt lat="45.850268911361134" lon="11.35230166228456"><ele>862.0</ele><time>2026-05-02T11:54:05Z</time></trkpt><trkpt lat="45.850391058806274" lon="11.352312259184492"><ele>862.0</ele><time>2026-05-02T11:54:06Z</time></trkpt><trkpt lat="45.850527268935515" lon="11.352317501928761"><ele>862.0</ele><time>2026-05-02T11:54:07Z</time></trkpt><trkpt lat="45.850679034310225" lon="11.352320128744354"><ele>862.0</ele><time>2026-05-02T11:54:08Z</time></trkpt><trkpt lat="45.85083571440337" lon="11.352304194199295"><ele>862.0</ele><time>2026-05-02T11:54:09Z</time></trkpt><trkpt lat="45.850988414995754" lon="11.35225070844401"><ele>862.0</ele><time>2026-05-02T11:54:10Z</time></trkpt><trkpt lat="45.85114423753753" lon="11.352179062215086"><ele>870.3333333333333</ele><time>2026-05-02T11:54:11Z</time></trkpt><trkpt lat="45.85131441555657" lon="11.352096420274517"><ele>878.6666666666667</ele><time>2026-05-02T11:54:12Z</time></trkpt><trkpt lat="45.85147505312303" lon="11.351991342814978"><ele>887.0</ele><time>2026-05-02T11:54:13Z</time></trkpt><trkpt lat="45.851634825951585" lon="11.351857605511132"><ele>882.0</ele><time>2026-05-02T11:54:14Z</time></trkpt><trkpt lat="45.85180204451246" lon="11.351711193039927"><ele>877.0</ele><time>2026-05-02T11:54:15Z</time></trkpt><trkpt lat="45.851974328673236" lon="11.351569021043053"><ele>872.0</ele><time>2026-05-02T11:54:16Z</time></trkpt><trkpt lat="45.85214626811229" lon="11.351424583526715"><ele>877.6666666666667</ele><time>2026-05-02T11:54:17Z</time></trkpt><trkpt lat="45.85234883593096" lon="11.351297494469637"><ele>883.3333333333333</ele><time>2026-05-02T11:54:18Z</time></trkpt><trkpt lat="45.852526978149776" lon="11.3511754533255"><ele>889.0</ele><time>2026-05-02T11:54:19Z</time></trkpt><trkpt lat="45.852701322426235" lon="11.3510678165464"><ele>889.0</ele><time>2026-05-02T11:54:20Z</time></trkpt><trkpt lat="45.85287621108251" lon="11.350964012981784"><ele>889.0</ele><time>2026-05-02T11:54:21Z</time></trkpt><trkpt lat="45.85304398889392" lon="11.350845294329128"><ele>889.0</ele><time>2026-05-02T11:54:22Z</time></trkpt><trkpt lat="45.85320198098545" lon="11.350706514636576"><ele>891.6666666666666</ele><time>2026-05-02T11:54:23Z</time></trkpt><trkpt lat="45.853360382551585" lon="11.350530878386888"><ele>894.3333333333333</ele><time>2026-05-02T11:54:24Z</time></trkpt><trkpt lat="45.85349494312741" lon="11.350351223889692"><ele>897.0</ele><time>2026-05-02T11:54:25Z</time></trkpt><trkpt lat="45.85362301068076" lon="11.350190222526809"><ele>897.0</ele><time>2026-05-02T11:54:26Z</time></trkpt><trkpt lat="45.85374999137988" lon="11.350020200574491"><ele>897.0</ele><time>2026-05-02T11:54:26.999Z</time></trkpt><trkpt lat="45.8538636551611" lon="11.349894564779994"><ele>897.0</ele><time>2026-05-02T11:54:27.999Z</time></trkpt><trkpt lat="45.853989021179636" lon="11.349784906878082"><ele>897.0</ele><time>2026-05-02T11:54:28.999Z</time></trkpt><trkpt lat="45.8541247268338" lon="11.349712109150643"><ele>897.0</ele><time>2026-05-02T11:54:29.999Z</time></trkpt><trkpt lat="45.85426445074955" lon="11.349707196064118"><ele>897.0</ele><time>2026-05-02T11:54:30.999Z</time></trkpt><trkpt lat="45.85439990698574" lon="11.349732628346302"><ele>897.0</ele><time>2026-05-02T11:54:31.999Z</time></trkpt><trkpt lat="45.85455683935877" lon="11.34980689687984"><ele>898.5</ele><time>2026-05-02T11:54:32.999Z</time></trkpt><trkpt lat="45.854684251428445" lon="11.34985643401206"><ele>900.0</ele><time>2026-05-02T11:54:33.999Z</time></trkpt><trkpt lat="45.854817975697266" lon="11.34986672909065"><ele>901.5</ele><time>2026-05-02T11:54:34.999Z</time></trkpt><trkpt lat="45.85496328307628" lon="11.349825656543628"><ele>903.0</ele><time>2026-05-02T11:54:35.999Z</time></trkpt><trkpt lat="45.855113787151055" lon="11.349759739894381"><ele>905.6666666666667</ele><time>2026-05-02T11:54:36.999Z</time></trkpt><trkpt lat="45.85526569529111" lon="11.349706114774968"><ele>908.3333333333334</ele><time>2026-05-02T11:54:37.999Z</time></trkpt><trkpt lat="45.85543003509671" lon="11.34965640211228"><ele>911.0</ele><time>2026-05-02T11:54:38.999Z</time></trkpt><trkpt lat="45.85562904935997" lon="11.349601519081919"><ele>911.0</ele><time>2026-05-02T11:54:39.999Z</time></trkpt><trkpt lat="45.855815940966366" lon="11.349550237032899"><ele>911.0</ele><time>2026-05-02T11:54:40.999Z</time></trkpt><trkpt lat="45.85600482786089" lon="11.349487937141538"><ele>911.0</ele><time>2026-05-02T11:54:41.999Z</time></trkpt><trkpt lat="45.856183433534746" lon="11.349418321797875"><ele>910.6666666666667</ele><time>2026-05-02T11:54:42.999Z</time></trkpt><trkpt lat="45.85637151988872" lon="11.349320985646852"><ele>910.3333333333333</ele><time>2026-05-02T11:54:43.999Z</time></trkpt><trkpt lat="45.8565570828582" lon="11.34920980377618"><ele>910.0</ele><time>2026-05-02T11:54:44.999Z</time></trkpt><trkpt lat="45.856740078979314" lon="11.349105462706905"><ele>910.3333333333333</ele><time>2026-05-02T11:54:45.999Z</time></trkpt><trkpt lat="45.856919657181734" lon="11.349008879490118"><ele>910.6666666666667</ele><time>2026-05-02T11:54:46.999Z</time></trkpt><trkpt lat="45.85708709558054" lon="11.34891638630153"><ele>911.0</ele><time>2026-05-02T11:54:47.999Z</time></trkpt><trkpt lat="45.857230851021185" lon="11.3488348433796"><ele>915.25</ele><time>2026-05-02T11:54:48.999Z</time></trkpt><trkpt lat="45.857360662276406" lon="11.348767298272108"><ele>919.5</ele><time>2026-05-02T11:54:49.999Z</time></trkpt><trkpt lat="45.85746517952224" lon="11.348709906027572"><ele>923.75</ele><time>2026-05-02T11:54:50.999Z</time></trkpt><trkpt lat="45.85754124873942" lon="11.348658680697"><ele>928.0</ele><time>2026-05-02T11:54:51.999Z</time></trkpt><trkpt lat="45.85757092608049" lon="11.348496234821223"><ele>928.0</ele><time>2026-05-02T11:54:53.999Z</time></trkpt><trkpt lat="45.85751477056413" lon="11.348396409469286"><ele>928.0</ele><time>2026-05-02T11:54:54.999Z</time></trkpt><trkpt lat="45.85742493108279" lon="11.348331577325057"><ele>928.0</ele><time>2026-05-02T11:54:55.999Z</time></trkpt><trkpt lat="45.85732263259061" lon="11.348264994658237"><ele>928.0</ele><time>2026-05-02T11:54:56.999Z</time></trkpt><trkpt lat="45.85721191587627" lon="11.348196419219395"><ele>928.0</ele><time>2026-05-02T11:54:57.999Z</time></trkpt><trkpt lat="45.85707513213043" lon="11.348129787944155"><ele>928.0</ele><time>2026-05-02T11:54:58.999Z</time></trkpt><trkpt lat="45.85693847732196" lon="11.348078679600446"><ele>928.0</ele><time>2026-05-02T11:54:59.999Z</time></trkpt><trkpt lat="45.856797619964716" lon="11.348027233613326"><ele>928.0</ele><time>2026-05-02T11:55:00.999Z</time></trkpt><trkpt lat="45.856672524724445" lon="11.347988411637662"><ele>928.0</ele><time>2026-05-02T11:55:01.999Z</time></trkpt><trkpt lat="45.85651414670114" lon="11.347924392128917"><ele>932.6666666666666</ele><time>2026-05-02T11:55:02.999Z</time></trkpt><trkpt lat="45.8563684611328" lon="11.347829816795759"><ele>937.3333333333333</ele><time>2026-05-02T11:55:03.999Z</time></trkpt><trkpt lat="45.856236862425135" lon="11.347728687192925"><ele>942.0</ele><time>2026-05-02T11:55:04.999Z</time></trkpt><trkpt lat="45.8561159657677" lon="11.347619526051073"><ele>942.0</ele><time>2026-05-02T11:55:05.999Z</time></trkpt><trkpt lat="45.8560015304583" lon="11.347499330164295"><ele>942.0</ele><time>2026-05-02T11:55:06.999Z</time></trkpt><trkpt lat="45.85589906870025" lon="11.347391780945708"><ele>942.0</ele><time>2026-05-02T11:55:07.999Z</time></trkpt><trkpt lat="45.85579446290634" lon="11.347309185860796"><ele>942.0</ele><time>2026-05-02T11:55:08.999Z</time></trkpt><trkpt lat="45.85571089179083" lon="11.347220067052431"><ele>943.6</ele><time>2026-05-02T11:55:09.999Z</time></trkpt><trkpt lat="45.85562925431352" lon="11.347155048722778"><ele>945.2</ele><time>2026-05-02T11:55:10.999Z</time></trkpt><trkpt lat="45.855532389928044" lon="11.347084627588131"><ele>946.8</ele><time>2026-05-02T11:55:11.999Z</time></trkpt><trkpt lat="45.85543142494263" lon="11.347024574843983"><ele>948.4</ele><time>2026-05-02T11:55:12.999Z</time></trkpt><trkpt lat="45.855330944965246" lon="11.346962084856676"><ele>950.0</ele><time>2026-05-02T11:55:13.999Z</time></trkpt><trkpt lat="45.855230093256345" lon="11.346916925811046"><ele>950.0</ele><time>2026-05-02T11:55:14.999Z</time></trkpt><trkpt lat="45.85512752438371" lon="11.346892456755208"><ele>950.0</ele><time>2026-05-02T11:55:15.999Z</time></trkpt><trkpt lat="45.85502686646374" lon="11.346877665210346"><ele>950.0</ele><time>2026-05-02T11:55:16.999Z</time></trkpt><trkpt lat="45.85491903139614" lon="11.346863048185472"><ele>950.0</ele><time>2026-05-02T11:55:17.999Z</time></trkpt><trkpt lat="45.854815852765064" lon="11.346840267012212"><ele>950.0</ele><time>2026-05-02T11:55:18.999Z</time></trkpt><trkpt lat="45.85470655087645" lon="11.346818644151519"><ele>949.6</ele><time>2026-05-02T11:55:19.999Z</time></trkpt><trkpt lat="45.85459881986296" lon="11.346812839360622"><ele>949.2</ele><time>2026-05-02T11:55:20.999Z</time></trkpt><trkpt lat="45.85448431008534" lon="11.346830859284145"><ele>948.8</ele><time>2026-05-02T11:55:21.999Z</time></trkpt><trkpt lat="45.854378254803684" lon="11.346874536300016"><ele>948.4</ele><time>2026-05-02T11:55:22.999Z</time></trkpt><trkpt lat="45.85427291155905" lon="11.346934248141674"><ele>948.0</ele><time>2026-05-02T11:55:23.999Z</time></trkpt><trkpt lat="45.854161793590585" lon="11.346982903500658"><ele>949.4</ele><time>2026-05-02T11:55:24.999Z</time></trkpt><trkpt lat="45.85405474528833" lon="11.347030951583188"><ele>950.8</ele><time>2026-05-02T11:55:26.001Z</time></trkpt><trkpt lat="45.85396445136739" lon="11.347092776990518"><ele>952.2</ele><time>2026-05-02T11:55:27.001Z</time></trkpt><trkpt lat="45.85389599738801" lon="11.34712209245605"><ele>953.6</ele><time>2026-05-02T11:55:28.001Z</time></trkpt><trkpt lat="45.8537948528311" lon="11.347142103833416"><ele>955.0</ele><time>2026-05-02T11:55:30.001Z</time></trkpt><trkpt lat="45.85370643591087" lon="11.347159357776794"><ele>955.0</ele><time>2026-05-02T11:55:32.001Z</time></trkpt><trkpt lat="45.853680310524815" lon="11.34702797545991"><ele>955.0</ele><time>2026-05-02T11:55:34.001Z</time></trkpt><trkpt lat="45.853727711453026" lon="11.346938658273407"><ele>955.0</ele><time>2026-05-02T11:55:35.001Z</time></trkpt><trkpt lat="45.853803789605784" lon="11.346864992350955"><ele>955.0</ele><time>2026-05-02T11:55:36.001Z</time></trkpt><trkpt lat="45.85388587707414" lon="11.34677707262538"><ele>955.0</ele><time>2026-05-02T11:55:37.001Z</time></trkpt><trkpt lat="45.853965632363256" lon="11.346667148206885"><ele>955.0</ele><time>2026-05-02T11:55:38.001Z</time></trkpt><trkpt lat="45.85405471394563" lon="11.346548203243428"><ele>955.0</ele><time>2026-05-02T11:55:39.001Z</time></trkpt><trkpt lat="45.85415461373034" lon="11.34643577851441"><ele>955.0</ele><time>2026-05-02T11:55:40.001Z</time></trkpt><trkpt lat="45.854276902865855" lon="11.346328912136826"><ele>955.0</ele><time>2026-05-02T11:55:41.001Z</time></trkpt><trkpt lat="45.854406829302256" lon="11.346231736984828"><ele>957.5</ele><time>2026-05-02T11:55:42.001Z</time></trkpt><trkpt lat="45.85452917006892" lon="11.346134907428912"><ele>960.0</ele><time>2026-05-02T11:55:43.001Z</time></trkpt><trkpt lat="45.85465157524542" lon="11.34603499127898"><ele>962.5</ele><time>2026-05-02T11:55:44.001Z</time></trkpt><trkpt lat="45.85476112283176" lon="11.345943198058121"><ele>965.0</ele><time>2026-05-02T11:55:45Z</time></trkpt><trkpt lat="45.85485807442001" lon="11.345863720044541"><ele>965.0</ele><time>2026-05-02T11:55:46Z</time></trkpt><trkpt lat="45.85495003805114" lon="11.345796826962367"><ele>965.0</ele><time>2026-05-02T11:55:47Z</time></trkpt><trkpt lat="45.855052584785476" lon="11.345749927653381"><ele>965.0</ele><time>2026-05-02T11:55:48Z</time></trkpt><trkpt lat="45.85517304626893" lon="11.345720506272748"><ele>965.0</ele><time>2026-05-02T11:55:49Z</time></trkpt><trkpt lat="45.855298571543074" lon="11.345709316013808"><ele>965.8</ele><time>2026-05-02T11:55:50Z</time></trkpt><trkpt lat="45.85541672646307" lon="11.345696591681824"><ele>966.6</ele><time>2026-05-02T11:55:51Z</time></trkpt><trkpt lat="45.85551808788664" lon="11.345683264630061"><ele>967.4000000000001</ele><time>2026-05-02T11:55:52Z</time></trkpt><trkpt lat="45.85561506988938" lon="11.345661734377929"><ele>968.2</ele><time>2026-05-02T11:55:53Z</time></trkpt><trkpt lat="45.85572310386247" lon="11.345641376995637"><ele>969.0</ele><time>2026-05-02T11:55:54Z</time></trkpt><trkpt lat="45.855841633352526" lon="11.345624072911914"><ele>972.25</ele><time>2026-05-02T11:55:55Z</time></trkpt><trkpt lat="45.85595904878227" lon="11.345604796413266"><ele>975.5</ele><time>2026-05-02T11:55:56Z</time></trkpt><trkpt lat="45.856074057201354" lon="11.345583967992777"><ele>978.75</ele><time>2026-05-02T11:55:57Z</time></trkpt><trkpt lat="45.856187294016756" lon="11.345574992582565"><ele>982.0</ele><time>2026-05-02T11:55:58Z</time></trkpt><trkpt lat="45.85630147450982" lon="11.345590453717161"><ele>982.0</ele><time>2026-05-02T11:55:59Z</time></trkpt><trkpt lat="45.85641372990276" lon="11.345626592337062"><ele>982.0</ele><time>2026-05-02T11:56:00Z</time></trkpt><trkpt lat="45.856525782193025" lon="11.345672115665696"><ele>982.0</ele><time>2026-05-02T11:56:01Z</time></trkpt><trkpt lat="45.85663387509177" lon="11.34571845919656"><ele>982.0</ele><time>2026-05-02T11:56:02Z</time></trkpt><trkpt lat="45.85674483521538" lon="11.345759795835528"><ele>983.0</ele><time>2026-05-02T11:56:03Z</time></trkpt><trkpt lat="45.85685521597247" lon="11.345800293405484"><ele>984.0</ele><time>2026-05-02T11:56:04Z</time></trkpt><trkpt lat="45.856965964772684" lon="11.345845414112572"><ele>985.0</ele><time>2026-05-02T11:56:05Z</time></trkpt><trkpt lat="45.857071026858" lon="11.345885512712384"><ele>986.0</ele><time>2026-05-02T11:56:06Z</time></trkpt><trkpt lat="45.857167394875155" lon="11.345918026203261"><ele>987.0</ele><time>2026-05-02T11:56:07Z</time></trkpt><trkpt lat="45.857255954701024" lon="11.345931841401638"><ele>987.0</ele><time>2026-05-02T11:56:08Z</time></trkpt><trkpt lat="45.857339380419894" lon="11.345914016514529"><ele>987.0</ele><time>2026-05-02T11:56:09Z</time></trkpt><trkpt lat="45.85740781864645" lon="11.34586075497541"><ele>987.0</ele><time>2026-05-02T11:56:10Z</time></trkpt><trkpt lat="45.85747206816614" lon="11.345827640394273"><ele>987.0</ele><time>2026-05-02T11:56:11Z</time></trkpt><trkpt lat="45.85755389116284" lon="11.345819609550539"><ele>987.0</ele><time>2026-05-02T11:56:12Z</time></trkpt><trkpt lat="45.857638394364066" lon="11.345847026294745"><ele>987.0</ele><time>2026-05-02T11:56:13Z</time></trkpt><trkpt lat="45.8577343333072" lon="11.345895733404092"><ele>985.5</ele><time>2026-05-02T11:56:14Z</time></trkpt><trkpt lat="45.85783432955086" lon="11.345963549789333"><ele>984.0</ele><time>2026-05-02T11:56:15Z</time></trkpt><trkpt lat="45.85793490938505" lon="11.34604995051976"><ele>982.5</ele><time>2026-05-02T11:56:16Z</time></trkpt><trkpt lat="45.85803262886761" lon="11.346149572490447"><ele>981.0</ele><time>2026-05-02T11:56:17Z</time></trkpt><trkpt lat="45.85812115233061" lon="11.346236754397724"><ele>981.0</ele><time>2026-05-02T11:56:18Z</time></trkpt><trkpt lat="45.85820701597593" lon="11.346320860035517"><ele>981.0</ele><time>2026-05-02T11:56:19Z</time></trkpt><trkpt lat="45.858301092607995" lon="11.34640083512275"><ele>981.0</ele><time>2026-05-02T11:56:20Z</time></trkpt><trkpt lat="45.858396701506095" lon="11.346492464199104"><ele>981.0</ele><time>2026-05-02T11:56:21Z</time></trkpt><trkpt lat="45.8585036469228" lon="11.346580415338256"><ele>982.75</ele><time>2026-05-02T11:56:22Z</time></trkpt><trkpt lat="45.85861015910643" lon="11.346659253258702"><ele>984.5</ele><time>2026-05-02T11:56:23Z</time></trkpt><trkpt lat="45.85871139624611" lon="11.346720951810838"><ele>986.25</ele><time>2026-05-02T11:56:24Z</time></trkpt><trkpt lat="45.858811357093224" lon="11.346782198512289"><ele>988.0</ele><time>2026-05-02T11:56:25Z</time></trkpt><trkpt lat="45.85891445473883" lon="11.346841590377991"><ele>988.0</ele><time>2026-05-02T11:56:25.999Z</time></trkpt><trkpt lat="45.85901284963989" lon="11.346907700527334"><ele>988.0</ele><time>2026-05-02T11:56:26.999Z</time></trkpt><trkpt lat="45.85910982865689" lon="11.346990469165899"><ele>988.0</ele><time>2026-05-02T11:56:27.999Z</time></trkpt><trkpt lat="45.85920916712411" lon="11.347053359359357"><ele>988.0</ele><time>2026-05-02T11:56:28.999Z</time></trkpt><trkpt lat="45.859316185328986" lon="11.347105585959953"><ele>988.0</ele><time>2026-05-02T11:56:29.999Z</time></trkpt><trkpt lat="45.85942180916167" lon="11.347166707350233"><ele>990.0</ele><time>2026-05-02T11:56:30.999Z</time></trkpt><trkpt lat="45.85952799042253" lon="11.347244629403988"><ele>992.0</ele><time>2026-05-02T11:56:31.999Z</time></trkpt><trkpt lat="45.85964330975759" lon="11.347318507976942"><ele>994.0</ele><time>2026-05-02T11:56:32.999Z</time></trkpt><trkpt lat="45.85977247340303" lon="11.347398189934935"><ele>996.0</ele><time>2026-05-02T11:56:33.999Z</time></trkpt><trkpt lat="45.85991586089244" lon="11.347509533644832"><ele>996.0</ele><time>2026-05-02T11:56:34.999Z</time></trkpt><trkpt lat="45.86007426836748" lon="11.347604958806567"><ele>996.0</ele><time>2026-05-02T11:56:35.999Z</time></trkpt><trkpt lat="45.86024028804723" lon="11.3476819674481"><ele>996.0</ele><time>2026-05-02T11:56:36.999Z</time></trkpt><trkpt lat="45.86038759202843" lon="11.347778409181911"><ele>996.5</ele><time>2026-05-02T11:56:37.999Z</time></trkpt><trkpt lat="45.86053696010756" lon="11.34783597569176"><ele>997.0</ele><time>2026-05-02T11:56:38.999Z</time></trkpt><trkpt lat="45.86068300918736" lon="11.347882359799637"><ele>997.5</ele><time>2026-05-02T11:56:39.999Z</time></trkpt><trkpt lat="45.86081837486786" lon="11.347915329743977"><ele>998.0</ele><time>2026-05-02T11:56:40.999Z</time></trkpt><trkpt lat="45.86095618680851" lon="11.347932337244869"><ele>1000.25</ele><time>2026-05-02T11:56:41.999Z</time></trkpt><trkpt lat="45.861088916493436" lon="11.347915765580497"><ele>1002.5</ele><time>2026-05-02T11:56:42.999Z</time></trkpt><trkpt lat="45.861223238601205" lon="11.34788155799429"><ele>1004.75</ele><time>2026-05-02T11:56:43.999Z</time></trkpt><trkpt lat="45.86134530925775" lon="11.347846079078053"><ele>1007.0</ele><time>2026-05-02T11:56:44.999Z</time></trkpt><trkpt lat="45.861453938445344" lon="11.347815042799745"><ele>1007.0</ele><time>2026-05-02T11:56:45.999Z</time></trkpt><trkpt lat="45.86154948403605" lon="11.347787881594192"><ele>1007.0</ele><time>2026-05-02T11:56:46.999Z</time></trkpt><trkpt lat="45.86164423695841" lon="11.347759302965299"><ele>1007.0</ele><time>2026-05-02T11:56:47.999Z</time></trkpt><trkpt lat="45.86174126385103" lon="11.347714102698554"><ele>1007.0</ele><time>2026-05-02T11:56:48.999Z</time></trkpt><trkpt lat="45.86183324940383" lon="11.34763124120941"><ele>1007.0</ele><time>2026-05-02T11:56:49.999Z</time></trkpt><trkpt lat="45.86191410937997" lon="11.347520098780032"><ele>1012.25</ele><time>2026-05-02T11:56:50.999Z</time></trkpt><trkpt lat="45.86197679865055" lon="11.34737967009211"><ele>1017.5</ele><time>2026-05-02T11:56:51.999Z</time></trkpt><trkpt lat="45.86200979252213" lon="11.34721297112405"><ele>1022.75</ele><time>2026-05-02T11:56:52.999Z</time></trkpt><trkpt lat="45.86201448962983" lon="11.34703773858783"><ele>1028.0</ele><time>2026-05-02T11:56:53.999Z</time></trkpt><trkpt lat="45.86198431921025" lon="11.346860574671911"><ele>1028.75</ele><time>2026-05-02T11:56:54.999Z</time></trkpt><trkpt lat="45.86192743965026" lon="11.346689473919586"><ele>1029.5</ele><time>2026-05-02T11:56:55.999Z</time></trkpt><trkpt lat="45.86184216468243" lon="11.346538263282877"><ele>1030.25</ele><time>2026-05-02T11:56:56.999Z</time></trkpt><trkpt lat="45.86175334571818" lon="11.34639571038419"><ele>1031.0</ele><time>2026-05-02T11:56:57.999Z</time></trkpt><trkpt lat="45.86166666795691" lon="11.346233905427109"><ele>1031.0</ele><time>2026-05-02T11:56:58.999Z</time></trkpt><trkpt lat="45.86158037520224" lon="11.346035966365152"><ele>1031.0</ele><time>2026-05-02T11:56:59.999Z</time></trkpt><trkpt lat="45.861483284621336" lon="11.345828174927687"><ele>1031.0</ele><time>2026-05-02T11:57:00.999Z</time></trkpt><trkpt lat="45.861390376679175" lon="11.345597673308854"><ele>1034.6666666666667</ele><time>2026-05-02T11:57:01.999Z</time></trkpt><trkpt lat="45.86130204370753" lon="11.345339355693842"><ele>1038.3333333333333</ele><time>2026-05-02T11:57:02.999Z</time></trkpt><trkpt lat="45.86121697576936" lon="11.34507036206045"><ele>1042.0</ele><time>2026-05-02T11:57:03.999Z</time></trkpt><trkpt lat="45.86112329830826" lon="11.34479429442778"><ele>1044.6666666666665</ele><time>2026-05-02T11:57:04.999Z</time></trkpt><trkpt lat="45.86102904232204" lon="11.344515401143932"><ele>1047.3333333333333</ele><time>2026-05-02T11:57:05.999Z</time></trkpt><trkpt lat="45.86094040519882" lon="11.344249364866558"><ele>1050.0</ele><time>2026-05-02T11:57:06.999Z</time></trkpt><trkpt lat="45.86085535759102" lon="11.343991733799838"><ele>1044.6666666666667</ele><time>2026-05-02T11:57:07.999Z</time></trkpt><trkpt lat="45.86077965566174" lon="11.34377247001875"><ele>1039.3333333333335</ele><time>2026-05-02T11:57:08.999Z</time></trkpt><trkpt lat="45.86071250048886" lon="11.343579170905759"><ele>1034.0</ele><time>2026-05-02T11:57:09.999Z</time></trkpt><trkpt lat="45.860664592433764" lon="11.343389604994607"><ele>1034.0</ele><time>2026-05-02T11:57:10.999Z</time></trkpt><trkpt lat="45.86064865745864" lon="11.343199241995025"><ele>1034.0</ele><time>2026-05-02T11:57:11.999Z</time></trkpt><trkpt lat="45.86066480113883" lon="11.343007157053275"><ele>1034.0</ele><time>2026-05-02T11:57:12.999Z</time></trkpt><trkpt lat="45.860726493075475" lon="11.342848000760377"><ele>1034.0</ele><time>2026-05-02T11:57:13.999Z</time></trkpt><trkpt lat="45.86079113650713" lon="11.342697049982986"><ele>1033.0</ele><time>2026-05-02T11:57:14.999Z</time></trkpt><trkpt lat="45.860886043438796" lon="11.342566006279197"><ele>1032.0</ele><time>2026-05-02T11:57:15.999Z</time></trkpt><trkpt lat="45.86100108599038" lon="11.342451639867786"><ele>1031.0</ele><time>2026-05-02T11:57:16.999Z</time></trkpt><trkpt lat="45.86113733565708" lon="11.342356550663476"><ele>1030.0</ele><time>2026-05-02T11:57:17.999Z</time></trkpt><trkpt lat="45.86128984330374" lon="11.34226283364869"><ele>1031.6666666666665</ele><time>2026-05-02T11:57:18.999Z</time></trkpt><trkpt lat="45.86145015207778" lon="11.342154020742912"><ele>1033.3333333333333</ele><time>2026-05-02T11:57:19.998Z</time></trkpt><trkpt lat="45.86160704952106" lon="11.342022033912786"><ele>1035.0</ele><time>2026-05-02T11:57:20.998Z</time></trkpt><trkpt lat="45.8617525783015" lon="11.341872217310641"><ele>1037.0</ele><time>2026-05-02T11:57:21.998Z</time></trkpt><trkpt lat="45.861891035124366" lon="11.341712329933062"><ele>1039.0</ele><time>2026-05-02T11:57:22.998Z</time></trkpt><trkpt lat="45.86202316313073" lon="11.341564874207386"><ele>1041.0</ele><time>2026-05-02T11:57:23.998Z</time></trkpt><trkpt lat="45.862157589860956" lon="11.341449088543278"><ele>1042.0</ele><time>2026-05-02T11:57:24.998Z</time></trkpt><trkpt lat="45.86228405310036" lon="11.341365763692385"><ele>1043.0</ele><time>2026-05-02T11:57:25.998Z</time></trkpt><trkpt lat="45.86240736679764" lon="11.341292409942733"><ele>1044.0</ele><time>2026-05-02T11:57:26.998Z</time></trkpt><trkpt lat="45.86250326885582" lon="11.341209834994288"><ele>1045.0</ele><time>2026-05-02T11:57:27.998Z</time></trkpt><trkpt lat="45.862571779025316" lon="11.341087956483426"><ele>1045.0</ele><time>2026-05-02T11:57:28.998Z</time></trkpt><trkpt lat="45.862603684125396" lon="11.340938240044949"><ele>1045.0</ele><time>2026-05-02T11:57:29.998Z</time></trkpt><trkpt lat="45.862603154313085" lon="11.34077253385648"><ele>1045.0</ele><time>2026-05-02T11:57:30.998Z</time></trkpt><trkpt lat="45.862576245472866" lon="11.340607673971606"><ele>1045.0</ele><time>2026-05-02T11:57:32.001Z</time></trkpt><trkpt lat="45.8625269682945" lon="11.340436394673327"><ele>1045.75</ele><time>2026-05-02T11:57:33.001Z</time></trkpt><trkpt lat="45.86247988479324" lon="11.340276072201064"><ele>1046.5</ele><time>2026-05-02T11:57:34.001Z</time></trkpt><trkpt lat="45.86242653820528" lon="11.340123215697396"><ele>1047.25</ele><time>2026-05-02T11:57:35.001Z</time></trkpt><trkpt lat="45.86233583503223" lon="11.340012694755007"><ele>1048.0</ele><time>2026-05-02T11:57:36.001Z</time></trkpt><trkpt lat="45.862231503009625" lon="11.339961487161613"><ele>1048.0</ele><time>2026-05-02T11:57:37.001Z</time></trkpt><trkpt lat="45.862108682232275" lon="11.339932907887944"><ele>1048.0</ele><time>2026-05-02T11:57:38.001Z</time></trkpt><trkpt lat="45.86198243007835" lon="11.339913185950483"><ele>1048.0</ele><time>2026-05-02T11:57:39.001Z</time></trkpt><trkpt lat="45.861867131220485" lon="11.339892453036846"><ele>1048.0</ele><time>2026-05-02T11:57:40.001Z</time></trkpt><trkpt lat="45.861770927486425" lon="11.339870926003677"><ele>1049.25</ele><time>2026-05-02T11:57:41.001Z</time></trkpt><trkpt lat="45.86170002807132" lon="11.339848212092967"><ele>1050.5</ele><time>2026-05-02T11:57:42.001Z</time></trkpt><trkpt lat="45.86152521617383" lon="11.339794058552288"><ele>1051.75</ele><time>2026-05-02T11:57:43.001Z</time></trkpt><trkpt lat="45.86144062822976" lon="11.339714624021468"><ele>1053.0</ele><time>2026-05-02T11:57:44.001Z</time></trkpt><trkpt lat="45.86137747910427" lon="11.33958711817606"><ele>1053.75</ele><time>2026-05-02T11:57:45.001Z</time></trkpt><trkpt lat="45.861327339262985" lon="11.339431243728058"><ele>1054.5</ele><time>2026-05-02T11:57:46.001Z</time></trkpt><trkpt lat="45.86127589662712" lon="11.339268748276233"><ele>1055.25</ele><time>2026-05-02T11:57:47.001Z</time></trkpt><trkpt lat="45.86120724164554" lon="11.33911197725056"><ele>1056.0</ele><time>2026-05-02T11:57:48Z</time></trkpt><trkpt lat="45.861118242266315" lon="11.33897962338188"><ele>1056.0</ele><time>2026-05-02T11:57:49Z</time></trkpt><trkpt lat="45.8609944883663" lon="11.338887264522645"><ele>1056.0</ele><time>2026-05-02T11:57:50Z</time></trkpt><trkpt lat="45.86085355349508" lon="11.338834340210107"><ele>1056.0</ele><time>2026-05-02T11:57:51Z</time></trkpt><trkpt lat="45.860705265359535" lon="11.338807178501245"><ele>1056.0</ele><time>2026-05-02T11:57:52Z</time></trkpt><trkpt lat="45.86054410744654" lon="11.338775867591778"><ele>1062.6666666666667</ele><time>2026-05-02T11:57:53Z</time></trkpt><trkpt lat="45.86038054884507" lon="11.33871252085468"><ele>1069.3333333333335</ele><time>2026-05-02T11:57:54Z</time></trkpt><trkpt lat="45.86021597672038" lon="11.338629373659417"><ele>1076.0</ele><time>2026-05-02T11:57:55Z</time></trkpt><trkpt lat="45.86004787034415" lon="11.338554028714341"><ele>1078.3333333333335</ele><time>2026-05-02T11:57:56Z</time></trkpt><trkpt lat="45.859876453066065" lon="11.338530508031432"><ele>1080.6666666666667</ele><time>2026-05-02T11:57:57Z</time></trkpt><trkpt lat="45.85971997957348" lon="11.338551990830986"><ele>1083.0</ele><time>2026-05-02T11:57:58Z</time></trkpt><trkpt lat="45.85957201359186" lon="11.338589207025839"><ele>1083.0</ele><time>2026-05-02T11:57:59Z</time></trkpt><trkpt lat="45.859433578221655" lon="11.338535749565516"><ele>1083.0</ele><time>2026-05-02T11:58:00Z</time></trkpt><trkpt lat="45.85928136714852" lon="11.338482772551588"><ele>1083.0</ele><time>2026-05-02T11:58:01Z</time></trkpt><trkpt lat="45.85912932758475" lon="11.338428360985867"><ele>1082.6666666666667</ele><time>2026-05-02T11:58:02Z</time></trkpt><trkpt lat="45.85896778449774" lon="11.338396513932347"><ele>1082.3333333333335</ele><time>2026-05-02T11:58:03Z</time></trkpt><trkpt lat="45.8587992684218" lon="11.338357470623372"><ele>1082.0</ele><time>2026-05-02T11:58:04Z</time></trkpt><trkpt lat="45.85863019154945" lon="11.33833547270741"><ele>1082.0</ele><time>2026-05-02T11:58:05Z</time></trkpt><trkpt lat="45.858480110129264" lon="11.338335852701103"><ele>1082.0</ele><time>2026-05-02T11:58:06Z</time></trkpt><trkpt lat="45.85834623567729" lon="11.338333639796756"><ele>1082.0</ele><time>2026-05-02T11:58:07Z</time></trkpt><trkpt lat="45.858224676471785" lon="11.33831376781814"><ele>1082.0</ele><time>2026-05-02T11:58:08Z</time></trkpt><trkpt lat="45.85810975408716" lon="11.338261239325286"><ele>1082.5</ele><time>2026-05-02T11:58:09Z</time></trkpt><trkpt lat="45.85799054055396" lon="11.338173506243246"><ele>1083.0</ele><time>2026-05-02T11:58:10Z</time></trkpt><trkpt lat="45.85786964258301" lon="11.33806693086975"><ele>1083.5</ele><time>2026-05-02T11:58:11Z</time></trkpt><trkpt lat="45.85775999353062" lon="11.337967306570086"><ele>1084.0</ele><time>2026-05-02T11:58:12Z</time></trkpt><trkpt lat="45.8576684838491" lon="11.337895762584663"><ele>1084.0</ele><time>2026-05-02T11:58:13Z</time></trkpt><trkpt lat="45.857593960390965" lon="11.337818165045698"><ele>1084.0</ele><time>2026-05-02T11:58:14Z</time></trkpt><trkpt lat="45.85755765678129" lon="11.337720479336012"><ele>1084.0</ele><time>2026-05-02T11:58:15Z</time></trkpt><trkpt lat="45.85756395049024" lon="11.337615636479162"><ele>1084.0</ele><time>2026-05-02T11:58:16Z</time></trkpt><trkpt lat="45.85762269173751" lon="11.337525446426286"><ele>1084.0</ele><time>2026-05-02T11:58:17Z</time></trkpt><trkpt lat="45.857721709188766" lon="11.337520005546255"><ele>1084.0</ele><time>2026-05-02T11:58:18Z</time></trkpt><trkpt lat="45.85780940108416" lon="11.337500201324112"><ele>1084.0</ele><time>2026-05-02T11:58:19Z</time></trkpt><trkpt lat="45.85791392193325" lon="11.337495960467495"><ele>1084.0</ele><time>2026-05-02T11:58:20Z</time></trkpt><trkpt lat="45.858028422814776" lon="11.337491460304008"><ele>1084.0</ele><time>2026-05-02T11:58:21Z</time></trkpt><trkpt lat="45.858149537102854" lon="11.33748141454972"><ele>1084.0</ele><time>2026-05-02T11:58:22Z</time></trkpt><trkpt lat="45.85827639716136" lon="11.337480320068545"><ele>1084.0</ele><time>2026-05-02T11:58:23Z</time></trkpt><trkpt lat="45.85841077020523" lon="11.33747344215103"><ele>1084.0</ele><time>2026-05-02T11:58:24Z</time></trkpt><trkpt lat="45.858551682007516" lon="11.337418017900172"><ele>1084.0</ele><time>2026-05-02T11:58:25Z</time></trkpt><trkpt lat="45.85868955351618" lon="11.3373366886616"><ele>1084.0</ele><time>2026-05-02T11:58:26Z</time></trkpt><trkpt lat="45.858862018814285" lon="11.337249527090883"><ele>1087.3333333333333</ele><time>2026-05-02T11:58:26.999Z</time></trkpt><trkpt lat="45.85902711347739" lon="11.337205846088732"><ele>1090.6666666666667</ele><time>2026-05-02T11:58:27.999Z</time></trkpt><trkpt lat="45.85920920107305" lon="11.337159975846365"><ele>1094.0</ele><time>2026-05-02T11:58:28.999Z</time></trkpt><trkpt lat="45.85939391003478" lon="11.337067894745356"><ele>1095.6666666666667</ele><time>2026-05-02T11:58:29.999Z</time></trkpt><trkpt lat="45.85956938142209" lon="11.336953190903872"><ele>1097.3333333333333</ele><time>2026-05-02T11:58:30.999Z</time></trkpt><trkpt lat="45.85974443325424" lon="11.336838317090493"><ele>1099.0</ele><time>2026-05-02T11:58:31.999Z</time></trkpt><trkpt lat="45.85991726138217" lon="11.336742681656471"><ele>1099.0</ele><time>2026-05-02T11:58:32.999Z</time></trkpt><trkpt lat="45.860085423049895" lon="11.33667731969008"><ele>1099.0</ele><time>2026-05-02T11:58:33.999Z</time></trkpt><trkpt lat="45.86024052275548" lon="11.336637550860145"><ele>1099.0</ele><time>2026-05-02T11:58:34.999Z</time></trkpt><trkpt lat="45.86037765890071" lon="11.336596988119807"><ele>1098.0</ele><time>2026-05-02T11:58:35.999Z</time></trkpt><trkpt lat="45.860503329993364" lon="11.33653909057575"><ele>1097.0</ele><time>2026-05-02T11:58:36.999Z</time></trkpt><trkpt lat="45.860639213707074" lon="11.336453605416368"><ele>1096.0</ele><time>2026-05-02T11:58:37.999Z</time></trkpt><trkpt lat="45.8607499276668" lon="11.336337816406983"><ele>1095.0</ele><time>2026-05-02T11:58:38.999Z</time></trkpt><trkpt lat="45.86085094721131" lon="11.336226081596394"><ele>1094.25</ele><time>2026-05-02T11:58:39.999Z</time></trkpt><trkpt lat="45.86093037393098" lon="11.336075506587724"><ele>1093.5</ele><time>2026-05-02T11:58:40.999Z</time></trkpt><trkpt lat="45.86097924769217" lon="11.33589328320633"><ele>1092.75</ele><time>2026-05-02T11:58:41.999Z</time></trkpt><trkpt lat="45.86100390276769" lon="11.335690424768275"><ele>1092.0</ele><time>2026-05-02T11:58:42.999Z</time></trkpt><trkpt lat="45.86103110895848" lon="11.335493448660673"><ele>1095.5</ele><time>2026-05-02T11:58:43.999Z</time></trkpt><trkpt lat="45.8610807562633" lon="11.33530302203991"><ele>1099.0</ele><time>2026-05-02T11:58:44.999Z</time></trkpt><trkpt lat="45.86115201682438" lon="11.335138045229023"><ele>1102.5</ele><time>2026-05-02T11:58:45.999Z</time></trkpt><trkpt lat="45.86124305559127" lon="11.334993491462313"><ele>1106.0</ele><time>2026-05-02T11:58:46.999Z</time></trkpt><trkpt lat="45.86136322356696" lon="11.334897039104224"><ele>1106.0</ele><time>2026-05-02T11:58:47.999Z</time></trkpt><trkpt lat="45.8614946320984" lon="11.334798186381821"><ele>1106.0</ele><time>2026-05-02T11:58:48.999Z</time></trkpt><trkpt lat="45.86161962589601" lon="11.334691283952397"><ele>1106.0</ele><time>2026-05-02T11:58:49.999Z</time></trkpt><trkpt lat="45.86175486805499" lon="11.334591391349244"><ele>1106.0</ele><time>2026-05-02T11:58:50.999Z</time></trkpt><trkpt lat="45.86188481994897" lon="11.33448607689208"><ele>1109.6666666666667</ele><time>2026-05-02T11:58:51.999Z</time></trkpt><trkpt lat="45.862015920730954" lon="11.334389571603323"><ele>1113.3333333333333</ele><time>2026-05-02T11:58:52.999Z</time></trkpt><trkpt lat="45.86215245014638" lon="11.334311687047936"><ele>1117.0</ele><time>2026-05-02T11:58:53.999Z</time></trkpt><trkpt lat="45.862311597040744" lon="11.334291691047483"><ele>1117.0</ele><time>2026-05-02T11:58:54.999Z</time></trkpt><trkpt lat="45.86247790783214" lon="11.334237953825644"><ele>1117.0</ele><time>2026-05-02T11:58:55.999Z</time></trkpt><trkpt lat="45.86265974779224" lon="11.334208374196455"><ele>1117.0</ele><time>2026-05-02T11:58:56.999Z</time></trkpt><trkpt lat="45.862845559152426" lon="11.334166643523437"><ele>1118.3333333333333</ele><time>2026-05-02T11:58:57.999Z</time></trkpt><trkpt lat="45.86303999633849" lon="11.334119266779545"><ele>1119.6666666666667</ele><time>2026-05-02T11:58:58.999Z</time></trkpt><trkpt lat="45.8632373535975" lon="11.334073778399546"><ele>1121.0</ele><time>2026-05-02T11:58:59.999Z</time></trkpt><trkpt lat="45.86344389680624" lon="11.334029970776331"><ele>1122.6666666666667</ele><time>2026-05-02T11:59:00.999Z</time></trkpt><trkpt lat="45.863650573754775" lon="11.33400315392747"><ele>1124.3333333333333</ele><time>2026-05-02T11:59:01.999Z</time></trkpt><trkpt lat="45.863860839737534" lon="11.333996258817582"><ele>1126.0</ele><time>2026-05-02T11:59:02.999Z</time></trkpt><trkpt lat="45.86406319133176" lon="11.333989026364364"><ele>1126.0</ele><time>2026-05-02T11:59:03.999Z</time></trkpt><trkpt lat="45.86425723037777" lon="11.333961585792194"><ele>1126.0</ele><time>2026-05-02T11:59:04.999Z</time></trkpt><trkpt lat="45.86444452002872" lon="11.333916791847441"><ele>1126.0</ele><time>2026-05-02T11:59:05.999Z</time></trkpt><trkpt lat="45.86460276827011" lon="11.333869193670163"><ele>1129.0</ele><time>2026-05-02T11:59:06.999Z</time></trkpt><trkpt lat="45.86475542290964" lon="11.333817189156276"><ele>1132.0</ele><time>2026-05-02T11:59:07.999Z</time></trkpt><trkpt lat="45.864893053694516" lon="11.333763918678114"><ele>1135.0</ele><time>2026-05-02T11:59:08.999Z</time></trkpt><trkpt lat="45.865014830168164" lon="11.33367451898591"><ele>1138.0</ele><time>2026-05-02T11:59:09.999Z</time></trkpt><trkpt lat="45.86511257946646" lon="11.333534489915937"><ele>1139.8</ele><time>2026-05-02T11:59:10.999Z</time></trkpt><trkpt lat="45.865177654793186" lon="11.333394587446769"><ele>1141.6</ele><time>2026-05-02T11:59:11.999Z</time></trkpt><trkpt lat="45.86523949618777" lon="11.333275415425849"><ele>1143.4</ele><time>2026-05-02T11:59:12.999Z</time></trkpt><trkpt lat="45.865312981157" lon="11.333189747342042"><ele>1145.2</ele><time>2026-05-02T11:59:13.999Z</time></trkpt><trkpt lat="45.86541822804724" lon="11.333169660171876"><ele>1147.0</ele><time>2026-05-02T11:59:14.998Z</time></trkpt><trkpt lat="45.86553583545043" lon="11.333185982304895"><ele>1147.0</ele><time>2026-05-02T11:59:15.998Z</time></trkpt><trkpt lat="45.865661969369214" lon="11.333184676845566"><ele>1147.0</ele><time>2026-05-02T11:59:16.998Z</time></trkpt><trkpt lat="45.86579689474945" lon="11.333203327678708"><ele>1147.0</ele><time>2026-05-02T11:59:17.998Z</time></trkpt><trkpt lat="45.86592718594946" lon="11.333185721949892"><ele>1147.0</ele><time>2026-05-02T11:59:18.998Z</time></trkpt><trkpt lat="45.866058616879855" lon="11.333128860975457"><ele>1153.6666666666665</ele><time>2026-05-02T11:59:19.998Z</time></trkpt><trkpt lat="45.86618877433697" lon="11.333028908374606"><ele>1160.3333333333333</ele><time>2026-05-02T11:59:20.998Z</time></trkpt><trkpt lat="45.866321530389946" lon="11.332918447389638"><ele>1167.0</ele><time>2026-05-02T11:59:21.998Z</time></trkpt><trkpt lat="45.866461582287755" lon="11.332819393262028"><ele>1167.0</ele><time>2026-05-02T11:59:22.998Z</time></trkpt><trkpt lat="45.866612600807855" lon="11.332787715099329"><ele>1167.0</ele><time>2026-05-02T11:59:23.998Z</time></trkpt><trkpt lat="45.8667683386338" lon="11.332798613114667"><ele>1167.0</ele><time>2026-05-02T11:59:24.998Z</time></trkpt><trkpt lat="45.86692873256658" lon="11.332813358665515"><ele>1171.25</ele><time>2026-05-02T11:59:25.998Z</time></trkpt><trkpt lat="45.86708731505768" lon="11.332825068026189"><ele>1175.5</ele><time>2026-05-02T11:59:26.998Z</time></trkpt><trkpt lat="45.86723090190838" lon="11.332840125229069"><ele>1179.75</ele><time>2026-05-02T11:59:27.998Z</time></trkpt><trkpt lat="45.86735565919967" lon="11.33285047300715"><ele>1184.0</ele><time>2026-05-02T11:59:28.998Z</time></trkpt><trkpt lat="45.86746415228608" lon="11.332891869057358"><ele>1184.0</ele><time>2026-05-02T11:59:29.998Z</time></trkpt><trkpt lat="45.86756091485119" lon="11.332985101556794"><ele>1184.0</ele><time>2026-05-02T11:59:30.998Z</time></trkpt><trkpt lat="45.86761189635395" lon="11.333152166641728"><ele>1184.0</ele><time>2026-05-02T11:59:31.998Z</time></trkpt><trkpt lat="45.86769784868901" lon="11.333308470601102"><ele>1184.0</ele><time>2026-05-02T11:59:32.998Z</time></trkpt><trkpt lat="45.86777200752196" lon="11.333488385603143"><ele>1189.6666666666667</ele><time>2026-05-02T11:59:33.998Z</time></trkpt><trkpt lat="45.8678594412074" lon="11.333670678352366"><ele>1195.3333333333333</ele><time>2026-05-02T11:59:34.998Z</time></trkpt><trkpt lat="45.867967310614446" lon="11.333825723816707"><ele>1201.0</ele><time>2026-05-02T11:59:35.998Z</time></trkpt><trkpt lat="45.86808025934848" lon="11.333959943350758"><ele>1201.0</ele><time>2026-05-02T11:59:36.998Z</time></trkpt><trkpt lat="45.868151621144534" lon="11.334122257596194"><ele>1201.0</ele><time>2026-05-02T11:59:38Z</time></trkpt><trkpt lat="45.868202630906474" lon="11.334300935097993"><ele>1201.0</ele><time>2026-05-02T11:59:39Z</time></trkpt><trkpt lat="45.868257025172475" lon="11.33452138428064"><ele>1201.0</ele><time>2026-05-02T11:59:40Z</time></trkpt><trkpt lat="45.868346979897886" lon="11.33472109580391"><ele>1207.6666666666665</ele><time>2026-05-02T11:59:41Z</time></trkpt><trkpt lat="45.86844773775484" lon="11.334904307349543"><ele>1214.3333333333333</ele><time>2026-05-02T11:59:42Z</time></trkpt><trkpt lat="45.868554532511425" lon="11.335106503988666"><ele>1221.0</ele><time>2026-05-02T11:59:43Z</time></trkpt><trkpt lat="45.868664208223635" lon="11.335305079948448"><ele>1221.0</ele><time>2026-05-02T11:59:44Z</time></trkpt><trkpt lat="45.86876992457993" lon="11.335502404705924"><ele>1221.0</ele><time>2026-05-02T11:59:45Z</time></trkpt><trkpt lat="45.86888993497838" lon="11.335684274361073"><ele>1221.0</ele><time>2026-05-02T11:59:46Z</time></trkpt><trkpt lat="45.869009711146425" lon="11.335854151458884"><ele>1216.6666666666667</ele><time>2026-05-02T11:59:47Z</time></trkpt><trkpt lat="45.869113807117145" lon="11.336038944734131"><ele>1212.3333333333335</ele><time>2026-05-02T11:59:48Z</time></trkpt><trkpt lat="45.8691803702226" lon="11.336252152610507"><ele>1208.0</ele><time>2026-05-02T11:59:49Z</time></trkpt><trkpt lat="45.86924936204593" lon="11.336452319714292"><ele>1207.5</ele><time>2026-05-02T11:59:50Z</time></trkpt><trkpt lat="45.86935920242549" lon="11.33659834547978"><ele>1207.0</ele><time>2026-05-02T11:59:51Z</time></trkpt><trkpt lat="45.86946098674172" lon="11.336725271134727"><ele>1206.5</ele><time>2026-05-02T11:59:52Z</time></trkpt><trkpt lat="45.869524270935756" lon="11.336846125901108"><ele>1206.0</ele><time>2026-05-02T11:59:53Z</time></trkpt><trkpt lat="45.86952702151926" lon="11.336976030829838"><ele>1206.0</ele><time>2026-05-02T11:59:54Z</time></trkpt><trkpt lat="45.869521022091405" lon="11.337120128139881"><ele>1206.0</ele><time>2026-05-02T11:59:56Z</time></trkpt><trkpt lat="45.869675467390046" lon="11.337101142986324"><ele>1206.0</ele><time>2026-05-02T11:59:58Z</time></trkpt><trkpt lat="45.86973234937213" lon="11.336971912028865"><ele>1206.0</ele><time>2026-05-02T11:59:59Z</time></trkpt><trkpt lat="45.86972675023179" lon="11.336878057188521"><ele>1206.0</ele><time>2026-05-02T12:00:00Z</time></trkpt><trkpt lat="45.86970394401698" lon="11.336740550053333"><ele>1206.0</ele><time>2026-05-02T12:00:01Z</time></trkpt><trkpt lat="45.86965128033211" lon="11.336592486884365"><ele>1206.0</ele><time>2026-05-02T12:00:02Z</time></trkpt><trkpt lat="45.86959972211869" lon="11.336430731319213"><ele>1206.0</ele><time>2026-05-02T12:00:03Z</time></trkpt><trkpt lat="45.86954946891822" lon="11.336251455366517"><ele>1206.0</ele><time>2026-05-02T12:00:04Z</time></trkpt><trkpt lat="45.869489387771594" lon="11.336054412882113"><ele>1211.0</ele><time>2026-05-02T12:00:05Z</time></trkpt><trkpt lat="45.86945441698509" lon="11.335828032825964"><ele>1216.0</ele><time>2026-05-02T12:00:06Z</time></trkpt><trkpt lat="45.86940286467898" lon="11.335594594047244"><ele>1221.0</ele><time>2026-05-02T12:00:07Z</time></trkpt><trkpt lat="45.86937428319917" lon="11.335343225116656"><ele>1221.0</ele><time>2026-05-02T12:00:08Z</time></trkpt><trkpt lat="45.86932292534501" lon="11.335097614366035"><ele>1221.0</ele><time>2026-05-02T12:00:09Z</time></trkpt><trkpt lat="45.86925559705799" lon="11.334874371103615"><ele>1221.0</ele><time>2026-05-02T12:00:10Z</time></trkpt><trkpt lat="45.86918254620805" lon="11.33467841212179"><ele>1225.0</ele><time>2026-05-02T12:00:11Z</time></trkpt><trkpt lat="45.86910562876408" lon="11.334513448714109"><ele>1229.0</ele><time>2026-05-02T12:00:12Z</time></trkpt><trkpt lat="45.86901872575143" lon="11.33438834293952"><ele>1233.0</ele><time>2026-05-02T12:00:13Z</time></trkpt><trkpt lat="45.86894192271928" lon="11.334278377106713"><ele>1237.0</ele><time>2026-05-02T12:00:14Z</time></trkpt><trkpt lat="45.86893147145135" lon="11.334127704242785"><ele>1237.0</ele><time>2026-05-02T12:00:15Z</time></trkpt><trkpt lat="45.868913657345324" lon="11.333933661583556"><ele>1237.0</ele><time>2026-05-02T12:00:16Z</time></trkpt><trkpt lat="45.86889126278628" lon="11.333728230861187"><ele>1237.0</ele><time>2026-05-02T12:00:17Z</time></trkpt><trkpt lat="45.86885813305508" lon="11.333510085974455"><ele>1237.0</ele><time>2026-05-02T12:00:18Z</time></trkpt><trkpt lat="45.86881260137526" lon="11.333289953645455"><ele>1247.0</ele><time>2026-05-02T12:00:19Z</time></trkpt><trkpt lat="45.86878127622546" lon="11.333053555378498"><ele>1257.0</ele><time>2026-05-02T12:00:20Z</time></trkpt><trkpt lat="45.868739679507925" lon="11.332813354080615"><ele>1267.0</ele><time>2026-05-02T12:00:21Z</time></trkpt><trkpt lat="45.86870565276157" lon="11.332568506306568"><ele>1267.0</ele><time>2026-05-02T12:00:22Z</time></trkpt><trkpt lat="45.868700341227125" lon="11.3323124496244"><ele>1267.0</ele><time>2026-05-02T12:00:22.999Z</time></trkpt><trkpt lat="45.86870758174704" lon="11.33206890427317"><ele>1267.0</ele><time>2026-05-02T12:00:23.999Z</time></trkpt><trkpt lat="45.86872118061591" lon="11.331843030453149"><ele>1268.6666666666665</ele><time>2026-05-02T12:00:24.999Z</time></trkpt><trkpt lat="45.868713895033025" lon="11.33165034560302"><ele>1270.3333333333333</ele><time>2026-05-02T12:00:25.999Z</time></trkpt><trkpt lat="45.86865628722731" lon="11.331422040386904"><ele>1272.0</ele><time>2026-05-02T12:00:26.999Z</time></trkpt><trkpt lat="45.86854258242948" lon="11.331179808849798"><ele>1266.3333333333333</ele><time>2026-05-02T12:00:27.999Z</time></trkpt><trkpt lat="45.8684409845347" lon="11.330887572087665"><ele>1260.6666666666665</ele><time>2026-05-02T12:00:28.999Z</time></trkpt><trkpt lat="45.868409843041" lon="11.330698915148306"><ele>1255.0</ele><time>2026-05-02T12:00:30.999Z</time></trkpt><trkpt lat="45.868406849890754" lon="11.330508976655016"><ele>1255.0</ele><time>2026-05-02T12:00:31.999Z</time></trkpt><trkpt lat="45.8684095181053" lon="11.330299042323388"><ele>1255.0</ele><time>2026-05-02T12:00:32.999Z</time></trkpt><trkpt lat="45.86841338158925" lon="11.330068564828867"><ele>1255.0</ele><time>2026-05-02T12:00:33.999Z</time></trkpt><trkpt lat="45.868416978661415" lon="11.32982104461547"><ele>1256.3333333333333</ele><time>2026-05-02T12:00:34.999Z</time></trkpt><trkpt lat="45.86839806715365" lon="11.32955283470069"><ele>1257.6666666666667</ele><time>2026-05-02T12:00:35.999Z</time></trkpt><trkpt lat="45.868416244373535" lon="11.329273754249698"><ele>1259.0</ele><time>2026-05-02T12:00:36.999Z</time></trkpt><trkpt lat="45.86844239759843" lon="11.328991973977944"><ele>1276.0</ele><time>2026-05-02T12:00:37.999Z</time></trkpt><trkpt lat="45.86845503055474" lon="11.32869919464265"><ele>1293.0</ele><time>2026-05-02T12:00:38.999Z</time></trkpt><trkpt lat="45.8684785688557" lon="11.32841934229459"><ele>1310.0</ele><time>2026-05-02T12:00:39.999Z</time></trkpt><trkpt lat="45.86848369493545" lon="11.328165459136699"><ele>1308.5</ele><time>2026-05-02T12:00:40.999Z</time></trkpt><trkpt lat="45.868504519343425" lon="11.327936675144134"><ele>1307.0</ele><time>2026-05-02T12:00:41.999Z</time></trkpt><trkpt lat="45.868518529231395" lon="11.327729684859829"><ele>1305.5</ele><time>2026-05-02T12:00:42.999Z</time></trkpt><trkpt lat="45.868564242291406" lon="11.32755501571403"><ele>1304.0</ele><time>2026-05-02T12:00:43.999Z</time></trkpt><trkpt lat="45.86862280731079" lon="11.32736685929013"><ele>1299.6666666666667</ele><time>2026-05-02T12:00:44.999Z</time></trkpt><trkpt lat="45.86869782048167" lon="11.327157180231614"><ele>1295.3333333333333</ele><time>2026-05-02T12:00:45.999Z</time></trkpt><trkpt lat="45.86878013386437" lon="11.326932817821426"><ele>1291.0</ele><time>2026-05-02T12:00:46.999Z</time></trkpt><trkpt lat="45.86886463931726" lon="11.326702547152442"><ele>1291.0</ele><time>2026-05-02T12:00:47.999Z</time></trkpt><trkpt lat="45.868945761289844" lon="11.326475400692138"><ele>1291.0</ele><time>2026-05-02T12:00:48.999Z</time></trkpt><trkpt lat="45.869035782973036" lon="11.326287263613557"><ele>1291.0</ele><time>2026-05-02T12:00:49.999Z</time></trkpt><trkpt lat="45.86912508528896" lon="11.32612020411628"><ele>1290.0</ele><time>2026-05-02T12:00:50.999Z</time></trkpt><trkpt lat="45.86919170432867" lon="11.325950668202873"><ele>1289.0</ele><time>2026-05-02T12:00:51.999Z</time></trkpt><trkpt lat="45.869254779338505" lon="11.325809990363142"><ele>1288.0</ele><time>2026-05-02T12:00:52.999Z</time></trkpt><trkpt lat="45.86925697791298" lon="11.325692964851578"><ele>1287.0</ele><time>2026-05-02T12:00:53.999Z</time></trkpt><trkpt lat="45.86922523940354" lon="11.325545670101288"><ele>1286.0</ele><time>2026-05-02T12:00:54.999Z</time></trkpt><trkpt lat="45.86915968309915" lon="11.325395350105707"><ele>1292.3333333333335</ele><time>2026-05-02T12:00:55.999Z</time></trkpt><trkpt lat="45.86907404543837" lon="11.325256128283778"><ele>1298.6666666666667</ele><time>2026-05-02T12:00:56.999Z</time></trkpt><trkpt lat="45.86896659195735" lon="11.32506366612499"><ele>1305.0</ele><time>2026-05-02T12:00:57.999Z</time></trkpt><trkpt lat="45.868872616541154" lon="11.324864754051141"><ele>1311.0</ele><time>2026-05-02T12:00:58.999Z</time></trkpt><trkpt lat="45.86878176355244" lon="11.32465059371688"><ele>1317.0</ele><time>2026-05-02T12:00:59.999Z</time></trkpt><trkpt lat="45.86869512246837" lon="11.324419409275825"><ele>1323.0</ele><time>2026-05-02T12:01:00.999Z</time></trkpt><trkpt lat="45.86861478573588" lon="11.324198047451697"><ele>1323.0</ele><time>2026-05-02T12:01:01.999Z</time></trkpt><trkpt lat="45.868555506334985" lon="11.323995579013808"><ele>1323.0</ele><time>2026-05-02T12:01:02.999Z</time></trkpt><trkpt lat="45.86848446585963" lon="11.32382876531982"><ele>1323.0</ele><time>2026-05-02T12:01:03.999Z</time></trkpt><trkpt lat="45.86844898187453" lon="11.323664690062584"><ele>1323.0</ele><time>2026-05-02T12:01:04.999Z</time></trkpt><trkpt lat="45.868443332941254" lon="11.323513438816128"><ele>1324.0</ele><time>2026-05-02T12:01:05.999Z</time></trkpt><trkpt lat="45.8684901119053" lon="11.323379580597749"><ele>1325.0</ele><time>2026-05-02T12:01:06.999Z</time></trkpt><trkpt lat="45.86852560077667" lon="11.32322775635114"><ele>1326.0</ele><time>2026-05-02T12:01:07.999Z</time></trkpt><trkpt lat="45.868591591229645" lon="11.323076556780249"><ele>1327.0</ele><time>2026-05-02T12:01:08.999Z</time></trkpt><trkpt lat="45.868647427841104" lon="11.322937234874704"><ele>1327.0</ele><time>2026-05-02T12:01:09.998Z</time></trkpt><trkpt lat="45.8686799151561" lon="11.322827390410819"><ele>1327.0</ele><time>2026-05-02T12:01:10.998Z</time></trkpt><trkpt lat="45.86872562016359" lon="11.322762784950015"><ele>1327.0</ele><time>2026-05-02T12:01:11.998Z</time></trkpt><trkpt lat="45.868822827876485" lon="11.32285444544224"><ele>1327.0</ele><time>2026-05-02T12:01:13.998Z</time></trkpt><trkpt lat="45.86880788264578" lon="11.32295969281779"><ele>1327.0</ele><time>2026-05-02T12:01:14.998Z</time></trkpt><trkpt lat="45.86875792836962" lon="11.323063769865934"><ele>1327.0</ele><time>2026-05-02T12:01:15.998Z</time></trkpt><trkpt lat="45.868705921646594" lon="11.323184392474442"><ele>1327.0</ele><time>2026-05-02T12:01:16.998Z</time></trkpt><trkpt lat="45.86867968049211" lon="11.32333726251208"><ele>1327.0</ele><time>2026-05-02T12:01:17.998Z</time></trkpt><trkpt lat="45.8686815375779" lon="11.323503499101617"><ele>1327.0</ele><time>2026-05-02T12:01:18.998Z</time></trkpt><trkpt lat="45.86872468365432" lon="11.323667503916186"><ele>1327.0</ele><time>2026-05-02T12:01:19.998Z</time></trkpt><trkpt lat="45.86879739152905" lon="11.323822150886993"><ele>1325.6666666666665</ele><time>2026-05-02T12:01:20.998Z</time></trkpt><trkpt lat="45.86888938948772" lon="11.323974785583314"><ele>1324.3333333333333</ele><time>2026-05-02T12:01:21.998Z</time></trkpt><trkpt lat="45.86899633690094" lon="11.324138827448754"><ele>1323.0</ele><time>2026-05-02T12:01:22.998Z</time></trkpt><trkpt lat="45.869092475184004" lon="11.32431249795473"><ele>1323.0</ele><time>2026-05-02T12:01:23.998Z</time></trkpt><trkpt lat="45.869215166159286" lon="11.32447007827146"><ele>1323.0</ele><time>2026-05-02T12:01:24.998Z</time></trkpt><trkpt lat="45.86934339396425" lon="11.324631493538911"><ele>1323.0</ele><time>2026-05-02T12:01:25.998Z</time></trkpt><trkpt lat="45.86947686009699" lon="11.32478999347366"><ele>1327.75</ele><time>2026-05-02T12:01:26.998Z</time></trkpt><trkpt lat="45.86959770459417" lon="11.324905239789926"><ele>1332.5</ele><time>2026-05-02T12:01:27.998Z</time></trkpt><trkpt lat="45.86971764890574" lon="11.324999697971053"><ele>1337.25</ele><time>2026-05-02T12:01:28.998Z</time></trkpt><trkpt lat="45.86984107737906" lon="11.325069480005164"><ele>1342.0</ele><time>2026-05-02T12:01:29.998Z</time></trkpt><trkpt lat="45.86994033878311" lon="11.325147383056924"><ele>1342.0</ele><time>2026-05-02T12:01:30.998Z</time></trkpt><trkpt lat="45.87001856705308" lon="11.32522959963866"><ele>1342.0</ele><time>2026-05-02T12:01:31.998Z</time></trkpt><trkpt lat="45.870049734748626" lon="11.32539021341173"><ele>1342.0</ele><time>2026-05-02T12:01:32.998Z</time></trkpt><trkpt lat="45.87009525681295" lon="11.325551090060655"><ele>1342.0</ele><time>2026-05-02T12:01:33.998Z</time></trkpt><trkpt lat="45.870124702644176" lon="11.325715452942243"><ele>1342.0</ele><time>2026-05-02T12:01:34.998Z</time></trkpt><trkpt lat="45.87011304101672" lon="11.325888161460266"><ele>1342.0</ele><time>2026-05-02T12:01:35.998Z</time></trkpt><trkpt lat="45.87008422625457" lon="11.326076304478649"><ele>1342.0</ele><time>2026-05-02T12:01:36.998Z</time></trkpt><trkpt lat="45.87003839762591" lon="11.326269671660041"><ele>1342.0</ele><time>2026-05-02T12:01:37.998Z</time></trkpt><trkpt lat="45.86998170998609" lon="11.326480139929963"><ele>1342.0</ele><time>2026-05-02T12:01:38.998Z</time></trkpt><trkpt lat="45.86992039926272" lon="11.326710509498362"><ele>1342.0</ele><time>2026-05-02T12:01:39.998Z</time></trkpt><trkpt lat="45.86987752704025" lon="11.326940931521024"><ele>1342.0</ele><time>2026-05-02T12:01:40.998Z</time></trkpt><trkpt lat="45.86982309092094" lon="11.327169738003791"><ele>1344.5</ele><time>2026-05-02T12:01:41.998Z</time></trkpt><trkpt lat="45.86979879702043" lon="11.32741459623052"><ele>1347.0</ele><time>2026-05-02T12:01:42.998Z</time></trkpt><trkpt lat="45.86980071959607" lon="11.327627604794056"><ele>1349.5</ele><time>2026-05-02T12:01:44Z</time></trkpt><trkpt lat="45.8697985497983" lon="11.327800341394012"><ele>1352.0</ele><time>2026-05-02T12:01:45Z</time></trkpt><trkpt lat="45.86977918012006" lon="11.32794423347486"><ele>1352.0</ele><time>2026-05-02T12:01:46Z</time></trkpt><trkpt lat="45.86977711192952" lon="11.328052168370355"><ele>1352.0</ele><time>2026-05-02T12:01:47Z</time></trkpt><trkpt lat="45.86982106100629" lon="11.328206616727693"><ele>1352.0</ele><time>2026-05-02T12:01:49Z</time></trkpt><trkpt lat="45.86990848494373" lon="11.328216491871887"><ele>1352.0</ele><time>2026-05-02T12:01:50Z</time></trkpt><trkpt lat="45.869972347685895" lon="11.328161354162932"><ele>1352.0</ele><time>2026-05-02T12:01:51Z</time></trkpt><trkpt lat="45.86998164778707" lon="11.32804247934433"><ele>1352.0</ele><time>2026-05-02T12:01:52Z</time></trkpt><trkpt lat="45.869984362749776" lon="11.327911576392362"><ele>1352.0</ele><time>2026-05-02T12:01:53Z</time></trkpt><trkpt lat="45.86997896262083" lon="11.32775718436372"><ele>1352.0</ele><time>2026-05-02T12:01:54Z</time></trkpt><trkpt lat="45.86998175290295" lon="11.327594120718853"><ele>1352.0</ele><time>2026-05-02T12:01:55Z</time></trkpt><trkpt lat="45.87000747662537" lon="11.327424810293683"><ele>1352.0</ele><time>2026-05-02T12:01:56Z</time></trkpt><trkpt lat="45.870057735024695" lon="11.327264510131991"><ele>1359.5</ele><time>2026-05-02T12:01:57Z</time></trkpt><trkpt lat="45.87013746323963" lon="11.327111175479065"><ele>1367.0</ele><time>2026-05-02T12:01:58Z</time></trkpt><trkpt lat="45.87023306320095" lon="11.326968483254573"><ele>1374.5</ele><time>2026-05-02T12:01:59Z</time></trkpt><trkpt lat="45.87033785842959" lon="11.326827552759605"><ele>1382.0</ele><time>2026-05-02T12:02:00Z</time></trkpt><trkpt lat="45.87044589967947" lon="11.326664220625773"><ele>1382.0</ele><time>2026-05-02T12:02:01Z</time></trkpt><trkpt lat="45.87054619566855" lon="11.326470007379406"><ele>1382.0</ele><time>2026-05-02T12:02:02Z</time></trkpt><trkpt lat="45.87063613224591" lon="11.32626896871394"><ele>1382.0</ele><time>2026-05-02T12:02:03Z</time></trkpt><trkpt lat="45.870708500901124" lon="11.326054947770938"><ele>1382.6666666666667</ele><time>2026-05-02T12:02:04Z</time></trkpt><trkpt lat="45.87076945004595" lon="11.32584477571554"><ele>1383.3333333333333</ele><time>2026-05-02T12:02:05Z</time></trkpt><trkpt lat="45.870803804860465" lon="11.32563510186528"><ele>1384.0</ele><time>2026-05-02T12:02:06Z</time></trkpt><trkpt lat="45.87081471592603" lon="11.325402990093947"><ele>1385.6666666666665</ele><time>2026-05-02T12:02:07Z</time></trkpt><trkpt lat="45.87077656072231" lon="11.325125070546665"><ele>1387.3333333333333</ele><time>2026-05-02T12:02:08Z</time></trkpt><trkpt lat="45.87073666265184" lon="11.324837403289177"><ele>1389.0</ele><time>2026-05-02T12:02:09Z</time></trkpt><trkpt lat="45.87069667469885" lon="11.32468834142028"><ele>1392.5</ele><time>2026-05-02T12:02:10Z</time></trkpt><trkpt lat="45.870712509303914" lon="11.324573344328629"><ele>1396.0</ele><time>2026-05-02T12:02:11Z</time></trkpt><trkpt lat="45.87068605956082" lon="11.324408703773416"><ele>1399.5</ele><time>2026-05-02T12:02:12Z</time></trkpt><trkpt lat="45.870627090914084" lon="11.32424110654491"><ele>1403.0</ele><time>2026-05-02T12:02:13Z</time></trkpt><trkpt lat="45.870533318674774" lon="11.32411400022791"><ele>1403.0</ele><time>2026-05-02T12:02:14Z</time></trkpt><trkpt lat="45.87043073971291" lon="11.324002787193589"><ele>1403.0</ele><time>2026-05-02T12:02:15Z</time></trkpt><trkpt lat="45.87035780121146" lon="11.323910255849036"><ele>1403.0</ele><time>2026-05-02T12:02:16Z</time></trkpt><trkpt lat="45.87031549313985" lon="11.323826284308208"><ele>1403.0</ele><time>2026-05-02T12:02:17Z</time></trkpt><trkpt lat="45.87031456241045" lon="11.323731634004929"><ele>1403.0</ele><time>2026-05-02T12:02:18Z</time></trkpt><trkpt lat="45.87035784407966" lon="11.32363352229594"><ele>1403.0</ele><time>2026-05-02T12:02:19Z</time></trkpt><trkpt lat="45.870389340221514" lon="11.32350924973452"><ele>1403.6000000000001</ele><time>2026-05-02T12:02:20Z</time></trkpt><trkpt lat="45.87041493025621" lon="11.323363875019327"><ele>1404.2</ele><time>2026-05-02T12:02:21Z</time></trkpt><trkpt lat="45.870444895958265" lon="11.323212731522142"><ele>1404.8</ele><time>2026-05-02T12:02:21.999Z</time></trkpt><trkpt lat="45.87046373043805" lon="11.323050877937098"><ele>1405.4</ele><time>2026-05-02T12:02:22.999Z</time></trkpt><trkpt lat="45.87048958842476" lon="11.322901358137623"><ele>1406.0</ele><time>2026-05-02T12:02:23.999Z</time></trkpt><trkpt lat="45.870520412956765" lon="11.32275721485702"><ele>1406.0</ele><time>2026-05-02T12:02:24.999Z</time></trkpt><trkpt lat="45.87057738199359" lon="11.322623236672037"><ele>1406.0</ele><time>2026-05-02T12:02:25.999Z</time></trkpt><trkpt lat="45.87065726892696" lon="11.322500215230463"><ele>1406.0</ele><time>2026-05-02T12:02:26.999Z</time></trkpt><trkpt lat="45.87075373310171" lon="11.322380682209978"><ele>1406.0</ele><time>2026-05-02T12:02:27.999Z</time></trkpt><trkpt lat="45.87086806871086" lon="11.322274858760458"><ele>1412.0</ele><time>2026-05-02T12:02:28.999Z</time></trkpt><trkpt lat="45.870990445510586" lon="11.322169912879652"><ele>1418.0</ele><time>2026-05-02T12:02:29.999Z</time></trkpt><trkpt lat="45.871093741274656" lon="11.32203467237073"><ele>1424.0</ele><time>2026-05-02T12:02:30.999Z</time></trkpt><trkpt lat="45.87120580636541" lon="11.321912480758066"><ele>1430.0</ele><time>2026-05-02T12:02:31.999Z</time></trkpt><trkpt lat="45.87128203381816" lon="11.32173056589426"><ele>1430.0</ele><time>2026-05-02T12:02:32.999Z</time></trkpt><trkpt lat="45.871366047639135" lon="11.32153921113481"><ele>1430.0</ele><time>2026-05-02T12:02:33.999Z</time></trkpt><trkpt lat="45.87143557803504" lon="11.32136782719668"><ele>1430.0</ele><time>2026-05-02T12:02:34.999Z</time></trkpt><trkpt lat="45.87152174710599" lon="11.321214791220138"><ele>1430.0</ele><time>2026-05-02T12:02:35.999Z</time></trkpt><trkpt lat="45.87159787763827" lon="11.32105761722809"><ele>1430.0</ele><time>2026-05-02T12:02:36.999Z</time></trkpt><trkpt lat="45.87165203527687" lon="11.32091452180163"><ele>1430.0</ele><time>2026-05-02T12:02:37.999Z</time></trkpt><trkpt lat="45.8716875184243" lon="11.320786643292742"><ele>1430.0</ele><time>2026-05-02T12:02:38.999Z</time></trkpt><trkpt lat="45.87171240894462" lon="11.320654208700352"><ele>1430.0</ele><time>2026-05-02T12:02:39.999Z</time></trkpt><trkpt lat="45.87171024751857" lon="11.320499371963077"><ele>1430.0</ele><time>2026-05-02T12:02:40.999Z</time></trkpt><trkpt lat="45.87168219538007" lon="11.32033491555956"><ele>1430.0</ele><time>2026-05-02T12:02:41.999Z</time></trkpt><trkpt lat="45.87164153700498" lon="11.320166092127748"><ele>1430.0</ele><time>2026-05-02T12:02:42.999Z</time></trkpt><trkpt lat="45.871595219637655" lon="11.319997578544559"><ele>1430.0</ele><time>2026-05-02T12:02:43.999Z</time></trkpt><trkpt lat="45.87154197672812" lon="11.319828426384383"><ele>1430.0</ele><time>2026-05-02T12:02:44.999Z</time></trkpt><trkpt lat="45.87148265779427" lon="11.319674781143071"><ele>1432.5</ele><time>2026-05-02T12:02:45.999Z</time></trkpt><trkpt lat="45.871423582722166" lon="11.319526642255967"><ele>1435.0</ele><time>2026-05-02T12:02:46.999Z</time></trkpt><trkpt lat="45.871378175929856" lon="11.319403086694752"><ele>1437.5</ele><time>2026-05-02T12:02:47.999Z</time></trkpt><trkpt lat="45.871339663898574" lon="11.31930103247064"><ele>1440.0</ele><time>2026-05-02T12:02:48.999Z</time></trkpt><trkpt lat="45.871310294849444" lon="11.319207478646277"><ele>1442.5</ele><time>2026-05-02T12:02:49.999Z</time></trkpt><trkpt lat="45.87129917202984" lon="11.319103098313082"><ele>1445.0</ele><time>2026-05-02T12:02:50.999Z</time></trkpt><trkpt lat="45.87130792709095" lon="11.319000915115797"><ele>1445.0</ele><time>2026-05-02T12:02:51.999Z</time></trkpt><trkpt lat="45.8713518817401" lon="11.31890476631885"><ele>1445.0</ele><time>2026-05-02T12:02:52.999Z</time></trkpt><trkpt lat="45.87141699638045" lon="11.318832615419344"><ele>1445.0</ele><time>2026-05-02T12:02:53.999Z</time></trkpt><trkpt lat="45.87148509200812" lon="11.318760586968313"><ele>1445.0</ele><time>2026-05-02T12:02:54.999Z</time></trkpt><trkpt lat="45.87152573247803" lon="11.318640351366955"><ele>1445.0</ele><time>2026-05-02T12:02:55.999Z</time></trkpt><trkpt lat="45.871533594008575" lon="11.318476071072546"><ele>1447.5</ele><time>2026-05-02T12:02:56.999Z</time></trkpt><trkpt lat="45.87152872009222" lon="11.318301279185146"><ele>1450.0</ele><time>2026-05-02T12:02:57.999Z</time></trkpt><trkpt lat="45.871524841406526" lon="11.318111499300516"><ele>1452.5</ele><time>2026-05-02T12:02:58.999Z</time></trkpt><trkpt lat="45.87151276550556" lon="11.317918038628983"><ele>1455.0</ele><time>2026-05-02T12:02:59.999Z</time></trkpt><trkpt lat="45.87149215237974" lon="11.317729522995469"><ele>1456.25</ele><time>2026-05-02T12:03:00.999Z</time></trkpt><trkpt lat="45.87145683565926" lon="11.317545977958654"><ele>1457.5</ele><time>2026-05-02T12:03:01.999Z</time></trkpt><trkpt lat="45.87141860530245" lon="11.317373815721604"><ele>1458.75</ele><time>2026-05-02T12:03:02.999Z</time></trkpt><trkpt lat="45.871398077053904" lon="11.317205769319402"><ele>1460.0</ele><time>2026-05-02T12:03:03.999Z</time></trkpt><trkpt lat="45.87139375883589" lon="11.317038978738099"><ele>1460.75</ele><time>2026-05-02T12:03:04.999Z</time></trkpt><trkpt lat="45.87139336405453" lon="11.316861220889272"><ele>1461.5</ele><time>2026-05-02T12:03:05.999Z</time></trkpt><trkpt lat="45.871420937088196" lon="11.316670447608907"><ele>1462.25</ele><time>2026-05-02T12:03:06.999Z</time></trkpt><trkpt lat="45.87145602665867" lon="11.31647226750309"><ele>1463.0</ele><time>2026-05-02T12:03:07.999Z</time></trkpt><trkpt lat="45.871517491111774" lon="11.31625889846153"><ele>1463.0</ele><time>2026-05-02T12:03:08.999Z</time></trkpt><trkpt lat="45.87156392226959" lon="11.315991184511088"><ele>1463.0</ele><time>2026-05-02T12:03:09.998Z</time></trkpt><trkpt lat="45.871594903181716" lon="11.315700938616986"><ele>1463.0</ele><time>2026-05-02T12:03:10.998Z</time></trkpt><trkpt lat="45.8716273713421" lon="11.31539676342909"><ele>1463.5</ele><time>2026-05-02T12:03:11.998Z</time></trkpt><trkpt lat="45.87166495539232" lon="11.31507505534466"><ele>1464.0</ele><time>2026-05-02T12:03:12.998Z</time></trkpt><trkpt lat="45.87171448959381" lon="11.314746792418477"><ele>1492.5</ele><time>2026-05-02T12:03:13.998Z</time></trkpt><trkpt lat="45.871793022239295" lon="11.314409801545576"><ele>1521.0</ele><time>2026-05-02T12:03:14.998Z</time></trkpt><trkpt lat="45.871838104981975" lon="11.314076641707924"><ele>1519.6666666666667</ele><time>2026-05-02T12:03:15.998Z</time></trkpt><trkpt lat="45.871876930610526" lon="11.313750997130027"><ele>1518.3333333333335</ele><time>2026-05-02T12:03:16.998Z</time></trkpt><trkpt lat="45.871902042284894" lon="11.31344683061496"><ele>1517.0</ele><time>2026-05-02T12:03:17.998Z</time></trkpt><trkpt lat="45.87190921857248" lon="11.313153278226158"><ele>1518.0</ele><time>2026-05-02T12:03:18.998Z</time></trkpt><trkpt lat="45.871889509477214" lon="11.312895259241408"><ele>1519.0</ele><time>2026-05-02T12:03:19.998Z</time></trkpt><trkpt lat="45.87187396765653" lon="11.312661251554651"><ele>1520.0</ele><time>2026-05-02T12:03:20.998Z</time></trkpt><trkpt lat="45.871860641821904" lon="11.312448562827605"><ele>1520.0</ele><time>2026-05-02T12:03:21.998Z</time></trkpt><trkpt lat="45.87184979860166" lon="11.31226789348989"><ele>1520.0</ele><time>2026-05-02T12:03:22.998Z</time></trkpt><trkpt lat="45.871852208212275" lon="11.312105407461148"><ele>1520.0</ele><time>2026-05-02T12:03:23.998Z</time></trkpt><trkpt lat="45.87188642852399" lon="11.3119522344707"><ele>1520.0</ele><time>2026-05-02T12:03:24.998Z</time></trkpt><trkpt lat="45.871953913679775" lon="11.311811706532154"><ele>1518.75</ele><time>2026-05-02T12:03:25.998Z</time></trkpt><trkpt lat="45.87204178681046" lon="11.311675710655633"><ele>1517.5</ele><time>2026-05-02T12:03:26.998Z</time></trkpt><trkpt lat="45.87213323557619" lon="11.311523778486421"><ele>1516.25</ele><time>2026-05-02T12:03:27.998Z</time></trkpt><trkpt lat="45.8722210236576" lon="11.311357021180834"><ele>1515.0</ele><time>2026-05-02T12:03:28.998Z</time></trkpt><trkpt lat="45.872297382399594" lon="11.311176653454247"><ele>1510.75</ele><time>2026-05-02T12:03:29.998Z</time></trkpt><trkpt lat="45.87235446422904" lon="11.31098363810615"><ele>1506.5</ele><time>2026-05-02T12:03:30.998Z</time></trkpt><trkpt lat="45.8723882792753" lon="11.310796065304164"><ele>1502.25</ele><time>2026-05-02T12:03:31.998Z</time></trkpt><trkpt lat="45.87239615511634" lon="11.310628841340998"><ele>1498.0</ele><time>2026-05-02T12:03:32.998Z</time></trkpt><trkpt lat="45.872386565701795" lon="11.310487159345769"><ele>1497.6000000000001</ele><time>2026-05-02T12:03:33.998Z</time></trkpt><trkpt lat="45.87239307477368" lon="11.310373410411358"><ele>1497.2</ele><time>2026-05-02T12:03:34.998Z</time></trkpt><trkpt lat="45.8724457244089" lon="11.310274824430719"><ele>1496.8</ele><time>2026-05-02T12:03:35.998Z</time></trkpt><trkpt lat="45.872531969369724" lon="11.310200361769267"><ele>1496.4</ele><time>2026-05-02T12:03:36.998Z</time></trkpt><trkpt lat="45.87264340256554" lon="11.310169815490099"><ele>1496.0</ele><time>2026-05-02T12:03:37.998Z</time></trkpt><trkpt lat="45.87276637291047" lon="11.310173971762861"><ele>1496.0</ele><time>2026-05-02T12:03:38.998Z</time></trkpt><trkpt lat="45.87290241242755" lon="11.310197695166782"><ele>1496.0</ele><time>2026-05-02T12:03:39.998Z</time></trkpt><trkpt lat="45.873048854659345" lon="11.310207829132446"><ele>1496.0</ele><time>2026-05-02T12:03:40.998Z</time></trkpt><trkpt lat="45.87320274931846" lon="11.310197009532923"><ele>1496.0</ele><time>2026-05-02T12:03:41.998Z</time></trkpt><trkpt lat="45.87336172902214" lon="11.310198696189293"><ele>1504.3333333333335</ele><time>2026-05-02T12:03:42.998Z</time></trkpt><trkpt lat="45.87351705565342" lon="11.310166597411369"><ele>1512.6666666666667</ele><time>2026-05-02T12:03:43.998Z</time></trkpt><trkpt lat="45.873665515975894" lon="11.310124842035869"><ele>1521.0</ele><time>2026-05-02T12:03:44.998Z</time></trkpt><trkpt lat="45.87380631525089" lon="11.31008141345376"><ele>1521.0</ele><time>2026-05-02T12:03:45.998Z</time></trkpt><trkpt lat="45.87394656282248" lon="11.310061854228517"><ele>1521.0</ele><time>2026-05-02T12:03:46.998Z</time></trkpt><trkpt lat="45.87407554494362" lon="11.309980967074182"><ele>1521.0</ele><time>2026-05-02T12:03:47.998Z</time></trkpt><trkpt lat="45.87420590986399" lon="11.30982949515865"><ele>1521.0</ele><time>2026-05-02T12:03:48.998Z</time></trkpt><trkpt lat="45.874331445642525" lon="11.309676226353458"><ele>1522.25</ele><time>2026-05-02T12:03:50Z</time></trkpt><trkpt lat="45.87446807881532" lon="11.309545202129122"><ele>1523.5</ele><time>2026-05-02T12:03:51Z</time></trkpt><trkpt lat="45.874591426973545" lon="11.309415677958933"><ele>1524.75</ele><time>2026-05-02T12:03:52Z</time></trkpt><trkpt lat="45.874676670139955" lon="11.309272821148253"><ele>1526.0</ele><time>2026-05-02T12:03:53Z</time></trkpt><trkpt lat="45.874721889328676" lon="11.30910037944078"><ele>1526.5</ele><time>2026-05-02T12:03:54Z</time></trkpt><trkpt lat="45.87473649320187" lon="11.308900035318837"><ele>1527.0</ele><time>2026-05-02T12:03:55Z</time></trkpt><trkpt lat="45.87473526753982" lon="11.308688607980914"><ele>1527.5</ele><time>2026-05-02T12:03:56Z</time></trkpt><trkpt lat="45.87472698142809" lon="11.308482049664264"><ele>1528.0</ele><time>2026-05-02T12:03:57Z</time></trkpt><trkpt lat="45.874698856788775" lon="11.308282977960443"><ele>1528.0</ele><time>2026-05-02T12:03:58Z</time></trkpt><trkpt lat="45.87465068630676" lon="11.308099585666316"><ele>1528.0</ele><time>2026-05-02T12:03:59Z</time></trkpt><trkpt lat="45.87460061580471" lon="11.307935167456117"><ele>1528.0</ele><time>2026-05-02T12:04:00Z</time></trkpt><trkpt lat="45.874560410181736" lon="11.3077933568958"><ele>1528.0</ele><time>2026-05-02T12:04:01Z</time></trkpt><trkpt lat="45.87452077812218" lon="11.307695018390579"><ele>1528.0</ele><time>2026-05-02T12:04:02Z</time></trkpt><trkpt lat="45.874514451033555" lon="11.307531381420224"><ele>1529.6666666666665</ele><time>2026-05-02T12:04:04Z</time></trkpt><trkpt lat="45.874563831098754" lon="11.30747309514462"><ele>1531.3333333333333</ele><time>2026-05-02T12:04:05Z</time></trkpt><trkpt lat="45.87462556055709" lon="11.307494168391965"><ele>1533.0</ele><time>2026-05-02T12:04:06Z</time></trkpt><trkpt lat="45.874660786206675" lon="11.307578266539172"><ele>1534.6666666666665</ele><time>2026-05-02T12:04:07Z</time></trkpt><trkpt lat="45.87467464067889" lon="11.307692060377287"><ele>1536.3333333333333</ele><time>2026-05-02T12:04:08Z</time></trkpt><trkpt lat="45.87468762999501" lon="11.307823667865897"><ele>1538.0</ele><time>2026-05-02T12:04:09Z</time></trkpt><trkpt lat="45.87473004453052" lon="11.307963615753419"><ele>1536.0</ele><time>2026-05-02T12:04:10Z</time></trkpt><trkpt lat="45.8747966317599" lon="11.308097748619005"><ele>1534.0</ele><time>2026-05-02T12:04:11Z</time></trkpt><trkpt lat="45.87486543596532" lon="11.308223437422898"><ele>1532.0</ele><time>2026-05-02T12:04:12Z</time></trkpt><trkpt lat="45.87492854260824" lon="11.308314496538411"><ele>1530.0</ele><time>2026-05-02T12:04:13Z</time></trkpt><trkpt lat="45.8749902486378" lon="11.308339825003122"><ele>1528.0</ele><time>2026-05-02T12:04:14Z</time></trkpt><trkpt lat="45.87508073031795" lon="11.308194324293638"><ele>1521.75</ele><time>2026-05-02T12:04:16Z</time></trkpt><trkpt lat="45.87512347322241" lon="11.308066812261506"><ele>1515.5</ele><time>2026-05-02T12:04:17Z</time></trkpt><trkpt lat="45.87517575938897" lon="11.307920035096425"><ele>1509.25</ele><time>2026-05-02T12:04:18Z</time></trkpt><trkpt lat="45.875238339959886" lon="11.307750160249675"><ele>1503.0</ele><time>2026-05-02T12:04:19Z</time></trkpt><trkpt lat="45.87529413916512" lon="11.307561746370544"><ele>1503.0</ele><time>2026-05-02T12:04:20Z</time></trkpt><trkpt lat="45.87533867158412" lon="11.30735357377946"><ele>1503.0</ele><time>2026-05-02T12:04:21Z</time></trkpt><trkpt lat="45.875385134487054" lon="11.307151307230392"><ele>1503.0</ele><time>2026-05-02T12:04:22Z</time></trkpt><trkpt lat="45.87543613944649" lon="11.306961032518712"><ele>1503.0</ele><time>2026-05-02T12:04:23Z</time></trkpt><trkpt lat="45.875502669121595" lon="11.306802735544736"><ele>1507.75</ele><time>2026-05-02T12:04:24Z</time></trkpt><trkpt lat="45.875547494480344" lon="11.30665068971511"><ele>1512.5</ele><time>2026-05-02T12:04:25Z</time></trkpt><trkpt lat="45.87560287590654" lon="11.306509506599516"><ele>1517.25</ele><time>2026-05-02T12:04:26Z</time></trkpt><trkpt lat="45.87568219370298" lon="11.306380419612351"><ele>1522.0</ele><time>2026-05-02T12:04:27Z</time></trkpt><trkpt lat="45.8757838655074" lon="11.306264898517194"><ele>1519.25</ele><time>2026-05-02T12:04:28Z</time></trkpt><trkpt lat="45.875903576003374" lon="11.306151044815943"><ele>1516.5</ele><time>2026-05-02T12:04:28.999Z</time></trkpt><trkpt lat="45.876025341022064" lon="11.306021853820196"><ele>1513.75</ele><time>2026-05-02T12:04:29.999Z</time></trkpt><trkpt lat="45.87610303917893" lon="11.30587192248987"><ele>1511.0</ele><time>2026-05-02T12:04:30.999Z</time></trkpt><trkpt lat="45.87623261916946" lon="11.30577016878471"><ele>1511.0</ele><time>2026-05-02T12:04:31.999Z</time></trkpt><trkpt lat="45.87636411554345" lon="11.305677816549773"><ele>1511.0</ele><time>2026-05-02T12:04:32.999Z</time></trkpt><trkpt lat="45.87649848184677" lon="11.30559380077362"><ele>1511.0</ele><time>2026-05-02T12:04:33.999Z</time></trkpt><trkpt lat="45.87662047602464" lon="11.305478272710058"><ele>1511.0</ele><time>2026-05-02T12:04:34.999Z</time></trkpt><trkpt lat="45.87675226057707" lon="11.305361316781596"><ele>1509.25</ele><time>2026-05-02T12:04:35.999Z</time></trkpt><trkpt lat="45.876898578746115" lon="11.305265565597885"><ele>1507.5</ele><time>2026-05-02T12:04:36.999Z</time></trkpt><trkpt lat="45.87702534832116" lon="11.305146800086284"><ele>1505.75</ele><time>2026-05-02T12:04:37.999Z</time></trkpt><trkpt lat="45.877136444886645" lon="11.305031823698707"><ele>1504.0</ele><time>2026-05-02T12:04:38.999Z</time></trkpt><trkpt lat="45.877264090184" lon="11.30499716105811"><ele>1504.0</ele><time>2026-05-02T12:04:39.999Z</time></trkpt><trkpt lat="45.87738077530662" lon="11.3049111560409"><ele>1504.0</ele><time>2026-05-02T12:04:40.999Z</time></trkpt><trkpt lat="45.87747856448748" lon="11.304811145084914"><ele>1504.0</ele><time>2026-05-02T12:04:41.999Z</time></trkpt><trkpt lat="45.8775868524796" lon="11.304693552454774"><ele>1504.0</ele><time>2026-05-02T12:04:42.999Z</time></trkpt><trkpt lat="45.87769667927687" lon="11.304563760794753"><ele>1503.0</ele><time>2026-05-02T12:04:43.999Z</time></trkpt><trkpt lat="45.87777240696582" lon="11.304434249596957"><ele>1502.0</ele><time>2026-05-02T12:04:44.999Z</time></trkpt><trkpt lat="45.87780604099375" lon="11.304247012251883"><ele>1501.0</ele><time>2026-05-02T12:04:45.999Z</time></trkpt><trkpt lat="45.87781727034484" lon="11.304089384789803"><ele>1500.0</ele><time>2026-05-02T12:04:46.999Z</time></trkpt><trkpt lat="45.87782956716706" lon="11.303965898765894"><ele>1503.6</ele><time>2026-05-02T12:04:47.999Z</time></trkpt><trkpt lat="45.877886411319764" lon="11.303859253357276"><ele>1507.2</ele><time>2026-05-02T12:04:48.999Z</time></trkpt><trkpt lat="45.87795783416021" lon="11.303806989061917"><ele>1510.8000000000002</ele><time>2026-05-02T12:04:49.999Z</time></trkpt><trkpt lat="45.87804760592075" lon="11.30372450416553"><ele>1514.4</ele><time>2026-05-02T12:04:50.999Z</time></trkpt><trkpt lat="45.87814380063111" lon="11.303627502055964"><ele>1518.0</ele><time>2026-05-02T12:04:51.999Z</time></trkpt><trkpt lat="45.87824659245264" lon="11.30351211542441"><ele>1518.0</ele><time>2026-05-02T12:04:52.999Z</time></trkpt><trkpt lat="45.87834099062656" lon="11.303397266980078"><ele>1518.0</ele><time>2026-05-02T12:04:53.999Z</time></trkpt><trkpt lat="45.878409634386614" lon="11.303306827685528"><ele>1518.0</ele><time>2026-05-02T12:04:54.999Z</time></trkpt><trkpt lat="45.878460052855814" lon="11.303240936019948"><ele>1518.0</ele><time>2026-05-02T12:04:55.999Z</time></trkpt><trkpt lat="45.87851795574152" lon="11.303166633901986"><ele>1518.0</ele><time>2026-05-02T12:04:56.999Z</time></trkpt><trkpt lat="45.878576858009126" lon="11.303091049409423"><ele>1518.0</ele><time>2026-05-02T12:04:57.999Z</time></trkpt><trkpt lat="45.87881360593563" lon="11.302856670349508"><ele>1511.75</ele><time>2026-05-02T12:04:58.999Z</time></trkpt><trkpt lat="45.8788831536603" lon="11.302690805152901"><ele>1505.5</ele><time>2026-05-02T12:05:00.999Z</time></trkpt><trkpt lat="45.87887783718205" lon="11.302587766441745"><ele>1499.25</ele><time>2026-05-02T12:05:02.999Z</time></trkpt><trkpt lat="45.8788903436228" lon="11.30235166035394"><ele>1493.0</ele><time>2026-05-02T12:05:03.999Z</time></trkpt><trkpt lat="45.87863453304646" lon="11.302319276064853"><ele>1492.6000000000001</ele><time>2026-05-02T12:05:04.999Z</time></trkpt><trkpt lat="45.8786404874774" lon="11.302194244895544"><ele>1492.2</ele><time>2026-05-02T12:05:05.999Z</time></trkpt><trkpt lat="45.8786353397332" lon="11.302058364580395"><ele>1491.8</ele><time>2026-05-02T12:05:06.999Z</time></trkpt><trkpt lat="45.87860273577482" lon="11.301923088255158"><ele>1491.4</ele><time>2026-05-02T12:05:07.999Z</time></trkpt><trkpt lat="45.87854140406777" lon="11.301817314086493"><ele>1491.0</ele><time>2026-05-02T12:05:08.999Z</time></trkpt><trkpt lat="45.878461046230875" lon="11.301748708168514"><ele>1496.1999999999998</ele><time>2026-05-02T12:05:09.999Z</time></trkpt><trkpt lat="45.878370011199166" lon="11.301712218393241"><ele>1501.3999999999999</ele><time>2026-05-02T12:05:10.999Z</time></trkpt><trkpt lat="45.87828870333307" lon="11.301664220704179"><ele>1506.6</ele><time>2026-05-02T12:05:11.999Z</time></trkpt><trkpt lat="45.87822902962028" lon="11.301574354144469"><ele>1511.8</ele><time>2026-05-02T12:05:12.999Z</time></trkpt><trkpt lat="45.87825063193828" lon="11.301440819875983"><ele>1517.0</ele><time>2026-05-02T12:05:13.999Z</time></trkpt><trkpt lat="45.878245303866244" lon="11.301315391955455"><ele>1517.0</ele><time>2026-05-02T12:05:14.999Z</time></trkpt><trkpt lat="45.87821305082483" lon="11.301197168684478"><ele>1517.0</ele><time>2026-05-02T12:05:15.998Z</time></trkpt><trkpt lat="45.878169289946825" lon="11.301073877220327"><ele>1517.0</ele><time>2026-05-02T12:05:16.998Z</time></trkpt><trkpt lat="45.87810961068155" lon="11.300974275526501"><ele>1517.0</ele><time>2026-05-02T12:05:17.998Z</time></trkpt><trkpt lat="45.8780257481807" lon="11.300900041181803"><ele>1517.0</ele><time>2026-05-02T12:05:18.998Z</time></trkpt><trkpt lat="45.877932245248644" lon="11.300861792646874"><ele>1517.0</ele><time>2026-05-02T12:05:19.998Z</time></trkpt><trkpt lat="45.87783648910829" lon="11.300859460292834"><ele>1517.0</ele><time>2026-05-02T12:05:20.998Z</time></trkpt><trkpt lat="45.877742130761916" lon="11.300878647942124"><ele>1517.0</ele><time>2026-05-02T12:05:21.998Z</time></trkpt><trkpt lat="45.87766756479565" lon="11.300849118311646"><ele>1517.0</ele><time>2026-05-02T12:05:22.998Z</time></trkpt><trkpt lat="45.87761270993757" lon="11.300802500100811"><ele>1517.0</ele><time>2026-05-02T12:05:23.998Z</time></trkpt><trkpt lat="45.877584879074696" lon="11.300717610184616"><ele>1517.0</ele><time>2026-05-02T12:05:24.998Z</time></trkpt><trkpt lat="45.87757735250338" lon="11.300617517474853"><ele>1517.1666666666667</ele><time>2026-05-02T12:05:25.998Z</time></trkpt><trkpt lat="45.877609087645084" lon="11.300515694028242"><ele>1517.3333333333335</ele><time>2026-05-02T12:05:26.998Z</time></trkpt><trkpt lat="45.877659006876286" lon="11.300435036580744"><ele>1517.5</ele><time>2026-05-02T12:05:27.998Z</time></trkpt><trkpt lat="45.87771826386773" lon="11.300361788585267"><ele>1517.6666666666667</ele><time>2026-05-02T12:05:28.998Z</time></trkpt><trkpt lat="45.87777700299883" lon="11.300272825094387"><ele>1517.8333333333333</ele><time>2026-05-02T12:05:29.998Z</time></trkpt><trkpt lat="45.87783238583602" lon="11.30016792231454"><ele>1518.0</ele><time>2026-05-02T12:05:30.998Z</time></trkpt><trkpt lat="45.877863573872645" lon="11.300048970799354"><ele>1518.0</ele><time>2026-05-02T12:05:31.998Z</time></trkpt><trkpt lat="45.87787227593716" lon="11.299928756473381"><ele>1518.0</ele><time>2026-05-02T12:05:32.998Z</time></trkpt><trkpt lat="45.87785991366265" lon="11.299805744355993"><ele>1518.0</ele><time>2026-05-02T12:05:33.998Z</time></trkpt><trkpt lat="45.87782087678166" lon="11.299694366401525"><ele>1518.0</ele><time>2026-05-02T12:05:34.998Z</time></trkpt><trkpt lat="45.87776629437462" lon="11.299569318901154"><ele>1518.0</ele><time>2026-05-02T12:05:35.998Z</time></trkpt><trkpt lat="45.87769520458656" lon="11.299448371556366"><ele>1516.75</ele><time>2026-05-02T12:05:36.998Z</time></trkpt><trkpt lat="45.87760697478679" lon="11.299347352669233"><ele>1515.5</ele><time>2026-05-02T12:05:37.998Z</time></trkpt><trkpt lat="45.877501993854615" lon="11.299266839567155"><ele>1514.25</ele><time>2026-05-02T12:05:38.998Z</time></trkpt><trkpt lat="45.87738467389552" lon="11.299216731757513"><ele>1513.0</ele><time>2026-05-02T12:05:39.998Z</time></trkpt><trkpt lat="45.87726197238906" lon="11.299198261693432"><ele>1515.25</ele><time>2026-05-02T12:05:40.998Z</time></trkpt><trkpt lat="45.87713861278575" lon="11.299182616329215"><ele>1517.5</ele><time>2026-05-02T12:05:41.998Z</time></trkpt><trkpt lat="45.87702254717928" lon="11.299128635923758"><ele>1519.75</ele><time>2026-05-02T12:05:42.998Z</time></trkpt><trkpt lat="45.87690032383698" lon="11.299037998911198"><ele>1522.0</ele><time>2026-05-02T12:05:43.998Z</time></trkpt><trkpt lat="45.87680354039766" lon="11.29890332274441"><ele>1527.5</ele><time>2026-05-02T12:05:44.998Z</time></trkpt><trkpt lat="45.87669782753457" lon="11.298794065179592"><ele>1533.0</ele><time>2026-05-02T12:05:45.998Z</time></trkpt><trkpt lat="45.87660299167322" lon="11.298661659726822"><ele>1538.5</ele><time>2026-05-02T12:05:46.998Z</time></trkpt><trkpt lat="45.87651295528566" lon="11.298543821954878"><ele>1544.0</ele><time>2026-05-02T12:05:47.998Z</time></trkpt><trkpt lat="45.87643604207889" lon="11.298442933562908"><ele>1544.0</ele><time>2026-05-02T12:05:48.998Z</time></trkpt><trkpt lat="45.87634729017971" lon="11.298356296007611"><ele>1544.0</ele><time>2026-05-02T12:05:49.998Z</time></trkpt><trkpt lat="45.87625331067162" lon="11.298296179793342"><ele>1544.0</ele><time>2026-05-02T12:05:50.998Z</time></trkpt><trkpt lat="45.87617504209161" lon="11.298273557990209"><ele>1544.0</ele><time>2026-05-02T12:05:51.998Z</time></trkpt><trkpt lat="45.87608558298515" lon="11.298259439664337"><ele>1544.0</ele><time>2026-05-02T12:05:52.998Z</time></trkpt><trkpt lat="45.87598390433377" lon="11.29824989497602"><ele>1547.8000000000002</ele><time>2026-05-02T12:05:53.998Z</time></trkpt><trkpt lat="45.87588450682751" lon="11.298238976267553"><ele>1551.6000000000001</ele><time>2026-05-02T12:05:55.021Z</time></trkpt><trkpt lat="45.87578288999473" lon="11.298236201661261"><ele>1555.4</ele><time>2026-05-02T12:05:56.015Z</time></trkpt><trkpt lat="45.875682199784556" lon="11.298238575336574"><ele>1559.2</ele><time>2026-05-02T12:05:57.02Z</time></trkpt><trkpt lat="45.87557217839346" lon="11.298238657588424"><ele>1563.0</ele><time>2026-05-02T12:05:58.018Z</time></trkpt><trkpt lat="45.875452939576235" lon="11.298236368773408"><ele>1563.0</ele><time>2026-05-02T12:05:59.02Z</time></trkpt><trkpt lat="45.87537963551658" lon="11.298207368167192"><ele>1563.0</ele><time>2026-05-02T12:06:00.998Z</time></trkpt><trkpt lat="45.87529176765137" lon="11.298005215475298"><ele>1563.0</ele><time>2026-05-02T12:06:03Z</time></trkpt><trkpt lat="45.87525544268968" lon="11.297886410821487"><ele>1563.0</ele><time>2026-05-02T12:06:04Z</time></trkpt><trkpt lat="45.87521372842625" lon="11.297748947494396"><ele>1563.0</ele><time>2026-05-02T12:06:05Z</time></trkpt><trkpt lat="45.87516671752784" lon="11.297627715906449"><ele>1564.3333333333333</ele><time>2026-05-02T12:06:06Z</time></trkpt><trkpt lat="45.87510177246568" lon="11.297515486744043"><ele>1565.6666666666665</ele><time>2026-05-02T12:06:07Z</time></trkpt><trkpt lat="45.875035629473714" lon="11.297431354929934"><ele>1567.0</ele><time>2026-05-02T12:06:08Z</time></trkpt><trkpt lat="45.87498815583964" lon="11.297342608058083"><ele>1568.3333333333333</ele><time>2026-05-02T12:06:09Z</time></trkpt><trkpt lat="45.87499988120019" lon="11.29722233828647"><ele>1569.6666666666665</ele><time>2026-05-02T12:06:10Z</time></trkpt><trkpt lat="45.87500336539146" lon="11.297094805578903"><ele>1571.0</ele><time>2026-05-02T12:06:11Z</time></trkpt><trkpt lat="45.875006643658836" lon="11.296963060451183"><ele>1572.3333333333333</ele><time>2026-05-02T12:06:12Z</time></trkpt><trkpt lat="45.874997873672825" lon="11.296831842727078"><ele>1573.6666666666665</ele><time>2026-05-02T12:06:13Z</time></trkpt><trkpt lat="45.874987714784005" lon="11.296703751604705"><ele>1575.0</ele><time>2026-05-02T12:06:14Z</time></trkpt><trkpt lat="45.87500784501087" lon="11.296593321171084"><ele>1576.3333333333335</ele><time>2026-05-02T12:06:15Z</time></trkpt><trkpt lat="45.87504880377179" lon="11.29649379310019"><ele>1577.6666666666667</ele><time>2026-05-02T12:06:16Z</time></trkpt><trkpt lat="45.87509057064104" lon="11.296391016951182"><ele>1579.0</ele><time>2026-05-02T12:06:17Z</time></trkpt><trkpt lat="45.87512660166865" lon="11.296297378372724"><ele>1586.8333333333335</ele><time>2026-05-02T12:06:18Z</time></trkpt><trkpt lat="45.87517262278555" lon="11.296155053405744"><ele>1594.6666666666667</ele><time>2026-05-02T12:06:20Z</time></trkpt><trkpt lat="45.87519352233632" lon="11.296068916295487"><ele>1602.5</ele><time>2026-05-02T12:06:22Z</time></trkpt><trkpt lat="45.875203774956645" lon="11.295913458304165"><ele>1610.3333333333335</ele><time>2026-05-02T12:06:59.999Z</time></trkpt><trkpt lat="45.875198224835096" lon="11.295822452346467"><ele>1618.1666666666667</ele><time>2026-05-02T12:07:00.999Z</time></trkpt><trkpt lat="45.8751869334769" lon="11.295716142910441"><ele>1626.0</ele><time>2026-05-02T12:07:01.999Z</time></trkpt><trkpt lat="45.875169746621026" lon="11.295608278298689"><ele>1627.8333333333333</ele><time>2026-05-02T12:07:02.999Z</time></trkpt><trkpt lat="45.87515214720611" lon="11.295496400630885"><ele>1629.6666666666665</ele><time>2026-05-02T12:07:03.999Z</time></trkpt><trkpt lat="45.87514598487188" lon="11.295377307999042"><ele>1631.5</ele><time>2026-05-02T12:07:04.999Z</time></trkpt><trkpt lat="45.875163863956" lon="11.295253942814014"><ele>1633.3333333333333</ele><time>2026-05-02T12:07:05.999Z</time></trkpt><trkpt lat="45.87520394518861" lon="11.29513665403505"><ele>1635.1666666666665</ele><time>2026-05-02T12:07:06.999Z</time></trkpt><trkpt lat="45.875256356062664" lon="11.295019983493614"><ele>1637.0</ele><time>2026-05-02T12:07:07.999Z</time></trkpt><trkpt lat="45.87529703210857" lon="11.29492020880432"><ele>1636.9999999999998</ele><time>2026-05-02T12:07:08.999Z</time></trkpt><trkpt lat="45.87531561386377" lon="11.294789666130942"><ele>1637.0</ele><time>2026-05-02T12:07:09.999Z</time></trkpt><trkpt lat="45.87529678633044" lon="11.294666576888126"><ele>1637.0</ele><time>2026-05-02T12:07:10.999Z</time></trkpt><trkpt lat="45.87525630626552" lon="11.294552864068079"><ele>1637.0</ele><time>2026-05-02T12:07:11.999Z</time></trkpt><trkpt lat="45.87520824817278" lon="11.294448548636767"><ele>1636.9999999999998</ele><time>2026-05-02T12:07:12.999Z</time></trkpt><trkpt lat="45.87516881884863" lon="11.294344161777948"><ele>1637.0</ele><time>2026-05-02T12:07:13.999Z</time></trkpt><trkpt lat="45.875155793464515" lon="11.294225451992384"><ele>1639.1666666666665</ele><time>2026-05-02T12:07:14.999Z</time></trkpt><trkpt lat="45.8752048480862" lon="11.294117815767725"><ele>1641.3333333333333</ele><time>2026-05-02T12:07:15.999Z</time></trkpt><trkpt lat="45.875251577829715" lon="11.294010048215048"><ele>1643.5</ele><time>2026-05-02T12:07:16.999Z</time></trkpt><trkpt lat="45.87526902197195" lon="11.29388881535717"><ele>1645.6666666666665</ele><time>2026-05-02T12:07:17.999Z</time></trkpt><trkpt lat="45.87526790199554" lon="11.293762345679268"><ele>1647.8333333333333</ele><time>2026-05-02T12:07:18.999Z</time></trkpt><trkpt lat="45.875240758040384" lon="11.293634998591946"><ele>1650.0</ele><time>2026-05-02T12:07:19.999Z</time></trkpt><trkpt lat="45.87520034751839" lon="11.29351192946603"><ele>1652.6666666666667</ele><time>2026-05-02T12:07:20.999Z</time></trkpt><trkpt lat="45.87515781580227" lon="11.293388391038244"><ele>1655.3333333333335</ele><time>2026-05-02T12:07:21.999Z</time></trkpt><trkpt lat="45.87513082714756" lon="11.293253897961652"><ele>1658.0</ele><time>2026-05-02T12:07:22.999Z</time></trkpt><trkpt lat="45.87509569388836" lon="11.29313166070921"><ele>1660.6666666666667</ele><time>2026-05-02T12:07:23.999Z</time></trkpt><trkpt lat="45.875042001679404" lon="11.293026722252275"><ele>1663.3333333333335</ele><time>2026-05-02T12:07:24.999Z</time></trkpt><trkpt lat="45.87502090092693" lon="11.29292953579978"><ele>1666.0</ele><time>2026-05-02T12:07:25.999Z</time></trkpt><trkpt lat="45.87504492901812" lon="11.292831044063977"><ele>1663.0000000000002</ele><time>2026-05-02T12:07:26.998Z</time></trkpt><trkpt lat="45.87507621775935" lon="11.292725634728637"><ele>1660.0</ele><time>2026-05-02T12:07:27.998Z</time></trkpt><trkpt lat="45.87510084424676" lon="11.292620390908885"><ele>1657.0</ele><time>2026-05-02T12:07:28.998Z</time></trkpt><trkpt lat="45.87510018701498" lon="11.29250889707286"><ele>1654.0</ele><time>2026-05-02T12:07:29.998Z</time></trkpt><trkpt lat="45.87509130656635" lon="11.292394845621718"><ele>1651.0000000000002</ele><time>2026-05-02T12:07:30.998Z</time></trkpt><trkpt lat="45.875074466346206" lon="11.292280821794426"><ele>1648.0</ele><time>2026-05-02T12:07:31.998Z</time></trkpt><trkpt lat="45.87504097992585" lon="11.292163880463086"><ele>1648.0</ele><time>2026-05-02T12:07:32.998Z</time></trkpt><trkpt lat="45.874990183508736" lon="11.292055609606534"><ele>1648.0</ele><time>2026-05-02T12:07:33.998Z</time></trkpt><trkpt lat="45.874896550893716" lon="11.291975566249913"><ele>1648.0</ele><time>2026-05-02T12:07:34.998Z</time></trkpt><trkpt lat="45.87482282898946" lon="11.291893873147155"><ele>1648.0</ele><time>2026-05-02T12:07:35.998Z</time></trkpt><trkpt lat="45.87473564716515" lon="11.291840647628078"><ele>1648.0</ele><time>2026-05-02T12:07:36.998Z</time></trkpt><trkpt lat="45.874650176963264" lon="11.291792421603681"><ele>1648.0</ele><time>2026-05-02T12:07:37.998Z</time></trkpt><trkpt lat="45.87458128279675" lon="11.291699662208798"><ele>1648.0</ele><time>2026-05-02T12:07:38.998Z</time></trkpt><trkpt lat="45.87454693128279" lon="11.291566609187889"><ele>1648.0</ele><time>2026-05-02T12:07:39.998Z</time></trkpt><trkpt lat="45.87447594987997" lon="11.291493093056339"><ele>1648.0</ele><time>2026-05-02T12:07:40.998Z</time></trkpt><trkpt lat="45.874396940731366" lon="11.291430888659525"><ele>1648.0</ele><time>2026-05-02T12:07:41.998Z</time></trkpt><trkpt lat="45.87432605378843" lon="11.291359076102204"><ele>1653.5000000000002</ele><time>2026-05-02T12:07:42.998Z</time></trkpt><trkpt lat="45.87428943275237" lon="11.291263051184101"><ele>1659.0</ele><time>2026-05-02T12:07:43.998Z</time></trkpt><trkpt lat="45.874283450100634" lon="11.291155011933272"><ele>1664.5</ele><time>2026-05-02T12:07:44.998Z</time></trkpt><trkpt lat="45.874288275192846" lon="11.291044892741334"><ele>1670.0</ele><time>2026-05-02T12:07:45.998Z</time></trkpt><trkpt lat="45.87429201558142" lon="11.290925429109391"><ele>1675.5000000000002</ele><time>2026-05-02T12:07:46.998Z</time></trkpt><trkpt lat="45.87429298450563" lon="11.29079826460903"><ele>1681.0</ele><time>2026-05-02T12:07:47.998Z</time></trkpt><trkpt lat="45.874300329701136" lon="11.290668451522714"><ele>1686.6</ele><time>2026-05-02T12:07:48.998Z</time></trkpt><trkpt lat="45.87430941473588" lon="11.290537779731931"><ele>1692.1999999999998</ele><time>2026-05-02T12:07:49.998Z</time></trkpt><trkpt lat="45.87428540872261" lon="11.290426090622258"><ele>1697.8000000000002</ele><time>2026-05-02T12:07:50.998Z</time></trkpt><trkpt lat="45.87424465218373" lon="11.290319473884038"><ele>1703.4</ele><time>2026-05-02T12:07:51.998Z</time></trkpt><trkpt lat="45.874170118335904" lon="11.290236259823674"><ele>1709.0</ele><time>2026-05-02T12:07:52.998Z</time></trkpt><trkpt lat="45.874068699918446" lon="11.290168700943875"><ele>1697.6</ele><time>2026-05-02T12:07:53.998Z</time></trkpt><trkpt lat="45.87397745014547" lon="11.290119482364613"><ele>1686.2</ele><time>2026-05-02T12:07:54.998Z</time></trkpt><trkpt lat="45.87389498799814" lon="11.290075669235788"><ele>1674.8</ele><time>2026-05-02T12:07:55.998Z</time></trkpt><trkpt lat="45.873803026012695" lon="11.289998867741346"><ele>1663.3999999999999</ele><time>2026-05-02T12:07:56.998Z</time></trkpt><trkpt lat="45.873720794201375" lon="11.289940347864865"><ele>1652.0</ele><time>2026-05-02T12:07:57.998Z</time></trkpt><trkpt lat="45.873640434852256" lon="11.289904964289107"><ele>1651.9999999999998</ele><time>2026-05-02T12:07:58.998Z</time></trkpt><trkpt lat="45.87356648438863" lon="11.289894556544244"><ele>1652.0</ele><time>2026-05-02T12:07:59.998Z</time></trkpt><trkpt lat="45.87349815815656" lon="11.289878570127934"><ele>1652.0</ele><time>2026-05-02T12:08:00.998Z</time></trkpt><trkpt lat="45.87344089787639" lon="11.289832976497356"><ele>1652.0</ele><time>2026-05-02T12:08:01.998Z</time></trkpt><trkpt lat="45.873389972749514" lon="11.289660604764842"><ele>1651.9999999999998</ele><time>2026-05-02T12:08:03.998Z</time></trkpt><trkpt lat="45.87339129958983" lon="11.289553360433244"><ele>1652.0</ele><time>2026-05-02T12:08:04.998Z</time></trkpt><trkpt lat="45.873373314072865" lon="11.289442341783143"><ele>1652.4999999999998</ele><time>2026-05-02T12:08:05.998Z</time></trkpt><trkpt lat="45.873335133253086" lon="11.28932732984419"><ele>1653.0</ele><time>2026-05-02T12:08:06.998Z</time></trkpt><trkpt lat="45.8732823902067" lon="11.289229888945483"><ele>1653.5</ele><time>2026-05-02T12:08:08Z</time></trkpt><trkpt lat="45.87321198358673" lon="11.289160195776407"><ele>1654.0</ele><time>2026-05-02T12:08:09Z</time></trkpt><trkpt lat="45.87313366355069" lon="11.289126559505597"><ele>1654.4999999999998</ele><time>2026-05-02T12:08:10Z</time></trkpt><trkpt lat="45.873053851828566" lon="11.289138033841487"><ele>1655.0</ele><time>2026-05-02T12:08:11Z</time></trkpt><trkpt lat="45.87297152330625" lon="11.289165902780304"><ele>1655.0</ele><time>2026-05-02T12:08:12Z</time></trkpt><trkpt lat="45.87288407842224" lon="11.289184817333524"><ele>1655.0</ele><time>2026-05-02T12:08:13Z</time></trkpt><trkpt lat="45.87280400992587" lon="11.28915417534868"><ele>1655.0</ele><time>2026-05-02T12:08:14Z</time></trkpt><trkpt lat="45.87272235295417" lon="11.289092416871371"><ele>1655.0</ele><time>2026-05-02T12:08:15Z</time></trkpt><trkpt lat="45.872644359845395" lon="11.289010466486053"><ele>1655.0</ele><time>2026-05-02T12:08:16Z</time></trkpt><trkpt lat="45.87256282548375" lon="11.288928102510777"><ele>1651.1666666666665</ele><time>2026-05-02T12:08:17Z</time></trkpt><trkpt lat="45.87247766831727" lon="11.288898497083391"><ele>1647.3333333333333</ele><time>2026-05-02T12:08:18Z</time></trkpt><trkpt lat="45.87238827682157" lon="11.288910037692718"><ele>1643.5</ele><time>2026-05-02T12:08:19Z</time></trkpt><trkpt lat="45.872307008457184" lon="11.288947615864972"><ele>1639.6666666666665</ele><time>2026-05-02T12:08:20Z</time></trkpt><trkpt lat="45.87222892396636" lon="11.289015902663163"><ele>1635.8333333333333</ele><time>2026-05-02T12:08:21Z</time></trkpt><trkpt lat="45.87214690520308" lon="11.289074358814212"><ele>1632.0</ele><time>2026-05-02T12:08:22Z</time></trkpt><trkpt lat="45.87205998046865" lon="11.289132226137262"><ele>1632.0</ele><time>2026-05-02T12:08:23Z</time></trkpt><trkpt lat="45.87196550441889" lon="11.289188285147173"><ele>1632.0</ele><time>2026-05-02T12:08:24Z</time></trkpt><trkpt lat="45.87187224841947" lon="11.289240452013718"><ele>1632.0</ele><time>2026-05-02T12:08:25Z</time></trkpt><trkpt lat="45.87178460314894" lon="11.289288990639088"><ele>1632.0</ele><time>2026-05-02T12:08:26Z</time></trkpt><trkpt lat="45.87169557436581" lon="11.289327967936515"><ele>1632.0</ele><time>2026-05-02T12:08:27Z</time></trkpt><trkpt lat="45.87161228606813" lon="11.289323441787658"><ele>1631.8</ele><time>2026-05-02T12:08:28Z</time></trkpt><trkpt lat="45.87153372841098" lon="11.28928399872966"><ele>1631.6</ele><time>2026-05-02T12:08:29Z</time></trkpt><trkpt lat="45.87145503737559" lon="11.289218958299072"><ele>1631.3999999999999</ele><time>2026-05-02T12:08:30Z</time></trkpt><trkpt lat="45.87137192172596" lon="11.28915841268041"><ele>1631.1999999999998</ele><time>2026-05-02T12:08:31Z</time></trkpt><trkpt lat="45.87127820910959" lon="11.289111334543167"><ele>1631.0</ele><time>2026-05-02T12:08:32Z</time></trkpt><trkpt lat="45.87117249391332" lon="11.289091017752298"><ele>1631.0</ele><time>2026-05-02T12:08:33Z</time></trkpt><trkpt lat="45.87105943076495" lon="11.289106370869112"><ele>1631.0</ele><time>2026-05-02T12:08:34Z</time></trkpt><trkpt lat="45.87094790702141" lon="11.289116954505376"><ele>1631.0</ele><time>2026-05-02T12:08:35Z</time></trkpt><trkpt lat="45.870836723619504" lon="11.289092661247157"><ele>1631.0</ele><time>2026-05-02T12:08:36Z</time></trkpt><trkpt lat="45.87073126950859" lon="11.289035577291056"><ele>1631.8333333333333</ele><time>2026-05-02T12:08:37Z</time></trkpt><trkpt lat="45.87062686097189" lon="11.288981887754677"><ele>1632.6666666666665</ele><time>2026-05-02T12:08:38Z</time></trkpt><trkpt lat="45.870535241321086" lon="11.288945733953279"><ele>1633.5</ele><time>2026-05-02T12:08:39Z</time></trkpt><trkpt lat="45.87045253237499" lon="11.288918591827096"><ele>1634.3333333333335</ele><time>2026-05-02T12:08:40Z</time></trkpt><trkpt lat="45.87038934634728" lon="11.288902849008682"><ele>1635.1666666666667</ele><time>2026-05-02T12:08:41Z</time></trkpt><trkpt lat="45.87032071924729" lon="11.28888695630059"><ele>1636.0</ele><time>2026-05-02T12:08:43Z</time></trkpt><trkpt lat="45.87023492363016" lon="11.288911700020162"><ele>1636.0</ele><time>2026-05-02T12:09:18.999Z</time></trkpt><trkpt lat="45.870086133616454" lon="11.288956235414949"><ele>1636.0</ele><time>2026-05-02T12:09:20.999Z</time></trkpt><trkpt lat="45.86999516887972" lon="11.288992435759239"><ele>1636.0</ele><time>2026-05-02T12:09:21.999Z</time></trkpt><trkpt lat="45.86990540911211" lon="11.289033043383242"><ele>1636.0</ele><time>2026-05-02T12:09:22.999Z</time></trkpt><trkpt lat="45.86983337705749" lon="11.289064076412512"><ele>1636.0</ele><time>2026-05-02T12:09:23.999Z</time></trkpt><trkpt lat="45.86972527373226" lon="11.289056929990762"><ele>1636.0</ele><time>2026-05-02T12:09:25.999Z</time></trkpt><trkpt lat="45.86969268209588" lon="11.288965590262356"><ele>1636.0</ele><time>2026-05-02T12:09:26.999Z</time></trkpt><trkpt lat="45.86968071295886" lon="11.28884164783862"><ele>1636.0</ele><time>2026-05-02T12:09:27.999Z</time></trkpt><trkpt lat="45.86968421693921" lon="11.288695320411925"><ele>1636.0</ele><time>2026-05-02T12:09:28.999Z</time></trkpt><trkpt lat="45.86969444825957" lon="11.28852620962309"><ele>1636.0</ele><time>2026-05-02T12:09:29.999Z</time></trkpt><trkpt lat="45.86969671801073" lon="11.288341963454814"><ele>1642.25</ele><time>2026-05-02T12:09:30.999Z</time></trkpt><trkpt lat="45.86969525565" lon="11.288139721375924"><ele>1648.5</ele><time>2026-05-02T12:09:31.998Z</time></trkpt><trkpt lat="45.869683141464726" lon="11.287934776904946"><ele>1654.75</ele><time>2026-05-02T12:09:32.998Z</time></trkpt><trkpt lat="45.86967317285295" lon="11.287737788104181"><ele>1661.0</ele><time>2026-05-02T12:09:33.998Z</time></trkpt><trkpt lat="45.86965777675003" lon="11.287558614326258"><ele>1667.75</ele><time>2026-05-02T12:09:34.998Z</time></trkpt><trkpt lat="45.869634625353285" lon="11.287395458582866"><ele>1674.5</ele><time>2026-05-02T12:09:35.998Z</time></trkpt><trkpt lat="45.86958230720337" lon="11.287258894467492"><ele>1681.25</ele><time>2026-05-02T12:09:36.998Z</time></trkpt><trkpt lat="45.86949901368683" lon="11.287152318855748"><ele>1688.0</ele><time>2026-05-02T12:09:37.998Z</time></trkpt><trkpt lat="45.869395372623345" lon="11.287058412910076"><ele>1684.0</ele><time>2026-05-02T12:09:38.998Z</time></trkpt><trkpt lat="45.86927381102482" lon="11.286958578522745"><ele>1680.0</ele><time>2026-05-02T12:09:39.998Z</time></trkpt><trkpt lat="45.869137078640655" lon="11.286868613751823"><ele>1676.0</ele><time>2026-05-02T12:09:40.998Z</time></trkpt><trkpt lat="45.869012006925274" lon="11.286743366073102"><ele>1672.0</ele><time>2026-05-02T12:09:41.998Z</time></trkpt><trkpt lat="45.868906016862574" lon="11.286604632049114"><ele>1672.0</ele><time>2026-05-02T12:09:42.998Z</time></trkpt><trkpt lat="45.86881334732342" lon="11.286467552558264"><ele>1672.0</ele><time>2026-05-02T12:09:43.998Z</time></trkpt><trkpt lat="45.868722412340816" lon="11.286325990384162"><ele>1672.0</ele><time>2026-05-02T12:09:44.998Z</time></trkpt><trkpt lat="45.868637879586515" lon="11.286194394818951"><ele>1672.0</ele><time>2026-05-02T12:09:45.998Z</time></trkpt><trkpt lat="45.86857064841635" lon="11.286084205605668"><ele>1676.6</ele><time>2026-05-02T12:09:46.998Z</time></trkpt><trkpt lat="45.86851388267319" lon="11.285993521803531"><ele>1681.1999999999998</ele><time>2026-05-02T12:09:47.998Z</time></trkpt><trkpt lat="45.86849539854108" lon="11.285868572388052"><ele>1685.8</ele><time>2026-05-02T12:09:48.998Z</time></trkpt><trkpt lat="45.86850066616846" lon="11.285712695505994"><ele>1690.4</ele><time>2026-05-02T12:09:49.998Z</time></trkpt><trkpt lat="45.868502884468256" lon="11.285524096171907"><ele>1695.0</ele><time>2026-05-02T12:09:50.998Z</time></trkpt><trkpt lat="45.86846752992618" lon="11.28535203742267"><ele>1695.6</ele><time>2026-05-02T12:09:51.998Z</time></trkpt><trkpt lat="45.86844647025061" lon="11.285215495080923"><ele>1696.2</ele><time>2026-05-02T12:09:52.998Z</time></trkpt><trkpt lat="45.86847126668479" lon="11.285104655001282"><ele>1696.8000000000002</ele><time>2026-05-02T12:09:53.998Z</time></trkpt><trkpt lat="45.86850815024562" lon="11.284981447242506"><ele>1697.4</ele><time>2026-05-02T12:09:54.998Z</time></trkpt><trkpt lat="45.86858215368354" lon="11.284841915489324"><ele>1698.0</ele><time>2026-05-02T12:09:55.998Z</time></trkpt><trkpt lat="45.86867430647695" lon="11.28469693772931"><ele>1691.6666666666665</ele><time>2026-05-02T12:09:56.998Z</time></trkpt><trkpt lat="45.86876742735509" lon="11.28456322587766"><ele>1685.3333333333333</ele><time>2026-05-02T12:09:57.998Z</time></trkpt><trkpt lat="45.86888351978261" lon="11.284374355785657"><ele>1679.0</ele><time>2026-05-02T12:09:58.998Z</time></trkpt><trkpt lat="45.86900860017148" lon="11.284208350874001"><ele>1679.0</ele><time>2026-05-02T12:09:59.998Z</time></trkpt><trkpt lat="45.86913446587029" lon="11.284047724825957"><ele>1679.0</ele><time>2026-05-02T12:10:00.998Z</time></trkpt><trkpt lat="45.869264583613685" lon="11.283896623814972"><ele>1679.0</ele><time>2026-05-02T12:10:01.998Z</time></trkpt><trkpt lat="45.86938379379078" lon="11.283755922532288"><ele>1684.25</ele><time>2026-05-02T12:10:02.998Z</time></trkpt><trkpt lat="45.86948867541136" lon="11.283600855127007"><ele>1689.5</ele><time>2026-05-02T12:10:03.998Z</time></trkpt><trkpt lat="45.8695935798019" lon="11.283451955633076"><ele>1694.75</ele><time>2026-05-02T12:10:04.998Z</time></trkpt><trkpt lat="45.86966187818721" lon="11.283277375973132"><ele>1700.0</ele><time>2026-05-02T12:10:05.998Z</time></trkpt><trkpt lat="45.869682201834806" lon="11.283065506165388"><ele>1700.0</ele><time>2026-05-02T12:10:06.998Z</time></trkpt><trkpt lat="45.86970245700394" lon="11.282856443813605"><ele>1700.0</ele><time>2026-05-02T12:10:07.998Z</time></trkpt><trkpt lat="45.869659354415944" lon="11.282639658099823"><ele>1700.0</ele><time>2026-05-02T12:10:08.998Z</time></trkpt><trkpt lat="45.86963427498352" lon="11.282425114487372"><ele>1703.25</ele><time>2026-05-02T12:10:09.998Z</time></trkpt><trkpt lat="45.86960213542143" lon="11.282214250476764"><ele>1706.5</ele><time>2026-05-02T12:10:10.998Z</time></trkpt><trkpt lat="45.869593706815074" lon="11.282022224933828"><ele>1709.75</ele><time>2026-05-02T12:10:11.998Z</time></trkpt><trkpt lat="45.869580192286385" lon="11.28185278101742"><ele>1713.0</ele><time>2026-05-02T12:10:12.998Z</time></trkpt><trkpt lat="45.869540086627175" lon="11.281702606840435"><ele>1713.0</ele><time>2026-05-02T12:10:14Z</time></trkpt><trkpt lat="45.86944901924341" lon="11.281623074699414"><ele>1713.0000000000002</ele><time>2026-05-02T12:10:15Z</time></trkpt><trkpt lat="45.86935588599564" lon="11.281534994522291"><ele>1713.0000000000002</ele><time>2026-05-02T12:10:16Z</time></trkpt><trkpt lat="45.869247138816306" lon="11.281503065236803"><ele>1713.0</ele><time>2026-05-02T12:10:17Z</time></trkpt><trkpt lat="45.869147776204045" lon="11.281436882260188"><ele>1713.0</ele><time>2026-05-02T12:10:18Z</time></trkpt><trkpt lat="45.869072070475596" lon="11.281337079872946"><ele>1712.6000000000001</ele><time>2026-05-02T12:10:19Z</time></trkpt><trkpt lat="45.868982353071736" lon="11.281251258264584"><ele>1712.2000000000003</ele><time>2026-05-02T12:10:20Z</time></trkpt><trkpt lat="45.86890325225658" lon="11.281148303541233"><ele>1711.8</ele><time>2026-05-02T12:10:21Z</time></trkpt><trkpt lat="45.86880451693681" lon="11.281109181167658"><ele>1711.4</ele><time>2026-05-02T12:10:22Z</time></trkpt><trkpt lat="45.86870289694854" lon="11.281117499179617"><ele>1711.0</ele><time>2026-05-02T12:10:23Z</time></trkpt><trkpt lat="45.86860015136768" lon="11.281164310714798"><ele>1711.0000000000002</ele><time>2026-05-02T12:10:24Z</time></trkpt><trkpt lat="45.86850825092805" lon="11.28120755744491"><ele>1711.0</ele><time>2026-05-02T12:10:25Z</time></trkpt><trkpt lat="45.868425190233566" lon="11.281209327824541"><ele>1711.0</ele><time>2026-05-02T12:10:26Z</time></trkpt><trkpt lat="45.8683622545752" lon="11.281155302856902"><ele>1711.0</ele><time>2026-05-02T12:10:27Z</time></trkpt><trkpt lat="45.868354306491966" lon="11.281036897613632"><ele>1711.0000000000002</ele><time>2026-05-02T12:10:28Z</time></trkpt><trkpt lat="45.86832032908787" lon="11.280928312017727"><ele>1711.0</ele><time>2026-05-02T12:10:29Z</time></trkpt><trkpt lat="45.86825826573034" lon="11.280805780582572"><ele>1706.75</ele><time>2026-05-02T12:10:30Z</time></trkpt><trkpt lat="45.868205417514424" lon="11.280665900903548"><ele>1702.5</ele><time>2026-05-02T12:10:31Z</time></trkpt><trkpt lat="45.86814029857901" lon="11.28051560332405"><ele>1698.25</ele><time>2026-05-02T12:10:32Z</time></trkpt><trkpt lat="45.86806677534837" lon="11.280363861008082"><ele>1694.0</ele><time>2026-05-02T12:10:33Z</time></trkpt><trkpt lat="45.86799395603166" lon="11.280208408878625"><ele>1694.0</ele><time>2026-05-02T12:10:34Z</time></trkpt><trkpt lat="45.86796152826237" lon="11.280047621205004"><ele>1694.0</ele><time>2026-05-02T12:10:35Z</time></trkpt><trkpt lat="45.867966611188336" lon="11.279902186674878"><ele>1694.0</ele><time>2026-05-02T12:10:36Z</time></trkpt><trkpt lat="45.867955291324755" lon="11.279734647475596"><ele>1694.0</ele><time>2026-05-02T12:10:37Z</time></trkpt><trkpt lat="45.86792980066451" lon="11.27956894681306"><ele>1695.75</ele><time>2026-05-02T12:10:38Z</time></trkpt><trkpt lat="45.86791106149816" lon="11.279403284302862"><ele>1697.5</ele><time>2026-05-02T12:10:39Z</time></trkpt><trkpt lat="45.867856470584606" lon="11.279265212241414"><ele>1699.25</ele><time>2026-05-02T12:10:40Z</time></trkpt><trkpt lat="45.86778890023536" lon="11.279132087349494"><ele>1701.0</ele><time>2026-05-02T12:10:41Z</time></trkpt><trkpt lat="45.86771117236617" lon="11.279016198248897"><ele>1701.0</ele><time>2026-05-02T12:10:42Z</time></trkpt><trkpt lat="45.86762618194132" lon="11.278937835339036"><ele>1701.0</ele><time>2026-05-02T12:10:43Z</time></trkpt><trkpt lat="45.86753999208476" lon="11.278890071730052"><ele>1701.0</ele><time>2026-05-02T12:10:44Z</time></trkpt><trkpt lat="45.867469359224756" lon="11.278839728071306"><ele>1701.0</ele><time>2026-05-02T12:10:45Z</time></trkpt><trkpt lat="45.86742059220866" lon="11.27877195734779"><ele>1701.0</ele><time>2026-05-02T12:10:46Z</time></trkpt><trkpt lat="45.86741337638026" lon="11.278585829045452"><ele>1701.5</ele><time>2026-05-02T12:10:48Z</time></trkpt><trkpt lat="45.867458753741516" lon="11.278497152679677"><ele>1702.0</ele><time>2026-05-02T12:10:49Z</time></trkpt><trkpt lat="45.86753043246624" lon="11.278446481085442"><ele>1702.5</ele><time>2026-05-02T12:10:50Z</time></trkpt><trkpt lat="45.86760691898341" lon="11.278442183755118"><ele>1703.0</ele><time>2026-05-02T12:10:51Z</time></trkpt><trkpt lat="45.86767466991649" lon="11.278487741916503"><ele>1703.5</ele><time>2026-05-02T12:10:51.999Z</time></trkpt><trkpt lat="45.8677090466179" lon="11.278600183219428"><ele>1704.0</ele><time>2026-05-02T12:10:52.999Z</time></trkpt><trkpt lat="45.86775155047588" lon="11.27871127050091"><ele>1704.0</ele><time>2026-05-02T12:10:53.999Z</time></trkpt><trkpt lat="45.86781897624815" lon="11.278833195689124"><ele>1704.0</ele><time>2026-05-02T12:10:54.999Z</time></trkpt><trkpt lat="45.86787489050227" lon="11.278982537634139"><ele>1704.0</ele><time>2026-05-02T12:10:55.999Z</time></trkpt><trkpt lat="45.867940606090194" lon="11.27913335487618"><ele>1704.0</ele><time>2026-05-02T12:10:56.999Z</time></trkpt><trkpt lat="45.86800425901694" lon="11.279301532827429"><ele>1703.25</ele><time>2026-05-02T12:10:57.999Z</time></trkpt><trkpt lat="45.86805189997149" lon="11.279472176991726"><ele>1702.5</ele><time>2026-05-02T12:10:58.999Z</time></trkpt><trkpt lat="45.86811328776596" lon="11.279633293509603"><ele>1701.75</ele><time>2026-05-02T12:10:59.999Z</time></trkpt><trkpt lat="45.868176171001245" lon="11.279797672044541"><ele>1701.0</ele><time>2026-05-02T12:11:00.999Z</time></trkpt><trkpt lat="45.86824020080644" lon="11.279960751769215"><ele>1699.6</ele><time>2026-05-02T12:11:01.999Z</time></trkpt><trkpt lat="45.868298604261575" lon="11.280106573614951"><ele>1698.1999999999998</ele><time>2026-05-02T12:11:02.999Z</time></trkpt><trkpt lat="45.86835439908911" lon="11.28024417463412"><ele>1696.8000000000002</ele><time>2026-05-02T12:11:03.999Z</time></trkpt><trkpt lat="45.86840842962286" lon="11.280373506914044"><ele>1695.4</ele><time>2026-05-02T12:11:04.999Z</time></trkpt><trkpt lat="45.86846313153498" lon="11.280486694818716"><ele>1694.0</ele><time>2026-05-02T12:11:05.999Z</time></trkpt><trkpt lat="45.86852950012151" lon="11.280559323146907"><ele>1699.4</ele><time>2026-05-02T12:11:06.999Z</time></trkpt><trkpt lat="45.86860930059905" lon="11.280583903798291"><ele>1704.8000000000002</ele><time>2026-05-02T12:11:07.999Z</time></trkpt><trkpt lat="45.868697063292025" lon="11.280543925725954"><ele>1710.1999999999998</ele><time>2026-05-02T12:11:08.999Z</time></trkpt><trkpt lat="45.86875806334897" lon="11.280442719368237"><ele>1715.6</ele><time>2026-05-02T12:11:09.999Z</time></trkpt><trkpt lat="45.86878092218895" lon="11.28030622154527"><ele>1721.0</ele><time>2026-05-02T12:11:10.999Z</time></trkpt><trkpt lat="45.86876964570233" lon="11.280153671457095"><ele>1721.0</ele><time>2026-05-02T12:11:11.999Z</time></trkpt><trkpt lat="45.86873548723525" lon="11.279987151535229"><ele>1721.0</ele><time>2026-05-02T12:11:12.999Z</time></trkpt><trkpt lat="45.86869352948906" lon="11.279803223852902"><ele>1721.0</ele><time>2026-05-02T12:11:13.999Z</time></trkpt><trkpt lat="45.86864817576061" lon="11.279605075162237"><ele>1721.0</ele><time>2026-05-02T12:11:14.999Z</time></trkpt><trkpt lat="45.86860981533993" lon="11.279391044944711"><ele>1722.25</ele><time>2026-05-02T12:11:15.999Z</time></trkpt><trkpt lat="45.868565763154415" lon="11.279174127677393"><ele>1723.5</ele><time>2026-05-02T12:11:16.999Z</time></trkpt><trkpt lat="45.86851889615737" lon="11.278967566746223"><ele>1724.75</ele><time>2026-05-02T12:11:17.999Z</time></trkpt><trkpt lat="45.868479825629144" lon="11.278787781524843"><ele>1726.0</ele><time>2026-05-02T12:11:18.999Z</time></trkpt><trkpt lat="45.86845466692771" lon="11.278628908626832"><ele>1723.4</ele><time>2026-05-02T12:11:19.999Z</time></trkpt><trkpt lat="45.868425320117865" lon="11.278489558687642"><ele>1720.8</ele><time>2026-05-02T12:11:20.999Z</time></trkpt><trkpt lat="45.86841525828265" lon="11.278363571079598"><ele>1718.2000000000003</ele><time>2026-05-02T12:11:21.999Z</time></trkpt><trkpt lat="45.86842692747855" lon="11.27822608973699"><ele>1715.6000000000001</ele><time>2026-05-02T12:11:22.999Z</time></trkpt><trkpt lat="45.868466568409886" lon="11.278091546273318"><ele>1713.0</ele><time>2026-05-02T12:11:23.999Z</time></trkpt><trkpt lat="45.86853615195596" lon="11.277978236530442"><ele>1713.0</ele><time>2026-05-02T12:11:24.999Z</time></trkpt><trkpt lat="45.86863113596686" lon="11.277896942652827"><ele>1713.0</ele><time>2026-05-02T12:11:25.999Z</time></trkpt><trkpt lat="45.868743450399" lon="11.277857091652526"><ele>1713.0</ele><time>2026-05-02T12:11:26.999Z</time></trkpt><trkpt lat="45.868867483135816" lon="11.277876046724371"><ele>1713.0</ele><time>2026-05-02T12:11:27.999Z</time></trkpt><trkpt lat="45.86900532283173" lon="11.277864277824532"><ele>1713.0</ele><time>2026-05-02T12:11:28.999Z</time></trkpt><trkpt lat="45.869154764490645" lon="11.277883076564814"><ele>1713.0</ele><time>2026-05-02T12:11:29.999Z</time></trkpt><trkpt lat="45.8692994217403" lon="11.277889925454538"><ele>1713.0</ele><time>2026-05-02T12:11:30.999Z</time></trkpt><trkpt lat="45.86943899563238" lon="11.277887054325113"><ele>1713.0</ele><time>2026-05-02T12:11:31.999Z</time></trkpt><trkpt lat="45.8695697060828" lon="11.277848047891057"><ele>1720.25</ele><time>2026-05-02T12:11:32.999Z</time></trkpt><trkpt lat="45.86968545238119" lon="11.277763844589282"><ele>1727.5</ele><time>2026-05-02T12:11:33.999Z</time></trkpt><trkpt lat="45.86978237732901" lon="11.277635972827296"><ele>1734.75</ele><time>2026-05-02T12:11:34.999Z</time></trkpt><trkpt lat="45.86987802491877" lon="11.27746905337121"><ele>1742.0</ele><time>2026-05-02T12:11:35.998Z</time></trkpt><trkpt lat="45.86997235958612" lon="11.277295859109824"><ele>1736.3333333333333</ele><time>2026-05-02T12:11:36.998Z</time></trkpt><trkpt lat="45.87007219605212" lon="11.277131687777787"><ele>1730.6666666666665</ele><time>2026-05-02T12:11:37.998Z</time></trkpt><trkpt lat="45.87017831565546" lon="11.276971705565899"><ele>1725.0</ele><time>2026-05-02T12:11:38.998Z</time></trkpt><trkpt lat="45.870298548079504" lon="11.276799000077235"><ele>1735.0</ele><time>2026-05-02T12:11:39.998Z</time></trkpt><trkpt lat="45.870407074151046" lon="11.27662115795979"><ele>1745.0</ele><time>2026-05-02T12:11:40.998Z</time></trkpt><trkpt lat="45.87049291891296" lon="11.276414504381812"><ele>1755.0</ele><time>2026-05-02T12:11:41.998Z</time></trkpt><trkpt lat="45.870569419233775" lon="11.276213753724793"><ele>1755.0</ele><time>2026-05-02T12:11:42.998Z</time></trkpt><trkpt lat="45.8706418854901" lon="11.27603913672874"><ele>1755.0</ele><time>2026-05-02T12:11:43.998Z</time></trkpt><trkpt lat="45.870709344284705" lon="11.275884258699426"><ele>1755.0</ele><time>2026-05-02T12:11:44.998Z</time></trkpt><trkpt lat="45.870761436176245" lon="11.27572671459032"><ele>1755.0</ele><time>2026-05-02T12:11:45.998Z</time></trkpt><trkpt lat="45.87077915957737" lon="11.275545893032474"><ele>1756.75</ele><time>2026-05-02T12:11:46.998Z</time></trkpt><trkpt lat="45.87075433206712" lon="11.275363533682814"><ele>1758.5</ele><time>2026-05-02T12:11:47.998Z</time></trkpt><trkpt lat="45.87070154373978" lon="11.275177782602801"><ele>1760.25</ele><time>2026-05-02T12:11:48.998Z</time></trkpt><trkpt lat="45.8706196283723" lon="11.274986284767355"><ele>1762.0</ele><time>2026-05-02T12:11:49.998Z</time></trkpt><trkpt lat="45.870523702107434" lon="11.274792063271722"><ele>1770.0</ele><time>2026-05-02T12:11:50.998Z</time></trkpt><trkpt lat="45.87042299915013" lon="11.274577889419383"><ele>1778.0</ele><time>2026-05-02T12:11:51.998Z</time></trkpt><trkpt lat="45.87031386524226" lon="11.274356933987955"><ele>1786.0</ele><time>2026-05-02T12:11:52.998Z</time></trkpt><trkpt lat="45.8701943139876" lon="11.274145432231247"><ele>1785.0</ele><time>2026-05-02T12:11:53.998Z</time></trkpt><trkpt lat="45.87007133267265" lon="11.273927320976295"><ele>1784.0</ele><time>2026-05-02T12:11:54.998Z</time></trkpt><trkpt lat="45.86994195673131" lon="11.273706341225878"><ele>1783.0</ele><time>2026-05-02T12:11:55.998Z</time></trkpt><trkpt lat="45.86980869580082" lon="11.273493922461832"><ele>1783.0</ele><time>2026-05-02T12:11:56.998Z</time></trkpt><trkpt lat="45.86967344877392" lon="11.273290341425904"><ele>1783.0</ele><time>2026-05-02T12:11:57.998Z</time></trkpt><trkpt lat="45.86953519707361" lon="11.273103643513261"><ele>1783.0</ele><time>2026-05-02T12:11:58.998Z</time></trkpt><trkpt lat="45.869397899690206" lon="11.272909808275555"><ele>1784.6666666666667</ele><time>2026-05-02T12:11:59.998Z</time></trkpt><trkpt lat="45.86926445875154" lon="11.272727508365135"><ele>1786.3333333333335</ele><time>2026-05-02T12:12:00.998Z</time></trkpt><trkpt lat="45.86905987489557" lon="11.272652499414622"><ele>1788.0</ele><time>2026-05-02T12:12:01.998Z</time></trkpt><trkpt lat="45.86889212727727" lon="11.272543238769078"><ele>1788.0</ele><time>2026-05-02T12:12:02.998Z</time></trkpt><trkpt lat="45.86873543878137" lon="11.272442562703498"><ele>1788.0</ele><time>2026-05-02T12:12:03.998Z</time></trkpt><trkpt lat="45.868591268029036" lon="11.272366706676888"><ele>1788.0</ele><time>2026-05-02T12:12:04.998Z</time></trkpt><trkpt lat="45.86847091074506" lon="11.272310998560215"><ele>1785.8333333333333</ele><time>2026-05-02T12:12:05.998Z</time></trkpt><trkpt lat="45.86837858658691" lon="11.272265714411033"><ele>1783.6666666666665</ele><time>2026-05-02T12:12:06.998Z</time></trkpt><trkpt lat="45.86830984804665" lon="11.272209624570413"><ele>1781.5</ele><time>2026-05-02T12:12:07.998Z</time></trkpt><trkpt lat="45.86826350213642" lon="11.272139246161656"><ele>1779.3333333333333</ele><time>2026-05-02T12:12:08.998Z</time></trkpt><trkpt lat="45.86825200764373" lon="11.271959351944735"><ele>1777.1666666666665</ele><time>2026-05-02T12:12:10.998Z</time></trkpt><trkpt lat="45.868280708815085" lon="11.271873038474489"><ele>1775.0</ele><time>2026-05-02T12:12:11.998Z</time></trkpt><trkpt lat="45.868338226201026" lon="11.27180050139392"><ele>1775.0</ele><time>2026-05-02T12:12:12.998Z</time></trkpt><trkpt lat="45.86840243641358" lon="11.271719916509806"><ele>1775.0</ele><time>2026-05-02T12:12:13.998Z</time></trkpt><trkpt lat="45.86848535900781" lon="11.271639089294368"><ele>1775.0</ele><time>2026-05-02T12:12:14.998Z</time></trkpt><trkpt lat="45.86857811150237" lon="11.271542137434825"><ele>1775.0</ele><time>2026-05-02T12:12:15.998Z</time></trkpt><trkpt lat="45.86868702054278" lon="11.271423859406058"><ele>1775.0</ele><time>2026-05-02T12:12:16.998Z</time></trkpt><trkpt lat="45.86880452638566" lon="11.271296004778725"><ele>1774.6666666666665</ele><time>2026-05-02T12:12:17.998Z</time></trkpt><trkpt lat="45.86893172093212" lon="11.271162917559561"><ele>1774.3333333333335</ele><time>2026-05-02T12:12:18.998Z</time></trkpt><trkpt lat="45.86906444047083" lon="11.27103481566934"><ele>1774.0</ele><time>2026-05-02T12:12:20Z</time></trkpt><trkpt lat="45.86920006764156" lon="11.270897818629821"><ele>1777.0</ele><time>2026-05-02T12:12:21Z</time></trkpt><trkpt lat="45.86932089060916" lon="11.27073300562953"><ele>1780.0</ele><time>2026-05-02T12:12:22Z</time></trkpt><trkpt lat="45.86942336366601" lon="11.270547069057102"><ele>1783.0</ele><time>2026-05-02T12:12:23Z</time></trkpt><trkpt lat="45.869533358816966" lon="11.270366673313216"><ele>1783.0</ele><time>2026-05-02T12:12:24Z</time></trkpt><trkpt lat="45.86964508592148" lon="11.270188071782783"><ele>1783.0</ele><time>2026-05-02T12:12:25Z</time></trkpt><trkpt lat="45.86975374895601" lon="11.270011419106947"><ele>1783.0</ele><time>2026-05-02T12:12:26Z</time></trkpt><trkpt lat="45.86986449028169" lon="11.269844480554736"><ele>1783.0</ele><time>2026-05-02T12:12:27Z</time></trkpt><trkpt lat="45.869978652295075" lon="11.269693416419987"><ele>1783.0</ele><time>2026-05-02T12:12:28Z</time></trkpt><trkpt lat="45.8700940642142" lon="11.26956414455745"><ele>1783.0</ele><time>2026-05-02T12:12:29Z</time></trkpt><trkpt lat="45.87022346941981" lon="11.269444488469418"><ele>1783.0</ele><time>2026-05-02T12:12:30Z</time></trkpt><trkpt lat="45.87035394840151" lon="11.26934671449213"><ele>1783.0</ele><time>2026-05-02T12:12:31Z</time></trkpt><trkpt lat="45.87048293787225" lon="11.269252359463351"><ele>1783.0</ele><time>2026-05-02T12:12:32Z</time></trkpt><trkpt lat="45.870610025942455" lon="11.269146778407361"><ele>1783.0</ele><time>2026-05-02T12:12:33Z</time></trkpt><trkpt lat="45.8707291634936" lon="11.269027578091512"><ele>1779.0</ele><time>2026-05-02T12:12:34Z</time></trkpt><trkpt lat="45.870835762409605" lon="11.268883987695865"><ele>1775.0</ele><time>2026-05-02T12:12:35Z</time></trkpt><trkpt lat="45.87092089006573" lon="11.268708579085725"><ele>1771.0</ele><time>2026-05-02T12:12:36Z</time></trkpt><trkpt lat="45.87098341372999" lon="11.26850939187224"><ele>1767.0</ele><time>2026-05-02T12:12:37Z</time></trkpt><trkpt lat="45.871038646300576" lon="11.268287463547901"><ele>1767.6666666666665</ele><time>2026-05-02T12:12:38Z</time></trkpt><trkpt lat="45.87109278342679" lon="11.268061082167343"><ele>1768.3333333333333</ele><time>2026-05-02T12:12:39Z</time></trkpt><trkpt lat="45.871142899371506" lon="11.26783728289175"><ele>1769.0</ele><time>2026-05-02T12:12:40Z</time></trkpt><trkpt lat="45.87118386332139" lon="11.267612964149631"><ele>1769.0</ele><time>2026-05-02T12:12:41Z</time></trkpt><trkpt lat="45.87120414596027" lon="11.267375164671323"><ele>1769.0</ele><time>2026-05-02T12:12:42Z</time></trkpt><trkpt lat="45.871215555085804" lon="11.26713425802215"><ele>1769.0</ele><time>2026-05-02T12:12:43Z</time></trkpt><trkpt lat="45.87123463501795" lon="11.266896981469253"><ele>1770.3333333333333</ele><time>2026-05-02T12:12:44Z</time></trkpt><trkpt lat="45.87125588289847" lon="11.266659151478894"><ele>1771.6666666666665</ele><time>2026-05-02T12:12:45Z</time></trkpt><trkpt lat="45.871280385945205" lon="11.266432901831891"><ele>1773.0</ele><time>2026-05-02T12:12:46Z</time></trkpt><trkpt lat="45.871298159287775" lon="11.266204510801526"><ele>1773.3333333333335</ele><time>2026-05-02T12:12:47Z</time></trkpt><trkpt lat="45.87131120883877" lon="11.265977412919025"><ele>1773.6666666666667</ele><time>2026-05-02T12:12:48Z</time></trkpt><trkpt lat="45.871316074617816" lon="11.26575609621894"><ele>1774.0</ele><time>2026-05-02T12:12:49Z</time></trkpt><trkpt lat="45.87131388154713" lon="11.265545373179346"><ele>1772.5</ele><time>2026-05-02T12:12:50Z</time></trkpt><trkpt lat="45.871306742459474" lon="11.265341415037748"><ele>1771.0</ele><time>2026-05-02T12:12:51Z</time></trkpt><trkpt lat="45.871309090333476" lon="11.265139359592512"><ele>1769.5</ele><time>2026-05-02T12:12:52Z</time></trkpt><trkpt lat="45.87133121573184" lon="11.264935323507942"><ele>1768.0</ele><time>2026-05-02T12:12:53Z</time></trkpt><trkpt lat="45.87136920124377" lon="11.264719558559435"><ele>1762.0</ele><time>2026-05-02T12:12:54Z</time></trkpt><trkpt lat="45.87141499214396" lon="11.264512439322715"><ele>1756.0</ele><time>2026-05-02T12:12:55Z</time></trkpt><trkpt lat="45.87146513182633" lon="11.264295677670791"><ele>1750.0</ele><time>2026-05-02T12:12:56Z</time></trkpt><trkpt lat="45.871529075350146" lon="11.264083485580922"><ele>1743.3333333333335</ele><time>2026-05-02T12:12:57Z</time></trkpt><trkpt lat="45.87160096534933" lon="11.263868204734674"><ele>1736.6666666666665</ele><time>2026-05-02T12:12:58Z</time></trkpt><trkpt lat="45.871675792454575" lon="11.263644728717653"><ele>1730.0</ele><time>2026-05-02T12:12:58.999Z</time></trkpt><trkpt lat="45.87174787431656" lon="11.263425957434855"><ele>1739.3333333333333</ele><time>2026-05-02T12:12:59.999Z</time></trkpt><trkpt lat="45.87182913820407" lon="11.263210856504541"><ele>1748.6666666666665</ele><time>2026-05-02T12:13:00.999Z</time></trkpt><trkpt lat="45.87190458436821" lon="11.263009279385301"><ele>1758.0</ele><time>2026-05-02T12:13:01.999Z</time></trkpt><trkpt lat="45.87195662151447" lon="11.26278226162747"><ele>1758.0</ele><time>2026-05-02T12:13:02.999Z</time></trkpt><trkpt lat="45.872014951064266" lon="11.262560936254692"><ele>1758.0</ele><time>2026-05-02T12:13:03.999Z</time></trkpt><trkpt lat="45.872072019579136" lon="11.262340025564745"><ele>1758.0</ele><time>2026-05-02T12:13:04.999Z</time></trkpt><trkpt lat="45.8721255428495" lon="11.262111203853387"><ele>1753.3333333333335</ele><time>2026-05-02T12:13:05.999Z</time></trkpt><trkpt lat="45.87216928949423" lon="11.261866705967352"><ele>1748.6666666666667</ele><time>2026-05-02T12:13:06.999Z</time></trkpt><trkpt lat="45.87219395044868" lon="11.261612576354763"><ele>1744.0</ele><time>2026-05-02T12:13:07.999Z</time></trkpt><trkpt lat="45.87222004307886" lon="11.261371194229179"><ele>1742.6666666666667</ele><time>2026-05-02T12:13:08.999Z</time></trkpt><trkpt lat="45.872242522682306" lon="11.261131395586442"><ele>1741.3333333333335</ele><time>2026-05-02T12:13:09.999Z</time></trkpt><trkpt lat="45.872244640109415" lon="11.260894541125891"><ele>1740.0</ele><time>2026-05-02T12:13:10.999Z</time></trkpt><trkpt lat="45.872227826976086" lon="11.26066993422041"><ele>1738.0</ele><time>2026-05-02T12:13:11.999Z</time></trkpt><trkpt lat="45.872200590732675" lon="11.260454667310006"><ele>1736.0</ele><time>2026-05-02T12:13:12.999Z</time></trkpt><trkpt lat="45.872171711602164" lon="11.260272026993057"><ele>1734.0</ele><time>2026-05-02T12:13:13.999Z</time></trkpt><trkpt lat="45.87214788194636" lon="11.260113683060888"><ele>1732.0</ele><time>2026-05-02T12:13:14.999Z</time></trkpt><trkpt lat="45.872144126938245" lon="11.259971474053659"><ele>1732.0000000000002</ele><time>2026-05-02T12:13:15.999Z</time></trkpt><trkpt lat="45.872196339117224" lon="11.25985260760127"><ele>1732.0</ele><time>2026-05-02T12:13:16.999Z</time></trkpt><trkpt lat="45.87227546092506" lon="11.259797418148313"><ele>1732.0</ele><time>2026-05-02T12:13:17.999Z</time></trkpt><trkpt lat="45.87234013671393" lon="11.25971841332029"><ele>1732.0</ele><time>2026-05-02T12:13:18.999Z</time></trkpt><trkpt lat="45.872388877372835" lon="11.259645998729356"><ele>1732.0000000000002</ele><time>2026-05-02T12:13:19.999Z</time></trkpt><trkpt lat="45.87239340910636" lon="11.259531368097665"><ele>1732.0</ele><time>2026-05-02T12:13:20.999Z</time></trkpt><trkpt lat="45.872374394383186" lon="11.259440195361544"><ele>1728.0</ele><time>2026-05-02T12:13:21.999Z</time></trkpt><trkpt lat="45.87232055340914" lon="11.259360774833938"><ele>1723.9999999999998</ele><time>2026-05-02T12:13:22.999Z</time></trkpt><trkpt lat="45.87223924084996" lon="11.25932871609173"><ele>1719.9999999999998</ele><time>2026-05-02T12:13:23.999Z</time></trkpt><trkpt lat="45.87213019026203" lon="11.259399026658265"><ele>1716.0</ele><time>2026-05-02T12:13:24.999Z</time></trkpt><trkpt lat="45.872069663826245" lon="11.259488139212225"><ele>1712.0</ele><time>2026-05-02T12:13:25.999Z</time></trkpt><trkpt lat="45.872030902655624" lon="11.25961693942797"><ele>1712.0</ele><time>2026-05-02T12:13:26.999Z</time></trkpt><trkpt lat="45.87200129540947" lon="11.259764426825662"><ele>1712.0</ele><time>2026-05-02T12:13:27.999Z</time></trkpt><trkpt lat="45.8719589605194" lon="11.259931842095636"><ele>1712.0</ele><time>2026-05-02T12:13:28.999Z</time></trkpt><trkpt lat="45.87193688344251" lon="11.260101084094623"><ele>1712.0</ele><time>2026-05-02T12:13:29.999Z</time></trkpt><trkpt lat="45.871914284276805" lon="11.260276054045924"><ele>1709.8</ele><time>2026-05-02T12:13:30.999Z</time></trkpt><trkpt lat="45.87188036393663" lon="11.2604445836292"><ele>1707.6</ele><time>2026-05-02T12:13:31.999Z</time></trkpt><trkpt lat="45.8718420214558" lon="11.26058497205615"><ele>1705.3999999999999</ele><time>2026-05-02T12:13:32.999Z</time></trkpt><trkpt lat="45.871794684137406" lon="11.260679863270836"><ele>1703.1999999999998</ele><time>2026-05-02T12:13:33.999Z</time></trkpt><trkpt lat="45.87174982036282" lon="11.260777721801343"><ele>1701.0</ele><time>2026-05-02T12:13:34.999Z</time></trkpt><trkpt lat="45.87166893738956" lon="11.260814708091203"><ele>1701.0</ele><time>2026-05-02T12:13:35.999Z</time></trkpt><trkpt lat="45.871581438671946" lon="11.260795844351593"><ele>1701.0</ele><time>2026-05-02T12:13:36.999Z</time></trkpt><trkpt lat="45.87150166407809" lon="11.260723999754157"><ele>1701.0</ele><time>2026-05-02T12:13:37.999Z</time></trkpt><trkpt lat="45.871428569125236" lon="11.260616351642328"><ele>1701.0</ele><time>2026-05-02T12:13:38.999Z</time></trkpt><trkpt lat="45.87136470189953" lon="11.260511395689772"><ele>1701.0</ele><time>2026-05-02T12:13:39.999Z</time></trkpt><trkpt lat="45.87131913164543" lon="11.260394474494642"><ele>1700.1999999999998</ele><time>2026-05-02T12:13:40.999Z</time></trkpt><trkpt lat="45.871311502987865" lon="11.26026169010894"><ele>1699.3999999999999</ele><time>2026-05-02T12:13:41.998Z</time></trkpt><trkpt lat="45.871364074647545" lon="11.260134750932691"><ele>1698.6</ele><time>2026-05-02T12:13:42.998Z</time></trkpt><trkpt lat="45.87143166785751" lon="11.260024643413342"><ele>1697.8</ele><time>2026-05-02T12:13:43.998Z</time></trkpt><trkpt lat="45.87149048435203" lon="11.259867507675034"><ele>1697.0</ele><time>2026-05-02T12:13:44.998Z</time></trkpt><trkpt lat="45.87157654324422" lon="11.25971940789163"><ele>1695.0</ele><time>2026-05-02T12:13:45.998Z</time></trkpt><trkpt lat="45.87166638106715" lon="11.259539992513204"><ele>1693.0</ele><time>2026-05-02T12:13:46.998Z</time></trkpt><trkpt lat="45.87177433492774" lon="11.259372295276657"><ele>1691.0</ele><time>2026-05-02T12:13:47.998Z</time></trkpt><trkpt lat="45.87186290842223" lon="11.25916982569031"><ele>1691.5</ele><time>2026-05-02T12:13:48.998Z</time></trkpt><trkpt lat="45.871951931383684" lon="11.25900730243113"><ele>1692.0</ele><time>2026-05-02T12:13:49.998Z</time></trkpt><trkpt lat="45.87204681994682" lon="11.258843193235819"><ele>1692.5</ele><time>2026-05-02T12:13:50.998Z</time></trkpt><trkpt lat="45.872136087802005" lon="11.258668815733335"><ele>1693.0</ele><time>2026-05-02T12:13:51.998Z</time></trkpt><trkpt lat="45.87222650889224" lon="11.258508696660366"><ele>1693.0</ele><time>2026-05-02T12:13:52.998Z</time></trkpt><trkpt lat="45.87233634845528" lon="11.258395519093044"><ele>1693.0</ele><time>2026-05-02T12:13:53.998Z</time></trkpt><trkpt lat="45.87244164161215" lon="11.25826443079592"><ele>1693.0</ele><time>2026-05-02T12:13:54.998Z</time></trkpt><trkpt lat="45.87255150723694" lon="11.258160463367895"><ele>1693.0</ele><time>2026-05-02T12:13:55.998Z</time></trkpt><trkpt lat="45.87263312081094" lon="11.258041563260289"><ele>1696.0</ele><time>2026-05-02T12:13:56.998Z</time></trkpt><trkpt lat="45.87268835982854" lon="11.257906760719198"><ele>1699.0</ele><time>2026-05-02T12:13:57.998Z</time></trkpt><trkpt lat="45.87271313041678" lon="11.257751555088587"><ele>1702.0</ele><time>2026-05-02T12:13:58.998Z</time></trkpt><trkpt lat="45.872703223151085" lon="11.257575823985697"><ele>1705.0</ele><time>2026-05-02T12:13:59.998Z</time></trkpt><trkpt lat="45.87267894349983" lon="11.257411701716322"><ele>1703.6</ele><time>2026-05-02T12:14:00.998Z</time></trkpt><trkpt lat="45.872642377741826" lon="11.257268964817689"><ele>1702.2</ele><time>2026-05-02T12:14:01.998Z</time></trkpt><trkpt lat="45.87261983228053" lon="11.257140809544183"><ele>1700.8000000000002</ele><time>2026-05-02T12:14:02.998Z</time></trkpt><trkpt lat="45.87263096850955" lon="11.257019270724937"><ele>1699.4</ele><time>2026-05-02T12:14:03.998Z</time></trkpt><trkpt lat="45.87269124023461" lon="11.256913678746855"><ele>1698.0</ele><time>2026-05-02T12:14:04.998Z</time></trkpt><trkpt lat="45.87273585487565" lon="11.256778000949362"><ele>1698.0</ele><time>2026-05-02T12:14:05.998Z</time></trkpt><trkpt lat="45.87279251264769" lon="11.256675154419863"><ele>1698.0</ele><time>2026-05-02T12:14:06.998Z</time></trkpt><trkpt lat="45.87280133543216" lon="11.256534510399115"><ele>1698.0</ele><time>2026-05-02T12:14:07.998Z</time></trkpt><trkpt lat="45.87277448157966" lon="11.256388866520508"><ele>1698.0</ele><time>2026-05-02T12:14:08.998Z</time></trkpt><trkpt lat="45.87273446851404" lon="11.25624478607595"><ele>1698.0</ele><time>2026-05-02T12:14:09.998Z</time></trkpt><trkpt lat="45.87272303703165" lon="11.256096082745291"><ele>1697.2</ele><time>2026-05-02T12:14:10.998Z</time></trkpt><trkpt lat="45.872760785751474" lon="11.255957050614763"><ele>1696.4</ele><time>2026-05-02T12:14:11.998Z</time></trkpt><trkpt lat="45.87281654178099" lon="11.255818161677373"><ele>1695.6000000000001</ele><time>2026-05-02T12:14:12.998Z</time></trkpt><trkpt lat="45.872865264186416" lon="11.25567688259712"><ele>1694.8000000000002</ele><time>2026-05-02T12:14:13.998Z</time></trkpt><trkpt lat="45.87291820576938" lon="11.255540738067483"><ele>1694.0</ele><time>2026-05-02T12:14:14.998Z</time></trkpt><trkpt lat="45.87293306501716" lon="11.25538077882384"><ele>1693.5</ele><time>2026-05-02T12:14:15.998Z</time></trkpt><trkpt lat="45.87291542016876" lon="11.255200508349047"><ele>1693.0</ele><time>2026-05-02T12:14:16.998Z</time></trkpt><trkpt lat="45.872877653884665" lon="11.255024294827686"><ele>1692.5</ele><time>2026-05-02T12:14:17.998Z</time></trkpt><trkpt lat="45.87284280141651" lon="11.254875109070376"><ele>1692.0</ele><time>2026-05-02T12:14:18.998Z</time></trkpt><trkpt lat="45.87280066342635" lon="11.2547554607768"><ele>1693.5</ele><time>2026-05-02T12:14:19.998Z</time></trkpt><trkpt lat="45.87273077269631" lon="11.254661125554078"><ele>1695.0</ele><time>2026-05-02T12:14:20.998Z</time></trkpt><trkpt lat="45.8726341048981" lon="11.254584936467245"><ele>1696.5</ele><time>2026-05-02T12:14:21.998Z</time></trkpt><trkpt lat="45.872518582210084" lon="11.25451635058038"><ele>1698.0</ele><time>2026-05-02T12:14:22.998Z</time></trkpt><trkpt lat="45.87239774866832" lon="11.254451852208485"><ele>1694.25</ele><time>2026-05-02T12:14:23.998Z</time></trkpt><trkpt lat="45.87227573262942" lon="11.254406856665094"><ele>1690.5</ele><time>2026-05-02T12:14:24.998Z</time></trkpt><trkpt lat="45.87214691432796" lon="11.25438729904959"><ele>1686.75</ele><time>2026-05-02T12:14:26Z</time></trkpt><trkpt lat="45.872007979276034" lon="11.254391464638573"><ele>1683.0</ele><time>2026-05-02T12:14:27Z</time></trkpt><trkpt lat="45.87186761172329" lon="11.254430902204339"><ele>1680.5</ele><time>2026-05-02T12:14:28Z</time></trkpt><trkpt lat="45.871724996106074" lon="11.254495831154427"><ele>1678.0</ele><time>2026-05-02T12:14:29Z</time></trkpt><trkpt lat="45.87159034712851" lon="11.254574678340726"><ele>1675.5</ele><time>2026-05-02T12:14:30Z</time></trkpt><trkpt lat="45.8714556657094" lon="11.254621799522106"><ele>1673.0</ele><time>2026-05-02T12:14:31Z</time></trkpt><trkpt lat="45.87132937984995" lon="11.254677042872217"><ele>1673.0</ele><time>2026-05-02T12:14:32Z</time></trkpt><trkpt lat="45.87119067958412" lon="11.254725700381654"><ele>1673.0</ele><time>2026-05-02T12:14:33Z</time></trkpt><trkpt lat="45.871053448899005" lon="11.254751205077628"><ele>1673.0</ele><time>2026-05-02T12:14:34Z</time></trkpt><trkpt lat="45.87091749047417" lon="11.254747105595651"><ele>1673.0</ele><time>2026-05-02T12:14:35Z</time></trkpt><trkpt lat="45.87078704556001" lon="11.254723774216284"><ele>1672.0</ele><time>2026-05-02T12:14:36Z</time></trkpt><trkpt lat="45.87065493875143" lon="11.254676418193942"><ele>1671.0</ele><time>2026-05-02T12:14:37Z</time></trkpt><trkpt lat="45.87051565049795" lon="11.254636126289649"><ele>1670.0</ele><time>2026-05-02T12:14:38Z</time></trkpt><trkpt lat="45.87039017631561" lon="11.25455983638724"><ele>1669.0</ele><time>2026-05-02T12:14:39Z</time></trkpt><trkpt lat="45.870273510224656" lon="11.254458600575083"><ele>1669.0</ele><time>2026-05-02T12:14:40Z</time></trkpt><trkpt lat="45.8701552742948" lon="11.254337233262428"><ele>1669.0</ele><time>2026-05-02T12:14:41Z</time></trkpt><trkpt lat="45.870031666950496" lon="11.254209801691495"><ele>1669.0</ele><time>2026-05-02T12:14:42Z</time></trkpt><trkpt lat="45.86993173541319" lon="11.254041182587926"><ele>1666.0</ele><time>2026-05-02T12:14:43Z</time></trkpt><trkpt lat="45.86981928929391" lon="11.253900603705198"><ele>1663.0</ele><time>2026-05-02T12:14:44Z</time></trkpt><trkpt lat="45.86971253911198" lon="11.25372670496108"><ele>1660.0</ele><time>2026-05-02T12:14:45Z</time></trkpt><trkpt lat="45.86960328464647" lon="11.253542691749523"><ele>1660.0</ele><time>2026-05-02T12:14:46Z</time></trkpt><trkpt lat="45.869493341958595" lon="11.25336993876967"><ele>1660.0</ele><time>2026-05-02T12:14:47Z</time></trkpt><trkpt lat="45.869389149101195" lon="11.253207060925785"><ele>1660.0</ele><time>2026-05-02T12:14:48Z</time></trkpt><trkpt lat="45.86929044207105" lon="11.253046989695505"><ele>1656.25</ele><time>2026-05-02T12:14:49Z</time></trkpt><trkpt lat="45.869200979136444" lon="11.252889244115831"><ele>1652.5</ele><time>2026-05-02T12:14:50Z</time></trkpt><trkpt lat="45.86909065314939" lon="11.252752816580402"><ele>1648.75</ele><time>2026-05-02T12:14:51Z</time></trkpt><trkpt lat="45.86896554050088" lon="11.252648908982056"><ele>1645.0</ele><time>2026-05-02T12:14:52Z</time></trkpt><trkpt lat="45.86883238646727" lon="11.252597455061231"><ele>1645.0</ele><time>2026-05-02T12:14:53Z</time></trkpt><trkpt lat="45.86871299125255" lon="11.252554320488382"><ele>1645.0</ele><time>2026-05-02T12:14:54Z</time></trkpt><trkpt lat="45.86861672096304" lon="11.252440220872701"><ele>1645.0</ele><time>2026-05-02T12:14:55Z</time></trkpt><trkpt lat="45.86855498177183" lon="11.25229262165954"><ele>1645.0</ele><time>2026-05-02T12:14:56Z</time></trkpt><trkpt lat="45.86847014211369" lon="11.252146302964741"><ele>1645.0</ele><time>2026-05-02T12:14:57Z</time></trkpt><trkpt lat="45.86839452394519" lon="11.251986127326958"><ele>1645.0</ele><time>2026-05-02T12:14:58Z</time></trkpt><trkpt lat="45.868303633173625" lon="11.251842439054167"><ele>1645.0</ele><time>2026-05-02T12:14:59Z</time></trkpt><trkpt lat="45.86818701584676" lon="11.25172063913626"><ele>1645.0</ele><time>2026-05-02T12:15:00Z</time></trkpt><trkpt lat="45.868047042131415" lon="11.251619214111209"><ele>1645.0</ele><time>2026-05-02T12:15:01Z</time></trkpt><trkpt lat="45.86789424005999" lon="11.251539371961321"><ele>1645.0</ele><time>2026-05-02T12:15:02Z</time></trkpt><trkpt lat="45.86773907517952" lon="11.25148208081633"><ele>1645.0</ele><time>2026-05-02T12:15:02.999Z</time></trkpt><trkpt lat="45.86757885604106" lon="11.25143196538344"><ele>1648.25</ele><time>2026-05-02T12:15:03.999Z</time></trkpt><trkpt lat="45.867433189602934" lon="11.251343640954385"><ele>1651.5</ele><time>2026-05-02T12:15:04.999Z</time></trkpt><trkpt lat="45.8672968165751" lon="11.251268770703515"><ele>1654.75</ele><time>2026-05-02T12:15:05.999Z</time></trkpt><trkpt lat="45.86717177582305" lon="11.25117965706302"><ele>1658.0</ele><time>2026-05-02T12:15:06.999Z</time></trkpt><trkpt lat="45.86705619749863" lon="11.251068653323582"><ele>1658.0</ele><time>2026-05-02T12:15:07.999Z</time></trkpt><trkpt lat="45.86692689409054" lon="11.250957419484555"><ele>1658.0</ele><time>2026-05-02T12:15:08.999Z</time></trkpt><trkpt lat="45.866819488032625" lon="11.250792848878307"><ele>1658.0</ele><time>2026-05-02T12:15:09.999Z</time></trkpt><trkpt lat="45.86670701368775" lon="11.250608834678438"><ele>1652.6666666666665</ele><time>2026-05-02T12:15:10.999Z</time></trkpt><trkpt lat="45.866572705672795" lon="11.250437398117661"><ele>1647.3333333333335</ele><time>2026-05-02T12:15:11.999Z</time></trkpt><trkpt lat="45.86645617959193" lon="11.250235880136168"><ele>1642.0</ele><time>2026-05-02T12:15:12.999Z</time></trkpt><trkpt lat="45.86633550674787" lon="11.25005069260171"><ele>1642.0</ele><time>2026-05-02T12:15:13.999Z</time></trkpt><trkpt lat="45.86622173483725" lon="11.24986964388035"><ele>1642.0</ele><time>2026-05-02T12:15:14.999Z</time></trkpt><trkpt lat="45.86611109340546" lon="11.249692675199725"><ele>1642.0</ele><time>2026-05-02T12:15:15.999Z</time></trkpt><trkpt lat="45.86600797603235" lon="11.249532160393157"><ele>1633.75</ele><time>2026-05-02T12:15:16.999Z</time></trkpt><trkpt lat="45.865906089646224" lon="11.249381907232973"><ele>1625.5</ele><time>2026-05-02T12:15:17.999Z</time></trkpt><trkpt lat="45.86579235409133" lon="11.24925112425365"><ele>1617.25</ele><time>2026-05-02T12:15:18.999Z</time></trkpt><trkpt lat="45.86567327303839" lon="11.24915500291557"><ele>1609.0</ele><time>2026-05-02T12:15:19.999Z</time></trkpt><trkpt lat="45.86555444254954" lon="11.249093886086742"><ele>1609.0</ele><time>2026-05-02T12:15:20.999Z</time></trkpt><trkpt lat="45.86544884680665" lon="11.249044813356905"><ele>1609.0</ele><time>2026-05-02T12:15:21.999Z</time></trkpt><trkpt lat="45.865360063571295" lon="11.248994344494891"><ele>1609.0</ele><time>2026-05-02T12:15:22.999Z</time></trkpt><trkpt lat="45.865291222451944" lon="11.248927299321299"><ele>1609.0</ele><time>2026-05-02T12:15:23.999Z</time></trkpt><trkpt lat="45.86524957435833" lon="11.248829097483224"><ele>1609.0</ele><time>2026-05-02T12:15:24.999Z</time></trkpt><trkpt lat="45.86524147980865" lon="11.248705394265317"><ele>1607.6</ele><time>2026-05-02T12:15:25.999Z</time></trkpt><trkpt lat="45.86526430761092" lon="11.248582366684529"><ele>1606.2</ele><time>2026-05-02T12:15:26.999Z</time></trkpt><trkpt lat="45.86531732318935" lon="11.248472300358587"><ele>1604.8</ele><time>2026-05-02T12:15:27.999Z</time></trkpt><trkpt lat="45.86539403924107" lon="11.248358878155681"><ele>1603.3999999999999</ele><time>2026-05-02T12:15:28.999Z</time></trkpt><trkpt lat="45.865485335041136" lon="11.24824575258867"><ele>1602.0</ele><time>2026-05-02T12:15:29.999Z</time></trkpt><trkpt lat="45.86556077663122" lon="11.248130145856246"><ele>1599.0</ele><time>2026-05-02T12:15:30.999Z</time></trkpt><trkpt lat="45.86563474227661" lon="11.24803385227998"><ele>1596.0</ele><time>2026-05-02T12:15:31.999Z</time></trkpt><trkpt lat="45.86573033142312" lon="11.247970672016399"><ele>1593.0</ele><time>2026-05-02T12:15:32.999Z</time></trkpt><trkpt lat="45.86583658536893" lon="11.24793648739954"><ele>1590.0</ele><time>2026-05-02T12:15:33.999Z</time></trkpt><trkpt lat="45.86592571983932" lon="11.247880286546813"><ele>1587.0</ele><time>2026-05-02T12:15:34.999Z</time></trkpt><trkpt lat="45.865995854276825" lon="11.247729330703182"><ele>1588.25</ele><time>2026-05-02T12:15:35.999Z</time></trkpt><trkpt lat="45.86605746824053" lon="11.247557143926525"><ele>1589.5</ele><time>2026-05-02T12:15:36.999Z</time></trkpt><trkpt lat="45.86613070631614" lon="11.247375717843974"><ele>1590.75</ele><time>2026-05-02T12:15:37.999Z</time></trkpt><trkpt lat="45.866167074370274" lon="11.24717856417024"><ele>1592.0</ele><time>2026-05-02T12:15:38.999Z</time></trkpt><trkpt lat="45.86619923749575" lon="11.246981400918912"><ele>1592.0</ele><time>2026-05-02T12:15:39.999Z</time></trkpt><trkpt lat="45.86623388534843" lon="11.246802043686408"><ele>1592.0</ele><time>2026-05-02T12:15:40.999Z</time></trkpt><trkpt lat="45.86630633805583" lon="11.246637750370287"><ele>1592.0</ele><time>2026-05-02T12:15:41.999Z</time></trkpt><trkpt lat="45.866393701299664" lon="11.246490162768504"><ele>1592.0</ele><time>2026-05-02T12:15:42.999Z</time></trkpt><trkpt lat="45.86648896273379" lon="11.246359107750816"><ele>1590.5</ele><time>2026-05-02T12:15:43.999Z</time></trkpt><trkpt lat="45.86660511012829" lon="11.246235416281037"><ele>1589.0</ele><time>2026-05-02T12:15:44.998Z</time></trkpt><trkpt lat="45.86672100358583" lon="11.246111759203737"><ele>1587.5</ele><time>2026-05-02T12:15:45.998Z</time></trkpt><trkpt lat="45.86681845820838" lon="11.24597663233514"><ele>1586.0</ele><time>2026-05-02T12:15:46.998Z</time></trkpt><trkpt lat="45.866885518108354" lon="11.245808197088254"><ele>1586.0</ele><time>2026-05-02T12:15:47.998Z</time></trkpt><trkpt lat="45.866955051775825" lon="11.245688860736141"><ele>1586.0</ele><time>2026-05-02T12:15:48.998Z</time></trkpt><trkpt lat="45.86701417479758" lon="11.245560549902352"><ele>1586.0</ele><time>2026-05-02T12:15:49.998Z</time></trkpt><trkpt lat="45.867115393770796" lon="11.245506913810013"><ele>1586.0</ele><time>2026-05-02T12:15:50.998Z</time></trkpt><trkpt lat="45.86721583392177" lon="11.245456788294641"><ele>1586.0</ele><time>2026-05-02T12:15:51.998Z</time></trkpt><trkpt lat="45.86733055326583" lon="11.245402763212606"><ele>1583.5</ele><time>2026-05-02T12:15:52.998Z</time></trkpt><trkpt lat="45.867457649996496" lon="11.245319370841315"><ele>1581.0</ele><time>2026-05-02T12:15:53.998Z</time></trkpt><trkpt lat="45.86759059130675" lon="11.2452716121442"><ele>1578.5</ele><time>2026-05-02T12:15:54.998Z</time></trkpt><trkpt lat="45.867705832605665" lon="11.245218085021415"><ele>1576.0</ele><time>2026-05-02T12:15:55.998Z</time></trkpt><trkpt lat="45.86780770087628" lon="11.245160268786375"><ele>1576.0</ele><time>2026-05-02T12:15:56.998Z</time></trkpt><trkpt lat="45.86788235903608" lon="11.245083625565583"><ele>1576.0</ele><time>2026-05-02T12:15:57.998Z</time></trkpt><trkpt lat="45.867934349048" lon="11.244965165223109"><ele>1576.0</ele><time>2026-05-02T12:15:58.998Z</time></trkpt><trkpt lat="45.86794536555899" lon="11.244818119269551"><ele>1576.0</ele><time>2026-05-02T12:15:59.998Z</time></trkpt><trkpt lat="45.86793914215095" lon="11.244664361578216"><ele>1576.0</ele><time>2026-05-02T12:16:00.998Z</time></trkpt><trkpt lat="45.86793051002289" lon="11.244492371501511"><ele>1571.5</ele><time>2026-05-02T12:16:01.998Z</time></trkpt><trkpt lat="45.86788556012269" lon="11.24431363413167"><ele>1567.0</ele><time>2026-05-02T12:16:02.998Z</time></trkpt><trkpt lat="45.86784288114085" lon="11.244132294112335"><ele>1562.5</ele><time>2026-05-02T12:16:03.998Z</time></trkpt><trkpt lat="45.86781087269437" lon="11.24396133858725"><ele>1558.0</ele><time>2026-05-02T12:16:04.998Z</time></trkpt><trkpt lat="45.867762989913096" lon="11.243795504975326"><ele>1555.25</ele><time>2026-05-02T12:16:05.998Z</time></trkpt><trkpt lat="45.86768697377882" lon="11.243643518367026"><ele>1552.5</ele><time>2026-05-02T12:16:06.998Z</time></trkpt><trkpt lat="45.86759411650249" lon="11.243509862145022"><ele>1549.75</ele><time>2026-05-02T12:16:07.998Z</time></trkpt><trkpt lat="45.86750092106784" lon="11.24339578411772"><ele>1547.0</ele><time>2026-05-02T12:16:08.998Z</time></trkpt><trkpt lat="45.867428904374435" lon="11.24328057010896"><ele>1547.0</ele><time>2026-05-02T12:16:09.998Z</time></trkpt><trkpt lat="45.86739125620719" lon="11.243155345675001"><ele>1547.0</ele><time>2026-05-02T12:16:10.998Z</time></trkpt><trkpt lat="45.86742112983899" lon="11.243024144913853"><ele>1547.0</ele><time>2026-05-02T12:16:11.998Z</time></trkpt><trkpt lat="45.8674455999595" lon="11.242893051926169"><ele>1547.0</ele><time>2026-05-02T12:16:12.998Z</time></trkpt><trkpt lat="45.86749376573566" lon="11.242750968528801"><ele>1547.0</ele><time>2026-05-02T12:16:13.998Z</time></trkpt><trkpt lat="45.867545416498274" lon="11.24260462640425"><ele>1546.9999999999998</ele><time>2026-05-02T12:16:14.998Z</time></trkpt><trkpt lat="45.86757794983082" lon="11.242462863647608"><ele>1547.0</ele><time>2026-05-02T12:16:15.998Z</time></trkpt><trkpt lat="45.867602562819464" lon="11.242337810149303"><ele>1547.0</ele><time>2026-05-02T12:16:16.998Z</time></trkpt><trkpt lat="45.86759479312191" lon="11.242222621143874"><ele>1547.0</ele><time>2026-05-02T12:16:17.998Z</time></trkpt><trkpt lat="45.867557426842" lon="11.2421224418757"><ele>1546.9999999999998</ele><time>2026-05-02T12:16:18.998Z</time></trkpt><trkpt lat="45.86749462437845" lon="11.242026671469132"><ele>1547.0</ele><time>2026-05-02T12:16:19.998Z</time></trkpt><trkpt lat="45.867422832683026" lon="11.241921708868148"><ele>1547.0</ele><time>2026-05-02T12:16:20.998Z</time></trkpt><trkpt lat="45.86735222980738" lon="11.241799902016092"><ele>1547.0</ele><time>2026-05-02T12:16:21.998Z</time></trkpt><trkpt lat="45.86727579886379" lon="11.241687225029034"><ele>1547.0</ele><time>2026-05-02T12:16:22.998Z</time></trkpt><trkpt lat="45.867221520819484" lon="11.241574960288013"><ele>1547.0</ele><time>2026-05-02T12:16:23.998Z</time></trkpt><trkpt lat="45.86719784126913" lon="11.241459169402155"><ele>1547.0</ele><time>2026-05-02T12:16:24.998Z</time></trkpt><trkpt lat="45.86720480087139" lon="11.241337173773966"><ele>1547.75</ele><time>2026-05-02T12:16:25.998Z</time></trkpt><trkpt lat="45.86726705776545" lon="11.241224142979641"><ele>1548.5</ele><time>2026-05-02T12:16:26.998Z</time></trkpt><trkpt lat="45.86733732152567" lon="11.241115567633994"><ele>1549.25</ele><time>2026-05-02T12:16:27.997Z</time></trkpt><trkpt lat="45.867411912261566" lon="11.240976264000011"><ele>1550.0</ele><time>2026-05-02T12:16:28.997Z</time></trkpt><trkpt lat="45.867495402743096" lon="11.240820339326818"><ele>1550.0</ele><time>2026-05-02T12:16:29.997Z</time></trkpt><trkpt lat="45.867584895685155" lon="11.240663635765806"><ele>1550.0</ele><time>2026-05-02T12:16:30.997Z</time></trkpt><trkpt lat="45.86769170590727" lon="11.240540312989872"><ele>1550.0</ele><time>2026-05-02T12:16:32Z</time></trkpt><trkpt lat="45.867806799579306" lon="11.24042720307466"><ele>1550.0</ele><time>2026-05-02T12:16:33Z</time></trkpt><trkpt lat="45.86790867573261" lon="11.240293770134587"><ele>1549.5</ele><time>2026-05-02T12:16:34Z</time></trkpt><trkpt lat="45.8680114518119" lon="11.240185873712198"><ele>1549.0</ele><time>2026-05-02T12:16:35Z</time></trkpt><trkpt lat="45.86806289357596" lon="11.240054696535502"><ele>1548.5</ele><time>2026-05-02T12:16:36Z</time></trkpt><trkpt lat="45.868085961958904" lon="11.23990765482799"><ele>1548.0</ele><time>2026-05-02T12:16:37Z</time></trkpt><trkpt lat="45.868080886939545" lon="11.239745856132476"><ele>1548.0</ele><time>2026-05-02T12:16:38Z</time></trkpt><trkpt lat="45.868055119400886" lon="11.239577925622433"><ele>1548.0</ele><time>2026-05-02T12:16:39Z</time></trkpt><trkpt lat="45.868020535434844" lon="11.23941930369746"><ele>1548.0</ele><time>2026-05-02T12:16:40Z</time></trkpt><trkpt lat="45.86801238356391" lon="11.239268721205432"><ele>1548.0</ele><time>2026-05-02T12:16:41Z</time></trkpt><trkpt lat="45.8680628072346" lon="11.23911779449441"><ele>1547.75</ele><time>2026-05-02T12:16:42Z</time></trkpt><trkpt lat="45.8680995165937" lon="11.23892988641507"><ele>1547.5</ele><time>2026-05-02T12:16:43Z</time></trkpt><trkpt lat="45.86815531325814" lon="11.238732113265687"><ele>1547.25</ele><time>2026-05-02T12:16:44Z</time></trkpt><trkpt lat="45.86818813694194" lon="11.238518265411884"><ele>1547.0</ele><time>2026-05-02T12:16:45Z</time></trkpt><trkpt lat="45.868203366977106" lon="11.238307193836828"><ele>1545.5</ele><time>2026-05-02T12:16:46Z</time></trkpt><trkpt lat="45.868214681964794" lon="11.238111664504617"><ele>1544.0</ele><time>2026-05-02T12:16:47Z</time></trkpt><trkpt lat="45.86822216475293" lon="11.237932474558383"><ele>1542.5</ele><time>2026-05-02T12:16:48Z</time></trkpt><trkpt lat="45.868212903071395" lon="11.23777617152224"><ele>1541.0</ele><time>2026-05-02T12:16:49Z</time></trkpt><trkpt lat="45.86818855254583" lon="11.237638218441413"><ele>1541.0</ele><time>2026-05-02T12:16:50Z</time></trkpt><trkpt lat="45.86815522646468" lon="11.237510525929643"><ele>1541.0</ele><time>2026-05-02T12:16:51Z</time></trkpt><trkpt lat="45.8681358645259" lon="11.237390391879021"><ele>1541.0</ele><time>2026-05-02T12:16:52Z</time></trkpt><trkpt lat="45.868144233969204" lon="11.237272816055704"><ele>1541.0</ele><time>2026-05-02T12:16:53Z</time></trkpt><trkpt lat="45.86821091143145" lon="11.237164865754487"><ele>1541.0</ele><time>2026-05-02T12:16:54Z</time></trkpt><trkpt lat="45.86827729112289" lon="11.237049985339764"><ele>1540.0</ele><time>2026-05-02T12:16:55Z</time></trkpt><trkpt lat="45.868360093263895" lon="11.236953964383979"><ele>1539.0</ele><time>2026-05-02T12:16:56Z</time></trkpt><trkpt lat="45.86846821608627" lon="11.23688988664142"><ele>1538.0</ele><time>2026-05-02T12:16:57Z</time></trkpt><trkpt lat="45.868590690645725" lon="11.236812985067177"><ele>1537.0</ele><time>2026-05-02T12:16:58Z</time></trkpt><trkpt lat="45.8687244504555" lon="11.236755091034373"><ele>1537.0</ele><time>2026-05-02T12:16:59Z</time></trkpt><trkpt lat="45.86886465962577" lon="11.236672847887133"><ele>1537.0</ele><time>2026-05-02T12:17:00Z</time></trkpt><trkpt lat="45.869006811934824" lon="11.236551959232974"><ele>1537.0</ele><time>2026-05-02T12:17:01Z</time></trkpt><trkpt lat="45.8691351079613" lon="11.236398059028154"><ele>1534.3333333333335</ele><time>2026-05-02T12:17:02Z</time></trkpt><trkpt lat="45.86925487182783" lon="11.236219319816485"><ele>1531.6666666666667</ele><time>2026-05-02T12:17:03Z</time></trkpt><trkpt lat="45.86937741843445" lon="11.23603798604913"><ele>1529.0</ele><time>2026-05-02T12:17:04Z</time></trkpt><trkpt lat="45.86950935574748" lon="11.235856849218964"><ele>1532.0</ele><time>2026-05-02T12:17:05Z</time></trkpt><trkpt lat="45.869644799471544" lon="11.23567701067314"><ele>1535.0</ele><time>2026-05-02T12:17:06Z</time></trkpt><trkpt lat="45.869770301733" lon="11.235511079766315"><ele>1538.0</ele><time>2026-05-02T12:17:06.999Z</time></trkpt><trkpt lat="45.86987809325115" lon="11.235351965889874"><ele>1538.0</ele><time>2026-05-02T12:17:07.999Z</time></trkpt><trkpt lat="45.86995561665211" lon="11.235182148380364"><ele>1538.0</ele><time>2026-05-02T12:17:08.999Z</time></trkpt><trkpt lat="45.870001277371145" lon="11.234998985752188"><ele>1538.0</ele><time>2026-05-02T12:17:09.999Z</time></trkpt><trkpt lat="45.87003424378428" lon="11.23481042697275"><ele>1538.0</ele><time>2026-05-02T12:17:10.999Z</time></trkpt><trkpt lat="45.870054487416986" lon="11.23462024651033"><ele>1538.0</ele><time>2026-05-02T12:17:11.999Z</time></trkpt><trkpt lat="45.870131482393546" lon="11.234468509284143"><ele>1538.0</ele><time>2026-05-02T12:17:12.999Z</time></trkpt><trkpt lat="45.870220279557756" lon="11.234299944387715"><ele>1538.0</ele><time>2026-05-02T12:17:13.999Z</time></trkpt><trkpt lat="45.870304379367326" lon="11.234105127555758"><ele>1538.0</ele><time>2026-05-02T12:17:14.999Z</time></trkpt><trkpt lat="45.87040656906617" lon="11.23392309991491"><ele>1538.0</ele><time>2026-05-02T12:17:15.999Z</time></trkpt><trkpt lat="45.87050479716878" lon="11.233730973237662"><ele>1538.0</ele><time>2026-05-02T12:17:16.999Z</time></trkpt><trkpt lat="45.87059554774466" lon="11.233550247441103"><ele>1538.0</ele><time>2026-05-02T12:17:17.999Z</time></trkpt><trkpt lat="45.870676157494714" lon="11.233379263177255"><ele>1538.0</ele><time>2026-05-02T12:17:18.999Z</time></trkpt><trkpt lat="45.870750054479615" lon="11.233221852978984"><ele>1538.0</ele><time>2026-05-02T12:17:19.999Z</time></trkpt><trkpt lat="45.87084385730481" lon="11.233093893682566"><ele>1538.0</ele><time>2026-05-02T12:17:20.999Z</time></trkpt><trkpt lat="45.870921017321024" lon="11.23294184889474"><ele>1538.0</ele><time>2026-05-02T12:17:21.999Z</time></trkpt><trkpt lat="45.87101036712524" lon="11.232813951211638"><ele>1539.8000000000002</ele><time>2026-05-02T12:17:22.999Z</time></trkpt><trkpt lat="45.87109247491264" lon="11.232693436838913"><ele>1541.6</ele><time>2026-05-02T12:17:23.999Z</time></trkpt><trkpt lat="45.87116668558299" lon="11.232583676699301"><ele>1543.4</ele><time>2026-05-02T12:17:24.999Z</time></trkpt><trkpt lat="45.87123349439698" lon="11.232487363011785"><ele>1545.1999999999998</ele><time>2026-05-02T12:17:25.999Z</time></trkpt><trkpt lat="45.87128689965065" lon="11.232408199344897"><ele>1547.0</ele><time>2026-05-02T12:17:26.999Z</time></trkpt><trkpt lat="45.87135956769792" lon="11.232308961617813"><ele>1545.6</ele><time>2026-05-02T12:17:28.999Z</time></trkpt><trkpt lat="45.871254431229325" lon="11.23227764591656"><ele>1544.1999999999998</ele><time>2026-05-02T12:17:32.999Z</time></trkpt><trkpt lat="45.87116285546972" lon="11.232284843032815"><ele>1542.8</ele><time>2026-05-02T12:17:34.999Z</time></trkpt><trkpt lat="45.87109721063285" lon="11.232259389095038"><ele>1541.4</ele><time>2026-05-02T12:17:36.999Z</time></trkpt><trkpt lat="45.871026364441185" lon="11.23223191835784"><ele>1540.0</ele><time>2026-05-02T12:17:38.999Z</time></trkpt><trkpt lat="45.87105125934472" lon="11.231783781722863"><ele>1540.0</ele><time>2026-05-02T12:17:40.999Z</time></trkpt><trkpt lat="45.870976155268984" lon="11.231727549015085"><ele>1540.0</ele><time>2026-05-02T12:17:43.999Z</time></trkpt></trkseg></trk></gpx>